GFSNW_prec_precacc24_027.txt.gz
Total_Precipitation_Accumulation
0.22 0.29 0.26 0.21 0.26 0.31 0.31 0.25 0.09 0.03 0.04 0.19 0.06 0.01 0.00 0.00 0.00 0.00 0.00 0.00 0.00 0.00 0.00 0.00 0.00 0.00 0.00 0.00 0.00 0.00 0.00 0.00 0.00 0.00 0.00 0.00 0.00 0.00 0.00 0.00 0.00 0.00 0.00 0.00
0.27 0.33 0.42 0.30 0.27 0.34 0.31 0.31 0.25 0.30 0.09 0.07 0.02 0.00 0.00 0.00 0.00 0.00 0.00 0.00 0.00 0.00 0.00 0.00 0.00 0.00 0.00 0.00 0.01 0.00 0.00 0.00 0.00 0.00 0.00 0.00 0.00 0.00 0.00 0.00 0.00 0.00 0.00 0.00
0.41 0.39 0.46 0.43 0.29 0.31 0.34 0.31 0.36 0.65 0.27 0.00 0.00 0.00 0.00 0.00 0.00 0.00 0.00 0.00 0.00 0.00 0.00 0.00 0.00 0.00 0.00 0.00 0.01 0.01 0.01 0.00 0.00 0.00 0.00 0.00 0.00 0.00 0.00 0.00 0.00 0.00 0.00 0.00
0.58 0.47 0.46 0.47 0.34 0.31 0.58 0.42 0.11 0.14 0.10 0.01 0.00 0.00 0.00 0.00 0.00 0.00 0.00 0.00 0.00 0.00 0.00 0.00 0.00 0.00 0.00 0.00 0.00 0.00 0.01 0.00 0.00 0.00 0.00 0.00 0.00 0.00 0.00 0.00 0.00 0.00 0.00 0.00
0.53 0.60 0.49 0.43 0.38 0.43 0.90 0.43 0.06 0.05 0.01 0.00 0.00 0.01 0.00 0.00 0.00 0.00 0.00 0.00 0.00 0.00 0.00 0.00 0.00 0.00 0.00 0.00 0.00 0.00 0.00 0.00 0.00 0.00 0.00 0.00 0.00 0.00 0.00 0.00 0.00 0.00 0.00 0.00
0.41 0.62 0.49 0.41 0.43 0.76 1.05 0.31 0.02 0.08 0.04 0.01 0.01 0.00 0.00 0.00 0.00 0.00 0.00 0.00 0.00 0.00 0.00 0.01 0.00 0.00 0.00 0.00 0.00 0.00 0.00 0.00 0.00 0.00 0.00 0.00 0.00 0.00 0.00 0.00 0.00 0.00 0.00 0.00
0.34 0.53 0.51 0.40 0.43 0.65 0.40 0.13 0.09 0.25 0.11 0.02 0.00 0.00 0.00 0.00 0.00 0.00 0.00 0.00 0.00 0.00 0.00 0.00 0.00 0.00 0.02 0.08 0.09 0.01 0.02 0.01 0.00 0.00 0.00 0.00 0.00 0.00 0.00 0.00 0.00 0.00 0.00 0.00
0.34 0.40 0.45 0.35 0.36 0.36 0.25 0.10 0.16 0.47 0.21 0.02 0.01 0.00 0.00 0.00 0.00 0.00 0.00 0.00 0.00 0.00 0.01 0.03 0.02 0.02 0.02 0.01 0.03 0.04 0.08 0.02 0.00 0.00 0.00 0.00 0.00 0.00 0.00 0.00 0.00 0.00 0.00 0.00
0.34 0.31 0.32 0.29 0.26 0.25 0.29 0.19 0.30 0.64 0.41 0.06 0.01 0.01 0.00 0.00 0.01 0.02 0.03 0.02 0.01 0.01 0.02 0.03 0.02 0.02 0.01 0.00 0.00 0.00 0.01 0.03 0.01 0.00 0.00 0.00 0.00 0.00 0.00 0.00 0.00 0.00 0.00 0.00
0.32 0.25 0.23 0.19 0.15 0.17 0.26 0.29 0.51 0.79 0.52 0.16 0.04 0.01 0.01 0.01 0.01 0.02 0.05 0.07 0.04 0.03 0.08 0.04 0.01 0.01 0.01 0.00 0.00 0.00 0.00 0.00 0.00 0.00 0.00 0.00 0.00 0.00 0.00 0.00 0.00 0.00 0.00 0.00
0.27 0.22 0.15 0.13 0.11 0.13 0.27 0.36 0.58 1.00 0.62 0.15 0.19 0.08 0.01 0.01 0.00 0.04 0.03 0.14 0.12 0.09 0.08 0.04 0.02 0.01 0.00 0.00 0.00 0.00 0.00 0.00 0.00 0.00 0.00 0.00 0.00 0.00 0.00 0.00 0.00 0.00 0.00 0.00
0.20 0.16 0.08 0.09 0.09 0.12 0.28 0.39 0.42 0.74 0.91 0.31 0.24 0.07 0.01 0.00 0.00 0.01 0.01 0.06 0.03 0.04 0.04 0.02 0.04 0.01 0.00 0.00 0.00 0.00 0.00 0.00 0.00 0.00 0.00 0.00 0.00 0.00 0.00 0.00 0.00 0.00 0.00 0.00
0.15 0.12 0.08 0.10 0.11 0.11 0.29 0.40 0.41 1.16 0.89 0.55 0.18 0.15 0.03 0.00 0.00 0.01 0.03 0.01 0.03 0.05 0.04 0.05 0.04 0.02 0.00 0.00 0.00 0.00 0.00 0.00 0.00 0.00 0.00 0.00 0.00 0.00 0.00 0.00 0.00 0.00 0.00 0.00
0.13 0.10 0.10 0.14 0.15 0.14 0.37 0.43 0.74 1.85 0.87 0.98 0.47 0.22 0.11 0.09 0.01 0.00 0.02 0.02 0.02 0.05 0.09 0.06 0.04 0.02 0.01 0.01 0.00 0.00 0.00 0.00 0.00 0.00 0.00 0.00 0.00 0.00 0.00 0.00 0.00 0.00 0.00 0.00
0.13 0.12 0.11 0.14 0.14 0.20 0.44 0.49 1.10 1.38 1.02 0.80 0.81 0.16 0.16 0.16 0.14 0.03 0.06 0.05 0.04 0.08 0.11 0.07 0.03 0.01 0.02 0.01 0.00 0.00 0.00 0.00 0.00 0.00 0.00 0.00 0.00 0.00 0.00 0.00 0.00 0.00 0.00 0.00
0.13 0.15 0.17 0.16 0.16 0.33 0.71 1.07 0.98 0.95 0.71 0.81 0.95 0.39 0.15 0.18 0.23 0.18 0.08 0.12 0.12 0.08 0.07 0.03 0.02 0.01 0.01 0.00 0.00 0.00 0.00 0.01 0.00 0.00 0.00 0.00 0.00 0.00 0.00 0.00 0.00 0.00 0.00 0.00
0.20 0.20 0.24 0.25 0.23 0.41 0.94 0.98 0.85 0.68 0.57 0.62 0.70 0.69 0.30 0.20 0.20 0.23 0.42 0.16 0.13 0.16 0.10 0.03 0.00 0.01 0.01 0.00 0.00 0.00 0.00 0.00 0.00 0.00 0.00 0.00 0.00 0.00 0.00 0.00 0.00 0.00 0.00 0.00
0.19 0.20 0.22 0.34 0.37 0.65 0.97 0.81 1.05 0.65 0.43 0.44 0.42 0.57 0.51 0.30 0.26 0.21 0.38 0.38 0.22 0.17 0.10 0.07 0.03 0.01 0.00 0.00 0.00 0.00 0.00 0.00 0.00 0.00 0.00 0.00 0.00 0.00 0.00 0.00 0.00 0.00 0.00 0.00
0.17 0.20 0.36 0.59 0.74 1.01 0.93 0.96 1.21 0.81 0.51 0.43 0.17 0.20 0.48 0.44 0.44 0.22 0.21 0.36 0.35 0.22 0.13 0.05 0.07 0.07 0.02 0.00 0.00 0.00 0.00 0.00 0.00 0.00 0.00 0.00 0.00 0.00 0.00 0.00 0.00 0.00 0.00 0.00
0.28 0.53 0.73 0.79 0.81 0.90 0.85 1.09 1.21 0.95 0.56 0.41 0.25 0.14 0.20 0.33 0.55 0.51 0.22 0.19 0.24 0.29 0.27 0.15 0.05 0.03 0.04 0.01 0.00 0.00 0.00 0.00 0.00 0.00 0.00 0.00 0.00 0.00 0.00 0.00 0.00 0.00 0.01 0.01
0.55 0.57 0.76 0.76 0.90 1.02 1.06 0.97 0.68 0.67 0.39 0.16 0.21 0.21 0.20 0.16 0.34 0.54 0.42 0.36 0.16 0.11 0.16 0.19 0.22 0.06 0.00 0.00 0.01 0.00 0.01 0.01 0.01 0.00 0.00 0.00 0.00 0.00 0.00 0.00 0.01 0.00 0.00 0.00
0.47 0.63 0.66 0.89 1.00 0.77 0.62 0.52 0.45 0.35 0.14 0.04 0.08 0.22 0.25 0.14 0.19 0.38 0.51 0.30 0.27 0.07 0.03 0.08 0.11 0.08 0.05 0.04 0.03 0.02 0.03 0.05 0.07 0.06 0.04 0.02 0.01 0.00 0.00 0.00 0.00 0.00 0.01 0.01
0.70 0.44 0.60 0.60 0.53 0.43 0.33 0.27 0.29 0.16 0.04 0.03 0.03 0.04 0.29 0.27 0.15 0.17 0.35 0.44 0.23 0.09 0.07 0.05 0.02 0.01 0.03 0.08 0.12 0.13 0.11 0.04 0.02 0.03 0.03 0.03 0.03 0.03 0.03 0.03 0.04 0.05 0.06 0.06
0.46 0.47 0.45 0.51 0.40 0.26 0.23 0.20 0.11 0.04 0.04 0.06 0.02 0.00 0.11 0.35 0.22 0.18 0.12 0.18 0.17 0.18 0.12 0.07 0.05 0.05 0.04 0.03 0.02 0.01 0.02 0.01 0.01 0.01 0.02 0.05 0.08 0.12 0.13 0.12 0.10 0.08 0.06 0.05
0.38 0.48 0.47 0.33 0.31 0.29 0.27 0.17 0.06 0.06 0.06 0.04 0.03 0.06 0.03 0.11 0.27 0.22 0.16 0.16 0.13 0.11 0.10 0.11 0.11 0.07 0.03 0.02 0.01 0.02 0.05 0.09 0.14 0.17 0.17 0.17 0.15 0.12 0.12 0.10 0.08 0.05 0.03 0.02
0.38 0.44 0.34 0.24 0.20 0.18 0.15 0.10 0.07 0.06 0.05 0.04 0.09 0.14 0.08 0.13 0.08 0.14 0.16 0.17 0.13 0.14 0.14 0.13 0.16 0.19 0.19 0.19 0.21 0.25 0.26 0.24 0.19 0.16 0.11 0.08 0.07 0.05 0.04 0.03 0.02 0.01 0.00 0.00
0.30 0.49 0.52 0.33 0.23 0.26 0.26 0.22 0.15 0.10 0.09 0.14 0.12 0.13 0.18 0.19 0.14 0.13 0.14 0.24 0.31 0.34 0.31 0.27 0.28 0.34 0.34 0.34 0.33 0.28 0.18 0.13 0.10 0.09 0.08 0.06 0.05 0.02 0.01 0.00 0.00 0.00 0.00 0.00

GFSNW_prec_precacc24_030.txt.gz
Total_Precipitation_Accumulation
0.21 0.28 0.28 0.23 0.28 0.33 0.36 0.38 0.21 0.05 0.05 0.24 0.14 0.03 0.00 0.00 0.00 0.00 0.00 0.00 0.00 0.00 0.00 0.00 0.00 0.00 0.00 0.00 0.00 0.00 0.00 0.00 0.00 0.00 0.00 0.00 0.00 0.00 0.00 0.00 0.00 0.00 0.00 0.00
0.34 0.33 0.45 0.35 0.31 0.38 0.35 0.44 0.32 0.34 0.11 0.09 0.04 0.01 0.00 0.00 0.00 0.00 0.00 0.00 0.00 0.00 0.00 0.00 0.00 0.00 0.00 0.00 0.01 0.00 0.00 0.00 0.00 0.00 0.00 0.00 0.00 0.00 0.00 0.00 0.00 0.00 0.00 0.00
0.57 0.59 0.56 0.54 0.39 0.38 0.37 0.40 0.48 0.78 0.33 0.01 0.00 0.00 0.01 0.00 0.00 0.00 0.00 0.00 0.00 0.00 0.00 0.00 0.00 0.00 0.00 0.00 0.01 0.01 0.01 0.00 0.00 0.00 0.00 0.00 0.00 0.00 0.00 0.00 0.00 0.00 0.00 0.00
0.52 0.72 0.77 0.68 0.55 0.43 0.63 0.55 0.19 0.20 0.14 0.01 0.00 0.00 0.00 0.00 0.00 0.00 0.00 0.00 0.00 0.00 0.00 0.00 0.00 0.00 0.00 0.00 0.00 0.00 0.01 0.00 0.00 0.00 0.00 0.00 0.00 0.00 0.00 0.00 0.00 0.00 0.00 0.00
0.44 0.77 0.80 0.75 0.66 0.61 0.99 0.57 0.08 0.06 0.01 0.00 0.00 0.01 0.00 0.00 0.00 0.00 0.00 0.00 0.00 0.00 0.00 0.00 0.00 0.00 0.00 0.00 0.00 0.00 0.00 0.00 0.00 0.00 0.00 0.00 0.00 0.00 0.00 0.00 0.00 0.00 0.00 0.00
0.37 0.71 0.83 0.76 0.72 1.02 1.22 0.37 0.02 0.10 0.05 0.01 0.01 0.00 0.00 0.00 0.00 0.00 0.00 0.00 0.00 0.00 0.00 0.01 0.01 0.00 0.00 0.00 0.00 0.00 0.00 0.00 0.00 0.00 0.00 0.00 0.00 0.00 0.00 0.00 0.00 0.00 0.00 0.00
0.35 0.56 0.84 0.78 0.74 0.93 0.44 0.14 0.10 0.29 0.15 0.04 0.00 0.00 0.00 0.00 0.00 0.00 0.00 0.00 0.01 0.00 0.00 0.00 0.00 0.00 0.02 0.08 0.09 0.01 0.02 0.01 0.00 0.00 0.00 0.00 0.00 0.00 0.00 0.00 0.00 0.00 0.00 0.00
0.36 0.42 0.73 0.79 0.61 0.48 0.25 0.10 0.16 0.49 0.23 0.03 0.01 0.00 0.00 0.00 0.00 0.00 0.00 0.00 0.00 0.00 0.01 0.03 0.03 0.03 0.02 0.01 0.03 0.04 0.08 0.02 0.00 0.00 0.00 0.00 0.00 0.00 0.00 0.00 0.00 0.00 0.00 0.00
0.37 0.33 0.55 0.74 0.43 0.29 0.29 0.19 0.31 0.65 0.44 0.09 0.04 0.02 0.01 0.01 0.01 0.02 0.03 0.02 0.01 0.01 0.03 0.03 0.03 0.03 0.01 0.00 0.00 0.00 0.01 0.03 0.01 0.00 0.00 0.00 0.00 0.00 0.00 0.00 0.00 0.00 0.00 0.00
0.35 0.27 0.38 0.52 0.28 0.20 0.26 0.29 0.52 0.81 0.55 0.22 0.10 0.06 0.03 0.01 0.01 0.03 0.05 0.07 0.04 0.03 0.08 0.04 0.01 0.01 0.01 0.00 0.00 0.00 0.00 0.00 0.00 0.00 0.00 0.00 0.00 0.00 0.00 0.00 0.00 0.00 0.00 0.00
0.28 0.24 0.23 0.29 0.21 0.19 0.27 0.36 0.59 1.02 0.65 0.19 0.26 0.13 0.07 0.02 0.00 0.04 0.03 0.14 0.12 0.09 0.08 0.04 0.02 0.01 0.00 0.00 0.00 0.00 0.00 0.00 0.00 0.00 0.00 0.00 0.00 0.00 0.00 0.00 0.00 0.00 0.00 0.00
0.22 0.19 0.15 0.20 0.24 0.24 0.30 0.39 0.43 0.75 0.92 0.37 0.35 0.14 0.04 0.00 0.00 0.01 0.01 0.06 0.03 0.04 0.04 0.02 0.03 0.01 0.00 0.00 0.00 0.00 0.00 0.00 0.00 0.00 0.00 0.00 0.00 0.00 0.00 0.00 0.00 0.00 0.00 0.00
0.17 0.17 0.15 0.20 0.28 0.19 0.30 0.41 0.41 1.16 0.88 0.56 0.23 0.22 0.05 0.00 0.00 0.01 0.03 0.01 0.03 0.05 0.04 0.05 0.04 0.02 0.00 0.00 0.00 0.00 0.00 0.00 0.00 0.00 0.00 0.00 0.00 0.00 0.00 0.00 0.00 0.00 0.00 0.00
0.17 0.17 0.18 0.25 0.28 0.21 0.39 0.43 0.72 1.83 0.86 0.99 0.48 0.31 0.14 0.10 0.02 0.00 0.02 0.02 0.02 0.06 0.09 0.06 0.03 0.02 0.01 0.01 0.00 0.00 0.00 0.00 0.00 0.00 0.00 0.00 0.00 0.00 0.00 0.00 0.00 0.00 0.00 0.00
0.19 0.21 0.24 0.32 0.33 0.30 0.47 0.49 1.09 1.35 1.00 0.81 0.80 0.20 0.24 0.19 0.15 0.03 0.06 0.05 0.04 0.09 0.11 0.07 0.03 0.01 0.02 0.01 0.00 0.00 0.00 0.00 0.00 0.00 0.00 0.00 0.00 0.00 0.00 0.00 0.00 0.00 0.00 0.00
0.18 0.21 0.27 0.31 0.27 0.38 0.72 1.09 0.99 0.94 0.71 0.84 1.00 0.41 0.21 0.32 0.28 0.22 0.09 0.12 0.12 0.09 0.09 0.04 0.02 0.01 0.01 0.00 0.00 0.00 0.00 0.01 0.01 0.00 0.00 0.00 0.00 0.00 0.00 0.00 0.00 0.00 0.00 0.00
0.19 0.19 0.23 0.25 0.24 0.42 0.95 0.98 0.85 0.67 0.59 0.71 0.78 0.71 0.33 0.32 0.45 0.43 0.48 0.17 0.14 0.16 0.12 0.05 0.02 0.01 0.01 0.00 0.00 0.00 0.00 0.00 0.00 0.00 0.00 0.00 0.00 0.00 0.00 0.00 0.00 0.00 0.00 0.00
0.19 0.19 0.19 0.25 0.32 0.65 1.01 0.84 1.05 0.65 0.51 0.56 0.52 0.64 0.55 0.34 0.49 0.48 0.54 0.53 0.26 0.20 0.12 0.08 0.04 0.02 0.00 0.00 0.00 0.00 0.00 0.00 0.00 0.00 0.00 0.00 0.00 0.00 0.00 0.00 0.00 0.00 0.00 0.00
0.17 0.20 0.36 0.61 0.75 1.06 1.01 0.99 1.22 0.82 0.63 0.51 0.20 0.25 0.50 0.47 0.47 0.25 0.30 0.59 0.50 0.25 0.13 0.05 0.08 0.08 0.02 0.00 0.00 0.00 0.00 0.00 0.00 0.00 0.00 0.00 0.00 0.00 0.00 0.00 0.00 0.00 0.00 0.00
0.31 0.58 0.79 0.83 0.82 1.00 0.96 1.14 1.28 1.06 0.63 0.46 0.26 0.14 0.20 0.33 0.57 0.54 0.34 0.32 0.32 0.33 0.28 0.15 0.06 0.04 0.04 0.01 0.00 0.00 0.00 0.00 0.00 0.00 0.00 0.00 0.00 0.00 0.00 0.00 0.00 0.00 0.00 0.00
0.57 0.61 0.78 0.78 1.05 1.14 1.09 0.98 0.73 0.72 0.40 0.16 0.21 0.22 0.31 0.18 0.34 0.55 0.46 0.47 0.19 0.12 0.17 0.20 0.22 0.07 0.00 0.00 0.01 0.01 0.01 0.01 0.01 0.00 0.00 0.00 0.00 0.00 0.00 0.00 0.00 0.00 0.00 0.00
0.51 0.67 0.68 0.94 1.06 0.77 0.64 0.55 0.46 0.36 0.15 0.04 0.08 0.23 0.32 0.19 0.19 0.38 0.51 0.31 0.30 0.09 0.03 0.08 0.12 0.08 0.05 0.04 0.03 0.02 0.03 0.05 0.07 0.06 0.04 0.03 0.02 0.02 0.01 0.01 0.01 0.01 0.02 0.05
0.76 0.48 0.62 0.62 0.55 0.45 0.34 0.30 0.35 0.23 0.05 0.04 0.03 0.04 0.30 0.30 0.19 0.17 0.36 0.45 0.24 0.10 0.10 0.10 0.06 0.02 0.02 0.08 0.13 0.13 0.12 0.10 0.09 0.09 0.09 0.07 0.07 0.06 0.04 0.05 0.08 0.12 0.18 0.22
0.49 0.49 0.46 0.57 0.45 0.34 0.27 0.30 0.30 0.11 0.05 0.07 0.03 0.01 0.12 0.39 0.33 0.23 0.15 0.21 0.17 0.22 0.23 0.15 0.11 0.10 0.10 0.10 0.09 0.07 0.06 0.05 0.05 0.06 0.08 0.13 0.18 0.24 0.26 0.26 0.25 0.22 0.20 0.20
0.43 0.57 0.61 0.45 0.41 0.42 0.47 0.38 0.25 0.17 0.15 0.09 0.09 0.10 0.03 0.15 0.44 0.37 0.20 0.17 0.14 0.13 0.15 0.17 0.21 0.22 0.22 0.19 0.17 0.15 0.14 0.15 0.19 0.23 0.24 0.28 0.25 0.20 0.23 0.23 0.20 0.16 0.14 0.12
0.48 0.58 0.47 0.39 0.38 0.39 0.38 0.29 0.22 0.21 0.18 0.11 0.15 0.16 0.05 0.09 0.07 0.16 0.16 0.16 0.14 0.16 0.20 0.23 0.26 0.31 0.35 0.37 0.40 0.45 0.43 0.41 0.36 0.32 0.24 0.19 0.17 0.13 0.11 0.12 0.10 0.08 0.06 0.05
0.42 0.59 0.65 0.51 0.38 0.40 0.38 0.31 0.21 0.15 0.08 0.10 0.09 0.11 0.15 0.15 0.11 0.13 0.15 0.25 0.36 0.42 0.40 0.37 0.39 0.46 0.49 0.49 0.47 0.41 0.31 0.24 0.21 0.19 0.17 0.15 0.13 0.08 0.04 0.04 0.04 0.02 0.01 0.01

GFSNW_prec_precacc24_033.txt.gz
Total_Precipitation_Accumulation
0.23 0.28 0.19 0.16 0.25 0.37 0.45 0.45 0.24 0.07 0.09 0.31 0.17 0.05 0.00 0.00 0.00 0.00 0.00 0.00 0.00 0.00 0.00 0.00 0.00 0.00 0.00 0.00 0.00 0.00 0.00 0.00 0.00 0.00 0.00 0.00 0.00 0.00 0.00 0.00 0.00 0.00 0.00 0.00
0.36 0.33 0.34 0.23 0.29 0.47 0.51 0.55 0.33 0.42 0.15 0.15 0.06 0.01 0.00 0.00 0.00 0.00 0.00 0.00 0.00 0.00 0.00 0.00 0.00 0.00 0.00 0.00 0.01 0.00 0.00 0.00 0.00 0.00 0.00 0.00 0.00 0.00 0.00 0.00 0.00 0.00 0.00 0.00
0.56 0.56 0.50 0.46 0.42 0.49 0.52 0.53 0.52 0.95 0.40 0.02 0.01 0.00 0.01 0.00 0.00 0.00 0.00 0.00 0.00 0.00 0.00 0.00 0.00 0.00 0.00 0.00 0.01 0.01 0.01 0.00 0.00 0.00 0.00 0.00 0.00 0.00 0.00 0.00 0.00 0.00 0.00 0.00
0.48 0.56 0.75 0.75 0.74 0.65 0.93 0.86 0.30 0.33 0.20 0.03 0.00 0.00 0.00 0.00 0.00 0.00 0.00 0.00 0.00 0.00 0.01 0.01 0.00 0.00 0.00 0.00 0.00 0.00 0.01 0.00 0.00 0.00 0.00 0.00 0.00 0.00 0.00 0.00 0.00 0.00 0.00 0.00
0.33 0.55 0.66 0.88 1.03 1.04 1.47 0.94 0.14 0.08 0.02 0.00 0.00 0.01 0.00 0.00 0.00 0.00 0.00 0.00 0.00 0.02 0.01 0.02 0.04 0.00 0.00 0.00 0.00 0.00 0.00 0.00 0.00 0.00 0.00 0.00 0.00 0.00 0.00 0.00 0.00 0.00 0.00 0.00
0.25 0.49 0.69 0.85 1.16 1.59 1.94 0.66 0.03 0.13 0.06 0.03 0.03 0.01 0.00 0.00 0.00 0.00 0.00 0.00 0.00 0.00 0.01 0.03 0.05 0.01 0.00 0.00 0.00 0.00 0.00 0.00 0.00 0.00 0.00 0.00 0.00 0.00 0.00 0.00 0.00 0.00 0.00 0.00
0.25 0.39 0.70 0.84 1.14 1.52 0.88 0.27 0.11 0.32 0.18 0.07 0.00 0.00 0.00 0.00 0.00 0.00 0.00 0.00 0.01 0.00 0.00 0.00 0.01 0.02 0.04 0.09 0.09 0.01 0.02 0.01 0.00 0.00 0.00 0.00 0.00 0.00 0.00 0.00 0.00 0.00 0.00 0.00
0.29 0.32 0.64 0.82 0.98 0.96 0.42 0.11 0.17 0.51 0.26 0.05 0.02 0.00 0.00 0.00 0.00 0.00 0.00 0.00 0.00 0.00 0.01 0.03 0.03 0.05 0.06 0.04 0.03 0.04 0.08 0.03 0.00 0.00 0.00 0.00 0.00 0.00 0.00 0.00 0.00 0.00 0.00 0.00
0.31 0.30 0.51 0.77 0.77 0.69 0.33 0.22 0.31 0.67 0.47 0.11 0.04 0.03 0.01 0.02 0.03 0.04 0.03 0.02 0.01 0.01 0.03 0.03 0.03 0.03 0.03 0.04 0.04 0.00 0.01 0.03 0.02 0.01 0.00 0.00 0.00 0.00 0.00 0.00 0.00 0.00 0.00 0.00
0.33 0.30 0.39 0.60 0.53 0.46 0.29 0.34 0.53 0.83 0.58 0.25 0.13 0.09 0.05 0.02 0.02 0.06 0.07 0.10 0.07 0.04 0.08 0.04 0.01 0.01 0.01 0.01 0.07 0.03 0.00 0.00 0.01 0.02 0.00 0.00 0.00 0.00 0.00 0.00 0.00 0.00 0.00 0.00
0.30 0.28 0.25 0.40 0.39 0.45 0.35 0.38 0.60 1.05 0.69 0.25 0.32 0.19 0.12 0.03 0.02 0.07 0.05 0.19 0.15 0.11 0.08 0.03 0.02 0.02 0.00 0.00 0.00 0.04 0.02 0.01 0.02 0.01 0.02 0.00 0.00 0.00 0.00 0.00 0.00 0.00 0.00 0.00
0.23 0.21 0.16 0.27 0.38 0.56 0.36 0.39 0.44 0.77 1.00 0.44 0.36 0.16 0.09 0.02 0.00 0.01 0.03 0.08 0.03 0.04 0.03 0.01 0.03 0.03 0.01 0.00 0.00 0.00 0.02 0.03 0.03 0.00 0.00 0.00 0.00 0.00 0.00 0.00 0.00 0.00 0.00 0.00
0.18 0.18 0.16 0.29 0.50 0.49 0.28 0.39 0.42 1.19 0.93 0.59 0.24 0.23 0.06 0.01 0.00 0.01 0.06 0.02 0.03 0.05 0.04 0.05 0.03 0.02 0.01 0.00 0.00 0.00 0.00 0.00 0.00 0.00 0.00 0.00 0.00 0.00 0.00 0.00 0.00 0.00 0.00 0.00
0.17 0.18 0.22 0.41 0.56 0.37 0.35 0.43 0.72 1.84 0.88 0.98 0.49 0.35 0.15 0.11 0.02 0.00 0.03 0.03 0.02 0.06 0.09 0.07 0.03 0.02 0.01 0.01 0.00 0.00 0.00 0.00 0.00 0.00 0.00 0.00 0.00 0.00 0.00 0.00 0.00 0.00 0.00 0.00
0.21 0.24 0.34 0.55 0.49 0.36 0.47 0.51 1.10 1.35 1.00 0.80 0.81 0.20 0.25 0.19 0.16 0.04 0.06 0.07 0.05 0.10 0.12 0.06 0.02 0.01 0.02 0.01 0.00 0.00 0.00 0.00 0.00 0.00 0.00 0.00 0.00 0.00 0.00 0.00 0.00 0.00 0.00 0.00
0.24 0.30 0.44 0.45 0.31 0.39 0.75 1.13 1.00 0.94 0.71 0.82 1.00 0.42 0.22 0.34 0.30 0.23 0.10 0.12 0.14 0.11 0.11 0.05 0.02 0.01 0.01 0.00 0.00 0.00 0.00 0.01 0.01 0.00 0.00 0.00 0.00 0.00 0.00 0.00 0.00 0.00 0.00 0.00
0.31 0.34 0.33 0.27 0.24 0.42 0.94 0.99 0.85 0.65 0.58 0.67 0.77 0.76 0.36 0.38 0.50 0.48 0.53 0.19 0.15 0.21 0.16 0.07 0.03 0.01 0.01 0.00 0.00 0.00 0.00 0.00 0.00 0.00 0.00 0.00 0.00 0.00 0.00 0.00 0.00 0.00 0.00 0.00
0.25 0.24 0.22 0.26 0.32 0.65 1.02 0.82 1.05 0.64 0.50 0.53 0.53 0.75 0.66 0.60 0.84 0.62 0.62 0.59 0.31 0.23 0.14 0.09 0.06 0.05 0.02 0.00 0.00 0.00 0.00 0.00 0.00 0.00 0.00 0.00 0.00 0.00 0.00 0.00 0.00 0.00 0.00 0.00
0.20 0.23 0.39 0.62 0.75 1.03 1.02 0.97 1.22 0.82 0.62 0.51 0.25 0.40 0.72 0.82 0.85 0.57 0.46 0.74 0.58 0.29 0.16 0.06 0.09 0.10 0.06 0.01 0.00 0.00 0.00 0.00 0.00 0.00 0.00 0.00 0.00 0.00 0.00 0.00 0.00 0.00 0.00 0.00
0.31 0.59 0.78 0.81 0.83 1.01 0.98 1.14 1.29 1.07 0.65 0.49 0.32 0.25 0.41 0.47 0.78 0.78 0.51 0.46 0.45 0.38 0.30 0.17 0.08 0.05 0.05 0.01 0.00 0.00 0.00 0.00 0.00 0.00 0.00 0.00 0.00 0.00 0.00 0.00 0.00 0.00 0.00 0.00
0.58 0.61 0.76 0.78 1.10 1.32 1.26 1.01 0.75 0.75 0.42 0.17 0.23 0.26 0.39 0.27 0.45 0.64 0.63 0.74 0.29 0.15 0.20 0.23 0.24 0.08 0.01 0.00 0.01 0.01 0.01 0.01 0.01 0.00 0.00 0.00 0.00 0.00 0.00 0.00 0.00 0.00 0.00 0.00
0.53 0.70 0.74 1.09 1.22 0.94 0.67 0.56 0.48 0.37 0.15 0.06 0.08 0.23 0.33 0.21 0.20 0.40 0.53 0.41 0.42 0.13 0.05 0.12 0.16 0.11 0.05 0.04 0.03 0.02 0.03 0.05 0.07 0.06 0.04 0.03 0.02 0.01 0.01 0.01 0.01 0.01 0.03 0.05
0.81 0.54 0.68 0.66 0.56 0.46 0.35 0.31 0.36 0.24 0.05 0.04 0.04 0.06 0.30 0.31 0.19 0.18 0.36 0.45 0.26 0.14 0.14 0.17 0.12 0.04 0.03 0.08 0.13 0.14 0.12 0.10 0.09 0.09 0.09 0.08 0.08 0.08 0.06 0.07 0.11 0.16 0.25 0.32
0.52 0.50 0.46 0.61 0.48 0.37 0.28 0.31 0.31 0.11 0.05 0.07 0.06 0.02 0.13 0.41 0.37 0.27 0.18 0.25 0.20 0.26 0.27 0.19 0.14 0.13 0.12 0.13 0.14 0.12 0.13 0.13 0.14 0.15 0.17 0.22 0.26 0.33 0.41 0.45 0.46 0.41 0.41 0.44
0.41 0.55 0.61 0.49 0.49 0.47 0.50 0.40 0.26 0.18 0.15 0.11 0.12 0.13 0.12 0.21 0.56 0.46 0.25 0.21 0.16 0.15 0.17 0.20 0.25 0.26 0.27 0.27 0.29 0.31 0.34 0.39 0.45 0.47 0.45 0.47 0.42 0.33 0.38 0.39 0.35 0.28 0.25 0.23
0.49 0.62 0.53 0.46 0.46 0.47 0.44 0.33 0.25 0.24 0.23 0.17 0.24 0.30 0.10 0.13 0.10 0.22 0.22 0.17 0.15 0.19 0.23 0.28 0.31 0.37 0.42 0.44 0.49 0.55 0.55 0.53 0.49 0.46 0.37 0.31 0.27 0.20 0.18 0.19 0.16 0.15 0.11 0.11
0.51 0.68 0.74 0.63 0.51 0.53 0.50 0.42 0.31 0.25 0.15 0.18 0.13 0.12 0.13 0.10 0.06 0.09 0.14 0.27 0.38 0.44 0.43 0.44 0.47 0.55 0.58 0.59 0.54 0.48 0.37 0.31 0.29 0.26 0.23 0.21 0.19 0.12 0.07 0.08 0.10 0.07 0.06 0.04

GFSNW_prec_precacc24_036.txt.gz
Total_Precipitation_Accumulation
0.23 0.28 0.21 0.17 0.23 0.31 0.46 0.52 0.29 0.07 0.13 0.38 0.23 0.06 0.00 0.00 0.00 0.00 0.00 0.00 0.00 0.00 0.00 0.00 0.00 0.00 0.00 0.00 0.00 0.00 0.00 0.00 0.00 0.00 0.00 0.00 0.00 0.00 0.00 0.00 0.00 0.00 0.00 0.00
0.36 0.33 0.35 0.25 0.27 0.44 0.58 0.71 0.33 0.43 0.18 0.17 0.09 0.02 0.00 0.00 0.00 0.00 0.00 0.00 0.00 0.00 0.00 0.01 0.00 0.00 0.00 0.00 0.01 0.00 0.00 0.00 0.00 0.00 0.00 0.00 0.00 0.00 0.00 0.00 0.00 0.00 0.03 0.00
0.55 0.57 0.52 0.45 0.42 0.54 0.62 0.76 0.64 0.97 0.43 0.03 0.01 0.01 0.01 0.00 0.00 0.00 0.00 0.00 0.00 0.01 0.06 0.01 0.01 0.00 0.00 0.00 0.01 0.01 0.01 0.00 0.00 0.00 0.00 0.00 0.00 0.00 0.00 0.00 0.00 0.00 0.00 0.00
0.46 0.55 0.75 0.75 0.74 0.75 1.18 1.29 0.56 0.41 0.25 0.06 0.01 0.00 0.00 0.00 0.00 0.00 0.00 0.00 0.00 0.00 0.03 0.05 0.03 0.04 0.01 0.00 0.00 0.00 0.01 0.00 0.00 0.00 0.00 0.00 0.00 0.00 0.00 0.00 0.00 0.00 0.00 0.00
0.32 0.54 0.63 0.83 1.02 1.14 1.83 1.49 0.33 0.10 0.02 0.01 0.01 0.02 0.00 0.00 0.00 0.00 0.00 0.00 0.00 0.02 0.02 0.05 0.07 0.07 0.05 0.02 0.00 0.00 0.00 0.00 0.00 0.00 0.00 0.00 0.00 0.00 0.00 0.00 0.00 0.00 0.00 0.00
0.26 0.50 0.65 0.75 1.08 1.75 2.68 1.38 0.17 0.14 0.06 0.04 0.05 0.01 0.00 0.00 0.00 0.00 0.00 0.00 0.00 0.00 0.03 0.07 0.14 0.07 0.07 0.04 0.01 0.00 0.00 0.00 0.00 0.00 0.00 0.00 0.00 0.00 0.00 0.00 0.00 0.00 0.00 0.00
0.26 0.39 0.66 0.69 0.99 1.66 1.66 0.85 0.19 0.36 0.19 0.10 0.01 0.00 0.00 0.00 0.00 0.00 0.00 0.00 0.01 0.00 0.01 0.06 0.10 0.18 0.12 0.14 0.10 0.01 0.02 0.01 0.00 0.00 0.00 0.00 0.00 0.00 0.00 0.00 0.00 0.00 0.00 0.00
0.30 0.33 0.58 0.67 0.80 1.05 0.89 0.43 0.19 0.52 0.26 0.06 0.02 0.00 0.00 0.01 0.00 0.00 0.00 0.00 0.00 0.00 0.01 0.11 0.13 0.09 0.13 0.13 0.09 0.04 0.08 0.05 0.02 0.02 0.01 0.00 0.00 0.00 0.00 0.00 0.00 0.00 0.00 0.00
0.36 0.31 0.46 0.63 0.65 0.75 0.62 0.37 0.31 0.67 0.49 0.12 0.04 0.03 0.02 0.03 0.04 0.04 0.03 0.02 0.01 0.01 0.04 0.08 0.10 0.05 0.03 0.05 0.09 0.03 0.02 0.06 0.09 0.02 0.01 0.00 0.00 0.00 0.00 0.00 0.00 0.00 0.00 0.00
0.36 0.31 0.38 0.54 0.50 0.54 0.48 0.44 0.45 0.70 0.64 0.28 0.16 0.11 0.06 0.02 0.03 0.06 0.07 0.12 0.13 0.06 0.13 0.09 0.03 0.01 0.01 0.01 0.08 0.10 0.07 0.02 0.04 0.04 0.02 0.00 0.00 0.00 0.00 0.00 0.00 0.00 0.00 0.00
0.28 0.31 0.26 0.42 0.41 0.49 0.44 0.45 0.50 0.85 0.77 0.28 0.34 0.21 0.13 0.04 0.02 0.07 0.06 0.24 0.23 0.24 0.12 0.05 0.03 0.01 0.00 0.00 0.00 0.08 0.13 0.10 0.04 0.05 0.04 0.00 0.00 0.00 0.00 0.00 0.00 0.00 0.00 0.00
0.23 0.23 0.17 0.33 0.43 0.59 0.43 0.38 0.50 0.74 1.04 0.54 0.37 0.19 0.10 0.02 0.00 0.01 0.03 0.11 0.11 0.15 0.11 0.02 0.02 0.02 0.02 0.01 0.00 0.00 0.04 0.12 0.09 0.02 0.00 0.00 0.00 0.00 0.00 0.00 0.00 0.00 0.00 0.00
0.17 0.22 0.20 0.36 0.55 0.54 0.30 0.32 0.50 1.28 1.05 0.69 0.26 0.25 0.07 0.01 0.00 0.01 0.12 0.04 0.05 0.07 0.07 0.05 0.03 0.03 0.01 0.01 0.00 0.00 0.00 0.01 0.03 0.04 0.01 0.01 0.00 0.00 0.00 0.00 0.00 0.00 0.00 0.00
0.19 0.24 0.26 0.44 0.59 0.43 0.33 0.35 0.77 1.87 0.89 1.03 0.57 0.37 0.16 0.11 0.02 0.03 0.08 0.05 0.04 0.10 0.10 0.07 0.06 0.03 0.01 0.01 0.00 0.00 0.00 0.03 0.00 0.00 0.00 0.02 0.01 0.01 0.00 0.00 0.00 0.00 0.00 0.00
0.22 0.24 0.36 0.58 0.56 0.44 0.47 0.48 1.11 1.35 1.01 0.83 0.84 0.21 0.25 0.19 0.16 0.04 0.11 0.14 0.10 0.24 0.24 0.08 0.02 0.01 0.02 0.01 0.00 0.00 0.00 0.00 0.00 0.00 0.00 0.00 0.00 0.01 0.01 0.01 0.01 0.00 0.00 0.00
0.24 0.33 0.50 0.53 0.39 0.51 0.74 1.16 1.08 0.94 0.73 0.85 1.03 0.43 0.22 0.34 0.30 0.23 0.12 0.17 0.19 0.18 0.19 0.09 0.02 0.01 0.01 0.00 0.00 0.00 0.00 0.01 0.01 0.00 0.00 0.00 0.00 0.00 0.03 0.01 0.01 0.00 0.00 0.00
0.34 0.40 0.40 0.31 0.27 0.42 0.86 0.99 0.85 0.65 0.59 0.63 0.74 0.76 0.37 0.38 0.50 0.49 0.55 0.22 0.19 0.29 0.24 0.09 0.04 0.02 0.01 0.00 0.00 0.00 0.00 0.00 0.00 0.00 0.00 0.00 0.00 0.00 0.00 0.00 0.00 0.00 0.00 0.00
0.29 0.30 0.28 0.31 0.34 0.64 0.95 0.81 1.04 0.64 0.50 0.47 0.45 0.75 0.70 0.62 0.85 0.64 0.64 0.63 0.36 0.27 0.20 0.12 0.07 0.06 0.08 0.03 0.00 0.00 0.00 0.00 0.00 0.00 0.00 0.00 0.00 0.00 0.00 0.00 0.00 0.00 0.00 0.00
0.23 0.27 0.42 0.62 0.73 1.00 0.99 0.96 1.21 0.83 0.62 0.43 0.21 0.43 0.97 0.97 0.91 0.60 0.51 0.80 0.62 0.31 0.18 0.08 0.12 0.15 0.12 0.03 0.00 0.00 0.00 0.00 0.00 0.00 0.00 0.00 0.00 0.00 0.00 0.00 0.00 0.00 0.00 0.00
0.32 0.59 0.75 0.76 0.80 0.99 0.97 1.13 1.27 0.97 0.60 0.46 0.34 0.30 0.65 0.88 0.88 0.81 0.55 0.52 0.49 0.40 0.31 0.18 0.10 0.08 0.07 0.01 0.00 0.00 0.00 0.00 0.00 0.00 0.00 0.00 0.00 0.00 0.00 0.00 0.00 0.00 0.00 0.00
0.58 0.61 0.78 0.78 1.09 1.32 1.26 0.98 0.73 0.65 0.32 0.16 0.24 0.32 0.63 0.78 0.68 0.64 0.69 0.81 0.33 0.19 0.22 0.27 0.26 0.09 0.02 0.00 0.01 0.01 0.01 0.01 0.01 0.00 0.00 0.00 0.00 0.00 0.00 0.00 0.00 0.00 0.00 0.00
0.53 0.71 0.73 1.08 1.29 1.01 0.69 0.53 0.47 0.35 0.16 0.10 0.16 0.37 0.70 0.70 0.54 0.50 0.72 0.65 0.50 0.22 0.09 0.20 0.30 0.16 0.06 0.05 0.03 0.02 0.03 0.05 0.07 0.06 0.04 0.03 0.02 0.01 0.01 0.01 0.01 0.01 0.03 0.05
0.87 0.58 0.71 0.75 0.67 0.51 0.39 0.33 0.36 0.25 0.06 0.05 0.08 0.25 0.55 0.56 0.41 0.33 0.45 0.69 0.56 0.27 0.20 0.25 0.19 0.06 0.04 0.09 0.13 0.14 0.12 0.10 0.09 0.09 0.09 0.08 0.08 0.08 0.06 0.07 0.11 0.16 0.27 0.36
0.57 0.55 0.47 0.63 0.51 0.41 0.32 0.33 0.33 0.11 0.05 0.07 0.08 0.06 0.16 0.43 0.44 0.32 0.20 0.32 0.37 0.39 0.31 0.23 0.17 0.15 0.15 0.15 0.16 0.15 0.16 0.17 0.17 0.18 0.19 0.25 0.30 0.40 0.49 0.54 0.58 0.54 0.57 0.64
0.39 0.53 0.60 0.50 0.53 0.49 0.50 0.40 0.27 0.18 0.16 0.13 0.18 0.17 0.14 0.22 0.60 0.46 0.27 0.22 0.17 0.17 0.21 0.23 0.30 0.30 0.30 0.30 0.33 0.36 0.41 0.47 0.54 0.59 0.58 0.62 0.58 0.49 0.54 0.55 0.51 0.42 0.38 0.36
0.38 0.56 0.53 0.46 0.47 0.47 0.44 0.34 0.26 0.24 0.24 0.23 0.30 0.37 0.14 0.15 0.12 0.23 0.23 0.17 0.17 0.23 0.28 0.31 0.36 0.40 0.45 0.49 0.54 0.62 0.62 0.61 0.58 0.55 0.47 0.41 0.37 0.31 0.30 0.30 0.27 0.26 0.20 0.20
0.51 0.68 0.70 0.63 0.52 0.52 0.50 0.43 0.32 0.26 0.17 0.20 0.17 0.18 0.16 0.12 0.05 0.08 0.15 0.31 0.44 0.48 0.46 0.46 0.50 0.58 0.64 0.65 0.60 0.55 0.43 0.37 0.35 0.32 0.28 0.27 0.26 0.17 0.11 0.13 0.17 0.13 0.11 0.10

GFSNW_prec_precacc24_039.txt.gz
Total_Precipitation_Accumulation
0.20 0.24 0.18 0.16 0.24 0.34 0.53 0.65 0.40 0.10 0.13 0.42 0.25 0.06 0.00 0.00 0.00 0.00 0.00 0.00 0.00 0.00 0.00 0.00 0.00 0.00 0.00 0.00 0.00 0.00 0.00 0.00 0.00 0.00 0.00 0.00 0.00 0.00 0.00 0.00 0.00 0.00 0.01 0.00
0.34 0.30 0.32 0.21 0.26 0.48 0.72 0.93 0.42 0.44 0.19 0.21 0.10 0.02 0.00 0.00 0.00 0.00 0.00 0.00 0.00 0.00 0.00 0.01 0.01 0.00 0.00 0.00 0.01 0.00 0.00 0.00 0.00 0.00 0.00 0.00 0.00 0.00 0.00 0.00 0.00 0.00 0.03 0.00
0.53 0.55 0.51 0.44 0.40 0.59 0.81 1.10 0.87 1.03 0.49 0.04 0.01 0.01 0.01 0.00 0.00 0.00 0.00 0.00 0.00 0.01 0.06 0.01 0.01 0.00 0.00 0.00 0.01 0.01 0.01 0.00 0.00 0.00 0.00 0.00 0.00 0.00 0.00 0.00 0.00 0.00 0.00 0.00
0.43 0.52 0.73 0.75 0.75 0.78 1.31 1.83 0.81 0.47 0.35 0.08 0.01 0.00 0.00 0.00 0.00 0.00 0.00 0.00 0.00 0.00 0.03 0.05 0.03 0.04 0.02 0.05 0.00 0.00 0.01 0.00 0.00 0.00 0.00 0.00 0.00 0.00 0.00 0.00 0.00 0.01 0.00 0.00
0.33 0.52 0.59 0.80 1.05 1.18 1.91 2.05 0.53 0.10 0.02 0.01 0.02 0.02 0.00 0.00 0.00 0.00 0.00 0.00 0.00 0.02 0.02 0.05 0.08 0.11 0.10 0.14 0.10 0.01 0.00 0.00 0.00 0.00 0.00 0.00 0.00 0.00 0.00 0.00 0.00 0.00 0.00 0.00
0.26 0.49 0.62 0.72 1.05 1.76 2.90 1.93 0.34 0.12 0.06 0.05 0.07 0.02 0.00 0.00 0.00 0.00 0.00 0.00 0.00 0.00 0.03 0.07 0.15 0.08 0.11 0.17 0.21 0.17 0.02 0.00 0.00 0.00 0.00 0.00 0.00 0.00 0.00 0.00 0.00 0.00 0.00 0.00
0.25 0.39 0.65 0.68 0.94 1.60 2.09 1.45 0.37 0.41 0.29 0.11 0.02 0.00 0.00 0.00 0.00 0.00 0.00 0.00 0.01 0.00 0.01 0.06 0.12 0.21 0.14 0.11 0.11 0.19 0.15 0.02 0.00 0.00 0.01 0.01 0.00 0.00 0.00 0.00 0.00 0.00 0.00 0.00
0.30 0.33 0.58 0.67 0.74 0.98 1.00 0.92 0.55 0.59 0.35 0.08 0.02 0.00 0.00 0.01 0.00 0.00 0.00 0.00 0.00 0.00 0.01 0.14 0.19 0.12 0.14 0.16 0.16 0.16 0.17 0.13 0.04 0.02 0.01 0.00 0.00 0.00 0.00 0.00 0.00 0.00 0.00 0.00
0.35 0.32 0.47 0.63 0.58 0.66 0.64 0.49 0.54 0.95 0.59 0.20 0.05 0.03 0.02 0.02 0.04 0.03 0.01 0.00 0.01 0.01 0.04 0.14 0.19 0.16 0.04 0.05 0.11 0.12 0.26 0.16 0.12 0.04 0.01 0.00 0.00 0.00 0.00 0.00 0.00 0.00 0.00 0.00
0.34 0.31 0.42 0.57 0.45 0.47 0.49 0.45 0.45 0.92 0.90 0.35 0.17 0.12 0.05 0.02 0.03 0.06 0.03 0.07 0.13 0.06 0.13 0.11 0.12 0.09 0.02 0.02 0.08 0.11 0.17 0.19 0.14 0.06 0.03 0.00 0.00 0.00 0.00 0.00 0.00 0.00 0.00 0.00
0.26 0.31 0.31 0.49 0.45 0.48 0.45 0.44 0.45 0.73 0.88 0.33 0.36 0.23 0.12 0.03 0.02 0.07 0.05 0.22 0.23 0.25 0.14 0.06 0.05 0.04 0.02 0.01 0.01 0.08 0.15 0.19 0.16 0.14 0.05 0.00 0.00 0.00 0.00 0.00 0.00 0.00 0.00 0.00
0.24 0.26 0.26 0.41 0.57 0.68 0.47 0.41 0.43 0.58 0.86 0.64 0.40 0.19 0.10 0.02 0.00 0.02 0.03 0.11 0.12 0.15 0.13 0.03 0.03 0.03 0.02 0.01 0.00 0.00 0.04 0.12 0.12 0.08 0.02 0.00 0.00 0.00 0.00 0.00 0.00 0.00 0.00 0.00
0.23 0.24 0.29 0.47 0.73 0.71 0.38 0.31 0.48 0.78 0.73 0.55 0.45 0.27 0.07 0.02 0.00 0.02 0.16 0.05 0.06 0.10 0.10 0.08 0.07 0.04 0.01 0.01 0.00 0.00 0.00 0.01 0.03 0.04 0.02 0.03 0.02 0.02 0.00 0.00 0.00 0.00 0.00 0.00
0.22 0.26 0.34 0.59 0.76 0.54 0.29 0.29 0.48 0.67 0.56 0.89 0.64 0.39 0.16 0.11 0.03 0.05 0.11 0.07 0.08 0.11 0.14 0.12 0.11 0.04 0.01 0.01 0.00 0.00 0.00 0.03 0.03 0.02 0.01 0.02 0.03 0.12 0.09 0.04 0.02 0.01 0.01 0.02
0.26 0.28 0.41 0.69 0.64 0.45 0.39 0.34 0.47 0.46 0.52 0.65 0.84 0.23 0.25 0.19 0.16 0.08 0.13 0.15 0.19 0.31 0.27 0.13 0.05 0.03 0.04 0.02 0.01 0.00 0.00 0.00 0.00 0.01 0.00 0.00 0.00 0.02 0.03 0.08 0.09 0.04 0.02 0.02
0.26 0.35 0.55 0.58 0.42 0.41 0.59 0.95 0.83 0.74 0.61 0.78 1.03 0.43 0.22 0.34 0.30 0.26 0.13 0.20 0.25 0.33 0.32 0.14 0.04 0.02 0.04 0.02 0.00 0.00 0.00 0.01 0.01 0.00 0.00 0.00 0.00 0.00 0.03 0.01 0.01 0.02 0.02 0.01
0.34 0.41 0.41 0.33 0.29 0.28 0.64 0.91 0.73 0.50 0.56 0.63 0.72 0.76 0.36 0.38 0.50 0.49 0.56 0.25 0.27 0.55 0.45 0.19 0.07 0.04 0.04 0.01 0.00 0.00 0.00 0.00 0.00 0.00 0.00 0.00 0.00 0.00 0.00 0.00 0.00 0.00 0.00 0.00
0.31 0.35 0.34 0.39 0.31 0.34 0.65 0.78 0.98 0.56 0.47 0.47 0.43 0.74 0.69 0.62 0.84 0.64 0.65 0.65 0.41 0.41 0.53 0.24 0.13 0.12 0.18 0.08 0.01 0.00 0.00 0.00 0.00 0.00 0.00 0.00 0.00 0.00 0.00 0.00 0.00 0.00 0.00 0.00
0.31 0.33 0.45 0.59 0.59 0.72 0.86 0.95 1.20 0.82 0.62 0.43 0.18 0.42 0.98 0.98 0.93 0.62 0.53 0.83 0.67 0.36 0.27 0.15 0.21 0.23 0.18 0.07 0.00 0.00 0.00 0.00 0.00 0.00 0.00 0.00 0.00 0.00 0.00 0.00 0.00 0.00 0.00 0.00
0.31 0.58 0.73 0.75 0.79 0.96 0.96 1.14 1.28 0.97 0.61 0.45 0.30 0.25 0.67 0.95 0.92 0.84 0.58 0.54 0.50 0.42 0.32 0.21 0.14 0.15 0.12 0.02 0.01 0.00 0.00 0.00 0.00 0.00 0.00 0.00 0.00 0.00 0.00 0.00 0.00 0.00 0.00 0.00
0.54 0.59 0.75 0.78 1.07 1.31 1.26 0.98 0.73 0.65 0.32 0.16 0.23 0.30 0.62 0.81 0.75 0.66 0.69 0.82 0.35 0.20 0.24 0.28 0.28 0.13 0.04 0.01 0.02 0.01 0.01 0.01 0.02 0.01 0.00 0.00 0.00 0.00 0.00 0.00 0.00 0.00 0.00 0.00
0.50 0.70 0.72 1.07 1.26 0.99 0.68 0.53 0.48 0.34 0.14 0.13 0.21 0.42 0.81 0.80 0.65 0.52 0.71 0.72 0.53 0.25 0.13 0.21 0.33 0.21 0.07 0.05 0.03 0.02 0.03 0.05 0.07 0.06 0.04 0.03 0.02 0.01 0.01 0.01 0.01 0.01 0.03 0.06
0.87 0.58 0.71 0.76 0.65 0.52 0.40 0.34 0.37 0.29 0.11 0.11 0.14 0.43 0.97 0.80 0.65 0.36 0.42 0.75 0.62 0.39 0.33 0.29 0.23 0.08 0.05 0.10 0.14 0.15 0.13 0.11 0.09 0.09 0.09 0.09 0.09 0.08 0.07 0.08 0.12 0.17 0.29 0.42
0.58 0.55 0.49 0.64 0.51 0.44 0.36 0.36 0.35 0.14 0.06 0.09 0.24 0.42 0.64 0.85 0.74 0.46 0.29 0.57 0.62 0.52 0.41 0.28 0.21 0.18 0.18 0.19 0.21 0.17 0.20 0.21 0.21 0.23 0.24 0.29 0.34 0.44 0.53 0.59 0.63 0.57 0.63 0.74
0.38 0.53 0.59 0.50 0.56 0.50 0.52 0.42 0.28 0.18 0.17 0.14 0.27 0.41 0.35 0.49 0.76 0.53 0.36 0.38 0.34 0.26 0.25 0.29 0.35 0.35 0.36 0.37 0.40 0.41 0.46 0.51 0.58 0.64 0.63 0.68 0.65 0.55 0.64 0.67 0.61 0.51 0.49 0.47
0.34 0.53 0.51 0.45 0.47 0.46 0.44 0.33 0.26 0.24 0.25 0.25 0.40 0.45 0.19 0.23 0.15 0.24 0.25 0.19 0.21 0.29 0.33 0.38 0.40 0.45 0.50 0.54 0.58 0.64 0.65 0.63 0.61 0.59 0.50 0.46 0.42 0.36 0.37 0.37 0.34 0.34 0.27 0.28
0.45 0.58 0.59 0.54 0.47 0.50 0.48 0.41 0.32 0.27 0.18 0.21 0.19 0.21 0.19 0.14 0.07 0.09 0.16 0.32 0.47 0.52 0.50 0.49 0.54 0.61 0.67 0.68 0.63 0.59 0.47 0.40 0.38 0.35 0.31 0.31 0.31 0.20 0.13 0.16 0.22 0.16 0.15 0.13

GFSNW_prec_precacc24_042.txt.gz
Total_Precipitation_Accumulation
0.18 0.22 0.16 0.13 0.21 0.33 0.67 1.02 0.61 0.12 0.13 0.45 0.26 0.06 0.00 0.00 0.00 0.00 0.00 0.00 0.00 0.00 0.00 0.00 0.00 0.00 0.00 0.00 0.00 0.00 0.00 0.00 0.00 0.00 0.00 0.00 0.00 0.00 0.00 0.00 0.00 0.00 0.01 0.00
0.32 0.29 0.31 0.19 0.22 0.48 0.92 1.28 0.59 0.47 0.19 0.22 0.10 0.02 0.00 0.00 0.00 0.00 0.00 0.00 0.00 0.00 0.00 0.01 0.01 0.00 0.00 0.00 0.00 0.00 0.00 0.00 0.00 0.00 0.00 0.00 0.00 0.00 0.00 0.00 0.00 0.00 0.03 0.00
0.52 0.54 0.50 0.42 0.38 0.59 0.99 1.51 1.07 1.12 0.52 0.04 0.01 0.01 0.01 0.00 0.00 0.00 0.00 0.00 0.00 0.01 0.06 0.01 0.01 0.00 0.00 0.00 0.00 0.00 0.01 0.00 0.00 0.00 0.00 0.00 0.00 0.00 0.00 0.00 0.00 0.00 0.00 0.00
0.41 0.51 0.71 0.72 0.70 0.78 1.58 2.36 1.02 0.51 0.42 0.09 0.01 0.00 0.00 0.00 0.00 0.00 0.00 0.00 0.00 0.00 0.03 0.05 0.03 0.04 0.02 0.05 0.00 0.00 0.05 0.05 0.00 0.00 0.00 0.00 0.00 0.00 0.00 0.00 0.00 0.01 0.00 0.00
0.31 0.51 0.58 0.79 0.95 1.17 2.22 2.56 0.68 0.10 0.02 0.02 0.02 0.03 0.00 0.00 0.00 0.00 0.00 0.00 0.00 0.02 0.02 0.05 0.08 0.11 0.10 0.14 0.10 0.02 0.03 0.08 0.00 0.00 0.00 0.00 0.00 0.00 0.00 0.00 0.00 0.00 0.00 0.00
0.27 0.49 0.63 0.72 0.94 1.71 3.23 2.23 0.45 0.12 0.07 0.05 0.09 0.03 0.00 0.00 0.00 0.00 0.00 0.00 0.00 0.00 0.03 0.07 0.15 0.08 0.11 0.17 0.21 0.20 0.10 0.13 0.05 0.01 0.00 0.00 0.00 0.00 0.00 0.00 0.00 0.00 0.00 0.00
0.26 0.39 0.65 0.67 0.88 1.48 2.21 1.66 0.48 0.48 0.41 0.13 0.03 0.00 0.00 0.00 0.00 0.00 0.00 0.00 0.01 0.00 0.01 0.06 0.13 0.21 0.14 0.11 0.12 0.20 0.24 0.16 0.11 0.04 0.01 0.02 0.01 0.00 0.00 0.00 0.00 0.00 0.00 0.00
0.30 0.32 0.57 0.64 0.72 0.92 1.02 1.13 0.74 0.63 0.45 0.11 0.02 0.00 0.00 0.01 0.00 0.00 0.00 0.00 0.00 0.00 0.01 0.14 0.19 0.12 0.14 0.16 0.18 0.17 0.15 0.20 0.19 0.12 0.07 0.02 0.00 0.00 0.00 0.00 0.00 0.00 0.00 0.00
0.36 0.32 0.47 0.62 0.57 0.64 0.63 0.59 0.63 1.12 0.71 0.31 0.05 0.03 0.02 0.02 0.03 0.03 0.00 0.00 0.00 0.01 0.04 0.14 0.18 0.16 0.04 0.06 0.11 0.13 0.26 0.23 0.29 0.15 0.15 0.08 0.00 0.00 0.00 0.00 0.00 0.00 0.00 0.00
0.34 0.31 0.41 0.57 0.45 0.45 0.47 0.41 0.36 1.01 1.13 0.43 0.17 0.12 0.05 0.01 0.02 0.05 0.02 0.05 0.10 0.06 0.12 0.10 0.12 0.09 0.03 0.02 0.08 0.11 0.18 0.21 0.23 0.15 0.16 0.05 0.00 0.00 0.00 0.00 0.00 0.00 0.00 0.00
0.25 0.31 0.30 0.48 0.44 0.47 0.43 0.30 0.36 0.64 0.89 0.39 0.34 0.23 0.13 0.03 0.02 0.06 0.03 0.13 0.15 0.21 0.12 0.05 0.05 0.04 0.02 0.01 0.01 0.08 0.15 0.19 0.19 0.21 0.16 0.05 0.01 0.00 0.00 0.00 0.00 0.00 0.00 0.00
0.21 0.23 0.25 0.41 0.56 0.68 0.48 0.35 0.38 0.50 0.81 0.63 0.35 0.18 0.10 0.03 0.00 0.01 0.03 0.05 0.09 0.14 0.13 0.03 0.03 0.03 0.02 0.01 0.01 0.01 0.05 0.12 0.13 0.10 0.06 0.02 0.02 0.01 0.00 0.00 0.00 0.01 0.01 0.00
0.22 0.21 0.29 0.48 0.73 0.74 0.51 0.40 0.42 0.67 0.68 0.56 0.45 0.25 0.08 0.03 0.01 0.01 0.14 0.05 0.06 0.11 0.11 0.10 0.07 0.04 0.01 0.01 0.00 0.01 0.01 0.01 0.03 0.04 0.02 0.03 0.03 0.02 0.01 0.00 0.00 0.01 0.00 0.00
0.23 0.26 0.34 0.59 0.80 0.63 0.51 0.41 0.43 0.54 0.47 0.57 0.57 0.45 0.15 0.11 0.04 0.07 0.10 0.07 0.10 0.15 0.16 0.14 0.14 0.05 0.02 0.01 0.00 0.01 0.02 0.05 0.04 0.02 0.01 0.02 0.03 0.12 0.09 0.04 0.02 0.01 0.01 0.02
0.27 0.29 0.44 0.73 0.73 0.62 0.59 0.35 0.43 0.39 0.49 0.32 0.39 0.25 0.25 0.15 0.15 0.10 0.12 0.15 0.21 0.40 0.31 0.13 0.05 0.03 0.05 0.04 0.03 0.00 0.01 0.02 0.02 0.02 0.00 0.00 0.00 0.02 0.03 0.08 0.09 0.04 0.03 0.03
0.27 0.38 0.59 0.64 0.54 0.61 0.63 0.86 0.73 0.53 0.58 0.53 0.43 0.25 0.21 0.31 0.30 0.28 0.13 0.16 0.26 0.40 0.44 0.18 0.04 0.02 0.06 0.04 0.02 0.04 0.04 0.04 0.02 0.00 0.00 0.00 0.00 0.00 0.03 0.01 0.03 0.04 0.02 0.01
0.36 0.45 0.45 0.42 0.42 0.31 0.38 0.44 0.31 0.26 0.63 0.51 0.39 0.54 0.30 0.32 0.48 0.50 0.56 0.27 0.37 0.59 0.58 0.26 0.08 0.06 0.10 0.05 0.03 0.02 0.02 0.01 0.00 0.00 0.00 0.00 0.00 0.01 0.00 0.00 0.00 0.00 0.00 0.00
0.33 0.39 0.45 0.46 0.33 0.37 0.24 0.29 0.48 0.21 0.40 0.34 0.29 0.61 0.57 0.56 0.82 0.63 0.66 0.64 0.40 0.38 0.60 0.33 0.14 0.14 0.24 0.19 0.05 0.00 0.00 0.00 0.00 0.00 0.00 0.00 0.00 0.00 0.00 0.00 0.00 0.00 0.00 0.00
0.43 0.51 0.52 0.55 0.44 0.41 0.29 0.53 0.82 0.56 0.44 0.34 0.15 0.38 0.95 0.96 0.93 0.61 0.51 0.84 0.67 0.36 0.28 0.31 0.37 0.33 0.34 0.23 0.04 0.00 0.00 0.00 0.00 0.00 0.00 0.00 0.00 0.00 0.00 0.00 0.00 0.00 0.00 0.00
0.35 0.50 0.53 0.50 0.33 0.46 0.63 0.88 1.13 0.92 0.60 0.45 0.30 0.25 0.67 0.94 0.92 0.85 0.59 0.55 0.50 0.42 0.32 0.36 0.53 0.46 0.20 0.06 0.06 0.05 0.01 0.01 0.01 0.00 0.00 0.00 0.00 0.00 0.00 0.00 0.00 0.00 0.00 0.00
0.43 0.41 0.42 0.36 0.65 0.93 1.05 0.93 0.72 0.64 0.32 0.16 0.23 0.30 0.59 0.80 0.76 0.69 0.70 0.83 0.36 0.20 0.25 0.33 0.49 0.21 0.08 0.01 0.03 0.03 0.02 0.02 0.04 0.04 0.05 0.06 0.02 0.00 0.00 0.00 0.00 0.00 0.00 0.00
0.41 0.50 0.46 0.72 1.10 0.94 0.67 0.53 0.48 0.34 0.15 0.13 0.22 0.42 0.77 0.77 0.72 0.56 0.72 0.73 0.54 0.25 0.15 0.23 0.36 0.24 0.08 0.05 0.03 0.02 0.04 0.05 0.07 0.06 0.05 0.05 0.04 0.02 0.01 0.01 0.01 0.01 0.03 0.06
0.78 0.47 0.64 0.73 0.65 0.51 0.41 0.34 0.38 0.31 0.16 0.17 0.19 0.47 0.99 0.78 0.77 0.37 0.43 0.77 0.62 0.39 0.34 0.31 0.26 0.10 0.06 0.10 0.15 0.16 0.15 0.12 0.11 0.11 0.11 0.10 0.10 0.09 0.08 0.09 0.14 0.18 0.31 0.46
0.57 0.54 0.48 0.63 0.48 0.44 0.37 0.38 0.36 0.17 0.08 0.10 0.31 0.61 0.77 0.77 0.80 0.50 0.28 0.62 0.71 0.54 0.43 0.31 0.23 0.20 0.20 0.21 0.23 0.21 0.25 0.26 0.26 0.29 0.30 0.35 0.40 0.49 0.59 0.64 0.70 0.61 0.69 0.82
0.37 0.52 0.60 0.50 0.57 0.50 0.51 0.42 0.31 0.21 0.19 0.16 0.34 0.65 0.55 0.58 0.83 0.56 0.38 0.40 0.39 0.28 0.27 0.32 0.40 0.40 0.41 0.43 0.47 0.50 0.55 0.59 0.66 0.71 0.68 0.74 0.70 0.57 0.68 0.72 0.66 0.54 0.53 0.51
0.34 0.53 0.50 0.44 0.46 0.45 0.43 0.32 0.27 0.28 0.28 0.32 0.60 0.67 0.39 0.35 0.20 0.25 0.29 0.26 0.31 0.39 0.40 0.45 0.47 0.54 0.62 0.68 0.71 0.76 0.74 0.70 0.67 0.64 0.53 0.48 0.44 0.38 0.40 0.40 0.37 0.37 0.29 0.30
0.43 0.56 0.57 0.53 0.47 0.49 0.48 0.40 0.33 0.29 0.22 0.35 0.30 0.31 0.34 0.22 0.09 0.10 0.20 0.39 0.57 0.61 0.60 0.58 0.62 0.68 0.75 0.75 0.66 0.62 0.50 0.43 0.41 0.37 0.32 0.33 0.32 0.21 0.13 0.17 0.23 0.17 0.16 0.14

GFSNW_prec_precacc24_045.txt.gz
Total_Precipitation_Accumulation
0.12 0.14 0.15 0.14 0.21 0.34 0.80 1.34 0.86 0.14 0.13 0.44 0.27 0.06 0.00 0.00 0.00 0.00 0.00 0.00 0.00 0.00 0.00 0.00 0.00 0.00 0.00 0.00 0.00 0.00 0.00 0.00 0.00 0.00 0.00 0.00 0.00 0.00 0.00 0.00 0.00 0.00 0.01 0.00
0.30 0.22 0.26 0.20 0.25 0.54 1.10 1.63 0.73 0.51 0.18 0.22 0.10 0.02 0.00 0.00 0.00 0.00 0.00 0.00 0.00 0.00 0.00 0.01 0.01 0.00 0.00 0.00 0.00 0.00 0.00 0.00 0.00 0.00 0.00 0.00 0.00 0.00 0.00 0.00 0.00 0.00 0.03 0.00
0.51 0.52 0.46 0.42 0.43 0.69 1.27 1.90 1.20 1.19 0.56 0.05 0.01 0.01 0.01 0.00 0.00 0.00 0.00 0.00 0.00 0.01 0.06 0.01 0.01 0.00 0.00 0.00 0.00 0.00 0.01 0.00 0.00 0.00 0.00 0.00 0.00 0.00 0.00 0.00 0.00 0.00 0.00 0.00
0.40 0.50 0.70 0.72 0.74 0.95 2.00 2.82 1.13 0.51 0.49 0.13 0.01 0.00 0.00 0.00 0.00 0.00 0.00 0.00 0.00 0.00 0.03 0.05 0.03 0.04 0.02 0.05 0.01 0.01 0.05 0.05 0.01 0.00 0.00 0.00 0.00 0.00 0.00 0.00 0.00 0.01 0.00 0.00
0.31 0.51 0.59 0.80 1.00 1.38 2.69 2.86 0.70 0.10 0.02 0.02 0.03 0.03 0.01 0.00 0.00 0.00 0.00 0.00 0.00 0.02 0.02 0.05 0.08 0.11 0.10 0.14 0.11 0.03 0.03 0.08 0.01 0.00 0.00 0.00 0.00 0.00 0.00 0.00 0.00 0.00 0.00 0.00
0.28 0.50 0.64 0.74 1.00 1.91 3.52 2.37 0.46 0.11 0.08 0.06 0.10 0.03 0.00 0.00 0.00 0.00 0.00 0.00 0.00 0.00 0.03 0.07 0.15 0.08 0.11 0.17 0.21 0.20 0.10 0.13 0.05 0.01 0.00 0.00 0.00 0.00 0.00 0.00 0.00 0.00 0.00 0.00
0.27 0.40 0.67 0.71 0.95 1.58 2.34 1.72 0.50 0.49 0.45 0.15 0.03 0.00 0.00 0.00 0.00 0.00 0.00 0.00 0.01 0.00 0.01 0.06 0.13 0.21 0.14 0.11 0.12 0.21 0.24 0.16 0.12 0.05 0.01 0.04 0.02 0.00 0.00 0.00 0.00 0.00 0.00 0.00
0.32 0.35 0.59 0.67 0.74 0.96 1.11 1.28 0.79 0.58 0.47 0.12 0.03 0.00 0.00 0.01 0.00 0.00 0.00 0.00 0.00 0.00 0.01 0.13 0.18 0.10 0.12 0.16 0.18 0.17 0.15 0.19 0.20 0.13 0.07 0.04 0.00 0.00 0.00 0.00 0.00 0.00 0.00 0.00
0.37 0.34 0.48 0.63 0.58 0.62 0.67 0.77 0.70 1.09 0.73 0.32 0.05 0.04 0.02 0.03 0.03 0.03 0.00 0.00 0.00 0.00 0.02 0.13 0.19 0.16 0.04 0.06 0.11 0.13 0.26 0.23 0.28 0.15 0.15 0.10 0.01 0.00 0.00 0.00 0.01 0.00 0.00 0.00
0.35 0.33 0.43 0.58 0.45 0.43 0.47 0.54 0.42 1.03 1.20 0.41 0.16 0.12 0.06 0.02 0.02 0.05 0.02 0.05 0.09 0.03 0.07 0.12 0.13 0.09 0.03 0.02 0.08 0.11 0.18 0.22 0.23 0.16 0.16 0.05 0.01 0.01 0.00 0.03 0.02 0.00 0.00 0.00
0.26 0.32 0.32 0.51 0.45 0.47 0.45 0.30 0.38 0.64 0.90 0.39 0.29 0.22 0.13 0.03 0.02 0.06 0.03 0.12 0.12 0.16 0.08 0.08 0.06 0.04 0.02 0.01 0.01 0.08 0.15 0.19 0.19 0.21 0.17 0.05 0.02 0.05 0.07 0.04 0.00 0.00 0.00 0.00
0.21 0.24 0.27 0.43 0.57 0.70 0.52 0.41 0.36 0.45 0.73 0.62 0.31 0.17 0.10 0.03 0.00 0.01 0.03 0.05 0.09 0.12 0.11 0.02 0.03 0.03 0.02 0.01 0.01 0.01 0.05 0.12 0.13 0.10 0.06 0.02 0.02 0.03 0.02 0.01 0.01 0.01 0.01 0.00
0.22 0.22 0.29 0.50 0.75 0.76 0.58 0.47 0.41 0.63 0.74 0.55 0.41 0.22 0.08 0.03 0.01 0.01 0.13 0.04 0.04 0.07 0.08 0.08 0.07 0.04 0.01 0.01 0.00 0.01 0.01 0.01 0.03 0.04 0.02 0.03 0.03 0.02 0.01 0.00 0.01 0.01 0.00 0.00
0.23 0.28 0.36 0.60 0.81 0.64 0.55 0.46 0.36 0.49 0.41 0.45 0.46 0.40 0.13 0.11 0.04 0.08 0.10 0.05 0.09 0.12 0.11 0.12 0.14 0.06 0.02 0.01 0.00 0.01 0.02 0.05 0.04 0.02 0.01 0.02 0.03 0.12 0.09 0.04 0.02 0.02 0.01 0.02
0.26 0.29 0.45 0.72 0.73 0.63 0.65 0.37 0.39 0.31 0.38 0.23 0.29 0.20 0.19 0.12 0.14 0.11 0.16 0.15 0.21 0.38 0.29 0.14 0.05 0.04 0.07 0.05 0.04 0.00 0.02 0.04 0.06 0.03 0.02 0.00 0.00 0.03 0.03 0.08 0.10 0.04 0.03 0.03
0.26 0.36 0.56 0.61 0.58 0.77 0.87 1.06 0.81 0.46 0.48 0.48 0.41 0.21 0.15 0.24 0.26 0.26 0.13 0.18 0.27 0.42 0.47 0.25 0.06 0.03 0.09 0.06 0.05 0.04 0.04 0.06 0.03 0.01 0.01 0.03 0.01 0.02 0.03 0.01 0.03 0.04 0.02 0.01
0.30 0.42 0.45 0.41 0.57 0.45 0.44 0.45 0.30 0.25 0.63 0.70 0.48 0.26 0.16 0.25 0.46 0.44 0.31 0.23 0.40 0.64 0.62 0.42 0.20 0.09 0.13 0.06 0.04 0.02 0.03 0.03 0.02 0.01 0.02 0.04 0.02 0.02 0.00 0.01 0.00 0.00 0.00 0.00
0.29 0.38 0.50 0.55 0.41 0.36 0.23 0.15 0.21 0.21 0.62 0.60 0.45 0.34 0.38 0.54 0.79 0.60 0.46 0.45 0.52 0.53 0.62 0.35 0.34 0.36 0.30 0.21 0.07 0.02 0.00 0.00 0.01 0.01 0.01 0.01 0.01 0.00 0.00 0.00 0.00 0.00 0.00 0.00
0.49 0.60 0.60 0.60 0.51 0.43 0.27 0.28 0.37 0.41 0.49 0.37 0.19 0.34 0.69 0.85 0.83 0.57 0.48 0.74 0.68 0.50 0.35 0.33 0.39 0.58 0.49 0.30 0.08 0.07 0.04 0.01 0.00 0.00 0.00 0.00 0.00 0.00 0.00 0.00 0.00 0.00 0.00 0.00
0.38 0.47 0.59 0.70 0.54 0.45 0.51 0.69 0.90 0.78 0.46 0.27 0.23 0.23 0.55 0.78 0.79 0.76 0.55 0.55 0.53 0.44 0.31 0.35 0.56 0.55 0.25 0.06 0.07 0.07 0.06 0.05 0.02 0.01 0.01 0.00 0.00 0.00 0.00 0.00 0.00 0.00 0.00 0.00
0.28 0.33 0.49 0.44 0.53 0.52 0.49 0.44 0.43 0.45 0.22 0.07 0.11 0.24 0.55 0.70 0.62 0.57 0.69 0.82 0.36 0.21 0.27 0.34 0.57 0.32 0.16 0.03 0.03 0.06 0.10 0.08 0.09 0.10 0.10 0.09 0.07 0.03 0.01 0.01 0.02 0.02 0.02 0.01
0.28 0.32 0.25 0.33 0.49 0.43 0.26 0.30 0.38 0.30 0.13 0.12 0.20 0.40 0.76 0.74 0.65 0.51 0.71 0.74 0.54 0.26 0.19 0.24 0.37 0.27 0.13 0.10 0.06 0.05 0.09 0.11 0.12 0.08 0.08 0.07 0.08 0.09 0.07 0.04 0.03 0.03 0.05 0.07
0.60 0.26 0.23 0.36 0.41 0.37 0.32 0.32 0.38 0.32 0.17 0.19 0.20 0.47 0.99 0.77 0.84 0.38 0.44 0.78 0.64 0.40 0.36 0.32 0.28 0.11 0.07 0.11 0.15 0.17 0.16 0.14 0.12 0.11 0.13 0.12 0.13 0.12 0.11 0.12 0.18 0.21 0.34 0.51
0.38 0.31 0.33 0.60 0.47 0.44 0.38 0.39 0.38 0.19 0.10 0.14 0.36 0.64 0.79 0.81 0.98 0.46 0.26 0.65 0.72 0.54 0.44 0.32 0.25 0.22 0.22 0.22 0.25 0.22 0.27 0.28 0.28 0.32 0.34 0.40 0.45 0.55 0.65 0.71 0.79 0.67 0.76 0.92
0.36 0.48 0.56 0.50 0.59 0.52 0.52 0.44 0.32 0.22 0.20 0.23 0.41 0.69 0.59 0.59 0.94 0.49 0.32 0.37 0.38 0.28 0.28 0.34 0.43 0.43 0.43 0.45 0.50 0.53 0.59 0.63 0.70 0.76 0.73 0.81 0.77 0.62 0.74 0.79 0.72 0.59 0.58 0.57
0.34 0.53 0.50 0.44 0.46 0.45 0.43 0.34 0.30 0.30 0.32 0.40 0.67 0.67 0.40 0.32 0.22 0.24 0.27 0.25 0.31 0.40 0.42 0.48 0.50 0.57 0.67 0.74 0.76 0.80 0.80 0.77 0.74 0.71 0.60 0.55 0.49 0.42 0.45 0.43 0.39 0.39 0.31 0.32
0.42 0.54 0.55 0.52 0.47 0.48 0.49 0.40 0.35 0.33 0.29 0.44 0.37 0.36 0.36 0.23 0.09 0.10 0.19 0.38 0.60 0.65 0.64 0.61 0.62 0.69 0.78 0.77 0.66 0.63 0.52 0.45 0.43 0.39 0.33 0.34 0.33 0.21 0.13 0.18 0.24 0.18 0.16 0.15

GFSNW_prec_precacc24_048.txt.gz
Total_Precipitation_Accumulation
0.12 0.11 0.11 0.11 0.14 0.34 0.81 1.39 1.00 0.15 0.14 0.52 0.37 0.08 0.00 0.00 0.00 0.00 0.00 0.00 0.00 0.00 0.00 0.00 0.00 0.00 0.00 0.00 0.00 0.00 0.00 0.00 0.00 0.00 0.00 0.00 0.00 0.00 0.00 0.00 0.00 0.00 0.01 0.00
0.30 0.20 0.16 0.15 0.20 0.55 1.13 1.72 0.78 0.50 0.20 0.29 0.13 0.03 0.00 0.00 0.00 0.00 0.00 0.00 0.00 0.00 0.00 0.01 0.01 0.00 0.00 0.00 0.00 0.00 0.00 0.00 0.00 0.00 0.00 0.00 0.00 0.00 0.00 0.00 0.00 0.00 0.03 0.00
0.49 0.49 0.35 0.31 0.39 0.70 1.36 2.06 1.29 1.21 0.73 0.11 0.01 0.03 0.02 0.00 0.00 0.00 0.00 0.00 0.00 0.01 0.06 0.01 0.01 0.00 0.01 0.00 0.00 0.00 0.01 0.00 0.00 0.01 0.00 0.00 0.00 0.00 0.00 0.00 0.00 0.00 0.00 0.00
0.37 0.49 0.63 0.60 0.71 0.98 2.14 3.01 1.21 0.54 0.55 0.22 0.03 0.01 0.00 0.00 0.00 0.00 0.00 0.00 0.00 0.00 0.03 0.05 0.03 0.04 0.02 0.05 0.01 0.01 0.05 0.05 0.01 0.00 0.00 0.00 0.00 0.00 0.00 0.00 0.00 0.01 0.00 0.00
0.26 0.48 0.54 0.73 0.98 1.44 2.89 2.93 0.71 0.10 0.06 0.03 0.06 0.04 0.01 0.00 0.00 0.00 0.00 0.00 0.00 0.02 0.02 0.05 0.08 0.11 0.10 0.14 0.11 0.03 0.03 0.08 0.01 0.00 0.00 0.00 0.00 0.00 0.00 0.00 0.00 0.00 0.00 0.00
0.21 0.47 0.61 0.70 1.01 2.03 3.71 2.39 0.47 0.13 0.11 0.09 0.12 0.05 0.01 0.01 0.00 0.00 0.00 0.00 0.00 0.00 0.03 0.07 0.15 0.08 0.11 0.17 0.22 0.20 0.11 0.13 0.05 0.01 0.00 0.00 0.00 0.00 0.00 0.00 0.00 0.00 0.00 0.00
0.19 0.36 0.65 0.69 0.98 1.74 2.49 1.75 0.50 0.50 0.48 0.16 0.06 0.01 0.00 0.00 0.00 0.00 0.00 0.00 0.01 0.00 0.01 0.06 0.13 0.21 0.14 0.11 0.12 0.21 0.24 0.16 0.12 0.05 0.01 0.04 0.02 0.00 0.00 0.00 0.00 0.00 0.00 0.00
0.25 0.31 0.59 0.68 0.79 1.10 1.28 1.36 0.80 0.51 0.48 0.15 0.06 0.03 0.03 0.01 0.00 0.00 0.00 0.00 0.00 0.00 0.01 0.12 0.18 0.10 0.12 0.16 0.18 0.17 0.15 0.20 0.20 0.13 0.07 0.04 0.00 0.00 0.00 0.00 0.00 0.00 0.00 0.00
0.32 0.33 0.50 0.67 0.64 0.75 0.87 0.91 0.77 1.01 0.70 0.35 0.06 0.09 0.05 0.05 0.05 0.04 0.00 0.00 0.00 0.00 0.02 0.13 0.19 0.15 0.04 0.06 0.12 0.14 0.26 0.23 0.28 0.15 0.15 0.10 0.01 0.00 0.00 0.00 0.01 0.00 0.00 0.00
0.34 0.35 0.46 0.63 0.53 0.53 0.67 0.73 0.50 1.00 1.19 0.42 0.17 0.14 0.10 0.05 0.03 0.06 0.02 0.05 0.09 0.04 0.08 0.13 0.13 0.08 0.02 0.02 0.08 0.12 0.19 0.22 0.23 0.16 0.17 0.05 0.01 0.01 0.00 0.03 0.02 0.00 0.00 0.00
0.27 0.35 0.36 0.54 0.48 0.52 0.58 0.45 0.37 0.60 0.93 0.42 0.28 0.20 0.13 0.04 0.03 0.07 0.04 0.15 0.15 0.19 0.12 0.08 0.05 0.03 0.01 0.01 0.01 0.08 0.15 0.19 0.19 0.21 0.18 0.05 0.02 0.05 0.08 0.04 0.00 0.00 0.00 0.00
0.22 0.25 0.27 0.43 0.59 0.72 0.57 0.45 0.30 0.38 0.79 0.67 0.30 0.17 0.11 0.03 0.00 0.01 0.03 0.05 0.09 0.12 0.11 0.02 0.01 0.03 0.02 0.01 0.01 0.01 0.05 0.12 0.13 0.10 0.06 0.02 0.02 0.03 0.02 0.01 0.01 0.01 0.01 0.00
0.23 0.22 0.28 0.49 0.75 0.78 0.61 0.48 0.33 0.54 0.84 0.64 0.44 0.22 0.07 0.03 0.02 0.01 0.13 0.04 0.04 0.07 0.07 0.06 0.06 0.04 0.01 0.01 0.00 0.01 0.01 0.01 0.03 0.04 0.02 0.03 0.03 0.02 0.01 0.00 0.01 0.01 0.00 0.00
0.24 0.29 0.36 0.59 0.81 0.66 0.63 0.55 0.31 0.37 0.41 0.46 0.47 0.37 0.10 0.08 0.03 0.08 0.10 0.06 0.09 0.10 0.09 0.09 0.12 0.05 0.02 0.01 0.00 0.01 0.02 0.05 0.04 0.02 0.01 0.02 0.03 0.12 0.09 0.04 0.02 0.02 0.02 0.03
0.25 0.28 0.46 0.73 0.74 0.65 0.74 0.55 0.30 0.21 0.36 0.22 0.28 0.17 0.15 0.08 0.12 0.10 0.16 0.16 0.20 0.35 0.26 0.13 0.04 0.03 0.06 0.05 0.04 0.00 0.02 0.04 0.06 0.03 0.02 0.00 0.00 0.03 0.03 0.08 0.10 0.04 0.04 0.03
0.25 0.34 0.56 0.62 0.61 0.79 1.01 1.41 0.84 0.36 0.42 0.38 0.36 0.20 0.14 0.22 0.19 0.23 0.13 0.20 0.29 0.40 0.45 0.24 0.04 0.02 0.10 0.08 0.07 0.06 0.04 0.06 0.03 0.01 0.01 0.03 0.02 0.03 0.05 0.02 0.05 0.06 0.04 0.02
0.33 0.43 0.45 0.42 0.58 0.50 0.55 0.47 0.31 0.25 0.56 0.56 0.43 0.24 0.15 0.22 0.38 0.39 0.30 0.24 0.44 0.75 0.65 0.43 0.20 0.09 0.16 0.09 0.10 0.07 0.07 0.07 0.04 0.02 0.02 0.05 0.03 0.03 0.02 0.02 0.02 0.01 0.01 0.00
0.35 0.47 0.51 0.56 0.47 0.51 0.31 0.13 0.12 0.20 0.59 0.52 0.56 0.42 0.29 0.45 0.75 0.57 0.45 0.46 0.54 0.57 0.78 0.40 0.33 0.38 0.36 0.31 0.13 0.03 0.00 0.01 0.04 0.02 0.01 0.01 0.02 0.02 0.01 0.01 0.01 0.01 0.00 0.00
0.58 0.65 0.68 0.79 0.67 0.57 0.32 0.18 0.18 0.27 0.42 0.32 0.29 0.51 0.67 0.71 0.72 0.55 0.48 0.72 0.62 0.46 0.36 0.37 0.41 0.64 0.75 0.45 0.13 0.08 0.04 0.01 0.00 0.00 0.00 0.00 0.00 0.00 0.00 0.00 0.00 0.00 0.00 0.00
0.35 0.40 0.63 0.85 0.61 0.46 0.46 0.55 0.65 0.59 0.37 0.26 0.28 0.26 0.57 0.82 0.56 0.57 0.53 0.46 0.43 0.34 0.22 0.40 0.74 0.61 0.28 0.12 0.14 0.11 0.07 0.07 0.04 0.01 0.01 0.00 0.00 0.00 0.00 0.00 0.00 0.00 0.00 0.00
0.24 0.33 0.53 0.51 0.47 0.49 0.54 0.43 0.42 0.46 0.26 0.11 0.15 0.19 0.54 0.75 0.54 0.23 0.51 0.68 0.27 0.19 0.19 0.22 0.43 0.30 0.16 0.04 0.03 0.06 0.09 0.08 0.10 0.13 0.13 0.12 0.09 0.05 0.03 0.03 0.03 0.04 0.05 0.07
0.16 0.22 0.29 0.38 0.45 0.40 0.20 0.17 0.27 0.26 0.14 0.13 0.17 0.21 0.59 0.70 0.61 0.24 0.39 0.66 0.43 0.22 0.21 0.20 0.29 0.24 0.14 0.11 0.09 0.08 0.12 0.16 0.18 0.17 0.15 0.16 0.15 0.13 0.10 0.08 0.07 0.07 0.09 0.14
0.28 0.19 0.18 0.28 0.27 0.18 0.11 0.15 0.31 0.31 0.17 0.18 0.20 0.45 0.87 0.71 0.83 0.32 0.29 0.68 0.62 0.38 0.37 0.34 0.28 0.12 0.07 0.12 0.16 0.19 0.20 0.17 0.15 0.16 0.16 0.14 0.13 0.12 0.11 0.13 0.21 0.24 0.37 0.57
0.19 0.11 0.12 0.38 0.29 0.31 0.26 0.33 0.37 0.21 0.11 0.14 0.36 0.64 0.80 0.81 1.05 0.50 0.27 0.65 0.71 0.53 0.44 0.32 0.27 0.23 0.23 0.23 0.26 0.23 0.28 0.30 0.30 0.35 0.35 0.39 0.42 0.53 0.65 0.75 0.84 0.71 0.81 0.99
0.14 0.23 0.42 0.42 0.54 0.46 0.48 0.41 0.32 0.23 0.21 0.27 0.46 0.71 0.60 0.63 1.06 0.50 0.30 0.36 0.37 0.27 0.28 0.35 0.45 0.45 0.45 0.47 0.51 0.54 0.59 0.61 0.65 0.72 0.69 0.79 0.78 0.64 0.78 0.85 0.79 0.64 0.63 0.62
0.30 0.46 0.46 0.41 0.45 0.43 0.41 0.33 0.30 0.30 0.35 0.45 0.71 0.68 0.40 0.32 0.27 0.23 0.24 0.20 0.28 0.37 0.40 0.48 0.51 0.57 0.65 0.70 0.72 0.77 0.77 0.75 0.74 0.72 0.63 0.59 0.55 0.47 0.50 0.49 0.44 0.44 0.35 0.35
0.39 0.47 0.51 0.51 0.45 0.47 0.47 0.41 0.35 0.35 0.32 0.47 0.37 0.34 0.31 0.20 0.08 0.09 0.17 0.33 0.54 0.57 0.59 0.60 0.61 0.65 0.73 0.72 0.62 0.62 0.53 0.47 0.45 0.41 0.36 0.36 0.35 0.22 0.14 0.18 0.25 0.18 0.16 0.15

GFSNW_prec_precacc24_054.txt.gz
Total_Precipitation_Accumulation
0.08 0.09 0.11 0.11 0.11 0.21 0.70 1.25 0.90 0.16 0.17 0.49 0.38 0.15 0.02 0.00 0.00 0.00 0.00 0.00 0.00 0.00 0.00 0.00 0.00 0.00 0.00 0.00 0.00 0.00 0.00 0.00 0.00 0.00 0.00 0.00 0.00 0.00 0.00 0.00 0.00 0.00 0.01 0.00
0.12 0.15 0.15 0.13 0.17 0.39 0.99 1.53 0.69 0.43 0.30 0.35 0.15 0.06 0.02 0.00 0.00 0.00 0.00 0.00 0.00 0.00 0.00 0.01 0.01 0.00 0.00 0.00 0.00 0.00 0.00 0.00 0.00 0.00 0.00 0.00 0.00 0.00 0.00 0.00 0.00 0.00 0.03 0.00
0.11 0.19 0.24 0.22 0.31 0.58 1.34 1.96 1.15 1.01 0.74 0.18 0.06 0.09 0.05 0.00 0.00 0.00 0.00 0.00 0.00 0.01 0.06 0.01 0.01 0.00 0.01 0.00 0.00 0.00 0.01 0.01 0.00 0.01 0.00 0.00 0.00 0.00 0.00 0.00 0.00 0.00 0.00 0.00
0.10 0.10 0.27 0.38 0.50 0.85 2.09 2.90 1.16 0.49 0.56 0.25 0.11 0.09 0.07 0.01 0.00 0.00 0.00 0.01 0.00 0.01 0.03 0.05 0.03 0.04 0.02 0.05 0.01 0.01 0.05 0.05 0.01 0.00 0.00 0.00 0.00 0.00 0.00 0.00 0.00 0.01 0.00 0.00
0.13 0.11 0.15 0.37 0.68 1.25 2.81 2.85 0.76 0.15 0.09 0.07 0.12 0.19 0.10 0.01 0.00 0.00 0.00 0.00 0.00 0.03 0.03 0.04 0.08 0.11 0.10 0.14 0.11 0.03 0.03 0.08 0.01 0.00 0.00 0.00 0.00 0.00 0.00 0.00 0.00 0.00 0.00 0.00
0.14 0.14 0.15 0.28 0.68 1.77 3.49 2.38 0.56 0.24 0.17 0.11 0.19 0.09 0.03 0.02 0.02 0.02 0.00 0.00 0.02 0.01 0.03 0.06 0.14 0.08 0.11 0.17 0.22 0.20 0.11 0.13 0.05 0.01 0.00 0.00 0.00 0.00 0.00 0.00 0.00 0.00 0.00 0.00
0.11 0.12 0.13 0.23 0.64 1.47 2.47 1.87 0.62 0.61 0.57 0.17 0.08 0.04 0.01 0.01 0.01 0.02 0.01 0.03 0.03 0.01 0.01 0.06 0.13 0.21 0.14 0.11 0.12 0.21 0.24 0.16 0.13 0.06 0.01 0.04 0.02 0.00 0.00 0.00 0.00 0.00 0.00 0.00
0.14 0.12 0.11 0.16 0.53 0.99 1.41 1.50 0.99 0.64 0.52 0.15 0.06 0.04 0.07 0.06 0.08 0.08 0.04 0.01 0.02 0.06 0.07 0.15 0.18 0.10 0.13 0.16 0.18 0.17 0.15 0.20 0.21 0.14 0.08 0.04 0.00 0.00 0.00 0.00 0.00 0.00 0.00 0.00
0.19 0.19 0.18 0.18 0.48 0.74 1.00 1.08 0.92 1.10 0.82 0.36 0.03 0.10 0.11 0.13 0.14 0.16 0.11 0.10 0.06 0.07 0.09 0.18 0.21 0.14 0.04 0.06 0.12 0.14 0.26 0.23 0.31 0.18 0.16 0.10 0.01 0.00 0.00 0.00 0.01 0.00 0.00 0.00
0.22 0.26 0.28 0.30 0.43 0.54 0.79 0.95 0.63 1.18 1.39 0.36 0.10 0.11 0.14 0.18 0.13 0.18 0.09 0.16 0.21 0.14 0.18 0.17 0.15 0.09 0.02 0.03 0.09 0.13 0.20 0.23 0.25 0.21 0.19 0.05 0.01 0.01 0.00 0.03 0.02 0.00 0.00 0.00
0.20 0.28 0.29 0.42 0.43 0.51 0.72 0.68 0.52 0.71 1.11 0.46 0.18 0.13 0.10 0.10 0.16 0.21 0.12 0.34 0.32 0.34 0.23 0.12 0.07 0.04 0.01 0.01 0.02 0.09 0.16 0.20 0.20 0.23 0.19 0.05 0.02 0.06 0.08 0.04 0.00 0.00 0.00 0.00
0.19 0.23 0.29 0.40 0.51 0.65 0.70 0.76 0.51 0.54 0.96 0.72 0.10 0.10 0.11 0.05 0.02 0.06 0.16 0.10 0.10 0.13 0.14 0.04 0.02 0.03 0.02 0.01 0.01 0.02 0.06 0.12 0.13 0.10 0.06 0.02 0.02 0.04 0.03 0.01 0.01 0.01 0.01 0.00
0.26 0.20 0.28 0.46 0.64 0.74 0.74 0.76 0.49 0.88 1.30 0.88 0.42 0.08 0.05 0.04 0.03 0.04 0.20 0.07 0.05 0.08 0.09 0.09 0.08 0.05 0.01 0.01 0.01 0.01 0.01 0.01 0.03 0.04 0.02 0.03 0.03 0.02 0.01 0.00 0.01 0.01 0.00 0.00
0.26 0.31 0.33 0.49 0.69 0.62 0.79 0.81 0.48 0.56 0.62 0.58 0.52 0.19 0.04 0.02 0.04 0.12 0.13 0.08 0.11 0.13 0.15 0.15 0.15 0.06 0.01 0.01 0.00 0.01 0.02 0.05 0.04 0.02 0.01 0.02 0.03 0.12 0.09 0.04 0.02 0.02 0.02 0.03
0.23 0.24 0.41 0.58 0.60 0.64 0.96 0.81 0.42 0.23 0.26 0.22 0.26 0.11 0.04 0.01 0.02 0.09 0.20 0.21 0.23 0.39 0.33 0.27 0.12 0.05 0.06 0.05 0.04 0.00 0.02 0.04 0.06 0.03 0.02 0.00 0.00 0.03 0.03 0.08 0.10 0.04 0.04 0.04
0.20 0.33 0.52 0.54 0.60 0.97 1.47 2.19 1.28 0.34 0.39 0.37 0.27 0.14 0.05 0.05 0.04 0.09 0.11 0.24 0.36 0.47 0.56 0.30 0.06 0.03 0.12 0.10 0.08 0.06 0.04 0.05 0.02 0.00 0.01 0.03 0.02 0.03 0.05 0.02 0.05 0.06 0.05 0.05
0.31 0.42 0.45 0.43 0.70 0.79 0.86 0.67 0.40 0.27 0.54 0.54 0.33 0.18 0.10 0.10 0.11 0.14 0.20 0.25 0.64 1.00 0.84 0.49 0.23 0.11 0.21 0.14 0.12 0.08 0.07 0.07 0.04 0.02 0.02 0.05 0.03 0.03 0.03 0.03 0.02 0.01 0.01 0.01
0.36 0.48 0.55 0.64 0.70 0.82 0.39 0.15 0.04 0.19 0.59 0.51 0.45 0.31 0.26 0.39 0.47 0.24 0.26 0.37 0.63 0.86 1.03 0.65 0.40 0.43 0.44 0.37 0.14 0.03 0.00 0.01 0.05 0.06 0.07 0.08 0.06 0.03 0.02 0.01 0.01 0.01 0.00 0.00
0.65 0.72 0.84 1.33 1.01 0.90 0.42 0.26 0.20 0.26 0.36 0.29 0.27 0.44 0.71 0.73 0.62 0.48 0.36 0.52 0.65 0.60 0.54 0.51 0.59 0.85 0.83 0.48 0.13 0.08 0.04 0.01 0.00 0.00 0.00 0.01 0.02 0.02 0.01 0.00 0.00 0.00 0.00 0.00
0.45 0.57 1.01 1.36 0.79 0.46 0.44 0.76 0.60 0.50 0.31 0.17 0.19 0.24 0.64 0.99 0.67 0.48 0.36 0.35 0.40 0.39 0.31 0.47 0.78 0.64 0.31 0.13 0.14 0.12 0.09 0.08 0.04 0.02 0.01 0.01 0.02 0.01 0.01 0.01 0.02 0.01 0.01 0.01
0.28 0.50 0.82 0.70 0.46 0.44 0.55 0.48 0.34 0.23 0.16 0.09 0.16 0.19 0.46 0.80 0.86 0.30 0.31 0.41 0.24 0.22 0.29 0.31 0.46 0.32 0.19 0.04 0.03 0.06 0.10 0.08 0.11 0.15 0.17 0.17 0.16 0.12 0.07 0.07 0.08 0.09 0.10 0.13
0.10 0.23 0.39 0.57 0.55 0.48 0.23 0.13 0.14 0.09 0.09 0.16 0.25 0.32 0.70 0.72 0.96 0.47 0.30 0.50 0.27 0.23 0.24 0.21 0.29 0.23 0.10 0.08 0.07 0.07 0.11 0.14 0.15 0.14 0.15 0.19 0.19 0.20 0.17 0.16 0.14 0.14 0.15 0.16
0.11 0.12 0.16 0.22 0.19 0.14 0.09 0.08 0.08 0.14 0.18 0.21 0.26 0.62 1.02 0.70 1.03 0.75 0.20 0.46 0.50 0.33 0.32 0.28 0.24 0.12 0.06 0.05 0.05 0.08 0.11 0.13 0.16 0.18 0.20 0.18 0.18 0.17 0.17 0.17 0.21 0.20 0.26 0.45
0.10 0.07 0.05 0.11 0.10 0.15 0.15 0.13 0.12 0.13 0.10 0.13 0.43 0.79 0.92 0.71 0.94 0.61 0.25 0.54 0.58 0.35 0.24 0.19 0.18 0.15 0.15 0.15 0.18 0.18 0.26 0.31 0.31 0.37 0.36 0.36 0.35 0.41 0.50 0.57 0.67 0.55 0.66 0.88
0.03 0.01 0.08 0.10 0.25 0.17 0.14 0.12 0.12 0.12 0.13 0.24 0.44 0.71 0.62 0.56 0.78 0.27 0.22 0.28 0.29 0.17 0.15 0.20 0.28 0.26 0.26 0.31 0.39 0.45 0.54 0.59 0.63 0.66 0.59 0.64 0.62 0.51 0.63 0.72 0.68 0.56 0.57 0.58
0.04 0.11 0.16 0.11 0.14 0.12 0.10 0.11 0.15 0.16 0.24 0.38 0.59 0.59 0.39 0.31 0.24 0.12 0.15 0.13 0.21 0.28 0.25 0.31 0.31 0.34 0.43 0.47 0.48 0.51 0.53 0.51 0.53 0.56 0.52 0.51 0.49 0.44 0.49 0.47 0.44 0.45 0.37 0.37
0.19 0.24 0.25 0.23 0.23 0.26 0.29 0.27 0.26 0.28 0.31 0.44 0.35 0.32 0.28 0.18 0.07 0.07 0.13 0.26 0.37 0.35 0.38 0.39 0.41 0.42 0.48 0.47 0.41 0.45 0.40 0.36 0.36 0.33 0.28 0.29 0.30 0.20 0.13 0.17 0.25 0.18 0.16 0.14

GFSNW_prec_precacc24_057.txt.gz
Total_Precipitation_Accumulation
0.07 0.08 0.10 0.11 0.11 0.19 0.62 1.21 0.88 0.16 0.17 0.46 0.37 0.15 0.02 0.00 0.00 0.00 0.00 0.00 0.00 0.00 0.00 0.00 0.00 0.00 0.00 0.00 0.00 0.02 0.00 0.00 0.00 0.00 0.00 0.00 0.00 0.00 0.00 0.00 0.00 0.00 0.01 0.00
0.13 0.11 0.12 0.14 0.16 0.34 0.86 1.46 0.67 0.36 0.34 0.31 0.14 0.07 0.03 0.01 0.00 0.00 0.00 0.00 0.00 0.00 0.00 0.01 0.01 0.00 0.00 0.00 0.00 0.01 0.01 0.00 0.00 0.00 0.00 0.00 0.00 0.00 0.00 0.00 0.00 0.01 0.03 0.00
0.11 0.12 0.14 0.15 0.25 0.51 1.24 1.89 1.12 0.85 0.73 0.19 0.07 0.10 0.06 0.01 0.00 0.00 0.00 0.00 0.00 0.01 0.06 0.01 0.01 0.00 0.01 0.00 0.00 0.00 0.01 0.01 0.00 0.01 0.00 0.00 0.00 0.00 0.00 0.00 0.00 0.00 0.01 0.00
0.10 0.10 0.13 0.18 0.29 0.65 1.86 2.66 1.09 0.40 0.51 0.24 0.12 0.12 0.10 0.02 0.01 0.00 0.00 0.00 0.00 0.00 0.03 0.04 0.04 0.04 0.02 0.05 0.01 0.01 0.06 0.06 0.01 0.00 0.00 0.00 0.00 0.00 0.00 0.00 0.00 0.01 0.00 0.00
0.16 0.14 0.14 0.15 0.31 0.87 2.41 2.53 0.74 0.17 0.11 0.10 0.13 0.20 0.11 0.02 0.02 0.02 0.01 0.00 0.01 0.01 0.02 0.04 0.05 0.12 0.11 0.14 0.11 0.03 0.03 0.09 0.01 0.00 0.00 0.00 0.00 0.00 0.00 0.00 0.00 0.00 0.00 0.00
0.14 0.16 0.16 0.16 0.26 1.27 2.84 2.12 0.59 0.29 0.18 0.11 0.19 0.11 0.04 0.02 0.03 0.04 0.02 0.02 0.04 0.03 0.03 0.06 0.11 0.08 0.12 0.16 0.22 0.20 0.11 0.14 0.06 0.01 0.00 0.00 0.00 0.00 0.00 0.00 0.00 0.00 0.00 0.00
0.10 0.11 0.14 0.16 0.27 0.93 2.11 1.79 0.66 0.65 0.58 0.16 0.10 0.05 0.03 0.03 0.04 0.04 0.05 0.05 0.06 0.03 0.01 0.06 0.12 0.19 0.13 0.11 0.12 0.21 0.24 0.17 0.13 0.06 0.01 0.04 0.02 0.00 0.00 0.00 0.00 0.00 0.00 0.00
0.13 0.11 0.10 0.11 0.18 0.54 1.30 1.54 1.05 0.68 0.53 0.14 0.07 0.06 0.09 0.07 0.09 0.10 0.08 0.03 0.06 0.09 0.08 0.17 0.20 0.10 0.12 0.13 0.17 0.17 0.15 0.20 0.22 0.14 0.08 0.04 0.00 0.00 0.00 0.00 0.00 0.00 0.00 0.00
0.17 0.16 0.16 0.15 0.16 0.36 0.98 1.10 0.96 1.14 0.86 0.37 0.04 0.11 0.12 0.14 0.14 0.16 0.12 0.13 0.13 0.13 0.13 0.25 0.28 0.19 0.07 0.06 0.09 0.14 0.26 0.23 0.31 0.18 0.16 0.10 0.01 0.00 0.00 0.00 0.01 0.00 0.00 0.00
0.19 0.22 0.25 0.23 0.18 0.31 0.76 0.93 0.67 1.22 1.41 0.33 0.08 0.11 0.16 0.21 0.16 0.18 0.09 0.15 0.25 0.24 0.26 0.24 0.19 0.13 0.05 0.07 0.07 0.11 0.21 0.24 0.25 0.19 0.20 0.06 0.01 0.01 0.00 0.03 0.04 0.00 0.00 0.00
0.17 0.24 0.27 0.32 0.27 0.28 0.63 0.68 0.56 0.76 1.11 0.41 0.14 0.08 0.07 0.11 0.18 0.22 0.15 0.41 0.39 0.40 0.29 0.16 0.10 0.06 0.03 0.03 0.08 0.07 0.14 0.19 0.20 0.23 0.20 0.06 0.02 0.06 0.09 0.08 0.01 0.00 0.00 0.00
0.17 0.22 0.29 0.34 0.39 0.35 0.62 0.79 0.53 0.60 0.94 0.67 0.11 0.09 0.06 0.04 0.03 0.08 0.19 0.18 0.14 0.15 0.18 0.07 0.06 0.04 0.02 0.01 0.03 0.05 0.06 0.09 0.10 0.10 0.06 0.02 0.02 0.06 0.04 0.01 0.01 0.01 0.01 0.00
0.25 0.20 0.27 0.39 0.43 0.46 0.75 0.78 0.52 0.94 1.30 0.91 0.44 0.09 0.04 0.03 0.04 0.07 0.23 0.10 0.16 0.13 0.13 0.16 0.13 0.09 0.02 0.02 0.01 0.03 0.02 0.02 0.05 0.07 0.02 0.03 0.03 0.02 0.01 0.00 0.01 0.01 0.00 0.00
0.26 0.31 0.31 0.35 0.44 0.51 0.83 0.87 0.53 0.61 0.66 0.62 0.51 0.15 0.03 0.02 0.05 0.15 0.15 0.09 0.16 0.18 0.19 0.21 0.22 0.11 0.03 0.03 0.01 0.01 0.02 0.05 0.05 0.03 0.01 0.02 0.03 0.12 0.09 0.04 0.02 0.02 0.02 0.03
0.22 0.23 0.35 0.41 0.48 0.64 1.03 0.83 0.46 0.26 0.29 0.31 0.30 0.11 0.03 0.01 0.03 0.11 0.24 0.25 0.29 0.49 0.38 0.31 0.15 0.07 0.09 0.07 0.06 0.01 0.02 0.04 0.08 0.05 0.04 0.01 0.02 0.03 0.03 0.08 0.10 0.04 0.04 0.04
0.15 0.28 0.41 0.49 0.64 1.06 1.64 2.41 1.38 0.39 0.42 0.46 0.33 0.16 0.04 0.03 0.03 0.11 0.13 0.31 0.49 0.61 0.65 0.32 0.08 0.04 0.16 0.14 0.11 0.07 0.06 0.05 0.02 0.02 0.01 0.02 0.01 0.03 0.04 0.02 0.05 0.06 0.05 0.05
0.21 0.35 0.47 0.49 0.83 0.94 0.96 0.76 0.45 0.35 0.65 0.72 0.42 0.16 0.06 0.04 0.06 0.12 0.19 0.30 0.73 1.12 0.96 0.56 0.25 0.14 0.27 0.18 0.14 0.09 0.07 0.07 0.04 0.02 0.02 0.05 0.03 0.03 0.03 0.03 0.02 0.01 0.01 0.01
0.34 0.53 0.63 0.71 0.81 0.88 0.44 0.16 0.04 0.22 0.71 0.60 0.48 0.23 0.16 0.13 0.12 0.13 0.21 0.37 0.64 0.88 1.04 0.65 0.39 0.44 0.49 0.43 0.15 0.03 0.00 0.01 0.05 0.06 0.07 0.08 0.06 0.03 0.02 0.01 0.01 0.01 0.00 0.00
0.69 0.80 1.00 1.62 1.20 1.03 0.47 0.29 0.22 0.29 0.42 0.31 0.23 0.29 0.50 0.37 0.23 0.16 0.22 0.40 0.61 0.58 0.52 0.55 0.62 0.85 0.83 0.49 0.14 0.08 0.04 0.01 0.00 0.00 0.00 0.01 0.02 0.02 0.01 0.00 0.01 0.00 0.00 0.00
0.62 0.85 1.40 1.62 0.85 0.49 0.64 1.00 0.78 0.68 0.36 0.17 0.14 0.15 0.45 0.86 0.46 0.26 0.22 0.23 0.29 0.38 0.34 0.52 0.81 0.69 0.31 0.13 0.14 0.12 0.09 0.08 0.04 0.02 0.01 0.01 0.02 0.02 0.01 0.02 0.02 0.02 0.02 0.02
0.47 0.72 1.04 0.76 0.49 0.39 0.54 0.59 0.44 0.29 0.17 0.08 0.15 0.16 0.39 0.73 0.80 0.25 0.18 0.17 0.17 0.21 0.28 0.31 0.49 0.33 0.19 0.04 0.03 0.06 0.10 0.08 0.11 0.15 0.17 0.18 0.17 0.12 0.08 0.08 0.09 0.10 0.11 0.15
0.15 0.36 0.38 0.47 0.47 0.38 0.24 0.14 0.14 0.08 0.10 0.15 0.24 0.32 0.71 0.71 0.98 0.51 0.31 0.44 0.17 0.25 0.23 0.19 0.26 0.22 0.10 0.08 0.08 0.07 0.11 0.14 0.15 0.14 0.15 0.20 0.20 0.21 0.18 0.16 0.16 0.16 0.17 0.20
0.07 0.06 0.14 0.21 0.20 0.14 0.10 0.08 0.09 0.15 0.19 0.21 0.26 0.61 1.02 0.70 1.04 0.79 0.25 0.51 0.51 0.31 0.29 0.22 0.20 0.10 0.05 0.05 0.05 0.08 0.12 0.13 0.16 0.19 0.21 0.18 0.19 0.18 0.16 0.17 0.21 0.19 0.22 0.38
0.06 0.06 0.05 0.06 0.07 0.11 0.15 0.12 0.11 0.14 0.10 0.13 0.41 0.81 0.94 0.74 0.99 0.73 0.35 0.52 0.56 0.31 0.21 0.15 0.16 0.12 0.13 0.13 0.15 0.14 0.20 0.23 0.23 0.28 0.28 0.29 0.30 0.34 0.37 0.40 0.49 0.39 0.48 0.67
0.00 0.00 0.04 0.05 0.18 0.12 0.11 0.11 0.12 0.11 0.13 0.22 0.46 0.75 0.66 0.56 0.75 0.25 0.21 0.26 0.28 0.16 0.14 0.19 0.24 0.22 0.21 0.24 0.28 0.30 0.34 0.36 0.38 0.44 0.41 0.47 0.49 0.40 0.50 0.59 0.56 0.46 0.48 0.50
0.00 0.05 0.09 0.05 0.07 0.06 0.05 0.08 0.13 0.14 0.21 0.34 0.57 0.55 0.45 0.32 0.22 0.05 0.10 0.11 0.20 0.26 0.23 0.27 0.24 0.28 0.37 0.41 0.41 0.42 0.43 0.40 0.42 0.44 0.42 0.42 0.42 0.39 0.44 0.42 0.39 0.39 0.32 0.31
0.06 0.12 0.12 0.10 0.09 0.10 0.14 0.14 0.14 0.17 0.24 0.35 0.29 0.28 0.28 0.17 0.07 0.06 0.11 0.21 0.33 0.33 0.35 0.34 0.33 0.34 0.40 0.40 0.35 0.39 0.35 0.31 0.31 0.28 0.24 0.24 0.24 0.16 0.11 0.14 0.19 0.13 0.12 0.11

GFSNW_prec_precacc24_060.txt.gz
Total_Precipitation_Accumulation
0.06 0.06 0.08 0.08 0.09 0.20 0.58 1.15 0.83 0.17 0.17 0.42 0.33 0.14 0.02 0.00 0.00 0.00 0.00 0.00 0.00 0.00 0.00 0.00 0.00 0.00 0.00 0.00 0.00 0.02 0.00 0.00 0.00 0.00 0.00 0.00 0.00 0.00 0.00 0.01 0.01 0.01 0.01 0.00
0.11 0.10 0.11 0.13 0.14 0.31 0.81 1.35 0.62 0.32 0.41 0.33 0.13 0.07 0.03 0.01 0.00 0.00 0.00 0.00 0.00 0.00 0.00 0.00 0.00 0.00 0.00 0.00 0.00 0.01 0.01 0.00 0.00 0.01 0.02 0.00 0.00 0.00 0.00 0.00 0.03 0.06 0.04 0.01
0.10 0.11 0.10 0.12 0.18 0.38 1.15 1.75 1.00 0.75 0.73 0.20 0.10 0.14 0.09 0.02 0.00 0.00 0.00 0.00 0.00 0.00 0.00 0.00 0.00 0.00 0.01 0.00 0.00 0.00 0.01 0.01 0.00 0.02 0.05 0.02 0.01 0.00 0.00 0.00 0.05 0.04 0.03 0.01
0.11 0.11 0.12 0.14 0.20 0.47 1.61 2.28 0.84 0.35 0.51 0.23 0.13 0.15 0.15 0.05 0.01 0.00 0.00 0.00 0.00 0.00 0.01 0.01 0.00 0.00 0.01 0.05 0.01 0.01 0.06 0.07 0.03 0.00 0.00 0.00 0.01 0.01 0.00 0.01 0.02 0.03 0.00 0.01
0.16 0.15 0.15 0.15 0.24 0.66 2.06 2.01 0.57 0.17 0.14 0.14 0.17 0.21 0.12 0.05 0.05 0.03 0.02 0.00 0.01 0.01 0.01 0.01 0.02 0.05 0.08 0.13 0.11 0.03 0.05 0.11 0.01 0.00 0.00 0.00 0.00 0.00 0.04 0.00 0.00 0.00 0.00 0.01
0.13 0.16 0.18 0.20 0.26 0.99 2.13 1.43 0.48 0.36 0.24 0.12 0.21 0.16 0.06 0.02 0.03 0.06 0.04 0.04 0.05 0.04 0.02 0.02 0.02 0.03 0.06 0.14 0.21 0.20 0.11 0.15 0.12 0.04 0.00 0.00 0.00 0.00 0.00 0.01 0.00 0.00 0.00 0.00
0.09 0.10 0.13 0.18 0.30 0.74 1.38 1.24 0.60 0.67 0.58 0.15 0.11 0.07 0.06 0.05 0.04 0.04 0.05 0.08 0.11 0.09 0.01 0.01 0.03 0.03 0.03 0.05 0.11 0.20 0.24 0.17 0.17 0.11 0.03 0.05 0.02 0.00 0.00 0.00 0.00 0.00 0.00 0.00
0.12 0.10 0.10 0.11 0.21 0.46 0.90 1.23 1.09 0.72 0.53 0.15 0.07 0.08 0.11 0.09 0.10 0.11 0.09 0.06 0.11 0.15 0.10 0.11 0.11 0.06 0.06 0.05 0.11 0.16 0.15 0.18 0.23 0.15 0.12 0.06 0.01 0.00 0.00 0.00 0.00 0.00 0.00 0.00
0.12 0.13 0.14 0.14 0.17 0.31 0.73 0.96 0.94 1.27 0.92 0.37 0.06 0.12 0.13 0.16 0.17 0.17 0.15 0.17 0.15 0.13 0.16 0.22 0.21 0.20 0.10 0.07 0.05 0.11 0.25 0.21 0.26 0.19 0.17 0.10 0.01 0.00 0.00 0.00 0.01 0.00 0.00 0.00
0.13 0.14 0.18 0.19 0.18 0.24 0.59 0.83 0.61 1.26 1.47 0.32 0.07 0.13 0.19 0.25 0.19 0.21 0.15 0.20 0.20 0.23 0.24 0.22 0.18 0.17 0.12 0.16 0.13 0.07 0.15 0.23 0.22 0.18 0.19 0.06 0.01 0.01 0.00 0.04 0.08 0.00 0.00 0.00
0.21 0.18 0.21 0.26 0.25 0.26 0.54 0.56 0.54 0.77 1.09 0.38 0.12 0.06 0.06 0.13 0.24 0.30 0.23 0.39 0.32 0.29 0.27 0.16 0.12 0.11 0.08 0.06 0.14 0.08 0.04 0.12 0.18 0.19 0.19 0.07 0.02 0.06 0.11 0.13 0.02 0.00 0.00 0.00
0.25 0.24 0.26 0.27 0.35 0.33 0.50 0.70 0.48 0.60 0.90 0.58 0.10 0.06 0.05 0.04 0.05 0.16 0.28 0.18 0.18 0.11 0.12 0.10 0.12 0.10 0.06 0.03 0.08 0.13 0.11 0.01 0.05 0.08 0.06 0.02 0.03 0.07 0.06 0.01 0.02 0.01 0.01 0.00
0.28 0.19 0.24 0.31 0.39 0.41 0.62 0.69 0.42 0.86 1.24 0.82 0.41 0.07 0.03 0.03 0.04 0.07 0.23 0.10 0.18 0.20 0.21 0.29 0.21 0.13 0.04 0.03 0.02 0.09 0.11 0.02 0.06 0.09 0.03 0.04 0.04 0.04 0.01 0.00 0.01 0.01 0.00 0.00
0.24 0.26 0.28 0.32 0.41 0.44 0.75 0.81 0.44 0.62 0.70 0.57 0.43 0.13 0.02 0.02 0.05 0.13 0.10 0.08 0.19 0.30 0.36 0.37 0.27 0.13 0.05 0.05 0.02 0.03 0.10 0.16 0.09 0.09 0.05 0.08 0.19 0.18 0.09 0.04 0.02 0.02 0.02 0.03
0.20 0.22 0.32 0.37 0.42 0.55 0.95 0.83 0.46 0.31 0.29 0.32 0.31 0.10 0.03 0.01 0.03 0.10 0.20 0.20 0.27 0.39 0.34 0.35 0.16 0.11 0.12 0.08 0.07 0.02 0.03 0.11 0.13 0.12 0.11 0.08 0.22 0.05 0.02 0.07 0.09 0.04 0.04 0.04
0.14 0.24 0.35 0.41 0.56 0.96 1.69 2.47 1.34 0.41 0.45 0.46 0.33 0.19 0.06 0.04 0.04 0.12 0.12 0.30 0.50 0.60 0.70 0.35 0.09 0.05 0.18 0.16 0.14 0.12 0.09 0.05 0.02 0.04 0.01 0.02 0.01 0.03 0.02 0.01 0.04 0.06 0.04 0.05
0.17 0.29 0.40 0.48 0.85 1.00 1.20 0.90 0.47 0.36 0.69 0.79 0.47 0.18 0.08 0.05 0.09 0.17 0.21 0.35 0.79 1.11 0.95 0.56 0.26 0.18 0.31 0.20 0.16 0.17 0.08 0.07 0.04 0.02 0.02 0.05 0.03 0.03 0.02 0.02 0.02 0.01 0.01 0.01
0.30 0.47 0.60 0.75 0.93 1.01 0.55 0.21 0.04 0.22 0.74 0.68 0.58 0.35 0.17 0.12 0.13 0.17 0.23 0.39 0.65 0.93 1.04 0.68 0.41 0.46 0.48 0.44 0.16 0.04 0.00 0.01 0.05 0.06 0.07 0.08 0.06 0.03 0.02 0.01 0.01 0.01 0.00 0.00
0.69 0.86 1.18 1.87 1.41 1.12 0.56 0.33 0.23 0.28 0.44 0.38 0.27 0.31 0.29 0.23 0.19 0.16 0.23 0.38 0.61 0.62 0.53 0.54 0.60 0.82 0.79 0.51 0.13 0.08 0.04 0.01 0.00 0.00 0.00 0.01 0.02 0.02 0.01 0.00 0.01 0.00 0.00 0.00
0.84 1.15 1.63 1.72 0.94 0.56 0.77 1.15 0.89 0.79 0.43 0.23 0.16 0.12 0.26 0.47 0.38 0.24 0.20 0.19 0.27 0.37 0.34 0.52 0.81 0.69 0.30 0.13 0.14 0.12 0.09 0.08 0.04 0.02 0.01 0.01 0.02 0.02 0.01 0.02 0.02 0.02 0.02 0.02
0.58 0.78 1.07 0.78 0.56 0.48 0.66 0.69 0.54 0.37 0.21 0.11 0.16 0.16 0.19 0.21 0.59 0.26 0.15 0.12 0.15 0.19 0.28 0.28 0.52 0.36 0.19 0.04 0.03 0.06 0.10 0.08 0.11 0.15 0.17 0.18 0.17 0.13 0.08 0.08 0.09 0.11 0.12 0.16
0.18 0.39 0.46 0.61 0.52 0.41 0.33 0.21 0.17 0.10 0.11 0.12 0.19 0.24 0.39 0.22 0.68 0.43 0.16 0.23 0.11 0.18 0.20 0.13 0.17 0.18 0.09 0.07 0.07 0.07 0.11 0.14 0.16 0.15 0.16 0.20 0.21 0.21 0.18 0.17 0.16 0.17 0.19 0.21
0.02 0.03 0.14 0.16 0.10 0.12 0.11 0.08 0.08 0.15 0.19 0.21 0.22 0.43 0.79 0.45 0.82 0.65 0.19 0.29 0.23 0.18 0.25 0.17 0.15 0.08 0.04 0.05 0.05 0.08 0.12 0.13 0.16 0.19 0.21 0.19 0.19 0.18 0.17 0.17 0.22 0.20 0.22 0.36
0.01 0.01 0.03 0.03 0.03 0.08 0.11 0.12 0.10 0.13 0.10 0.13 0.39 0.78 0.91 0.72 0.92 0.68 0.37 0.47 0.40 0.20 0.19 0.13 0.15 0.11 0.11 0.11 0.12 0.11 0.17 0.20 0.21 0.26 0.26 0.27 0.26 0.28 0.30 0.32 0.39 0.27 0.33 0.48
0.00 0.00 0.03 0.04 0.15 0.11 0.11 0.11 0.12 0.11 0.13 0.21 0.40 0.71 0.64 0.56 0.72 0.26 0.22 0.27 0.28 0.16 0.13 0.17 0.21 0.19 0.18 0.21 0.25 0.26 0.29 0.29 0.30 0.33 0.29 0.33 0.33 0.25 0.34 0.43 0.41 0.33 0.36 0.38
0.00 0.03 0.06 0.05 0.07 0.07 0.06 0.09 0.13 0.14 0.20 0.29 0.53 0.50 0.44 0.34 0.24 0.09 0.12 0.14 0.20 0.24 0.21 0.24 0.20 0.24 0.31 0.35 0.36 0.37 0.37 0.34 0.34 0.35 0.33 0.33 0.31 0.29 0.33 0.32 0.29 0.29 0.24 0.23
0.02 0.06 0.08 0.08 0.08 0.10 0.14 0.14 0.14 0.17 0.24 0.35 0.30 0.28 0.31 0.21 0.08 0.06 0.10 0.18 0.29 0.29 0.32 0.30 0.29 0.28 0.34 0.34 0.31 0.34 0.31 0.27 0.26 0.23 0.20 0.19 0.18 0.11 0.07 0.09 0.12 0.07 0.06 0.05

GFSNW_prec_precacc24_066.txt.gz
Total_Precipitation_Accumulation
0.06 0.06 0.07 0.07 0.08 0.15 0.29 0.57 0.51 0.15 0.20 0.36 0.33 0.14 0.02 0.00 0.00 0.00 0.00 0.00 0.00 0.00 0.00 0.00 0.00 0.00 0.01 0.00 0.00 0.02 0.00 0.00 0.00 0.00 0.00 0.00 0.01 0.01 0.02 0.12 0.06 0.01 0.01 0.07
0.13 0.11 0.11 0.12 0.14 0.25 0.45 0.70 0.30 0.24 0.56 0.65 0.14 0.07 0.03 0.01 0.00 0.00 0.00 0.00 0.00 0.00 0.00 0.00 0.00 0.00 0.00 0.00 0.00 0.01 0.01 0.00 0.01 0.01 0.02 0.01 0.00 0.00 0.01 0.03 0.12 0.15 0.05 0.03
0.09 0.10 0.10 0.12 0.20 0.35 0.78 0.98 0.50 0.42 0.61 0.25 0.29 0.32 0.16 0.03 0.00 0.00 0.00 0.00 0.00 0.00 0.00 0.00 0.00 0.00 0.00 0.00 0.00 0.00 0.00 0.01 0.01 0.03 0.07 0.09 0.04 0.01 0.01 0.04 0.20 0.11 0.11 0.03
0.08 0.09 0.13 0.14 0.21 0.44 1.08 1.18 0.41 0.23 0.41 0.28 0.17 0.21 0.24 0.11 0.09 0.03 0.00 0.01 0.00 0.00 0.01 0.01 0.00 0.00 0.00 0.00 0.01 0.01 0.02 0.03 0.03 0.00 0.00 0.03 0.07 0.06 0.03 0.04 0.04 0.09 0.04 0.10
0.16 0.15 0.15 0.16 0.21 0.58 1.38 0.86 0.22 0.17 0.14 0.17 0.25 0.31 0.16 0.05 0.07 0.11 0.07 0.03 0.02 0.01 0.02 0.02 0.02 0.02 0.03 0.02 0.01 0.02 0.03 0.04 0.01 0.00 0.00 0.00 0.01 0.01 0.10 0.07 0.03 0.04 0.05 0.11
0.10 0.12 0.16 0.21 0.29 0.80 1.23 0.53 0.20 0.41 0.25 0.11 0.18 0.18 0.12 0.08 0.06 0.09 0.10 0.15 0.09 0.05 0.08 0.05 0.02 0.04 0.03 0.01 0.01 0.01 0.03 0.04 0.08 0.05 0.00 0.00 0.00 0.00 0.03 0.08 0.07 0.11 0.15 0.05
0.09 0.10 0.12 0.17 0.35 0.70 0.70 0.40 0.32 0.50 0.34 0.12 0.10 0.07 0.08 0.10 0.09 0.09 0.06 0.14 0.30 0.17 0.03 0.03 0.01 0.01 0.01 0.00 0.00 0.00 0.01 0.02 0.08 0.08 0.04 0.05 0.01 0.00 0.00 0.02 0.05 0.05 0.08 0.09
0.12 0.13 0.14 0.15 0.26 0.53 0.74 0.54 0.54 0.53 0.34 0.10 0.07 0.08 0.11 0.11 0.19 0.17 0.11 0.09 0.18 0.19 0.13 0.11 0.05 0.03 0.04 0.01 0.00 0.00 0.00 0.01 0.07 0.06 0.10 0.06 0.01 0.00 0.00 0.02 0.03 0.04 0.05 0.06
0.10 0.11 0.14 0.16 0.20 0.38 0.73 0.70 0.56 0.78 0.66 0.17 0.05 0.12 0.14 0.19 0.19 0.28 0.18 0.31 0.25 0.17 0.16 0.18 0.13 0.09 0.09 0.08 0.04 0.02 0.01 0.01 0.06 0.08 0.06 0.04 0.01 0.00 0.00 0.01 0.05 0.01 0.01 0.01
0.12 0.12 0.12 0.13 0.16 0.26 0.61 0.74 0.55 0.92 0.98 0.17 0.08 0.17 0.25 0.35 0.33 0.31 0.31 0.42 0.28 0.23 0.23 0.21 0.11 0.09 0.11 0.17 0.15 0.09 0.04 0.05 0.04 0.07 0.07 0.02 0.00 0.01 0.01 0.04 0.13 0.01 0.00 0.00
0.28 0.23 0.19 0.16 0.16 0.20 0.51 0.55 0.52 0.66 0.77 0.21 0.09 0.05 0.10 0.21 0.30 0.44 0.47 0.53 0.47 0.29 0.24 0.16 0.10 0.10 0.09 0.09 0.21 0.19 0.09 0.05 0.05 0.06 0.08 0.02 0.00 0.06 0.13 0.15 0.03 0.01 0.00 0.00
0.35 0.37 0.37 0.32 0.25 0.21 0.42 0.59 0.42 0.56 0.81 0.31 0.05 0.05 0.05 0.04 0.05 0.17 0.39 0.48 0.47 0.25 0.14 0.15 0.14 0.14 0.12 0.10 0.15 0.25 0.36 0.12 0.04 0.01 0.01 0.05 0.07 0.10 0.09 0.04 0.04 0.02 0.02 0.01
0.30 0.29 0.31 0.33 0.32 0.34 0.46 0.49 0.32 0.78 1.17 0.55 0.13 0.04 0.01 0.01 0.03 0.07 0.23 0.12 0.39 0.45 0.30 0.37 0.24 0.21 0.14 0.08 0.06 0.16 0.19 0.10 0.13 0.14 0.11 0.10 0.20 0.18 0.02 0.01 0.01 0.01 0.00 0.00
0.34 0.37 0.34 0.34 0.34 0.40 0.56 0.60 0.39 0.50 0.63 0.34 0.15 0.01 0.01 0.01 0.04 0.08 0.06 0.06 0.15 0.33 0.39 0.48 0.37 0.26 0.22 0.16 0.08 0.08 0.17 0.38 0.23 0.25 0.30 0.22 0.28 0.48 0.21 0.04 0.01 0.01 0.01 0.00
0.21 0.25 0.33 0.33 0.42 0.45 0.68 0.69 0.36 0.21 0.19 0.34 0.16 0.01 0.00 0.00 0.01 0.05 0.15 0.16 0.16 0.25 0.31 0.36 0.21 0.22 0.34 0.14 0.06 0.11 0.13 0.70 0.67 0.38 0.58 0.69 0.55 0.27 0.25 0.16 0.03 0.00 0.01 0.01
0.12 0.22 0.29 0.33 0.47 0.75 1.42 2.10 0.98 0.21 0.25 0.40 0.21 0.14 0.03 0.02 0.01 0.05 0.10 0.21 0.36 0.39 0.49 0.29 0.11 0.10 0.37 0.18 0.21 0.28 0.13 0.16 0.31 0.42 0.43 0.57 0.37 0.14 0.07 0.05 0.03 0.02 0.03 0.04
0.13 0.25 0.34 0.36 0.64 0.85 1.05 0.76 0.39 0.18 0.33 0.80 0.45 0.14 0.09 0.04 0.08 0.14 0.17 0.28 0.58 0.74 0.61 0.40 0.22 0.16 0.28 0.26 0.18 0.23 0.10 0.08 0.10 0.15 0.13 0.09 0.05 0.04 0.02 0.02 0.02 0.01 0.01 0.01
0.24 0.36 0.41 0.55 0.80 0.83 0.51 0.21 0.08 0.13 0.56 0.70 0.62 0.37 0.35 0.17 0.18 0.28 0.24 0.40 0.68 0.82 0.65 0.44 0.34 0.41 0.37 0.37 0.15 0.04 0.01 0.04 0.05 0.07 0.08 0.08 0.06 0.03 0.02 0.01 0.01 0.01 0.00 0.00
0.47 0.60 1.04 1.89 1.44 1.06 0.52 0.32 0.24 0.28 0.44 0.39 0.29 0.37 0.61 0.48 0.34 0.39 0.31 0.43 0.67 0.64 0.47 0.31 0.35 0.66 0.62 0.36 0.10 0.08 0.04 0.01 0.00 0.00 0.00 0.01 0.02 0.02 0.01 0.00 0.01 0.01 0.01 0.01
0.77 1.17 1.79 1.77 0.90 0.53 0.78 1.33 1.28 1.10 0.45 0.25 0.17 0.13 0.28 0.62 0.53 0.32 0.39 0.30 0.32 0.42 0.33 0.37 0.42 0.33 0.19 0.09 0.09 0.08 0.08 0.07 0.04 0.02 0.02 0.02 0.03 0.02 0.01 0.02 0.03 0.02 0.03 0.04
0.61 0.89 1.21 0.80 0.61 0.55 0.78 0.91 0.70 0.49 0.23 0.12 0.16 0.16 0.21 0.24 0.61 0.27 0.15 0.12 0.16 0.18 0.26 0.25 0.34 0.26 0.16 0.03 0.01 0.04 0.09 0.08 0.09 0.12 0.13 0.13 0.16 0.13 0.08 0.08 0.10 0.11 0.13 0.16
0.21 0.54 0.59 0.74 0.64 0.55 0.46 0.28 0.20 0.12 0.11 0.10 0.14 0.21 0.30 0.16 0.55 0.40 0.20 0.15 0.09 0.17 0.17 0.15 0.16 0.14 0.09 0.07 0.07 0.07 0.10 0.13 0.16 0.15 0.16 0.19 0.19 0.21 0.18 0.17 0.17 0.18 0.20 0.22
0.07 0.08 0.19 0.24 0.18 0.23 0.24 0.11 0.07 0.11 0.09 0.08 0.13 0.23 0.31 0.18 0.45 0.57 0.21 0.23 0.15 0.08 0.15 0.16 0.11 0.08 0.04 0.03 0.03 0.06 0.10 0.11 0.15 0.18 0.19 0.18 0.18 0.17 0.16 0.16 0.20 0.18 0.18 0.27
0.02 0.05 0.06 0.10 0.04 0.10 0.13 0.10 0.07 0.07 0.07 0.10 0.16 0.23 0.25 0.23 0.48 0.47 0.27 0.16 0.06 0.07 0.10 0.08 0.12 0.07 0.06 0.05 0.05 0.05 0.10 0.11 0.12 0.16 0.16 0.17 0.16 0.19 0.21 0.23 0.28 0.20 0.22 0.31
0.00 0.00 0.02 0.03 0.09 0.09 0.09 0.10 0.07 0.07 0.08 0.18 0.24 0.24 0.23 0.17 0.44 0.15 0.11 0.08 0.08 0.07 0.09 0.11 0.13 0.09 0.08 0.09 0.11 0.12 0.15 0.17 0.18 0.22 0.19 0.21 0.22 0.17 0.21 0.27 0.26 0.21 0.22 0.23
0.00 0.03 0.06 0.07 0.08 0.09 0.08 0.11 0.11 0.10 0.16 0.20 0.23 0.20 0.19 0.15 0.16 0.08 0.07 0.08 0.08 0.10 0.10 0.13 0.09 0.11 0.14 0.17 0.20 0.23 0.25 0.24 0.26 0.28 0.27 0.27 0.25 0.22 0.23 0.22 0.19 0.18 0.15 0.13
0.01 0.04 0.08 0.09 0.08 0.09 0.12 0.14 0.14 0.16 0.22 0.22 0.18 0.13 0.12 0.10 0.03 0.03 0.04 0.09 0.15 0.16 0.19 0.17 0.15 0.15 0.21 0.23 0.24 0.27 0.25 0.23 0.22 0.19 0.17 0.14 0.12 0.09 0.06 0.05 0.06 0.03 0.01 0.01

GFSNW_prec_precacc24_069.txt.gz
Total_Precipitation_Accumulation
0.06 0.06 0.06 0.06 0.07 0.14 0.14 0.23 0.23 0.12 0.20 0.35 0.32 0.15 0.02 0.00 0.00 0.00 0.00 0.00 0.00 0.00 0.00 0.00 0.00 0.00 0.02 0.00 0.01 0.03 0.00 0.00 0.00 0.00 0.00 0.00 0.01 0.03 0.07 0.18 0.10 0.02 0.03 0.14
0.13 0.11 0.10 0.10 0.11 0.20 0.24 0.34 0.12 0.16 0.56 0.74 0.19 0.08 0.04 0.01 0.00 0.00 0.00 0.00 0.00 0.00 0.00 0.00 0.00 0.00 0.00 0.00 0.00 0.01 0.01 0.00 0.01 0.01 0.02 0.01 0.00 0.02 0.03 0.07 0.17 0.16 0.09 0.09
0.08 0.10 0.09 0.10 0.15 0.26 0.47 0.56 0.33 0.23 0.50 0.25 0.34 0.44 0.22 0.05 0.03 0.03 0.02 0.00 0.00 0.00 0.00 0.01 0.00 0.00 0.00 0.00 0.00 0.00 0.00 0.01 0.01 0.03 0.08 0.10 0.06 0.04 0.03 0.10 0.28 0.14 0.11 0.06
0.07 0.08 0.11 0.11 0.17 0.29 0.62 0.72 0.29 0.19 0.32 0.26 0.20 0.27 0.29 0.16 0.14 0.07 0.02 0.01 0.01 0.02 0.02 0.02 0.01 0.00 0.00 0.00 0.00 0.00 0.01 0.02 0.03 0.00 0.00 0.03 0.08 0.08 0.06 0.07 0.05 0.11 0.04 0.10
0.15 0.13 0.13 0.14 0.17 0.39 0.81 0.52 0.18 0.16 0.13 0.16 0.25 0.31 0.18 0.08 0.11 0.13 0.11 0.05 0.03 0.02 0.03 0.02 0.02 0.02 0.03 0.02 0.02 0.02 0.03 0.04 0.01 0.00 0.00 0.00 0.01 0.01 0.11 0.12 0.06 0.06 0.05 0.12
0.10 0.11 0.14 0.18 0.23 0.54 0.73 0.38 0.20 0.40 0.23 0.10 0.16 0.18 0.14 0.11 0.06 0.11 0.13 0.20 0.13 0.05 0.09 0.07 0.04 0.05 0.03 0.01 0.01 0.03 0.04 0.05 0.08 0.05 0.00 0.00 0.00 0.00 0.03 0.10 0.13 0.22 0.22 0.07
0.08 0.08 0.09 0.13 0.29 0.51 0.43 0.31 0.31 0.47 0.29 0.10 0.10 0.07 0.08 0.10 0.09 0.10 0.06 0.16 0.41 0.21 0.04 0.04 0.02 0.02 0.01 0.00 0.00 0.00 0.01 0.02 0.07 0.07 0.04 0.03 0.00 0.00 0.00 0.02 0.06 0.08 0.12 0.14
0.10 0.10 0.12 0.13 0.24 0.45 0.51 0.36 0.47 0.50 0.30 0.08 0.07 0.08 0.11 0.11 0.19 0.17 0.11 0.09 0.21 0.24 0.15 0.12 0.06 0.04 0.04 0.01 0.00 0.00 0.00 0.01 0.06 0.06 0.10 0.04 0.01 0.00 0.00 0.03 0.03 0.04 0.06 0.10
0.10 0.10 0.15 0.17 0.21 0.40 0.56 0.47 0.45 0.74 0.61 0.16 0.05 0.12 0.14 0.19 0.20 0.28 0.18 0.31 0.30 0.25 0.28 0.19 0.13 0.09 0.09 0.08 0.04 0.01 0.00 0.01 0.06 0.08 0.06 0.02 0.00 0.00 0.00 0.00 0.04 0.01 0.01 0.06
0.11 0.11 0.11 0.12 0.16 0.27 0.56 0.56 0.40 0.82 0.92 0.16 0.08 0.16 0.25 0.35 0.34 0.31 0.32 0.44 0.32 0.30 0.24 0.18 0.10 0.09 0.11 0.16 0.15 0.09 0.04 0.05 0.04 0.07 0.07 0.02 0.00 0.00 0.00 0.05 0.12 0.01 0.00 0.01
0.28 0.22 0.16 0.14 0.15 0.20 0.48 0.52 0.44 0.58 0.69 0.19 0.08 0.05 0.10 0.21 0.31 0.47 0.48 0.61 0.58 0.32 0.24 0.11 0.09 0.10 0.09 0.09 0.21 0.19 0.09 0.05 0.05 0.05 0.08 0.02 0.00 0.01 0.06 0.16 0.05 0.02 0.01 0.01
0.35 0.37 0.34 0.29 0.23 0.19 0.40 0.50 0.39 0.51 0.71 0.28 0.04 0.05 0.05 0.04 0.05 0.17 0.40 0.51 0.50 0.47 0.23 0.16 0.14 0.14 0.12 0.10 0.15 0.25 0.43 0.17 0.06 0.01 0.01 0.05 0.07 0.08 0.07 0.03 0.10 0.06 0.18 0.14
0.30 0.29 0.31 0.31 0.30 0.33 0.48 0.41 0.28 0.77 1.07 0.51 0.13 0.04 0.01 0.01 0.03 0.07 0.23 0.13 0.42 0.65 0.37 0.41 0.24 0.21 0.15 0.08 0.06 0.16 0.23 0.19 0.28 0.20 0.14 0.10 0.20 0.19 0.03 0.00 0.01 0.01 0.05 0.20
0.33 0.36 0.35 0.37 0.38 0.45 0.71 0.74 0.34 0.49 0.62 0.31 0.14 0.01 0.01 0.01 0.04 0.07 0.06 0.06 0.15 0.33 0.38 0.50 0.36 0.25 0.23 0.20 0.10 0.20 0.24 0.40 0.23 0.35 0.35 0.23 0.30 0.49 0.24 0.06 0.02 0.02 0.01 0.00
0.24 0.28 0.37 0.44 0.56 0.63 0.92 0.85 0.40 0.22 0.19 0.35 0.16 0.01 0.00 0.00 0.01 0.04 0.10 0.14 0.14 0.23 0.29 0.35 0.21 0.23 0.41 0.40 0.19 0.19 0.15 0.70 0.66 0.45 0.72 0.79 0.75 0.34 0.29 0.34 0.13 0.03 0.01 0.01
0.12 0.21 0.29 0.34 0.53 0.87 1.41 2.01 0.93 0.21 0.24 0.35 0.16 0.07 0.02 0.01 0.01 0.05 0.07 0.18 0.31 0.35 0.45 0.23 0.10 0.12 0.51 0.44 0.39 0.31 0.16 0.18 0.37 0.61 0.62 0.70 0.59 0.24 0.08 0.06 0.11 0.10 0.05 0.04
0.13 0.20 0.27 0.34 0.54 0.72 0.94 0.67 0.33 0.18 0.30 0.61 0.29 0.08 0.06 0.02 0.05 0.12 0.15 0.23 0.51 0.66 0.56 0.24 0.10 0.13 0.27 0.38 0.30 0.25 0.10 0.13 0.12 0.28 0.23 0.06 0.04 0.04 0.03 0.02 0.02 0.01 0.01 0.01
0.24 0.31 0.36 0.48 0.71 0.78 0.49 0.21 0.08 0.08 0.32 0.43 0.43 0.31 0.31 0.11 0.13 0.25 0.18 0.31 0.47 0.62 0.60 0.40 0.14 0.18 0.34 0.37 0.23 0.05 0.02 0.06 0.04 0.05 0.06 0.06 0.05 0.03 0.02 0.01 0.01 0.01 0.00 0.00
0.38 0.52 0.99 1.80 1.30 0.96 0.51 0.31 0.18 0.13 0.21 0.25 0.23 0.34 0.56 0.55 0.46 0.39 0.28 0.28 0.52 0.45 0.36 0.27 0.29 0.36 0.53 0.31 0.07 0.03 0.01 0.00 0.00 0.00 0.00 0.01 0.02 0.02 0.01 0.00 0.01 0.01 0.01 0.01
0.74 1.10 1.63 1.48 0.57 0.35 0.64 1.09 1.04 0.86 0.34 0.24 0.17 0.13 0.28 0.69 0.78 0.45 0.45 0.30 0.32 0.39 0.33 0.39 0.42 0.25 0.16 0.10 0.08 0.05 0.03 0.03 0.03 0.02 0.02 0.02 0.03 0.02 0.01 0.02 0.03 0.02 0.03 0.04
0.60 0.84 0.99 0.53 0.46 0.47 0.69 0.83 0.65 0.51 0.24 0.12 0.16 0.16 0.21 0.25 0.84 0.38 0.18 0.14 0.20 0.19 0.24 0.28 0.30 0.16 0.10 0.03 0.01 0.01 0.01 0.01 0.04 0.07 0.08 0.10 0.11 0.10 0.06 0.07 0.08 0.09 0.11 0.16
0.22 0.54 0.58 0.74 0.64 0.55 0.50 0.34 0.21 0.13 0.11 0.10 0.14 0.21 0.30 0.16 0.57 0.44 0.20 0.15 0.09 0.18 0.16 0.15 0.16 0.13 0.05 0.03 0.04 0.04 0.05 0.07 0.11 0.13 0.13 0.17 0.16 0.14 0.13 0.15 0.16 0.16 0.18 0.21
0.08 0.08 0.19 0.25 0.20 0.25 0.26 0.12 0.07 0.09 0.08 0.07 0.13 0.23 0.31 0.18 0.38 0.55 0.22 0.31 0.15 0.08 0.15 0.16 0.10 0.08 0.04 0.03 0.03 0.05 0.09 0.10 0.13 0.16 0.17 0.16 0.15 0.14 0.13 0.14 0.17 0.16 0.15 0.22
0.03 0.05 0.06 0.12 0.05 0.10 0.11 0.08 0.06 0.05 0.05 0.05 0.11 0.19 0.22 0.19 0.29 0.42 0.24 0.12 0.06 0.07 0.09 0.07 0.11 0.06 0.05 0.04 0.04 0.04 0.08 0.09 0.10 0.13 0.13 0.12 0.12 0.13 0.15 0.16 0.19 0.14 0.15 0.21
0.00 0.00 0.02 0.03 0.07 0.07 0.08 0.08 0.06 0.05 0.07 0.11 0.17 0.17 0.18 0.13 0.26 0.12 0.10 0.06 0.07 0.06 0.08 0.09 0.10 0.06 0.05 0.07 0.07 0.07 0.10 0.12 0.13 0.16 0.14 0.15 0.15 0.12 0.16 0.20 0.21 0.16 0.17 0.17
0.00 0.03 0.05 0.07 0.08 0.10 0.09 0.10 0.08 0.08 0.12 0.13 0.15 0.16 0.16 0.13 0.13 0.08 0.06 0.07 0.07 0.08 0.08 0.09 0.07 0.07 0.09 0.11 0.12 0.13 0.14 0.15 0.18 0.21 0.20 0.21 0.21 0.19 0.19 0.19 0.16 0.16 0.13 0.11
0.01 0.04 0.07 0.08 0.07 0.08 0.10 0.12 0.11 0.13 0.16 0.12 0.11 0.08 0.10 0.09 0.03 0.02 0.03 0.07 0.09 0.10 0.14 0.13 0.11 0.10 0.13 0.14 0.15 0.19 0.20 0.20 0.20 0.18 0.17 0.14 0.12 0.09 0.05 0.04 0.04 0.02 0.01 0.00

GFSNW_prec_precacc24_072.txt.gz
Total_Precipitation_Accumulation
0.06 0.05 0.06 0.06 0.06 0.11 0.09 0.13 0.09 0.09 0.18 0.23 0.21 0.13 0.02 0.00 0.00 0.00 0.00 0.00 0.00 0.00 0.00 0.00 0.00 0.00 0.02 0.02 0.01 0.04 0.01 0.01 0.00 0.00 0.00 0.00 0.02 0.04 0.14 0.36 0.19 0.03 0.06 0.18
0.12 0.11 0.10 0.10 0.10 0.17 0.18 0.19 0.05 0.11 0.53 0.66 0.17 0.08 0.04 0.01 0.00 0.00 0.00 0.00 0.00 0.00 0.00 0.01 0.00 0.00 0.00 0.00 0.01 0.02 0.01 0.01 0.01 0.01 0.03 0.01 0.01 0.03 0.07 0.19 0.31 0.21 0.12 0.11
0.08 0.09 0.09 0.10 0.14 0.23 0.35 0.35 0.21 0.11 0.29 0.20 0.35 0.44 0.22 0.05 0.04 0.04 0.05 0.01 0.00 0.00 0.00 0.01 0.01 0.01 0.01 0.02 0.01 0.00 0.00 0.01 0.01 0.02 0.08 0.10 0.06 0.04 0.08 0.30 0.45 0.16 0.12 0.08
0.07 0.08 0.11 0.10 0.15 0.25 0.43 0.46 0.20 0.15 0.24 0.18 0.18 0.28 0.30 0.18 0.20 0.12 0.06 0.04 0.04 0.05 0.04 0.02 0.01 0.01 0.03 0.02 0.01 0.00 0.01 0.02 0.03 0.00 0.00 0.03 0.08 0.08 0.07 0.16 0.21 0.26 0.06 0.11
0.15 0.13 0.12 0.14 0.16 0.33 0.52 0.37 0.16 0.15 0.09 0.15 0.21 0.30 0.18 0.10 0.13 0.14 0.19 0.23 0.07 0.04 0.06 0.04 0.04 0.03 0.06 0.06 0.05 0.04 0.04 0.04 0.01 0.00 0.00 0.00 0.01 0.01 0.11 0.13 0.08 0.09 0.05 0.12
0.10 0.11 0.14 0.17 0.20 0.39 0.45 0.28 0.22 0.39 0.21 0.08 0.15 0.16 0.13 0.12 0.07 0.11 0.14 0.21 0.13 0.05 0.09 0.07 0.05 0.07 0.06 0.04 0.04 0.05 0.04 0.05 0.08 0.05 0.00 0.00 0.00 0.00 0.03 0.10 0.14 0.22 0.23 0.08
0.07 0.08 0.10 0.13 0.24 0.35 0.25 0.25 0.31 0.45 0.26 0.09 0.07 0.06 0.07 0.10 0.09 0.10 0.06 0.16 0.42 0.22 0.05 0.04 0.03 0.03 0.03 0.01 0.01 0.01 0.01 0.02 0.07 0.07 0.04 0.03 0.00 0.00 0.00 0.02 0.07 0.08 0.12 0.16
0.08 0.09 0.10 0.10 0.18 0.33 0.34 0.28 0.45 0.47 0.26 0.06 0.04 0.06 0.08 0.11 0.19 0.17 0.11 0.09 0.21 0.24 0.18 0.15 0.07 0.05 0.05 0.01 0.00 0.00 0.00 0.01 0.06 0.06 0.10 0.04 0.01 0.00 0.00 0.03 0.03 0.04 0.06 0.11
0.09 0.08 0.12 0.14 0.15 0.31 0.36 0.32 0.37 0.65 0.55 0.12 0.03 0.06 0.11 0.16 0.18 0.27 0.18 0.32 0.30 0.31 0.48 0.37 0.14 0.09 0.09 0.08 0.03 0.01 0.00 0.00 0.06 0.08 0.06 0.02 0.00 0.00 0.00 0.00 0.04 0.01 0.01 0.07
0.09 0.08 0.08 0.08 0.09 0.19 0.36 0.33 0.28 0.68 0.81 0.11 0.07 0.14 0.21 0.32 0.33 0.30 0.32 0.44 0.32 0.46 0.43 0.35 0.10 0.09 0.11 0.16 0.15 0.09 0.03 0.04 0.04 0.06 0.06 0.02 0.00 0.00 0.00 0.05 0.12 0.01 0.00 0.01
0.25 0.19 0.13 0.10 0.11 0.15 0.36 0.34 0.31 0.45 0.56 0.14 0.05 0.04 0.10 0.20 0.30 0.46 0.48 0.59 0.57 0.33 0.26 0.11 0.09 0.10 0.09 0.09 0.21 0.20 0.09 0.05 0.05 0.05 0.08 0.03 0.00 0.01 0.06 0.16 0.05 0.02 0.01 0.01
0.34 0.35 0.34 0.27 0.20 0.17 0.37 0.45 0.33 0.40 0.55 0.20 0.03 0.04 0.04 0.03 0.05 0.17 0.40 0.51 0.55 0.54 0.32 0.20 0.15 0.14 0.12 0.10 0.15 0.28 0.44 0.18 0.07 0.01 0.01 0.05 0.07 0.08 0.07 0.03 0.10 0.09 0.26 0.24
0.28 0.27 0.30 0.31 0.29 0.29 0.45 0.40 0.26 0.71 0.91 0.42 0.09 0.03 0.01 0.01 0.02 0.07 0.23 0.13 0.44 0.66 0.42 0.52 0.29 0.22 0.16 0.08 0.06 0.17 0.25 0.29 0.47 0.32 0.19 0.10 0.21 0.19 0.04 0.00 0.01 0.02 0.10 0.56
0.31 0.32 0.32 0.36 0.37 0.45 0.65 0.73 0.33 0.49 0.60 0.28 0.12 0.01 0.01 0.01 0.04 0.07 0.06 0.06 0.15 0.33 0.40 0.57 0.43 0.26 0.24 0.20 0.10 0.22 0.30 0.47 0.26 0.37 0.44 0.29 0.33 0.50 0.25 0.09 0.06 0.03 0.01 0.02
0.23 0.27 0.35 0.44 0.58 0.69 1.05 0.99 0.42 0.26 0.22 0.36 0.16 0.01 0.00 0.00 0.01 0.04 0.09 0.13 0.14 0.22 0.30 0.36 0.22 0.24 0.43 0.42 0.25 0.27 0.27 0.72 0.66 0.48 0.79 0.90 0.85 0.42 0.34 0.40 0.22 0.06 0.01 0.00
0.12 0.22 0.29 0.39 0.63 1.22 1.87 2.17 1.07 0.35 0.33 0.39 0.16 0.07 0.02 0.01 0.01 0.05 0.07 0.16 0.28 0.34 0.45 0.22 0.11 0.13 0.53 0.55 0.57 0.38 0.20 0.21 0.41 0.70 0.75 0.84 0.70 0.33 0.15 0.11 0.15 0.16 0.12 0.10
0.14 0.22 0.29 0.33 0.55 0.76 0.97 0.69 0.32 0.19 0.34 0.58 0.26 0.08 0.06 0.02 0.05 0.11 0.14 0.21 0.46 0.52 0.48 0.22 0.10 0.13 0.27 0.46 0.44 0.34 0.09 0.13 0.18 0.36 0.31 0.10 0.08 0.08 0.04 0.01 0.00 0.00 0.01 0.02
0.23 0.31 0.38 0.44 0.68 0.74 0.46 0.20 0.08 0.08 0.29 0.35 0.25 0.22 0.29 0.09 0.10 0.23 0.15 0.28 0.43 0.56 0.42 0.33 0.14 0.17 0.30 0.31 0.27 0.11 0.03 0.07 0.02 0.05 0.06 0.07 0.04 0.01 0.00 0.00 0.00 0.00 0.00 0.00
0.32 0.50 0.86 1.52 1.09 0.81 0.45 0.30 0.18 0.13 0.19 0.19 0.10 0.16 0.49 0.47 0.40 0.36 0.26 0.26 0.45 0.36 0.31 0.22 0.26 0.29 0.27 0.19 0.03 0.02 0.01 0.00 0.01 0.00 0.00 0.01 0.02 0.02 0.01 0.00 0.00 0.00 0.01 0.01
0.68 1.02 1.46 1.26 0.47 0.31 0.61 1.04 0.97 0.80 0.25 0.14 0.08 0.07 0.24 0.54 0.72 0.43 0.44 0.29 0.22 0.24 0.19 0.25 0.26 0.18 0.10 0.03 0.01 0.02 0.02 0.01 0.01 0.01 0.02 0.02 0.03 0.02 0.01 0.02 0.03 0.02 0.03 0.04
0.54 0.77 0.87 0.42 0.43 0.42 0.56 0.69 0.50 0.40 0.15 0.05 0.05 0.12 0.19 0.19 0.87 0.55 0.24 0.17 0.22 0.11 0.17 0.24 0.27 0.14 0.09 0.03 0.01 0.01 0.01 0.01 0.02 0.03 0.06 0.07 0.09 0.08 0.05 0.06 0.07 0.07 0.08 0.10
0.20 0.48 0.44 0.62 0.54 0.44 0.42 0.28 0.15 0.10 0.08 0.07 0.12 0.20 0.30 0.17 0.60 0.61 0.31 0.17 0.12 0.19 0.12 0.14 0.16 0.12 0.05 0.02 0.01 0.01 0.02 0.03 0.04 0.04 0.06 0.08 0.09 0.10 0.10 0.11 0.12 0.13 0.14 0.14
0.08 0.08 0.18 0.24 0.20 0.26 0.26 0.13 0.06 0.08 0.06 0.06 0.13 0.23 0.31 0.18 0.43 0.62 0.23 0.33 0.13 0.09 0.16 0.14 0.09 0.07 0.04 0.02 0.01 0.03 0.04 0.06 0.10 0.12 0.12 0.12 0.12 0.12 0.11 0.11 0.14 0.13 0.12 0.16
0.03 0.05 0.07 0.13 0.05 0.09 0.10 0.06 0.04 0.03 0.03 0.05 0.13 0.19 0.22 0.17 0.21 0.36 0.22 0.12 0.07 0.08 0.09 0.07 0.10 0.05 0.04 0.03 0.03 0.03 0.06 0.06 0.08 0.10 0.10 0.09 0.09 0.10 0.11 0.11 0.14 0.10 0.11 0.15
0.00 0.00 0.02 0.02 0.04 0.05 0.06 0.06 0.04 0.03 0.05 0.07 0.13 0.15 0.17 0.09 0.12 0.10 0.09 0.05 0.07 0.06 0.07 0.08 0.08 0.05 0.04 0.05 0.06 0.06 0.08 0.09 0.09 0.11 0.10 0.11 0.11 0.09 0.11 0.14 0.14 0.11 0.12 0.12
0.00 0.02 0.05 0.07 0.08 0.10 0.09 0.10 0.08 0.07 0.12 0.07 0.10 0.13 0.16 0.11 0.08 0.07 0.06 0.07 0.07 0.07 0.07 0.08 0.05 0.05 0.07 0.08 0.09 0.10 0.11 0.11 0.13 0.15 0.14 0.14 0.14 0.13 0.13 0.14 0.12 0.11 0.09 0.08
0.01 0.04 0.06 0.07 0.06 0.08 0.09 0.10 0.09 0.10 0.14 0.09 0.09 0.08 0.09 0.08 0.03 0.02 0.03 0.07 0.08 0.08 0.12 0.10 0.08 0.07 0.09 0.10 0.11 0.13 0.14 0.15 0.15 0.14 0.14 0.12 0.10 0.08 0.05 0.03 0.03 0.01 0.01 0.00

GFSNW_prec_precacc24_075.txt.gz
Total_Precipitation_Accumulation
0.05 0.04 0.05 0.06 0.06 0.10 0.07 0.10 0.06 0.07 0.16 0.17 0.11 0.06 0.01 0.00 0.00 0.00 0.00 0.00 0.00 0.00 0.00 0.00 0.00 0.00 0.02 0.02 0.03 0.05 0.01 0.01 0.00 0.00 0.00 0.00 0.02 0.05 0.15 0.40 0.24 0.09 0.07 0.30
0.11 0.09 0.08 0.09 0.10 0.15 0.16 0.16 0.04 0.07 0.44 0.59 0.14 0.06 0.03 0.01 0.00 0.00 0.00 0.00 0.00 0.00 0.00 0.01 0.00 0.00 0.00 0.01 0.01 0.03 0.02 0.07 0.06 0.03 0.04 0.02 0.02 0.07 0.14 0.25 0.35 0.28 0.18 0.13
0.06 0.07 0.07 0.09 0.14 0.21 0.28 0.30 0.18 0.08 0.19 0.15 0.33 0.40 0.20 0.05 0.05 0.07 0.08 0.01 0.01 0.02 0.01 0.01 0.01 0.01 0.02 0.04 0.03 0.01 0.01 0.02 0.03 0.04 0.09 0.10 0.06 0.04 0.10 0.38 0.58 0.31 0.18 0.10
0.05 0.05 0.09 0.09 0.14 0.23 0.34 0.36 0.16 0.12 0.21 0.15 0.12 0.23 0.28 0.18 0.21 0.16 0.08 0.15 0.20 0.16 0.09 0.04 0.01 0.01 0.04 0.04 0.06 0.05 0.04 0.04 0.03 0.00 0.00 0.03 0.08 0.08 0.07 0.16 0.23 0.31 0.10 0.12
0.13 0.11 0.11 0.13 0.16 0.31 0.43 0.25 0.11 0.12 0.07 0.13 0.18 0.18 0.11 0.10 0.13 0.14 0.20 0.27 0.09 0.05 0.09 0.05 0.06 0.04 0.07 0.09 0.10 0.11 0.11 0.05 0.01 0.00 0.00 0.00 0.01 0.01 0.11 0.13 0.08 0.09 0.06 0.12
0.08 0.09 0.12 0.17 0.20 0.35 0.36 0.20 0.18 0.34 0.18 0.06 0.09 0.14 0.12 0.12 0.06 0.10 0.14 0.21 0.13 0.06 0.11 0.08 0.06 0.08 0.07 0.06 0.08 0.14 0.10 0.08 0.09 0.05 0.00 0.00 0.00 0.00 0.03 0.10 0.14 0.23 0.23 0.08
0.07 0.07 0.09 0.14 0.25 0.32 0.21 0.15 0.25 0.38 0.18 0.07 0.06 0.03 0.07 0.10 0.09 0.09 0.06 0.15 0.41 0.23 0.06 0.04 0.03 0.03 0.03 0.01 0.02 0.04 0.04 0.04 0.07 0.07 0.04 0.03 0.00 0.00 0.00 0.03 0.07 0.08 0.12 0.16
0.07 0.08 0.09 0.10 0.20 0.32 0.27 0.16 0.31 0.41 0.22 0.05 0.03 0.05 0.04 0.06 0.16 0.16 0.10 0.09 0.21 0.24 0.18 0.16 0.08 0.06 0.07 0.01 0.00 0.00 0.01 0.02 0.06 0.06 0.10 0.04 0.01 0.00 0.00 0.03 0.03 0.04 0.06 0.12
0.07 0.07 0.11 0.14 0.15 0.31 0.29 0.19 0.25 0.56 0.46 0.10 0.03 0.04 0.05 0.10 0.11 0.21 0.16 0.31 0.28 0.30 0.51 0.47 0.23 0.10 0.10 0.08 0.04 0.01 0.00 0.01 0.04 0.06 0.05 0.02 0.00 0.00 0.00 0.00 0.04 0.01 0.01 0.07
0.06 0.06 0.07 0.08 0.10 0.19 0.29 0.16 0.18 0.52 0.62 0.08 0.07 0.13 0.15 0.21 0.28 0.25 0.31 0.41 0.30 0.44 0.54 0.63 0.38 0.11 0.13 0.17 0.16 0.10 0.04 0.03 0.02 0.03 0.05 0.02 0.00 0.00 0.00 0.05 0.12 0.01 0.00 0.01
0.20 0.15 0.10 0.08 0.08 0.12 0.26 0.15 0.20 0.34 0.37 0.08 0.04 0.03 0.07 0.14 0.22 0.42 0.47 0.51 0.51 0.30 0.30 0.19 0.17 0.11 0.11 0.10 0.21 0.20 0.09 0.04 0.04 0.05 0.07 0.03 0.00 0.01 0.06 0.16 0.05 0.02 0.01 0.01
0.29 0.30 0.29 0.22 0.16 0.15 0.28 0.18 0.16 0.28 0.36 0.13 0.03 0.02 0.02 0.02 0.04 0.17 0.38 0.50 0.55 0.56 0.36 0.23 0.18 0.16 0.13 0.11 0.16 0.29 0.44 0.18 0.07 0.01 0.01 0.05 0.07 0.08 0.08 0.04 0.11 0.10 0.27 0.30
0.21 0.24 0.27 0.28 0.28 0.28 0.38 0.23 0.16 0.46 0.63 0.29 0.05 0.02 0.01 0.00 0.02 0.06 0.22 0.13 0.44 0.69 0.46 0.58 0.33 0.24 0.17 0.08 0.07 0.17 0.26 0.30 0.55 0.52 0.32 0.11 0.21 0.19 0.05 0.02 0.03 0.03 0.10 0.57
0.24 0.26 0.30 0.34 0.36 0.45 0.63 0.62 0.26 0.35 0.45 0.18 0.04 0.00 0.00 0.00 0.03 0.06 0.06 0.06 0.14 0.33 0.39 0.60 0.48 0.27 0.24 0.20 0.11 0.23 0.31 0.50 0.37 0.55 0.56 0.33 0.36 0.52 0.28 0.13 0.10 0.11 0.08 0.06
0.18 0.23 0.32 0.42 0.55 0.67 1.03 0.99 0.49 0.23 0.20 0.34 0.16 0.01 0.00 0.00 0.01 0.03 0.09 0.13 0.13 0.21 0.27 0.31 0.20 0.24 0.44 0.43 0.27 0.29 0.32 0.82 0.72 0.54 0.84 0.94 0.92 0.49 0.41 0.44 0.28 0.16 0.06 0.04
0.10 0.19 0.26 0.36 0.63 1.28 2.08 2.07 1.05 0.45 0.40 0.46 0.19 0.07 0.02 0.01 0.01 0.05 0.07 0.15 0.26 0.32 0.40 0.20 0.11 0.14 0.54 0.57 0.60 0.42 0.34 0.31 0.47 0.77 0.83 0.90 0.76 0.38 0.20 0.14 0.18 0.19 0.14 0.10
0.13 0.21 0.26 0.31 0.54 0.86 1.15 0.81 0.29 0.26 0.45 0.69 0.30 0.08 0.06 0.02 0.05 0.11 0.13 0.19 0.29 0.34 0.34 0.17 0.09 0.12 0.27 0.49 0.50 0.44 0.21 0.25 0.27 0.46 0.40 0.18 0.14 0.11 0.05 0.01 0.00 0.00 0.01 0.02
0.23 0.37 0.46 0.46 0.68 0.72 0.48 0.18 0.10 0.15 0.36 0.30 0.24 0.22 0.27 0.08 0.09 0.23 0.14 0.24 0.35 0.41 0.30 0.15 0.10 0.15 0.29 0.36 0.38 0.25 0.11 0.15 0.08 0.05 0.03 0.02 0.01 0.01 0.00 0.00 0.00 0.00 0.00 0.00
0.42 0.61 0.84 1.33 0.91 0.60 0.35 0.30 0.20 0.15 0.18 0.17 0.09 0.15 0.42 0.42 0.39 0.34 0.26 0.23 0.40 0.34 0.30 0.15 0.11 0.16 0.24 0.19 0.07 0.08 0.04 0.02 0.02 0.00 0.00 0.00 0.01 0.01 0.01 0.00 0.00 0.00 0.01 0.01
0.81 0.93 1.17 0.95 0.34 0.20 0.57 0.99 0.95 0.78 0.24 0.14 0.08 0.07 0.16 0.43 0.62 0.41 0.43 0.27 0.19 0.20 0.15 0.21 0.24 0.16 0.09 0.03 0.02 0.02 0.01 0.00 0.00 0.01 0.02 0.02 0.02 0.02 0.01 0.02 0.02 0.02 0.03 0.04
0.50 0.64 0.70 0.31 0.35 0.38 0.52 0.64 0.46 0.38 0.14 0.05 0.04 0.09 0.11 0.13 0.65 0.49 0.23 0.16 0.21 0.10 0.11 0.17 0.25 0.11 0.08 0.03 0.01 0.00 0.01 0.00 0.01 0.02 0.04 0.03 0.03 0.04 0.03 0.04 0.05 0.06 0.06 0.08
0.19 0.45 0.41 0.56 0.48 0.40 0.36 0.26 0.12 0.07 0.07 0.04 0.05 0.10 0.12 0.08 0.31 0.57 0.37 0.23 0.17 0.23 0.12 0.15 0.16 0.11 0.05 0.02 0.01 0.01 0.01 0.01 0.02 0.03 0.03 0.05 0.04 0.04 0.04 0.06 0.08 0.10 0.11 0.11
0.08 0.08 0.18 0.23 0.20 0.26 0.25 0.12 0.05 0.06 0.04 0.04 0.10 0.17 0.17 0.15 0.42 0.77 0.31 0.37 0.14 0.12 0.18 0.14 0.09 0.07 0.04 0.02 0.01 0.02 0.01 0.02 0.03 0.05 0.06 0.06 0.06 0.07 0.07 0.08 0.11 0.10 0.09 0.12
0.03 0.05 0.07 0.13 0.05 0.09 0.09 0.05 0.03 0.02 0.02 0.05 0.19 0.18 0.24 0.17 0.22 0.36 0.21 0.13 0.08 0.09 0.09 0.06 0.10 0.05 0.04 0.03 0.02 0.02 0.03 0.04 0.04 0.06 0.06 0.06 0.06 0.07 0.09 0.08 0.10 0.08 0.08 0.10
0.00 0.00 0.01 0.02 0.03 0.03 0.04 0.05 0.03 0.02 0.04 0.09 0.19 0.16 0.18 0.08 0.11 0.10 0.09 0.05 0.07 0.06 0.07 0.08 0.07 0.04 0.03 0.03 0.04 0.04 0.05 0.05 0.06 0.07 0.07 0.08 0.08 0.07 0.08 0.11 0.10 0.08 0.08 0.08
0.00 0.02 0.04 0.07 0.07 0.09 0.08 0.09 0.06 0.06 0.11 0.08 0.11 0.13 0.15 0.10 0.05 0.07 0.06 0.07 0.07 0.07 0.06 0.07 0.04 0.04 0.05 0.06 0.06 0.07 0.07 0.07 0.09 0.10 0.09 0.10 0.09 0.09 0.09 0.09 0.06 0.06 0.04 0.03
0.01 0.04 0.06 0.06 0.06 0.07 0.08 0.09 0.08 0.09 0.14 0.08 0.08 0.07 0.09 0.08 0.03 0.02 0.03 0.06 0.08 0.07 0.09 0.07 0.05 0.05 0.07 0.07 0.07 0.08 0.08 0.08 0.09 0.10 0.10 0.08 0.07 0.05 0.03 0.02 0.02 0.00 0.00 0.00

GFSNW_prec_precacc24_078.txt.gz
Total_Precipitation_Accumulation
0.04 0.02 0.02 0.03 0.05 0.09 0.03 0.07 0.05 0.07 0.12 0.14 0.09 0.03 0.00 0.00 0.00 0.00 0.00 0.00 0.00 0.00 0.00 0.00 0.00 0.00 0.03 0.02 0.03 0.07 0.03 0.03 0.01 0.00 0.00 0.00 0.03 0.07 0.17 0.42 0.26 0.12 0.13 0.35
0.07 0.06 0.05 0.06 0.09 0.13 0.11 0.14 0.03 0.05 0.37 0.56 0.12 0.04 0.02 0.01 0.00 0.00 0.01 0.00 0.00 0.00 0.00 0.01 0.00 0.00 0.00 0.01 0.02 0.05 0.04 0.11 0.09 0.06 0.08 0.03 0.04 0.09 0.16 0.28 0.38 0.31 0.26 0.21
0.04 0.04 0.05 0.06 0.12 0.18 0.21 0.26 0.16 0.05 0.15 0.12 0.31 0.38 0.18 0.05 0.05 0.08 0.09 0.02 0.04 0.04 0.01 0.02 0.01 0.01 0.03 0.05 0.05 0.07 0.05 0.02 0.05 0.09 0.12 0.12 0.07 0.05 0.10 0.39 0.60 0.34 0.22 0.15
0.03 0.04 0.06 0.06 0.12 0.20 0.27 0.31 0.12 0.10 0.18 0.15 0.11 0.19 0.24 0.17 0.21 0.16 0.08 0.20 0.25 0.19 0.11 0.07 0.03 0.02 0.04 0.04 0.07 0.16 0.19 0.08 0.04 0.01 0.02 0.03 0.08 0.08 0.07 0.16 0.23 0.31 0.10 0.13
0.10 0.09 0.08 0.10 0.14 0.27 0.35 0.20 0.07 0.08 0.06 0.11 0.16 0.15 0.09 0.09 0.13 0.13 0.20 0.27 0.09 0.05 0.10 0.08 0.11 0.09 0.11 0.11 0.13 0.20 0.34 0.16 0.03 0.01 0.01 0.01 0.01 0.01 0.11 0.13 0.08 0.09 0.06 0.12
0.07 0.07 0.09 0.13 0.19 0.30 0.31 0.16 0.13 0.25 0.14 0.05 0.08 0.12 0.10 0.11 0.05 0.09 0.14 0.20 0.11 0.05 0.14 0.11 0.07 0.08 0.08 0.07 0.11 0.23 0.30 0.31 0.12 0.06 0.00 0.00 0.00 0.00 0.03 0.10 0.14 0.23 0.23 0.08
0.06 0.06 0.08 0.12 0.24 0.29 0.16 0.11 0.19 0.33 0.13 0.05 0.05 0.03 0.06 0.09 0.08 0.08 0.05 0.13 0.39 0.23 0.06 0.04 0.03 0.03 0.03 0.01 0.02 0.10 0.21 0.17 0.10 0.07 0.04 0.03 0.00 0.00 0.00 0.03 0.07 0.08 0.12 0.18
0.07 0.08 0.09 0.09 0.20 0.30 0.21 0.13 0.24 0.28 0.17 0.04 0.02 0.04 0.04 0.05 0.11 0.09 0.06 0.09 0.20 0.18 0.13 0.14 0.08 0.09 0.08 0.02 0.00 0.02 0.05 0.11 0.09 0.05 0.09 0.04 0.01 0.00 0.00 0.03 0.03 0.04 0.07 0.12
0.07 0.05 0.10 0.12 0.15 0.29 0.23 0.15 0.21 0.49 0.35 0.07 0.03 0.03 0.04 0.08 0.08 0.14 0.08 0.22 0.24 0.24 0.45 0.45 0.27 0.13 0.11 0.08 0.05 0.02 0.00 0.03 0.07 0.05 0.05 0.02 0.01 0.00 0.00 0.00 0.04 0.01 0.01 0.07
0.05 0.04 0.06 0.06 0.09 0.18 0.23 0.12 0.14 0.44 0.52 0.06 0.06 0.12 0.14 0.18 0.23 0.18 0.25 0.33 0.21 0.36 0.50 0.66 0.62 0.25 0.15 0.18 0.17 0.12 0.04 0.04 0.04 0.03 0.05 0.02 0.00 0.00 0.00 0.05 0.12 0.01 0.00 0.01
0.19 0.13 0.08 0.05 0.08 0.13 0.21 0.12 0.15 0.28 0.27 0.03 0.02 0.02 0.06 0.13 0.18 0.32 0.40 0.40 0.39 0.19 0.27 0.22 0.38 0.28 0.13 0.13 0.24 0.24 0.13 0.07 0.04 0.05 0.07 0.03 0.00 0.00 0.06 0.16 0.05 0.02 0.01 0.01
0.27 0.26 0.25 0.18 0.12 0.13 0.24 0.13 0.11 0.21 0.21 0.04 0.02 0.00 0.00 0.02 0.03 0.12 0.27 0.47 0.54 0.56 0.37 0.25 0.21 0.21 0.14 0.12 0.21 0.34 0.46 0.21 0.10 0.02 0.02 0.05 0.07 0.07 0.07 0.05 0.11 0.10 0.27 0.30
0.18 0.20 0.22 0.23 0.24 0.26 0.32 0.13 0.10 0.34 0.38 0.16 0.03 0.01 0.00 0.00 0.01 0.04 0.16 0.11 0.43 0.70 0.49 0.59 0.35 0.28 0.18 0.11 0.10 0.21 0.28 0.31 0.56 0.54 0.41 0.16 0.22 0.20 0.05 0.03 0.04 0.04 0.11 0.57
0.21 0.21 0.24 0.29 0.31 0.42 0.57 0.49 0.16 0.23 0.31 0.12 0.01 0.00 0.00 0.00 0.02 0.03 0.03 0.03 0.13 0.32 0.37 0.57 0.47 0.27 0.26 0.21 0.12 0.24 0.31 0.51 0.38 0.69 0.74 0.48 0.41 0.55 0.29 0.14 0.12 0.13 0.14 0.12
0.14 0.18 0.26 0.38 0.48 0.58 0.90 0.91 0.42 0.17 0.16 0.28 0.15 0.01 0.00 0.00 0.01 0.02 0.05 0.07 0.10 0.17 0.21 0.25 0.16 0.22 0.44 0.44 0.29 0.31 0.33 0.83 0.75 0.65 0.91 1.03 0.97 0.52 0.43 0.46 0.30 0.22 0.09 0.06
0.08 0.13 0.20 0.31 0.55 1.12 1.87 1.82 0.85 0.40 0.39 0.53 0.21 0.07 0.02 0.01 0.01 0.04 0.05 0.11 0.21 0.26 0.34 0.19 0.10 0.14 0.54 0.56 0.62 0.44 0.37 0.36 0.54 0.82 0.88 0.92 0.77 0.40 0.22 0.16 0.20 0.20 0.14 0.10
0.10 0.16 0.22 0.25 0.43 0.79 1.25 0.85 0.25 0.25 0.50 0.90 0.41 0.09 0.06 0.02 0.05 0.10 0.10 0.16 0.24 0.27 0.29 0.14 0.05 0.10 0.25 0.49 0.53 0.47 0.31 0.36 0.35 0.53 0.45 0.21 0.16 0.13 0.07 0.02 0.01 0.01 0.01 0.02
0.21 0.35 0.43 0.40 0.56 0.64 0.55 0.25 0.18 0.22 0.52 0.43 0.28 0.22 0.26 0.08 0.11 0.23 0.13 0.19 0.28 0.24 0.16 0.08 0.07 0.12 0.26 0.36 0.44 0.30 0.21 0.28 0.17 0.14 0.07 0.04 0.02 0.01 0.00 0.00 0.00 0.00 0.00 0.00
0.42 0.62 0.81 1.03 0.79 0.50 0.28 0.22 0.20 0.14 0.16 0.15 0.09 0.15 0.41 0.41 0.39 0.35 0.24 0.21 0.24 0.19 0.15 0.07 0.09 0.09 0.20 0.21 0.14 0.16 0.11 0.09 0.08 0.03 0.01 0.00 0.00 0.00 0.00 0.00 0.00 0.00 0.01 0.01
0.90 0.89 0.97 0.74 0.34 0.21 0.50 0.74 0.79 0.64 0.19 0.14 0.08 0.07 0.15 0.37 0.58 0.39 0.42 0.28 0.17 0.15 0.10 0.17 0.22 0.16 0.09 0.04 0.02 0.04 0.02 0.01 0.01 0.02 0.02 0.01 0.01 0.01 0.01 0.01 0.01 0.01 0.02 0.03
0.51 0.53 0.56 0.25 0.27 0.31 0.42 0.50 0.41 0.36 0.13 0.04 0.04 0.09 0.11 0.11 0.57 0.50 0.23 0.16 0.19 0.07 0.08 0.17 0.25 0.11 0.08 0.04 0.01 0.01 0.01 0.00 0.01 0.02 0.03 0.02 0.02 0.02 0.01 0.02 0.02 0.02 0.03 0.04
0.19 0.39 0.36 0.40 0.35 0.33 0.33 0.25 0.11 0.07 0.06 0.03 0.05 0.10 0.12 0.08 0.23 0.48 0.37 0.22 0.19 0.24 0.13 0.16 0.16 0.11 0.06 0.02 0.01 0.01 0.01 0.01 0.01 0.02 0.02 0.03 0.02 0.02 0.01 0.03 0.04 0.05 0.06 0.07
0.11 0.09 0.17 0.22 0.20 0.26 0.25 0.12 0.03 0.05 0.03 0.02 0.09 0.15 0.07 0.05 0.19 0.44 0.35 0.38 0.18 0.14 0.21 0.14 0.08 0.07 0.04 0.02 0.01 0.01 0.01 0.01 0.01 0.02 0.03 0.03 0.03 0.03 0.03 0.05 0.06 0.06 0.06 0.08
0.05 0.06 0.07 0.13 0.05 0.08 0.08 0.05 0.03 0.01 0.01 0.03 0.23 0.10 0.10 0.09 0.17 0.27 0.27 0.16 0.12 0.11 0.09 0.06 0.09 0.05 0.04 0.02 0.01 0.01 0.02 0.02 0.02 0.04 0.03 0.03 0.03 0.04 0.05 0.05 0.06 0.05 0.05 0.06
0.00 0.00 0.01 0.02 0.02 0.03 0.04 0.04 0.02 0.01 0.03 0.10 0.25 0.12 0.18 0.10 0.13 0.10 0.09 0.06 0.08 0.07 0.07 0.07 0.07 0.03 0.02 0.02 0.02 0.02 0.03 0.03 0.04 0.05 0.05 0.05 0.05 0.04 0.06 0.07 0.06 0.04 0.04 0.04
0.00 0.02 0.04 0.07 0.06 0.08 0.08 0.09 0.05 0.05 0.10 0.09 0.14 0.14 0.15 0.10 0.05 0.07 0.06 0.07 0.07 0.06 0.06 0.06 0.03 0.03 0.03 0.03 0.04 0.04 0.05 0.05 0.06 0.07 0.06 0.06 0.06 0.05 0.05 0.04 0.03 0.02 0.01 0.01
0.01 0.04 0.05 0.06 0.05 0.06 0.07 0.08 0.07 0.08 0.14 0.08 0.08 0.07 0.09 0.08 0.03 0.02 0.03 0.06 0.07 0.06 0.08 0.05 0.03 0.03 0.04 0.05 0.05 0.07 0.06 0.07 0.07 0.07 0.06 0.05 0.04 0.02 0.01 0.01 0.00 0.00 0.00 0.00

GFSNW_prec_precacc24_081.txt.gz
Total_Precipitation_Accumulation
0.03 0.02 0.02 0.02 0.03 0.07 0.02 0.04 0.04 0.05 0.07 0.11 0.07 0.02 0.00 0.00 0.00 0.00 0.00 0.00 0.00 0.00 0.00 0.00 0.00 0.00 0.03 0.02 0.03 0.08 0.10 0.08 0.03 0.01 0.00 0.00 0.03 0.09 0.23 0.46 0.31 0.17 0.16 0.40
0.04 0.04 0.04 0.04 0.06 0.09 0.08 0.10 0.02 0.03 0.27 0.52 0.11 0.03 0.01 0.00 0.00 0.00 0.01 0.00 0.00 0.00 0.00 0.02 0.00 0.00 0.00 0.01 0.03 0.07 0.05 0.16 0.15 0.07 0.10 0.05 0.05 0.10 0.19 0.31 0.40 0.32 0.29 0.32
0.04 0.04 0.04 0.05 0.10 0.14 0.16 0.19 0.10 0.03 0.09 0.09 0.28 0.36 0.17 0.04 0.05 0.09 0.09 0.03 0.04 0.04 0.01 0.03 0.03 0.02 0.03 0.05 0.05 0.09 0.10 0.06 0.08 0.10 0.16 0.18 0.12 0.09 0.14 0.42 0.62 0.36 0.23 0.15
0.03 0.03 0.05 0.05 0.11 0.17 0.20 0.25 0.08 0.07 0.16 0.14 0.09 0.17 0.21 0.16 0.20 0.16 0.08 0.20 0.25 0.19 0.11 0.07 0.06 0.06 0.06 0.05 0.08 0.18 0.22 0.12 0.07 0.03 0.02 0.04 0.11 0.12 0.09 0.18 0.23 0.31 0.10 0.13
0.06 0.06 0.06 0.08 0.12 0.22 0.26 0.16 0.04 0.05 0.04 0.08 0.14 0.14 0.07 0.08 0.12 0.12 0.19 0.26 0.08 0.04 0.10 0.08 0.11 0.12 0.14 0.16 0.19 0.29 0.38 0.21 0.08 0.06 0.02 0.02 0.03 0.02 0.11 0.13 0.08 0.09 0.06 0.12
0.05 0.04 0.06 0.10 0.16 0.23 0.23 0.12 0.09 0.18 0.11 0.04 0.05 0.10 0.09 0.10 0.04 0.07 0.12 0.19 0.09 0.04 0.13 0.10 0.06 0.08 0.08 0.08 0.13 0.27 0.35 0.42 0.32 0.15 0.03 0.01 0.01 0.00 0.03 0.10 0.14 0.23 0.24 0.09
0.05 0.04 0.05 0.10 0.20 0.24 0.08 0.06 0.15 0.25 0.09 0.03 0.03 0.02 0.05 0.07 0.05 0.05 0.01 0.11 0.36 0.20 0.05 0.04 0.03 0.03 0.04 0.02 0.03 0.12 0.29 0.29 0.36 0.26 0.05 0.04 0.00 0.00 0.00 0.03 0.08 0.08 0.12 0.19
0.05 0.06 0.07 0.08 0.18 0.27 0.14 0.08 0.18 0.22 0.13 0.03 0.01 0.03 0.02 0.04 0.10 0.07 0.03 0.06 0.16 0.15 0.12 0.12 0.06 0.08 0.10 0.03 0.01 0.03 0.09 0.22 0.27 0.16 0.11 0.04 0.01 0.00 0.00 0.04 0.07 0.04 0.07 0.12
0.06 0.04 0.08 0.10 0.13 0.27 0.17 0.09 0.16 0.43 0.29 0.04 0.01 0.02 0.03 0.06 0.07 0.13 0.06 0.19 0.16 0.19 0.41 0.39 0.22 0.12 0.10 0.06 0.05 0.03 0.02 0.08 0.25 0.14 0.07 0.03 0.06 0.00 0.00 0.00 0.05 0.01 0.01 0.07
0.06 0.03 0.05 0.05 0.08 0.16 0.19 0.08 0.10 0.38 0.48 0.05 0.05 0.09 0.10 0.15 0.19 0.15 0.24 0.31 0.14 0.26 0.43 0.62 0.64 0.34 0.14 0.14 0.14 0.14 0.05 0.06 0.08 0.09 0.05 0.02 0.00 0.00 0.00 0.05 0.12 0.01 0.00 0.01
0.20 0.13 0.07 0.04 0.08 0.11 0.17 0.10 0.10 0.21 0.24 0.02 0.01 0.01 0.05 0.10 0.14 0.29 0.36 0.29 0.31 0.12 0.24 0.21 0.43 0.55 0.21 0.17 0.21 0.26 0.17 0.10 0.07 0.08 0.07 0.04 0.00 0.01 0.04 0.13 0.05 0.02 0.01 0.01
0.28 0.26 0.24 0.17 0.12 0.12 0.20 0.11 0.08 0.14 0.16 0.02 0.00 0.00 0.00 0.01 0.03 0.10 0.22 0.38 0.50 0.55 0.36 0.24 0.22 0.30 0.18 0.17 0.28 0.36 0.50 0.26 0.18 0.10 0.08 0.06 0.07 0.05 0.06 0.05 0.11 0.11 0.27 0.30
0.19 0.20 0.22 0.21 0.22 0.24 0.28 0.12 0.07 0.28 0.33 0.10 0.00 0.00 0.00 0.00 0.00 0.01 0.10 0.08 0.32 0.67 0.49 0.56 0.32 0.29 0.20 0.14 0.18 0.28 0.32 0.30 0.55 0.52 0.41 0.16 0.23 0.20 0.05 0.03 0.04 0.04 0.12 0.58
0.21 0.21 0.23 0.27 0.29 0.39 0.52 0.45 0.12 0.17 0.25 0.06 0.00 0.00 0.00 0.00 0.00 0.00 0.01 0.02 0.09 0.28 0.34 0.52 0.43 0.27 0.27 0.22 0.15 0.26 0.32 0.51 0.38 0.69 0.76 0.51 0.45 0.58 0.30 0.15 0.12 0.14 0.16 0.13
0.15 0.17 0.21 0.32 0.44 0.54 0.86 0.91 0.40 0.14 0.11 0.19 0.10 0.01 0.00 0.00 0.00 0.00 0.01 0.02 0.03 0.07 0.16 0.22 0.15 0.22 0.46 0.45 0.32 0.33 0.33 0.83 0.74 0.67 0.92 1.08 1.04 0.57 0.45 0.47 0.31 0.25 0.12 0.08
0.08 0.10 0.14 0.22 0.47 1.05 1.73 1.58 0.74 0.35 0.34 0.47 0.15 0.05 0.02 0.01 0.00 0.01 0.01 0.04 0.07 0.11 0.24 0.15 0.09 0.15 0.52 0.52 0.68 0.45 0.36 0.37 0.56 0.84 0.93 0.97 0.82 0.44 0.23 0.17 0.20 0.22 0.16 0.11
0.09 0.08 0.10 0.17 0.31 0.68 1.16 0.75 0.19 0.18 0.43 0.88 0.38 0.06 0.06 0.02 0.04 0.08 0.06 0.09 0.14 0.11 0.15 0.06 0.03 0.07 0.20 0.47 0.58 0.48 0.31 0.38 0.40 0.58 0.49 0.24 0.18 0.14 0.07 0.02 0.01 0.01 0.01 0.02
0.16 0.25 0.32 0.31 0.48 0.64 0.55 0.24 0.20 0.29 0.58 0.47 0.29 0.19 0.25 0.08 0.12 0.24 0.11 0.15 0.22 0.22 0.15 0.09 0.07 0.09 0.23 0.32 0.45 0.32 0.24 0.34 0.23 0.18 0.10 0.05 0.03 0.01 0.00 0.00 0.00 0.00 0.00 0.00
0.35 0.53 0.65 0.75 0.66 0.40 0.23 0.22 0.25 0.22 0.21 0.17 0.09 0.15 0.43 0.41 0.43 0.40 0.25 0.20 0.22 0.18 0.15 0.04 0.05 0.07 0.17 0.19 0.16 0.19 0.16 0.18 0.17 0.07 0.01 0.00 0.00 0.00 0.00 0.00 0.00 0.00 0.00 0.00
0.76 0.67 0.68 0.57 0.32 0.18 0.30 0.53 0.64 0.51 0.15 0.12 0.07 0.04 0.15 0.37 0.58 0.39 0.43 0.28 0.17 0.13 0.05 0.11 0.18 0.10 0.08 0.04 0.03 0.04 0.03 0.04 0.05 0.03 0.02 0.01 0.01 0.01 0.01 0.01 0.01 0.01 0.01 0.02
0.40 0.41 0.39 0.21 0.20 0.21 0.29 0.37 0.31 0.28 0.11 0.04 0.02 0.07 0.10 0.11 0.53 0.49 0.21 0.16 0.19 0.05 0.06 0.14 0.22 0.11 0.08 0.04 0.01 0.01 0.01 0.00 0.01 0.02 0.02 0.02 0.01 0.01 0.01 0.02 0.02 0.01 0.02 0.03
0.20 0.25 0.34 0.40 0.30 0.28 0.30 0.22 0.10 0.07 0.06 0.03 0.04 0.09 0.11 0.09 0.22 0.48 0.37 0.20 0.18 0.21 0.15 0.15 0.16 0.11 0.06 0.02 0.01 0.01 0.00 0.01 0.01 0.01 0.01 0.02 0.01 0.01 0.01 0.02 0.03 0.04 0.04 0.04
0.17 0.12 0.17 0.21 0.18 0.25 0.24 0.11 0.02 0.04 0.02 0.02 0.09 0.15 0.07 0.06 0.20 0.41 0.33 0.35 0.20 0.15 0.23 0.15 0.08 0.07 0.04 0.01 0.00 0.01 0.01 0.01 0.01 0.02 0.02 0.02 0.02 0.01 0.02 0.03 0.04 0.03 0.03 0.04
0.08 0.07 0.07 0.13 0.05 0.08 0.08 0.05 0.03 0.01 0.02 0.04 0.23 0.09 0.09 0.06 0.09 0.15 0.24 0.20 0.15 0.13 0.11 0.06 0.08 0.04 0.03 0.02 0.01 0.01 0.02 0.02 0.02 0.03 0.02 0.02 0.02 0.03 0.03 0.03 0.03 0.02 0.03 0.03
0.01 0.00 0.01 0.01 0.02 0.02 0.03 0.04 0.02 0.01 0.04 0.10 0.24 0.08 0.10 0.06 0.10 0.09 0.12 0.10 0.13 0.09 0.08 0.06 0.06 0.03 0.02 0.02 0.01 0.02 0.02 0.02 0.03 0.03 0.03 0.03 0.02 0.02 0.04 0.04 0.03 0.01 0.01 0.01
0.00 0.02 0.03 0.06 0.05 0.07 0.07 0.08 0.04 0.04 0.09 0.09 0.12 0.11 0.08 0.09 0.05 0.07 0.05 0.07 0.07 0.06 0.05 0.05 0.03 0.02 0.02 0.02 0.03 0.03 0.03 0.03 0.04 0.04 0.03 0.04 0.03 0.03 0.03 0.02 0.01 0.00 0.00 0.00
0.00 0.03 0.05 0.05 0.04 0.05 0.06 0.07 0.06 0.07 0.13 0.09 0.08 0.08 0.09 0.09 0.03 0.01 0.02 0.05 0.06 0.05 0.07 0.04 0.02 0.02 0.03 0.03 0.04 0.05 0.05 0.05 0.05 0.05 0.05 0.04 0.02 0.01 0.00 0.00 0.00 0.00 0.00 0.00

GFSNW_prec_precacc24_084.txt.gz
Total_Precipitation_Accumulation
0.02 0.02 0.01 0.01 0.03 0.05 0.01 0.02 0.02 0.02 0.04 0.07 0.05 0.01 0.00 0.00 0.00 0.00 0.00 0.00 0.00 0.00 0.00 0.00 0.00 0.00 0.03 0.02 0.03 0.08 0.14 0.12 0.05 0.01 0.00 0.00 0.04 0.09 0.24 0.50 0.33 0.20 0.19 0.43
0.04 0.03 0.01 0.01 0.04 0.07 0.03 0.05 0.01 0.01 0.16 0.47 0.09 0.02 0.01 0.00 0.00 0.00 0.01 0.00 0.00 0.00 0.00 0.02 0.00 0.00 0.00 0.01 0.03 0.08 0.07 0.19 0.16 0.07 0.09 0.05 0.05 0.11 0.20 0.35 0.41 0.28 0.32 0.36
0.03 0.02 0.03 0.03 0.08 0.12 0.10 0.09 0.05 0.01 0.02 0.07 0.25 0.32 0.15 0.04 0.05 0.09 0.09 0.03 0.05 0.04 0.01 0.03 0.03 0.02 0.03 0.05 0.05 0.10 0.12 0.06 0.09 0.10 0.16 0.22 0.16 0.12 0.15 0.45 0.61 0.34 0.23 0.16
0.01 0.01 0.04 0.04 0.09 0.14 0.13 0.16 0.06 0.02 0.10 0.12 0.07 0.14 0.15 0.13 0.20 0.16 0.08 0.20 0.25 0.19 0.11 0.07 0.06 0.07 0.07 0.05 0.08 0.18 0.24 0.12 0.05 0.04 0.02 0.08 0.16 0.16 0.12 0.21 0.25 0.31 0.10 0.12
0.05 0.05 0.04 0.06 0.09 0.17 0.16 0.09 0.02 0.01 0.00 0.04 0.10 0.12 0.06 0.05 0.08 0.10 0.18 0.26 0.08 0.04 0.10 0.08 0.11 0.12 0.14 0.16 0.20 0.33 0.48 0.24 0.09 0.06 0.03 0.03 0.03 0.03 0.14 0.20 0.14 0.11 0.05 0.14
0.05 0.03 0.04 0.06 0.12 0.16 0.13 0.09 0.06 0.09 0.04 0.01 0.01 0.04 0.08 0.10 0.03 0.05 0.10 0.17 0.08 0.02 0.12 0.09 0.06 0.07 0.07 0.07 0.13 0.28 0.41 0.50 0.30 0.13 0.05 0.04 0.02 0.00 0.03 0.11 0.16 0.24 0.27 0.14
0.04 0.04 0.04 0.06 0.16 0.18 0.03 0.02 0.09 0.15 0.05 0.00 0.00 0.00 0.01 0.05 0.05 0.05 0.01 0.08 0.31 0.15 0.05 0.03 0.03 0.03 0.04 0.03 0.03 0.13 0.30 0.31 0.36 0.24 0.11 0.16 0.01 0.00 0.00 0.03 0.10 0.12 0.13 0.19
0.04 0.05 0.06 0.06 0.13 0.20 0.07 0.03 0.07 0.13 0.09 0.01 0.00 0.00 0.00 0.02 0.08 0.06 0.01 0.03 0.10 0.09 0.09 0.11 0.05 0.08 0.10 0.05 0.01 0.04 0.09 0.25 0.31 0.32 0.32 0.13 0.01 0.00 0.00 0.05 0.18 0.05 0.07 0.12
0.06 0.03 0.06 0.08 0.11 0.22 0.10 0.04 0.09 0.23 0.19 0.03 0.00 0.00 0.01 0.03 0.03 0.11 0.04 0.15 0.15 0.18 0.39 0.39 0.22 0.11 0.10 0.10 0.08 0.03 0.03 0.11 0.30 0.20 0.38 0.24 0.16 0.01 0.00 0.00 0.12 0.02 0.01 0.07
0.07 0.03 0.04 0.04 0.07 0.14 0.14 0.04 0.05 0.26 0.34 0.05 0.02 0.04 0.06 0.11 0.16 0.11 0.19 0.25 0.13 0.26 0.41 0.61 0.68 0.35 0.09 0.13 0.12 0.12 0.05 0.06 0.11 0.16 0.26 0.27 0.11 0.02 0.00 0.05 0.11 0.01 0.00 0.01
0.14 0.12 0.07 0.03 0.06 0.09 0.13 0.07 0.05 0.14 0.17 0.02 0.01 0.01 0.05 0.09 0.08 0.20 0.28 0.27 0.33 0.11 0.23 0.27 0.44 0.57 0.28 0.24 0.20 0.24 0.20 0.13 0.09 0.12 0.16 0.10 0.00 0.01 0.03 0.09 0.04 0.02 0.01 0.01
0.18 0.21 0.24 0.17 0.11 0.11 0.17 0.10 0.04 0.08 0.10 0.02 0.00 0.00 0.00 0.00 0.01 0.02 0.13 0.35 0.40 0.51 0.37 0.23 0.19 0.29 0.26 0.31 0.40 0.37 0.51 0.32 0.41 0.20 0.19 0.08 0.07 0.04 0.04 0.05 0.11 0.10 0.27 0.30
0.14 0.16 0.20 0.21 0.21 0.23 0.27 0.15 0.04 0.21 0.27 0.07 0.00 0.00 0.00 0.00 0.00 0.00 0.04 0.07 0.31 0.61 0.40 0.46 0.25 0.27 0.23 0.21 0.32 0.37 0.29 0.30 0.58 0.52 0.41 0.15 0.21 0.18 0.05 0.03 0.04 0.04 0.12 0.58
0.19 0.20 0.22 0.27 0.29 0.39 0.51 0.44 0.10 0.11 0.20 0.04 0.01 0.00 0.00 0.00 0.00 0.00 0.00 0.02 0.03 0.12 0.16 0.37 0.35 0.24 0.29 0.23 0.18 0.30 0.25 0.39 0.34 0.66 0.71 0.45 0.29 0.52 0.32 0.16 0.12 0.14 0.16 0.14
0.15 0.16 0.21 0.32 0.44 0.53 0.83 0.87 0.37 0.09 0.11 0.18 0.06 0.00 0.00 0.00 0.00 0.00 0.00 0.00 0.01 0.03 0.10 0.16 0.14 0.20 0.48 0.46 0.38 0.37 0.32 0.78 0.70 0.63 0.85 1.02 0.86 0.57 0.46 0.49 0.33 0.27 0.12 0.09
0.08 0.10 0.14 0.22 0.46 1.02 1.63 1.41 0.69 0.31 0.31 0.43 0.12 0.01 0.00 0.00 0.00 0.00 0.00 0.00 0.01 0.04 0.10 0.09 0.08 0.15 0.54 0.51 0.73 0.46 0.33 0.36 0.56 0.83 0.94 0.99 0.85 0.47 0.26 0.19 0.22 0.23 0.16 0.11
0.10 0.08 0.09 0.13 0.26 0.60 0.93 0.58 0.18 0.17 0.38 0.81 0.34 0.04 0.03 0.01 0.02 0.04 0.05 0.02 0.04 0.04 0.08 0.04 0.02 0.04 0.18 0.47 0.59 0.41 0.31 0.38 0.41 0.61 0.54 0.29 0.23 0.17 0.10 0.02 0.01 0.01 0.01 0.02
0.16 0.24 0.28 0.22 0.34 0.50 0.44 0.20 0.20 0.29 0.59 0.45 0.22 0.07 0.22 0.08 0.12 0.21 0.11 0.09 0.16 0.12 0.09 0.05 0.05 0.07 0.19 0.32 0.44 0.32 0.25 0.37 0.27 0.24 0.15 0.09 0.04 0.01 0.00 0.00 0.00 0.00 0.00 0.00
0.32 0.44 0.45 0.51 0.44 0.27 0.14 0.17 0.25 0.23 0.30 0.17 0.06 0.10 0.46 0.43 0.45 0.44 0.24 0.18 0.19 0.14 0.13 0.05 0.06 0.08 0.16 0.17 0.16 0.19 0.17 0.23 0.24 0.13 0.04 0.01 0.00 0.00 0.00 0.00 0.00 0.00 0.00 0.00
0.53 0.36 0.47 0.46 0.22 0.12 0.17 0.40 0.55 0.45 0.13 0.08 0.05 0.03 0.16 0.36 0.56 0.40 0.44 0.29 0.17 0.15 0.07 0.10 0.17 0.08 0.06 0.04 0.03 0.04 0.03 0.06 0.08 0.07 0.03 0.01 0.01 0.01 0.01 0.01 0.01 0.01 0.01 0.02
0.29 0.37 0.44 0.22 0.15 0.15 0.21 0.29 0.23 0.22 0.09 0.02 0.00 0.02 0.09 0.12 0.49 0.48 0.18 0.17 0.19 0.06 0.07 0.13 0.17 0.09 0.08 0.04 0.02 0.01 0.01 0.00 0.01 0.01 0.02 0.01 0.01 0.01 0.01 0.01 0.02 0.01 0.01 0.02
0.16 0.27 0.30 0.30 0.19 0.21 0.21 0.16 0.07 0.06 0.03 0.02 0.02 0.04 0.06 0.12 0.21 0.51 0.36 0.18 0.17 0.19 0.17 0.14 0.14 0.10 0.05 0.02 0.01 0.01 0.00 0.00 0.01 0.01 0.01 0.01 0.01 0.01 0.01 0.02 0.02 0.03 0.03 0.03
0.28 0.18 0.15 0.18 0.17 0.21 0.18 0.08 0.02 0.03 0.01 0.03 0.09 0.13 0.06 0.09 0.22 0.43 0.33 0.33 0.19 0.19 0.26 0.16 0.08 0.07 0.04 0.01 0.00 0.01 0.01 0.00 0.01 0.02 0.02 0.01 0.01 0.01 0.01 0.02 0.03 0.02 0.02 0.02
0.16 0.12 0.10 0.15 0.06 0.08 0.08 0.05 0.04 0.03 0.03 0.05 0.24 0.09 0.09 0.08 0.10 0.15 0.22 0.22 0.18 0.17 0.14 0.07 0.07 0.04 0.03 0.01 0.00 0.00 0.01 0.01 0.02 0.02 0.02 0.01 0.01 0.02 0.02 0.02 0.02 0.01 0.01 0.01
0.09 0.02 0.02 0.02 0.02 0.02 0.04 0.03 0.01 0.01 0.04 0.11 0.25 0.10 0.10 0.07 0.10 0.09 0.12 0.14 0.17 0.11 0.11 0.05 0.05 0.02 0.01 0.01 0.01 0.01 0.02 0.02 0.02 0.03 0.02 0.02 0.02 0.02 0.03 0.03 0.02 0.01 0.00 0.00
0.01 0.02 0.03 0.05 0.03 0.06 0.06 0.07 0.04 0.04 0.10 0.10 0.11 0.12 0.08 0.08 0.03 0.06 0.05 0.06 0.09 0.04 0.03 0.04 0.03 0.02 0.01 0.02 0.02 0.02 0.03 0.03 0.04 0.04 0.03 0.03 0.03 0.03 0.02 0.02 0.01 0.00 0.00 0.00
0.00 0.02 0.04 0.04 0.03 0.04 0.05 0.06 0.06 0.06 0.12 0.09 0.06 0.08 0.08 0.07 0.02 0.01 0.02 0.04 0.04 0.03 0.05 0.03 0.01 0.01 0.02 0.02 0.02 0.03 0.04 0.04 0.04 0.04 0.04 0.03 0.02 0.01 0.00 0.00 0.00 0.00 0.00 0.00

GFSNW_prec_precacc24_087.txt.gz
Total_Precipitation_Accumulation
0.02 0.01 0.01 0.00 0.01 0.03 0.00 0.00 0.01 0.00 0.02 0.05 0.03 0.01 0.00 0.00 0.00 0.00 0.00 0.00 0.00 0.00 0.00 0.00 0.00 0.00 0.02 0.02 0.03 0.08 0.14 0.12 0.05 0.01 0.00 0.00 0.06 0.12 0.25 0.48 0.31 0.21 0.21 0.44
0.02 0.02 0.01 0.00 0.01 0.05 0.01 0.02 0.00 0.00 0.07 0.30 0.08 0.02 0.01 0.00 0.00 0.00 0.01 0.00 0.00 0.00 0.00 0.02 0.00 0.00 0.00 0.01 0.03 0.08 0.07 0.19 0.17 0.07 0.08 0.07 0.08 0.16 0.24 0.40 0.45 0.28 0.35 0.39
0.03 0.01 0.01 0.01 0.03 0.08 0.05 0.05 0.01 0.00 0.00 0.03 0.20 0.30 0.12 0.03 0.05 0.09 0.09 0.03 0.05 0.04 0.01 0.03 0.03 0.02 0.03 0.05 0.05 0.10 0.12 0.07 0.10 0.11 0.16 0.20 0.16 0.14 0.19 0.56 0.68 0.40 0.18 0.15
0.01 0.00 0.01 0.01 0.04 0.08 0.09 0.12 0.03 0.00 0.04 0.09 0.07 0.13 0.12 0.09 0.16 0.16 0.08 0.20 0.25 0.19 0.11 0.07 0.06 0.07 0.07 0.05 0.08 0.18 0.26 0.12 0.05 0.04 0.02 0.07 0.15 0.16 0.16 0.24 0.28 0.32 0.09 0.06
0.03 0.02 0.02 0.04 0.07 0.10 0.11 0.07 0.00 0.00 0.00 0.01 0.03 0.04 0.05 0.05 0.07 0.06 0.17 0.26 0.08 0.04 0.10 0.08 0.11 0.11 0.13 0.15 0.19 0.33 0.48 0.26 0.12 0.07 0.03 0.02 0.03 0.03 0.14 0.19 0.15 0.16 0.06 0.16
0.05 0.03 0.02 0.02 0.08 0.10 0.10 0.08 0.05 0.03 0.02 0.00 0.01 0.01 0.04 0.09 0.03 0.05 0.08 0.14 0.07 0.02 0.10 0.09 0.06 0.06 0.06 0.07 0.13 0.27 0.40 0.51 0.34 0.16 0.06 0.05 0.02 0.00 0.02 0.06 0.16 0.29 0.35 0.29
0.02 0.03 0.04 0.05 0.10 0.12 0.01 0.00 0.04 0.10 0.04 0.00 0.00 0.00 0.00 0.00 0.03 0.05 0.01 0.07 0.25 0.08 0.03 0.03 0.02 0.03 0.04 0.03 0.03 0.13 0.30 0.31 0.37 0.25 0.12 0.15 0.01 0.00 0.01 0.09 0.16 0.23 0.28 0.24
0.02 0.02 0.04 0.06 0.11 0.15 0.03 0.00 0.03 0.06 0.06 0.01 0.00 0.00 0.00 0.00 0.01 0.03 0.00 0.01 0.07 0.08 0.07 0.09 0.05 0.08 0.10 0.05 0.02 0.04 0.10 0.26 0.33 0.35 0.31 0.13 0.07 0.07 0.06 0.08 0.20 0.06 0.08 0.12
0.05 0.02 0.05 0.07 0.10 0.18 0.05 0.01 0.03 0.17 0.11 0.01 0.00 0.00 0.00 0.00 0.01 0.01 0.01 0.06 0.14 0.18 0.39 0.37 0.22 0.11 0.10 0.10 0.11 0.03 0.04 0.13 0.32 0.23 0.42 0.41 0.63 0.21 0.04 0.04 0.15 0.03 0.01 0.07
0.06 0.03 0.03 0.03 0.06 0.12 0.08 0.02 0.00 0.16 0.21 0.01 0.00 0.00 0.03 0.03 0.04 0.05 0.14 0.14 0.11 0.26 0.42 0.62 0.73 0.35 0.09 0.16 0.22 0.10 0.05 0.06 0.10 0.16 0.32 0.47 0.36 0.11 0.01 0.06 0.16 0.02 0.00 0.01
0.05 0.03 0.02 0.02 0.06 0.08 0.08 0.05 0.01 0.06 0.11 0.01 0.00 0.00 0.04 0.08 0.05 0.11 0.16 0.20 0.27 0.11 0.24 0.31 0.46 0.57 0.26 0.42 0.47 0.15 0.17 0.13 0.11 0.18 0.38 0.41 0.02 0.01 0.03 0.13 0.05 0.02 0.01 0.01
0.07 0.05 0.05 0.09 0.10 0.10 0.15 0.09 0.01 0.02 0.06 0.01 0.00 0.00 0.00 0.00 0.00 0.00 0.01 0.15 0.33 0.49 0.35 0.21 0.16 0.26 0.31 0.44 0.47 0.42 0.73 0.49 0.65 0.41 0.40 0.16 0.05 0.03 0.03 0.04 0.10 0.10 0.27 0.30
0.07 0.06 0.05 0.11 0.19 0.23 0.26 0.16 0.03 0.14 0.22 0.06 0.00 0.00 0.00 0.00 0.00 0.00 0.01 0.06 0.28 0.56 0.31 0.36 0.19 0.19 0.19 0.26 0.43 0.46 0.33 0.28 0.62 0.57 0.39 0.10 0.08 0.09 0.05 0.04 0.04 0.04 0.12 0.58
0.08 0.13 0.15 0.19 0.26 0.38 0.50 0.44 0.10 0.07 0.16 0.04 0.01 0.00 0.00 0.00 0.00 0.00 0.00 0.02 0.02 0.06 0.08 0.21 0.19 0.15 0.27 0.21 0.23 0.32 0.19 0.15 0.26 0.60 0.60 0.39 0.20 0.26 0.24 0.16 0.13 0.15 0.17 0.15
0.11 0.15 0.20 0.31 0.42 0.53 0.82 0.85 0.37 0.08 0.10 0.15 0.03 0.00 0.00 0.00 0.00 0.00 0.00 0.00 0.00 0.02 0.06 0.10 0.07 0.10 0.47 0.47 0.45 0.37 0.25 0.31 0.46 0.51 0.51 0.79 0.63 0.41 0.34 0.45 0.34 0.29 0.14 0.10
0.09 0.09 0.13 0.21 0.46 1.00 1.59 1.37 0.69 0.30 0.27 0.40 0.11 0.01 0.00 0.00 0.00 0.00 0.00 0.00 0.01 0.01 0.05 0.07 0.05 0.12 0.53 0.51 0.73 0.44 0.32 0.33 0.47 0.74 0.74 0.87 0.79 0.43 0.25 0.19 0.22 0.23 0.16 0.12
0.12 0.08 0.08 0.12 0.25 0.58 0.92 0.57 0.17 0.17 0.35 0.70 0.31 0.03 0.01 0.00 0.00 0.02 0.05 0.02 0.01 0.01 0.04 0.03 0.02 0.02 0.15 0.47 0.60 0.38 0.29 0.38 0.41 0.61 0.54 0.31 0.25 0.18 0.10 0.02 0.01 0.01 0.01 0.02
0.18 0.25 0.27 0.21 0.31 0.47 0.43 0.20 0.16 0.27 0.58 0.41 0.18 0.04 0.06 0.05 0.08 0.10 0.10 0.05 0.03 0.06 0.06 0.05 0.05 0.06 0.17 0.28 0.43 0.32 0.25 0.37 0.28 0.25 0.16 0.10 0.04 0.01 0.00 0.00 0.00 0.00 0.00 0.00
0.32 0.42 0.38 0.32 0.24 0.18 0.11 0.17 0.21 0.22 0.29 0.18 0.05 0.06 0.28 0.40 0.43 0.36 0.22 0.16 0.11 0.10 0.11 0.04 0.06 0.08 0.14 0.14 0.16 0.19 0.17 0.25 0.27 0.16 0.05 0.01 0.00 0.00 0.00 0.00 0.00 0.00 0.00 0.00
0.49 0.28 0.24 0.27 0.15 0.09 0.13 0.19 0.25 0.34 0.13 0.08 0.04 0.02 0.15 0.33 0.53 0.39 0.40 0.26 0.14 0.15 0.07 0.09 0.17 0.08 0.06 0.04 0.03 0.04 0.03 0.07 0.09 0.10 0.05 0.02 0.01 0.01 0.01 0.01 0.01 0.01 0.01 0.01
0.24 0.26 0.34 0.21 0.12 0.09 0.14 0.17 0.15 0.18 0.08 0.02 0.00 0.01 0.08 0.11 0.46 0.46 0.18 0.18 0.20 0.07 0.10 0.14 0.15 0.09 0.07 0.04 0.02 0.01 0.01 0.00 0.01 0.01 0.02 0.01 0.01 0.01 0.01 0.01 0.01 0.01 0.01 0.02
0.14 0.24 0.29 0.25 0.13 0.16 0.19 0.16 0.05 0.05 0.01 0.01 0.01 0.01 0.03 0.10 0.17 0.49 0.34 0.17 0.17 0.19 0.19 0.13 0.11 0.09 0.05 0.02 0.01 0.01 0.00 0.00 0.01 0.01 0.01 0.01 0.01 0.01 0.01 0.01 0.02 0.02 0.02 0.02
0.28 0.23 0.14 0.18 0.17 0.19 0.08 0.05 0.01 0.01 0.01 0.03 0.08 0.11 0.04 0.10 0.23 0.43 0.34 0.32 0.19 0.20 0.28 0.16 0.07 0.05 0.03 0.01 0.00 0.01 0.00 0.00 0.01 0.01 0.01 0.01 0.01 0.01 0.00 0.02 0.02 0.02 0.02 0.02
0.22 0.15 0.10 0.13 0.07 0.03 0.05 0.04 0.04 0.04 0.04 0.06 0.24 0.09 0.10 0.09 0.11 0.15 0.21 0.23 0.20 0.23 0.15 0.09 0.05 0.03 0.03 0.01 0.00 0.00 0.01 0.01 0.01 0.02 0.02 0.01 0.01 0.02 0.02 0.02 0.02 0.01 0.01 0.01
0.22 0.07 0.04 0.02 0.02 0.02 0.03 0.03 0.01 0.01 0.04 0.12 0.25 0.10 0.11 0.07 0.10 0.09 0.13 0.15 0.20 0.16 0.21 0.04 0.04 0.02 0.01 0.00 0.00 0.01 0.01 0.02 0.02 0.02 0.02 0.02 0.02 0.02 0.03 0.03 0.02 0.00 0.00 0.00
0.13 0.04 0.03 0.04 0.02 0.04 0.04 0.05 0.04 0.04 0.10 0.10 0.11 0.13 0.08 0.09 0.03 0.07 0.06 0.08 0.19 0.06 0.02 0.04 0.02 0.01 0.01 0.01 0.01 0.01 0.02 0.02 0.03 0.03 0.03 0.03 0.03 0.02 0.02 0.01 0.00 0.00 0.00 0.00
0.01 0.02 0.03 0.03 0.02 0.04 0.04 0.05 0.05 0.05 0.10 0.08 0.06 0.12 0.09 0.09 0.02 0.01 0.01 0.02 0.03 0.02 0.04 0.03 0.00 0.01 0.01 0.01 0.01 0.02 0.03 0.03 0.03 0.04 0.04 0.03 0.01 0.01 0.00 0.00 0.00 0.00 0.00 0.00

GFSNW_prec_precacc24_090.txt.gz
Total_Precipitation_Accumulation
0.02 0.01 0.01 0.00 0.00 0.01 0.00 0.00 0.00 0.00 0.00 0.05 0.02 0.01 0.00 0.00 0.00 0.00 0.00 0.00 0.00 0.00 0.00 0.00 0.00 0.00 0.02 0.02 0.03 0.08 0.14 0.12 0.05 0.01 0.00 0.00 0.05 0.14 0.30 0.50 0.33 0.22 0.21 0.39
0.01 0.01 0.00 0.00 0.01 0.03 0.00 0.00 0.00 0.00 0.01 0.11 0.06 0.02 0.01 0.00 0.00 0.00 0.01 0.00 0.00 0.00 0.00 0.02 0.00 0.00 0.00 0.01 0.03 0.08 0.07 0.19 0.16 0.07 0.08 0.06 0.09 0.16 0.28 0.43 0.44 0.30 0.38 0.39
0.02 0.00 0.00 0.01 0.01 0.04 0.01 0.01 0.00 0.00 0.00 0.01 0.06 0.14 0.07 0.03 0.05 0.08 0.09 0.03 0.05 0.04 0.01 0.03 0.03 0.02 0.03 0.05 0.05 0.10 0.12 0.07 0.10 0.10 0.15 0.19 0.16 0.13 0.20 0.65 0.77 0.48 0.29 0.24
0.00 0.00 0.00 0.00 0.01 0.04 0.03 0.05 0.02 0.00 0.00 0.04 0.04 0.07 0.06 0.07 0.12 0.13 0.08 0.20 0.25 0.19 0.11 0.07 0.06 0.07 0.07 0.05 0.08 0.18 0.26 0.12 0.05 0.03 0.02 0.07 0.13 0.12 0.13 0.22 0.31 0.41 0.16 0.20
0.01 0.00 0.01 0.01 0.04 0.05 0.05 0.04 0.00 0.00 0.00 0.00 0.01 0.02 0.02 0.04 0.06 0.02 0.13 0.24 0.07 0.04 0.09 0.07 0.11 0.11 0.13 0.15 0.19 0.32 0.48 0.26 0.12 0.07 0.03 0.02 0.02 0.03 0.10 0.15 0.14 0.16 0.07 0.24
0.03 0.02 0.02 0.01 0.04 0.04 0.04 0.05 0.05 0.02 0.01 0.00 0.00 0.00 0.01 0.04 0.01 0.02 0.04 0.06 0.04 0.01 0.06 0.06 0.05 0.05 0.06 0.07 0.13 0.26 0.39 0.50 0.34 0.16 0.06 0.06 0.03 0.01 0.01 0.04 0.15 0.23 0.27 0.31
0.02 0.02 0.03 0.05 0.07 0.05 0.01 0.00 0.04 0.07 0.03 0.00 0.00 0.00 0.00 0.00 0.00 0.01 0.00 0.02 0.13 0.06 0.02 0.01 0.02 0.02 0.03 0.03 0.03 0.13 0.30 0.31 0.37 0.25 0.12 0.16 0.04 0.06 0.05 0.11 0.28 0.35 0.40 0.25
0.01 0.01 0.01 0.02 0.08 0.09 0.00 0.00 0.01 0.02 0.02 0.00 0.00 0.00 0.00 0.00 0.00 0.00 0.00 0.00 0.03 0.05 0.06 0.08 0.04 0.08 0.10 0.05 0.02 0.04 0.10 0.26 0.35 0.36 0.33 0.15 0.10 0.14 0.28 0.28 0.31 0.16 0.10 0.07
0.05 0.02 0.03 0.04 0.07 0.13 0.01 0.00 0.01 0.08 0.07 0.01 0.00 0.00 0.00 0.00 0.00 0.00 0.00 0.00 0.05 0.15 0.38 0.37 0.22 0.11 0.10 0.10 0.11 0.04 0.05 0.14 0.34 0.24 0.49 0.42 0.66 0.25 0.16 0.35 0.31 0.11 0.03 0.06
0.06 0.02 0.03 0.03 0.06 0.10 0.04 0.01 0.00 0.05 0.11 0.01 0.00 0.00 0.00 0.00 0.02 0.01 0.04 0.02 0.05 0.26 0.42 0.62 0.75 0.36 0.09 0.18 0.36 0.12 0.05 0.07 0.12 0.17 0.34 0.49 0.42 0.21 0.17 0.24 0.28 0.03 0.00 0.01
0.05 0.02 0.01 0.01 0.05 0.08 0.05 0.04 0.00 0.02 0.05 0.01 0.00 0.00 0.00 0.00 0.01 0.05 0.04 0.12 0.19 0.10 0.24 0.31 0.46 0.57 0.26 0.51 0.79 0.20 0.22 0.17 0.14 0.25 0.49 0.50 0.05 0.14 0.20 0.24 0.09 0.01 0.01 0.01
0.06 0.04 0.02 0.01 0.03 0.07 0.12 0.08 0.01 0.01 0.03 0.01 0.00 0.00 0.00 0.00 0.00 0.00 0.01 0.05 0.11 0.35 0.32 0.17 0.16 0.25 0.31 0.46 0.58 0.48 0.80 0.71 0.80 0.53 0.50 0.25 0.08 0.09 0.11 0.07 0.10 0.09 0.26 0.30
0.05 0.04 0.02 0.04 0.06 0.09 0.19 0.16 0.02 0.09 0.17 0.05 0.00 0.00 0.00 0.00 0.00 0.00 0.01 0.04 0.09 0.32 0.28 0.33 0.18 0.18 0.17 0.25 0.56 0.47 0.32 0.32 0.66 0.58 0.41 0.11 0.09 0.06 0.07 0.05 0.05 0.04 0.11 0.58
0.04 0.05 0.04 0.07 0.11 0.21 0.41 0.44 0.10 0.06 0.11 0.03 0.01 0.00 0.00 0.00 0.00 0.00 0.00 0.02 0.02 0.04 0.08 0.20 0.18 0.10 0.14 0.15 0.34 0.31 0.17 0.15 0.23 0.53 0.52 0.34 0.19 0.16 0.15 0.15 0.13 0.16 0.18 0.15
0.08 0.08 0.11 0.19 0.25 0.39 0.78 0.85 0.37 0.08 0.09 0.12 0.02 0.00 0.00 0.00 0.00 0.00 0.00 0.00 0.00 0.02 0.05 0.09 0.06 0.06 0.25 0.41 0.48 0.30 0.23 0.17 0.15 0.38 0.42 0.44 0.57 0.38 0.24 0.37 0.33 0.29 0.14 0.11
0.08 0.07 0.10 0.16 0.38 0.94 1.58 1.35 0.68 0.30 0.26 0.38 0.11 0.01 0.00 0.00 0.00 0.00 0.00 0.00 0.01 0.01 0.05 0.05 0.04 0.09 0.32 0.47 0.65 0.29 0.26 0.23 0.28 0.48 0.54 0.47 0.53 0.40 0.22 0.17 0.21 0.23 0.16 0.12
0.13 0.07 0.07 0.10 0.23 0.58 0.92 0.57 0.16 0.17 0.34 0.65 0.28 0.03 0.01 0.00 0.00 0.02 0.05 0.01 0.01 0.01 0.03 0.02 0.02 0.02 0.13 0.38 0.57 0.35 0.27 0.36 0.36 0.49 0.46 0.29 0.24 0.18 0.10 0.03 0.01 0.01 0.01 0.02
0.19 0.24 0.26 0.19 0.30 0.47 0.43 0.19 0.15 0.27 0.58 0.41 0.16 0.03 0.02 0.01 0.06 0.09 0.08 0.04 0.02 0.04 0.05 0.05 0.05 0.05 0.16 0.25 0.41 0.31 0.24 0.35 0.28 0.26 0.17 0.11 0.05 0.01 0.01 0.00 0.00 0.00 0.00 0.00
0.33 0.41 0.36 0.29 0.23 0.17 0.11 0.16 0.19 0.20 0.29 0.17 0.05 0.03 0.14 0.16 0.28 0.21 0.18 0.11 0.07 0.05 0.08 0.04 0.05 0.07 0.13 0.13 0.16 0.18 0.18 0.26 0.28 0.16 0.05 0.01 0.00 0.00 0.00 0.00 0.00 0.00 0.00 0.00
0.48 0.27 0.23 0.26 0.15 0.09 0.13 0.18 0.15 0.14 0.12 0.08 0.04 0.02 0.14 0.16 0.38 0.29 0.25 0.18 0.10 0.10 0.07 0.07 0.13 0.07 0.06 0.04 0.03 0.04 0.04 0.08 0.11 0.11 0.06 0.02 0.01 0.00 0.00 0.00 0.00 0.00 0.00 0.00
0.24 0.25 0.30 0.20 0.12 0.08 0.11 0.09 0.08 0.10 0.08 0.02 0.00 0.01 0.08 0.09 0.38 0.41 0.17 0.18 0.20 0.10 0.13 0.12 0.14 0.09 0.06 0.04 0.02 0.01 0.01 0.04 0.06 0.05 0.04 0.02 0.01 0.00 0.00 0.01 0.01 0.01 0.01 0.02
0.13 0.15 0.29 0.25 0.12 0.12 0.13 0.12 0.05 0.05 0.01 0.01 0.01 0.01 0.03 0.10 0.15 0.48 0.32 0.17 0.18 0.20 0.19 0.10 0.10 0.08 0.05 0.02 0.02 0.00 0.00 0.01 0.01 0.01 0.01 0.01 0.00 0.00 0.00 0.01 0.02 0.02 0.02 0.02
0.24 0.21 0.12 0.14 0.11 0.14 0.05 0.04 0.01 0.01 0.01 0.03 0.07 0.11 0.03 0.09 0.22 0.42 0.33 0.29 0.17 0.20 0.28 0.16 0.06 0.04 0.03 0.01 0.00 0.00 0.00 0.00 0.01 0.01 0.01 0.01 0.01 0.01 0.00 0.01 0.02 0.01 0.02 0.02
0.21 0.13 0.07 0.11 0.07 0.02 0.01 0.03 0.04 0.04 0.05 0.06 0.24 0.10 0.10 0.09 0.11 0.15 0.21 0.22 0.20 0.26 0.16 0.09 0.04 0.03 0.02 0.01 0.00 0.00 0.01 0.01 0.01 0.02 0.01 0.01 0.01 0.02 0.02 0.01 0.01 0.01 0.01 0.01
0.24 0.10 0.05 0.02 0.02 0.02 0.03 0.02 0.01 0.01 0.04 0.12 0.25 0.10 0.11 0.07 0.10 0.09 0.13 0.16 0.24 0.24 0.31 0.04 0.04 0.02 0.01 0.00 0.00 0.01 0.01 0.01 0.02 0.02 0.02 0.02 0.02 0.02 0.03 0.03 0.02 0.00 0.00 0.00
0.19 0.09 0.03 0.03 0.02 0.03 0.03 0.04 0.03 0.03 0.10 0.10 0.11 0.13 0.08 0.09 0.03 0.07 0.06 0.12 0.36 0.08 0.02 0.03 0.02 0.01 0.01 0.01 0.01 0.01 0.02 0.02 0.03 0.03 0.02 0.03 0.03 0.02 0.02 0.01 0.00 0.00 0.00 0.00
0.05 0.02 0.03 0.02 0.02 0.03 0.03 0.04 0.04 0.04 0.09 0.07 0.06 0.13 0.10 0.12 0.02 0.01 0.01 0.01 0.02 0.02 0.03 0.03 0.01 0.01 0.01 0.01 0.01 0.02 0.02 0.02 0.03 0.03 0.03 0.02 0.01 0.00 0.00 0.00 0.00 0.00 0.00 0.00

GFSNW_prec_precacc24_093.txt.gz
Total_Precipitation_Accumulation
0.03 0.01 0.00 0.00 0.00 0.00 0.00 0.00 0.00 0.00 0.00 0.01 0.01 0.00 0.00 0.00 0.00 0.00 0.00 0.00 0.00 0.00 0.00 0.00 0.00 0.00 0.01 0.02 0.03 0.07 0.14 0.12 0.05 0.01 0.00 0.00 0.05 0.12 0.26 0.48 0.31 0.22 0.20 0.33
0.01 0.01 0.00 0.00 0.01 0.01 0.00 0.00 0.00 0.00 0.00 0.00 0.01 0.01 0.01 0.00 0.00 0.00 0.01 0.00 0.00 0.00 0.00 0.01 0.00 0.00 0.00 0.01 0.03 0.08 0.07 0.19 0.16 0.07 0.08 0.06 0.08 0.15 0.26 0.40 0.42 0.31 0.40 0.34
0.02 0.00 0.00 0.00 0.01 0.01 0.00 0.00 0.00 0.00 0.00 0.01 0.01 0.02 0.01 0.00 0.02 0.05 0.07 0.03 0.05 0.04 0.01 0.03 0.02 0.02 0.03 0.05 0.05 0.10 0.12 0.07 0.10 0.10 0.14 0.19 0.14 0.10 0.18 0.59 0.71 0.47 0.30 0.22
0.00 0.00 0.00 0.00 0.00 0.01 0.00 0.01 0.00 0.00 0.00 0.02 0.01 0.01 0.01 0.02 0.07 0.09 0.06 0.19 0.24 0.18 0.10 0.06 0.06 0.07 0.07 0.05 0.08 0.18 0.26 0.12 0.05 0.03 0.02 0.07 0.12 0.10 0.10 0.19 0.29 0.41 0.16 0.21
0.01 0.00 0.00 0.00 0.03 0.02 0.01 0.02 0.00 0.00 0.00 0.00 0.00 0.00 0.00 0.02 0.02 0.00 0.09 0.21 0.07 0.03 0.08 0.07 0.10 0.11 0.13 0.15 0.18 0.32 0.48 0.26 0.12 0.07 0.03 0.02 0.02 0.03 0.09 0.10 0.11 0.14 0.07 0.24
0.02 0.00 0.01 0.01 0.02 0.01 0.00 0.01 0.04 0.02 0.01 0.00 0.00 0.00 0.00 0.01 0.00 0.00 0.01 0.01 0.00 0.01 0.06 0.04 0.03 0.04 0.06 0.07 0.13 0.25 0.38 0.49 0.34 0.16 0.06 0.06 0.03 0.04 0.03 0.02 0.09 0.12 0.20 0.29
0.01 0.01 0.03 0.04 0.04 0.01 0.00 0.00 0.03 0.05 0.02 0.00 0.00 0.00 0.00 0.00 0.00 0.00 0.00 0.00 0.02 0.02 0.01 0.00 0.01 0.02 0.03 0.03 0.03 0.13 0.30 0.31 0.37 0.25 0.12 0.16 0.06 0.16 0.22 0.14 0.29 0.40 0.42 0.26
0.01 0.01 0.01 0.01 0.04 0.04 0.00 0.00 0.01 0.01 0.01 0.00 0.00 0.00 0.00 0.00 0.00 0.00 0.00 0.00 0.00 0.00 0.04 0.06 0.03 0.07 0.10 0.05 0.02 0.04 0.10 0.26 0.36 0.36 0.33 0.15 0.11 0.26 0.47 0.39 0.40 0.30 0.22 0.10
0.04 0.01 0.01 0.01 0.04 0.07 0.01 0.00 0.00 0.02 0.05 0.01 0.00 0.00 0.00 0.00 0.00 0.00 0.00 0.00 0.00 0.07 0.27 0.36 0.21 0.11 0.10 0.10 0.11 0.04 0.05 0.14 0.37 0.27 0.50 0.43 0.67 0.25 0.20 0.49 0.41 0.19 0.10 0.04
0.06 0.02 0.03 0.03 0.06 0.08 0.02 0.01 0.00 0.02 0.04 0.00 0.00 0.00 0.00 0.00 0.01 0.01 0.03 0.01 0.01 0.19 0.40 0.62 0.75 0.36 0.09 0.19 0.38 0.15 0.05 0.09 0.14 0.17 0.35 0.50 0.44 0.25 0.30 0.43 0.38 0.08 0.01 0.01
0.05 0.02 0.01 0.01 0.05 0.07 0.03 0.04 0.00 0.01 0.01 0.01 0.00 0.00 0.00 0.00 0.01 0.02 0.03 0.04 0.07 0.07 0.24 0.31 0.46 0.57 0.26 0.52 0.85 0.29 0.31 0.22 0.19 0.31 0.57 0.55 0.08 0.19 0.34 0.38 0.18 0.03 0.01 0.01
0.05 0.04 0.02 0.01 0.02 0.06 0.08 0.08 0.00 0.01 0.01 0.01 0.00 0.00 0.00 0.00 0.00 0.00 0.00 0.02 0.08 0.14 0.23 0.16 0.16 0.25 0.31 0.46 0.61 0.53 0.84 0.77 0.90 0.60 0.57 0.34 0.15 0.17 0.23 0.17 0.09 0.07 0.10 0.17
0.04 0.03 0.01 0.03 0.05 0.06 0.08 0.11 0.02 0.07 0.13 0.03 0.00 0.00 0.00 0.00 0.00 0.00 0.00 0.04 0.06 0.12 0.20 0.29 0.17 0.18 0.16 0.25 0.58 0.47 0.29 0.27 0.57 0.56 0.42 0.17 0.19 0.12 0.09 0.08 0.07 0.06 0.07 0.39
0.04 0.03 0.00 0.01 0.04 0.13 0.17 0.18 0.08 0.05 0.09 0.02 0.01 0.00 0.00 0.00 0.00 0.00 0.00 0.02 0.01 0.03 0.07 0.17 0.18 0.10 0.13 0.12 0.36 0.19 0.10 0.13 0.23 0.44 0.48 0.35 0.20 0.20 0.15 0.15 0.14 0.16 0.19 0.16
0.05 0.03 0.03 0.05 0.07 0.15 0.40 0.59 0.30 0.07 0.09 0.10 0.02 0.00 0.00 0.00 0.00 0.00 0.00 0.00 0.00 0.01 0.04 0.09 0.06 0.05 0.16 0.14 0.36 0.22 0.20 0.16 0.12 0.30 0.28 0.35 0.39 0.32 0.22 0.21 0.26 0.29 0.15 0.11
0.07 0.04 0.04 0.10 0.22 0.60 1.26 1.14 0.61 0.29 0.26 0.37 0.11 0.01 0.00 0.00 0.00 0.00 0.00 0.00 0.01 0.01 0.04 0.05 0.04 0.06 0.14 0.19 0.45 0.26 0.23 0.19 0.20 0.29 0.36 0.31 0.31 0.29 0.22 0.16 0.14 0.16 0.14 0.12
0.11 0.06 0.05 0.07 0.15 0.52 0.91 0.56 0.16 0.17 0.34 0.64 0.26 0.03 0.01 0.00 0.00 0.02 0.05 0.01 0.01 0.01 0.03 0.02 0.02 0.02 0.12 0.26 0.45 0.32 0.26 0.31 0.33 0.35 0.33 0.28 0.24 0.18 0.11 0.03 0.01 0.01 0.01 0.02
0.17 0.23 0.22 0.15 0.30 0.47 0.43 0.18 0.15 0.27 0.58 0.41 0.16 0.03 0.02 0.01 0.05 0.09 0.08 0.03 0.02 0.04 0.04 0.04 0.04 0.04 0.13 0.24 0.31 0.29 0.23 0.32 0.28 0.26 0.17 0.11 0.05 0.02 0.01 0.00 0.00 0.00 0.00 0.00
0.33 0.36 0.30 0.26 0.23 0.17 0.10 0.15 0.18 0.20 0.29 0.17 0.05 0.03 0.13 0.05 0.13 0.19 0.16 0.10 0.06 0.04 0.07 0.03 0.05 0.06 0.08 0.11 0.15 0.17 0.18 0.26 0.28 0.18 0.06 0.01 0.00 0.01 0.00 0.00 0.00 0.00 0.00 0.00
0.45 0.25 0.23 0.25 0.15 0.09 0.08 0.14 0.11 0.13 0.12 0.07 0.04 0.02 0.14 0.08 0.12 0.16 0.17 0.14 0.06 0.09 0.06 0.05 0.08 0.05 0.06 0.03 0.02 0.04 0.05 0.09 0.13 0.13 0.07 0.03 0.02 0.00 0.00 0.00 0.00 0.00 0.00 0.00
0.24 0.24 0.30 0.21 0.13 0.08 0.11 0.08 0.07 0.05 0.06 0.02 0.00 0.01 0.07 0.08 0.15 0.30 0.13 0.16 0.18 0.12 0.13 0.09 0.11 0.08 0.05 0.03 0.01 0.01 0.02 0.07 0.09 0.07 0.06 0.04 0.01 0.00 0.00 0.01 0.01 0.00 0.01 0.01
0.12 0.14 0.29 0.26 0.13 0.11 0.09 0.07 0.04 0.04 0.01 0.01 0.01 0.01 0.03 0.09 0.12 0.44 0.31 0.20 0.23 0.29 0.23 0.11 0.10 0.08 0.05 0.02 0.02 0.00 0.00 0.01 0.02 0.03 0.02 0.01 0.00 0.00 0.00 0.01 0.01 0.02 0.02 0.01
0.22 0.22 0.12 0.14 0.10 0.12 0.04 0.03 0.01 0.01 0.01 0.03 0.07 0.11 0.03 0.09 0.21 0.41 0.32 0.26 0.18 0.23 0.32 0.16 0.06 0.04 0.03 0.01 0.00 0.00 0.00 0.00 0.00 0.01 0.01 0.01 0.01 0.01 0.00 0.01 0.02 0.01 0.01 0.01
0.20 0.13 0.07 0.10 0.06 0.01 0.01 0.03 0.04 0.04 0.05 0.06 0.24 0.09 0.10 0.09 0.11 0.15 0.21 0.22 0.19 0.25 0.17 0.09 0.03 0.02 0.02 0.01 0.00 0.00 0.01 0.01 0.01 0.01 0.01 0.01 0.01 0.01 0.01 0.01 0.01 0.01 0.01 0.00
0.24 0.11 0.06 0.02 0.02 0.01 0.02 0.01 0.00 0.00 0.03 0.12 0.24 0.09 0.11 0.07 0.10 0.09 0.13 0.17 0.28 0.31 0.35 0.04 0.04 0.02 0.01 0.00 0.00 0.01 0.01 0.01 0.01 0.02 0.01 0.01 0.01 0.02 0.02 0.02 0.01 0.00 0.00 0.00
0.19 0.12 0.05 0.03 0.01 0.01 0.02 0.03 0.02 0.03 0.09 0.10 0.11 0.13 0.08 0.09 0.03 0.07 0.07 0.16 0.41 0.08 0.02 0.03 0.02 0.01 0.01 0.00 0.01 0.01 0.02 0.01 0.02 0.01 0.01 0.02 0.02 0.01 0.01 0.00 0.00 0.00 0.00 0.00
0.06 0.02 0.02 0.02 0.02 0.02 0.02 0.03 0.03 0.03 0.09 0.07 0.06 0.13 0.10 0.13 0.02 0.01 0.01 0.01 0.02 0.02 0.03 0.02 0.01 0.01 0.01 0.01 0.01 0.01 0.02 0.02 0.02 0.02 0.02 0.01 0.00 0.00 0.00 0.00 0.00 0.00 0.00 0.00

GFSNW_prec_precacc24_096.txt.gz
Total_Precipitation_Accumulation
0.04 0.01 0.00 0.00 0.00 0.00 0.00 0.00 0.00 0.00 0.00 0.01 0.02 0.01 0.00 0.00 0.01 0.00 0.00 0.01 0.02 0.01 0.01 0.00 0.00 0.00 0.01 0.00 0.02 0.06 0.14 0.11 0.04 0.01 0.00 0.00 0.05 0.11 0.19 0.31 0.25 0.25 0.21 0.30
0.03 0.01 0.00 0.00 0.00 0.00 0.00 0.00 0.00 0.00 0.00 0.00 0.00 0.00 0.00 0.00 0.01 0.01 0.01 0.01 0.01 0.01 0.01 0.01 0.00 0.00 0.00 0.01 0.02 0.08 0.06 0.18 0.16 0.07 0.08 0.06 0.07 0.13 0.22 0.28 0.29 0.27 0.38 0.32
0.02 0.00 0.00 0.00 0.00 0.00 0.00 0.00 0.00 0.00 0.00 0.00 0.00 0.00 0.00 0.00 0.01 0.04 0.04 0.03 0.05 0.05 0.01 0.02 0.01 0.01 0.01 0.03 0.05 0.10 0.12 0.07 0.10 0.10 0.14 0.19 0.14 0.10 0.13 0.39 0.55 0.45 0.30 0.20
0.00 0.00 0.00 0.00 0.00 0.00 0.00 0.00 0.00 0.00 0.00 0.00 0.00 0.00 0.00 0.00 0.01 0.04 0.02 0.17 0.21 0.15 0.08 0.05 0.06 0.06 0.03 0.03 0.07 0.18 0.26 0.12 0.05 0.03 0.02 0.07 0.12 0.10 0.09 0.11 0.14 0.26 0.15 0.20
0.01 0.00 0.00 0.00 0.00 0.00 0.00 0.01 0.00 0.00 0.00 0.00 0.00 0.00 0.00 0.00 0.00 0.00 0.00 0.04 0.03 0.02 0.05 0.06 0.09 0.10 0.10 0.11 0.15 0.29 0.47 0.26 0.12 0.07 0.03 0.02 0.02 0.03 0.09 0.09 0.10 0.11 0.06 0.24
0.01 0.00 0.00 0.00 0.00 0.00 0.00 0.00 0.00 0.00 0.00 0.00 0.00 0.00 0.00 0.00 0.00 0.00 0.00 0.00 0.00 0.01 0.05 0.04 0.02 0.02 0.03 0.04 0.10 0.23 0.37 0.49 0.34 0.16 0.06 0.06 0.03 0.05 0.05 0.04 0.09 0.12 0.20 0.29
0.01 0.01 0.01 0.03 0.02 0.00 0.00 0.00 0.02 0.04 0.01 0.00 0.00 0.00 0.00 0.00 0.00 0.00 0.00 0.00 0.00 0.01 0.01 0.00 0.00 0.00 0.01 0.02 0.01 0.11 0.29 0.31 0.37 0.25 0.12 0.16 0.06 0.16 0.25 0.24 0.35 0.41 0.43 0.26
0.01 0.01 0.01 0.01 0.03 0.01 0.00 0.00 0.00 0.01 0.01 0.00 0.00 0.00 0.00 0.00 0.00 0.00 0.00 0.00 0.00 0.00 0.01 0.03 0.02 0.06 0.09 0.05 0.02 0.04 0.10 0.26 0.36 0.36 0.33 0.15 0.12 0.27 0.52 0.55 0.53 0.37 0.29 0.17
0.03 0.01 0.01 0.00 0.02 0.02 0.00 0.00 0.00 0.01 0.02 0.00 0.00 0.00 0.00 0.00 0.00 0.00 0.00 0.00 0.00 0.01 0.06 0.17 0.18 0.10 0.10 0.10 0.11 0.03 0.05 0.14 0.37 0.29 0.51 0.43 0.67 0.26 0.20 0.55 0.51 0.27 0.25 0.15
0.05 0.01 0.02 0.02 0.04 0.03 0.01 0.01 0.00 0.01 0.02 0.00 0.00 0.00 0.00 0.00 0.01 0.01 0.02 0.00 0.01 0.02 0.20 0.43 0.74 0.35 0.09 0.19 0.38 0.16 0.06 0.10 0.15 0.18 0.36 0.50 0.45 0.25 0.32 0.52 0.47 0.17 0.20 0.15
0.04 0.02 0.01 0.01 0.04 0.04 0.02 0.04 0.00 0.01 0.01 0.00 0.00 0.00 0.00 0.00 0.01 0.02 0.03 0.03 0.06 0.03 0.18 0.31 0.46 0.57 0.26 0.52 0.87 0.31 0.34 0.24 0.23 0.33 0.60 0.56 0.09 0.21 0.42 0.50 0.28 0.13 0.14 0.08
0.05 0.03 0.01 0.00 0.02 0.04 0.04 0.07 0.00 0.01 0.01 0.01 0.00 0.00 0.00 0.00 0.00 0.00 0.00 0.02 0.03 0.07 0.15 0.12 0.15 0.25 0.31 0.46 0.62 0.51 0.85 0.79 0.93 0.64 0.62 0.39 0.18 0.26 0.32 0.28 0.17 0.13 0.07 0.09
0.04 0.03 0.00 0.02 0.03 0.05 0.06 0.08 0.02 0.05 0.10 0.02 0.00 0.00 0.00 0.00 0.00 0.00 0.00 0.04 0.04 0.10 0.16 0.18 0.13 0.17 0.15 0.25 0.57 0.46 0.29 0.20 0.41 0.46 0.41 0.22 0.24 0.17 0.15 0.14 0.11 0.09 0.05 0.03
0.04 0.03 0.00 0.00 0.02 0.09 0.12 0.08 0.06 0.03 0.07 0.01 0.01 0.00 0.00 0.00 0.00 0.00 0.00 0.02 0.01 0.02 0.04 0.10 0.11 0.08 0.12 0.11 0.36 0.17 0.04 0.06 0.21 0.42 0.41 0.32 0.22 0.26 0.19 0.17 0.13 0.16 0.19 0.14
0.05 0.02 0.01 0.01 0.01 0.04 0.16 0.25 0.21 0.03 0.06 0.09 0.02 0.00 0.00 0.00 0.00 0.00 0.00 0.00 0.00 0.01 0.02 0.06 0.05 0.05 0.14 0.12 0.31 0.15 0.08 0.14 0.12 0.27 0.20 0.24 0.31 0.29 0.20 0.16 0.18 0.26 0.14 0.12
0.07 0.03 0.02 0.02 0.06 0.20 0.61 0.57 0.29 0.14 0.16 0.32 0.10 0.01 0.00 0.00 0.00 0.00 0.00 0.00 0.01 0.00 0.02 0.04 0.03 0.06 0.11 0.06 0.25 0.17 0.19 0.17 0.17 0.20 0.23 0.17 0.20 0.19 0.14 0.11 0.09 0.08 0.06 0.06
0.08 0.03 0.02 0.04 0.10 0.40 0.71 0.46 0.13 0.14 0.29 0.63 0.26 0.03 0.01 0.00 0.00 0.02 0.05 0.01 0.01 0.01 0.03 0.02 0.02 0.02 0.08 0.16 0.25 0.18 0.23 0.26 0.25 0.27 0.26 0.23 0.21 0.14 0.09 0.03 0.01 0.00 0.00 0.01
0.10 0.11 0.15 0.13 0.21 0.34 0.36 0.18 0.15 0.26 0.58 0.41 0.16 0.03 0.02 0.01 0.05 0.09 0.08 0.03 0.01 0.04 0.04 0.04 0.04 0.04 0.11 0.20 0.21 0.22 0.21 0.30 0.27 0.27 0.17 0.10 0.06 0.02 0.01 0.00 0.00 0.00 0.00 0.00
0.22 0.24 0.26 0.25 0.22 0.17 0.09 0.14 0.18 0.20 0.29 0.17 0.05 0.03 0.13 0.04 0.11 0.18 0.15 0.10 0.06 0.04 0.06 0.03 0.04 0.05 0.07 0.08 0.14 0.17 0.17 0.26 0.28 0.18 0.06 0.02 0.02 0.01 0.00 0.00 0.00 0.00 0.00 0.00
0.42 0.23 0.23 0.25 0.14 0.07 0.07 0.12 0.11 0.13 0.12 0.07 0.03 0.02 0.14 0.07 0.06 0.12 0.16 0.14 0.06 0.08 0.05 0.03 0.04 0.05 0.05 0.03 0.02 0.04 0.05 0.09 0.13 0.13 0.07 0.03 0.02 0.01 0.00 0.00 0.00 0.00 0.00 0.00
0.24 0.24 0.30 0.20 0.11 0.07 0.11 0.07 0.06 0.04 0.05 0.02 0.00 0.01 0.07 0.07 0.05 0.14 0.07 0.14 0.15 0.12 0.14 0.06 0.09 0.07 0.05 0.04 0.01 0.01 0.02 0.08 0.09 0.07 0.05 0.04 0.01 0.00 0.00 0.00 0.01 0.00 0.00 0.01
0.12 0.14 0.29 0.26 0.13 0.11 0.09 0.06 0.04 0.04 0.01 0.01 0.01 0.01 0.03 0.08 0.08 0.27 0.21 0.18 0.25 0.33 0.24 0.09 0.11 0.07 0.04 0.03 0.02 0.00 0.00 0.02 0.03 0.04 0.03 0.01 0.00 0.00 0.00 0.01 0.01 0.01 0.02 0.01
0.22 0.22 0.12 0.14 0.10 0.11 0.03 0.02 0.01 0.01 0.01 0.03 0.06 0.10 0.03 0.08 0.16 0.34 0.31 0.28 0.25 0.29 0.40 0.16 0.05 0.03 0.03 0.01 0.00 0.00 0.00 0.00 0.00 0.01 0.00 0.00 0.01 0.00 0.00 0.01 0.02 0.01 0.01 0.01
0.20 0.13 0.07 0.09 0.06 0.01 0.01 0.03 0.04 0.04 0.05 0.05 0.22 0.09 0.09 0.08 0.11 0.15 0.21 0.18 0.18 0.25 0.17 0.09 0.03 0.02 0.02 0.01 0.00 0.00 0.01 0.01 0.01 0.01 0.01 0.01 0.01 0.01 0.01 0.01 0.01 0.01 0.01 0.00
0.24 0.12 0.06 0.02 0.02 0.01 0.02 0.01 0.00 0.00 0.03 0.10 0.23 0.09 0.11 0.07 0.10 0.09 0.13 0.17 0.29 0.32 0.36 0.04 0.04 0.02 0.00 0.00 0.00 0.00 0.01 0.01 0.01 0.01 0.01 0.01 0.01 0.01 0.02 0.02 0.01 0.00 0.00 0.00
0.19 0.14 0.07 0.03 0.02 0.01 0.02 0.02 0.02 0.01 0.05 0.09 0.11 0.13 0.08 0.09 0.03 0.07 0.08 0.17 0.41 0.09 0.02 0.03 0.02 0.01 0.01 0.00 0.00 0.00 0.01 0.01 0.01 0.01 0.01 0.01 0.01 0.01 0.01 0.00 0.00 0.00 0.00 0.00
0.06 0.02 0.02 0.03 0.02 0.02 0.01 0.02 0.02 0.02 0.06 0.07 0.06 0.13 0.10 0.14 0.02 0.01 0.01 0.01 0.02 0.02 0.03 0.02 0.01 0.00 0.01 0.00 0.01 0.01 0.01 0.01 0.01 0.01 0.01 0.00 0.00 0.00 0.00 0.00 0.00 0.00 0.00 0.00

GFSNW_prec_precacc24_099.txt.gz
Total_Precipitation_Accumulation
0.06 0.01 0.00 0.00 0.00 0.00 0.00 0.00 0.01 0.00 0.01 0.04 0.05 0.02 0.00 0.00 0.01 0.00 0.00 0.02 0.04 0.02 0.01 0.00 0.01 0.01 0.02 0.01 0.01 0.05 0.13 0.11 0.04 0.01 0.00 0.00 0.04 0.10 0.18 0.27 0.20 0.20 0.20 0.19
0.05 0.01 0.00 0.00 0.00 0.00 0.00 0.00 0.01 0.00 0.00 0.02 0.01 0.00 0.00 0.00 0.01 0.01 0.01 0.02 0.02 0.01 0.01 0.01 0.00 0.00 0.00 0.01 0.03 0.07 0.05 0.12 0.12 0.05 0.06 0.05 0.06 0.10 0.16 0.23 0.25 0.20 0.31 0.30
0.03 0.01 0.00 0.00 0.00 0.00 0.00 0.00 0.01 0.03 0.00 0.01 0.00 0.00 0.00 0.00 0.00 0.02 0.01 0.03 0.04 0.03 0.01 0.02 0.01 0.01 0.00 0.01 0.02 0.09 0.12 0.06 0.07 0.09 0.13 0.19 0.14 0.10 0.11 0.31 0.41 0.30 0.24 0.18
0.00 0.00 0.00 0.00 0.00 0.00 0.00 0.00 0.00 0.00 0.00 0.00 0.00 0.00 0.00 0.00 0.00 0.00 0.00 0.06 0.05 0.04 0.03 0.04 0.05 0.06 0.03 0.00 0.02 0.13 0.23 0.11 0.04 0.03 0.02 0.07 0.12 0.10 0.09 0.11 0.12 0.21 0.11 0.19
0.00 0.00 0.00 0.00 0.00 0.00 0.00 0.00 0.00 0.00 0.00 0.00 0.00 0.00 0.00 0.00 0.00 0.00 0.00 0.00 0.00 0.00 0.02 0.04 0.07 0.09 0.09 0.08 0.10 0.23 0.41 0.25 0.11 0.07 0.03 0.02 0.02 0.03 0.09 0.09 0.10 0.11 0.06 0.24
0.01 0.00 0.00 0.00 0.00 0.00 0.00 0.00 0.00 0.00 0.00 0.00 0.00 0.00 0.00 0.00 0.00 0.00 0.00 0.00 0.00 0.00 0.04 0.03 0.01 0.01 0.02 0.02 0.06 0.14 0.31 0.47 0.34 0.16 0.06 0.06 0.03 0.05 0.05 0.04 0.10 0.13 0.21 0.28
0.01 0.01 0.01 0.01 0.00 0.00 0.01 0.00 0.00 0.00 0.01 0.00 0.00 0.00 0.00 0.00 0.00 0.00 0.00 0.00 0.00 0.00 0.00 0.00 0.00 0.00 0.01 0.01 0.01 0.09 0.26 0.29 0.37 0.25 0.12 0.16 0.06 0.16 0.25 0.24 0.35 0.42 0.44 0.26
0.01 0.01 0.01 0.01 0.01 0.00 0.00 0.00 0.00 0.01 0.01 0.00 0.00 0.00 0.00 0.00 0.00 0.00 0.00 0.00 0.00 0.00 0.00 0.02 0.01 0.05 0.07 0.04 0.02 0.04 0.08 0.25 0.35 0.36 0.33 0.15 0.12 0.27 0.52 0.56 0.54 0.39 0.31 0.20
0.03 0.00 0.01 0.00 0.01 0.00 0.00 0.00 0.00 0.00 0.02 0.00 0.00 0.00 0.00 0.00 0.00 0.00 0.00 0.00 0.00 0.00 0.03 0.06 0.08 0.09 0.09 0.09 0.10 0.03 0.05 0.14 0.37 0.29 0.51 0.43 0.67 0.26 0.20 0.57 0.54 0.29 0.28 0.23
0.04 0.01 0.01 0.00 0.02 0.01 0.01 0.01 0.00 0.01 0.01 0.00 0.00 0.00 0.00 0.00 0.01 0.01 0.02 0.00 0.01 0.02 0.05 0.13 0.45 0.33 0.07 0.18 0.36 0.15 0.06 0.10 0.15 0.18 0.37 0.50 0.45 0.25 0.33 0.55 0.49 0.22 0.32 0.31
0.04 0.02 0.01 0.01 0.03 0.02 0.02 0.04 0.00 0.01 0.01 0.00 0.00 0.00 0.00 0.00 0.01 0.02 0.03 0.03 0.06 0.02 0.09 0.21 0.37 0.56 0.25 0.51 0.87 0.31 0.34 0.25 0.24 0.33 0.60 0.56 0.09 0.22 0.43 0.54 0.34 0.24 0.31 0.27
0.05 0.03 0.01 0.00 0.01 0.02 0.02 0.07 0.00 0.01 0.01 0.01 0.00 0.00 0.00 0.00 0.00 0.00 0.00 0.02 0.03 0.04 0.10 0.08 0.12 0.23 0.30 0.45 0.62 0.51 0.86 0.80 0.94 0.65 0.62 0.40 0.20 0.29 0.36 0.32 0.25 0.25 0.22 0.18
0.04 0.03 0.00 0.01 0.01 0.03 0.03 0.07 0.02 0.03 0.04 0.01 0.00 0.00 0.00 0.00 0.00 0.00 0.00 0.04 0.04 0.07 0.12 0.11 0.08 0.15 0.14 0.25 0.57 0.46 0.29 0.21 0.34 0.27 0.30 0.23 0.28 0.21 0.17 0.18 0.17 0.17 0.12 0.08
0.04 0.03 0.00 0.00 0.02 0.05 0.06 0.06 0.06 0.02 0.04 0.01 0.01 0.00 0.00 0.00 0.00 0.00 0.00 0.02 0.01 0.02 0.03 0.05 0.05 0.07 0.12 0.11 0.36 0.16 0.03 0.03 0.10 0.25 0.31 0.30 0.23 0.27 0.19 0.18 0.14 0.13 0.15 0.12
0.04 0.02 0.00 0.00 0.00 0.03 0.10 0.11 0.09 0.03 0.04 0.08 0.02 0.00 0.00 0.00 0.00 0.00 0.00 0.00 0.00 0.01 0.01 0.03 0.04 0.05 0.13 0.11 0.29 0.12 0.03 0.04 0.07 0.22 0.15 0.20 0.27 0.25 0.16 0.14 0.15 0.17 0.09 0.09
0.07 0.02 0.01 0.01 0.02 0.06 0.17 0.14 0.08 0.03 0.09 0.19 0.06 0.01 0.00 0.00 0.00 0.00 0.00 0.00 0.01 0.00 0.01 0.02 0.03 0.05 0.09 0.05 0.22 0.13 0.04 0.07 0.10 0.13 0.15 0.12 0.15 0.15 0.10 0.07 0.06 0.05 0.03 0.03
0.08 0.02 0.00 0.01 0.05 0.22 0.30 0.16 0.08 0.05 0.15 0.43 0.21 0.03 0.01 0.00 0.00 0.02 0.05 0.01 0.01 0.01 0.03 0.02 0.02 0.02 0.05 0.10 0.18 0.08 0.10 0.14 0.15 0.17 0.16 0.16 0.15 0.11 0.07 0.02 0.01 0.00 0.00 0.01
0.08 0.03 0.02 0.05 0.14 0.22 0.23 0.14 0.13 0.19 0.45 0.37 0.16 0.03 0.02 0.01 0.05 0.09 0.08 0.03 0.01 0.03 0.04 0.04 0.04 0.03 0.09 0.13 0.10 0.08 0.14 0.22 0.21 0.22 0.15 0.09 0.05 0.02 0.01 0.00 0.00 0.00 0.00 0.00
0.09 0.08 0.14 0.18 0.20 0.13 0.06 0.11 0.14 0.18 0.29 0.17 0.05 0.03 0.13 0.04 0.11 0.18 0.14 0.10 0.06 0.04 0.05 0.03 0.03 0.05 0.06 0.06 0.10 0.11 0.15 0.24 0.27 0.18 0.06 0.02 0.01 0.01 0.00 0.00 0.00 0.00 0.00 0.00
0.20 0.15 0.22 0.23 0.12 0.07 0.06 0.09 0.10 0.13 0.12 0.07 0.03 0.02 0.14 0.06 0.04 0.08 0.14 0.12 0.06 0.08 0.05 0.02 0.03 0.04 0.04 0.02 0.01 0.03 0.05 0.09 0.13 0.12 0.07 0.03 0.02 0.00 0.00 0.00 0.00 0.00 0.00 0.00
0.18 0.22 0.28 0.17 0.10 0.07 0.11 0.06 0.06 0.04 0.05 0.02 0.00 0.01 0.07 0.06 0.04 0.09 0.07 0.13 0.15 0.12 0.13 0.05 0.07 0.07 0.05 0.04 0.02 0.02 0.02 0.08 0.09 0.07 0.05 0.03 0.01 0.00 0.00 0.00 0.00 0.00 0.00 0.01
0.12 0.14 0.26 0.23 0.12 0.11 0.09 0.05 0.03 0.03 0.01 0.01 0.01 0.00 0.02 0.08 0.08 0.16 0.14 0.12 0.22 0.31 0.23 0.07 0.12 0.08 0.05 0.03 0.03 0.01 0.01 0.02 0.04 0.04 0.03 0.01 0.00 0.00 0.00 0.00 0.01 0.01 0.01 0.01
0.22 0.22 0.12 0.14 0.10 0.11 0.03 0.02 0.01 0.01 0.01 0.03 0.03 0.03 0.02 0.06 0.08 0.13 0.21 0.25 0.28 0.31 0.44 0.16 0.05 0.03 0.03 0.02 0.01 0.00 0.00 0.00 0.02 0.03 0.01 0.01 0.01 0.00 0.00 0.01 0.01 0.01 0.01 0.01
0.20 0.13 0.07 0.09 0.06 0.01 0.01 0.03 0.04 0.04 0.05 0.04 0.13 0.07 0.06 0.07 0.09 0.13 0.20 0.16 0.16 0.24 0.18 0.09 0.02 0.02 0.02 0.01 0.00 0.00 0.01 0.01 0.01 0.01 0.01 0.01 0.01 0.01 0.01 0.01 0.01 0.00 0.00 0.00
0.24 0.12 0.06 0.02 0.02 0.03 0.03 0.01 0.01 0.00 0.02 0.07 0.16 0.08 0.10 0.07 0.10 0.09 0.13 0.17 0.29 0.33 0.36 0.04 0.03 0.02 0.00 0.00 0.00 0.00 0.01 0.01 0.01 0.01 0.01 0.01 0.01 0.01 0.01 0.01 0.01 0.00 0.00 0.00
0.19 0.14 0.08 0.04 0.02 0.02 0.01 0.02 0.02 0.01 0.03 0.06 0.10 0.13 0.08 0.09 0.03 0.07 0.08 0.17 0.41 0.09 0.02 0.03 0.02 0.01 0.01 0.00 0.00 0.00 0.01 0.01 0.01 0.01 0.01 0.01 0.01 0.01 0.00 0.00 0.00 0.00 0.00 0.00
0.06 0.02 0.03 0.04 0.02 0.02 0.01 0.02 0.02 0.01 0.04 0.07 0.06 0.13 0.10 0.14 0.03 0.01 0.01 0.01 0.02 0.02 0.03 0.02 0.01 0.00 0.01 0.00 0.01 0.01 0.01 0.01 0.01 0.01 0.01 0.00 0.00 0.00 0.00 0.00 0.00 0.00 0.00 0.00

GFSNW_prec_precacc24_102.txt.gz
Total_Precipitation_Accumulation
0.06 0.01 0.00 0.00 0.00 0.00 0.00 0.00 0.01 0.01 0.05 0.11 0.11 0.03 0.00 0.00 0.01 0.00 0.01 0.02 0.04 0.03 0.02 0.00 0.01 0.01 0.02 0.01 0.02 0.05 0.12 0.09 0.04 0.01 0.00 0.00 0.04 0.08 0.16 0.26 0.18 0.16 0.15 0.14
0.06 0.02 0.01 0.00 0.00 0.00 0.00 0.00 0.02 0.03 0.05 0.07 0.02 0.00 0.00 0.00 0.01 0.01 0.01 0.02 0.02 0.01 0.02 0.00 0.00 0.01 0.02 0.01 0.02 0.05 0.04 0.09 0.08 0.03 0.03 0.04 0.04 0.08 0.13 0.19 0.21 0.18 0.24 0.22
0.05 0.02 0.00 0.00 0.01 0.00 0.00 0.00 0.04 0.08 0.05 0.03 0.01 0.00 0.00 0.00 0.00 0.01 0.00 0.02 0.02 0.02 0.01 0.01 0.01 0.01 0.00 0.00 0.00 0.04 0.07 0.05 0.05 0.03 0.10 0.17 0.13 0.09 0.11 0.30 0.39 0.27 0.20 0.13
0.03 0.01 0.00 0.00 0.01 0.00 0.00 0.00 0.00 0.01 0.01 0.00 0.00 0.00 0.00 0.00 0.00 0.00 0.00 0.01 0.01 0.02 0.00 0.01 0.03 0.05 0.02 0.00 0.01 0.02 0.08 0.07 0.03 0.02 0.01 0.06 0.12 0.10 0.09 0.11 0.12 0.21 0.11 0.18
0.02 0.01 0.00 0.00 0.01 0.00 0.00 0.00 0.00 0.00 0.00 0.00 0.00 0.00 0.00 0.00 0.00 0.00 0.00 0.00 0.00 0.00 0.00 0.01 0.02 0.04 0.05 0.06 0.07 0.13 0.17 0.14 0.10 0.06 0.02 0.02 0.02 0.03 0.09 0.09 0.10 0.11 0.06 0.24
0.01 0.00 0.00 0.00 0.00 0.00 0.01 0.00 0.00 0.00 0.00 0.00 0.00 0.00 0.00 0.00 0.00 0.00 0.00 0.00 0.00 0.00 0.00 0.00 0.00 0.00 0.01 0.01 0.03 0.05 0.12 0.24 0.31 0.15 0.06 0.06 0.03 0.05 0.05 0.04 0.10 0.12 0.21 0.28
0.01 0.00 0.00 0.00 0.00 0.00 0.01 0.00 0.00 0.00 0.01 0.00 0.00 0.00 0.00 0.00 0.00 0.00 0.00 0.00 0.00 0.00 0.00 0.00 0.00 0.00 0.01 0.01 0.00 0.03 0.09 0.16 0.34 0.25 0.12 0.16 0.06 0.16 0.25 0.24 0.35 0.43 0.44 0.26
0.01 0.01 0.00 0.00 0.00 0.01 0.02 0.00 0.00 0.00 0.01 0.00 0.00 0.00 0.00 0.00 0.00 0.00 0.00 0.00 0.00 0.00 0.00 0.01 0.00 0.01 0.05 0.04 0.01 0.02 0.05 0.16 0.32 0.36 0.33 0.15 0.12 0.27 0.53 0.57 0.56 0.40 0.32 0.21
0.02 0.00 0.00 0.00 0.00 0.00 0.03 0.00 0.00 0.00 0.02 0.00 0.00 0.00 0.00 0.00 0.00 0.00 0.00 0.00 0.00 0.00 0.02 0.04 0.03 0.05 0.08 0.09 0.09 0.02 0.04 0.11 0.34 0.29 0.51 0.43 0.68 0.26 0.21 0.58 0.58 0.30 0.28 0.24
0.04 0.00 0.00 0.00 0.00 0.00 0.02 0.01 0.00 0.01 0.01 0.00 0.00 0.00 0.00 0.00 0.01 0.01 0.02 0.00 0.01 0.02 0.04 0.07 0.20 0.18 0.05 0.17 0.35 0.13 0.05 0.08 0.14 0.17 0.36 0.51 0.45 0.25 0.33 0.58 0.52 0.23 0.32 0.34
0.04 0.01 0.00 0.00 0.01 0.00 0.01 0.03 0.00 0.01 0.01 0.00 0.00 0.00 0.00 0.00 0.00 0.02 0.03 0.03 0.06 0.02 0.06 0.16 0.15 0.38 0.22 0.47 0.83 0.28 0.31 0.22 0.24 0.33 0.60 0.57 0.09 0.22 0.44 0.55 0.36 0.26 0.35 0.34
0.04 0.03 0.01 0.00 0.01 0.01 0.02 0.06 0.00 0.01 0.01 0.00 0.00 0.00 0.00 0.00 0.00 0.00 0.00 0.02 0.03 0.03 0.06 0.06 0.08 0.17 0.29 0.44 0.57 0.46 0.83 0.78 0.91 0.65 0.63 0.41 0.20 0.29 0.37 0.33 0.28 0.31 0.29 0.28
0.03 0.03 0.00 0.00 0.00 0.01 0.01 0.07 0.01 0.02 0.01 0.00 0.00 0.00 0.00 0.00 0.00 0.00 0.00 0.04 0.04 0.06 0.07 0.07 0.04 0.10 0.13 0.22 0.54 0.42 0.27 0.21 0.34 0.26 0.22 0.19 0.28 0.22 0.19 0.20 0.21 0.22 0.17 0.13
0.04 0.03 0.00 0.00 0.01 0.02 0.01 0.05 0.06 0.02 0.02 0.01 0.01 0.00 0.00 0.00 0.00 0.00 0.00 0.02 0.00 0.00 0.02 0.03 0.03 0.06 0.10 0.10 0.34 0.15 0.03 0.02 0.10 0.13 0.15 0.16 0.19 0.26 0.21 0.20 0.15 0.14 0.15 0.10
0.04 0.02 0.00 0.00 0.00 0.02 0.05 0.06 0.05 0.02 0.03 0.07 0.02 0.00 0.00 0.00 0.00 0.00 0.00 0.00 0.00 0.01 0.01 0.02 0.03 0.04 0.11 0.09 0.26 0.10 0.02 0.03 0.04 0.11 0.08 0.13 0.25 0.25 0.18 0.17 0.17 0.16 0.08 0.07
0.07 0.02 0.00 0.00 0.01 0.03 0.10 0.07 0.03 0.01 0.04 0.07 0.02 0.01 0.00 0.00 0.00 0.00 0.00 0.00 0.01 0.00 0.01 0.01 0.02 0.04 0.08 0.03 0.19 0.11 0.01 0.01 0.03 0.08 0.10 0.10 0.15 0.16 0.10 0.07 0.06 0.05 0.03 0.03
0.08 0.02 0.00 0.00 0.02 0.06 0.07 0.05 0.05 0.02 0.05 0.18 0.09 0.02 0.01 0.00 0.00 0.02 0.05 0.01 0.01 0.01 0.02 0.01 0.01 0.02 0.04 0.08 0.14 0.05 0.01 0.03 0.08 0.10 0.12 0.14 0.14 0.10 0.06 0.01 0.01 0.00 0.00 0.01
0.08 0.02 0.00 0.02 0.06 0.10 0.09 0.04 0.04 0.10 0.22 0.20 0.11 0.03 0.02 0.00 0.04 0.08 0.08 0.03 0.01 0.02 0.03 0.03 0.03 0.03 0.07 0.10 0.03 0.03 0.04 0.09 0.12 0.14 0.11 0.07 0.03 0.01 0.00 0.00 0.00 0.00 0.00 0.00
0.06 0.02 0.05 0.08 0.10 0.07 0.03 0.05 0.07 0.14 0.25 0.16 0.04 0.03 0.13 0.04 0.09 0.16 0.13 0.09 0.05 0.03 0.04 0.03 0.03 0.04 0.05 0.03 0.03 0.03 0.07 0.18 0.21 0.16 0.05 0.01 0.01 0.01 0.00 0.00 0.00 0.00 0.00 0.00
0.05 0.09 0.15 0.15 0.06 0.05 0.04 0.07 0.08 0.12 0.12 0.07 0.03 0.02 0.14 0.05 0.04 0.07 0.12 0.09 0.05 0.07 0.05 0.02 0.02 0.04 0.04 0.01 0.01 0.01 0.03 0.08 0.12 0.12 0.07 0.03 0.02 0.00 0.00 0.00 0.00 0.00 0.00 0.00
0.10 0.16 0.22 0.15 0.09 0.07 0.11 0.06 0.06 0.04 0.05 0.02 0.00 0.01 0.07 0.06 0.04 0.07 0.06 0.12 0.15 0.12 0.13 0.04 0.06 0.06 0.04 0.03 0.02 0.02 0.02 0.08 0.09 0.07 0.04 0.03 0.01 0.00 0.00 0.00 0.00 0.00 0.00 0.01
0.09 0.13 0.21 0.19 0.12 0.11 0.09 0.05 0.03 0.03 0.01 0.01 0.01 0.00 0.02 0.08 0.08 0.15 0.12 0.11 0.20 0.30 0.21 0.07 0.14 0.08 0.05 0.04 0.03 0.02 0.01 0.02 0.04 0.04 0.03 0.01 0.00 0.00 0.00 0.00 0.01 0.01 0.01 0.01
0.20 0.20 0.10 0.13 0.10 0.11 0.03 0.02 0.01 0.01 0.01 0.03 0.02 0.01 0.01 0.06 0.05 0.05 0.11 0.20 0.24 0.31 0.45 0.17 0.07 0.03 0.04 0.03 0.01 0.01 0.00 0.00 0.02 0.03 0.01 0.00 0.00 0.00 0.00 0.01 0.01 0.00 0.01 0.00
0.18 0.13 0.07 0.09 0.06 0.01 0.01 0.03 0.04 0.04 0.04 0.03 0.03 0.03 0.02 0.04 0.02 0.03 0.12 0.12 0.12 0.23 0.18 0.10 0.02 0.02 0.02 0.01 0.00 0.00 0.01 0.01 0.02 0.02 0.01 0.00 0.00 0.00 0.00 0.00 0.00 0.00 0.00 0.00
0.24 0.12 0.06 0.02 0.03 0.04 0.04 0.02 0.01 0.00 0.01 0.04 0.05 0.06 0.05 0.05 0.08 0.08 0.12 0.16 0.28 0.32 0.36 0.03 0.03 0.02 0.00 0.00 0.00 0.00 0.00 0.01 0.01 0.01 0.00 0.01 0.01 0.01 0.01 0.00 0.00 0.00 0.00 0.00
0.19 0.15 0.09 0.05 0.04 0.04 0.03 0.02 0.02 0.01 0.02 0.04 0.06 0.12 0.08 0.08 0.03 0.08 0.08 0.17 0.42 0.09 0.02 0.03 0.02 0.01 0.01 0.00 0.00 0.00 0.01 0.01 0.01 0.00 0.00 0.01 0.01 0.00 0.00 0.00 0.00 0.00 0.00 0.00
0.06 0.03 0.04 0.04 0.02 0.02 0.01 0.02 0.02 0.00 0.03 0.07 0.06 0.13 0.10 0.14 0.03 0.01 0.01 0.01 0.02 0.01 0.03 0.02 0.01 0.00 0.01 0.00 0.01 0.01 0.01 0.01 0.01 0.01 0.01 0.00 0.00 0.00 0.00 0.00 0.00 0.00 0.00 0.00

GFSNW_prec_precacc24_105.txt.gz
Total_Precipitation_Accumulation
0.13 0.02 0.01 0.02 0.01 0.00 0.00 0.00 0.03 0.02 0.08 0.18 0.16 0.04 0.00 0.00 0.01 0.00 0.01 0.02 0.04 0.03 0.02 0.01 0.02 0.01 0.01 0.01 0.01 0.02 0.04 0.04 0.02 0.00 0.00 0.00 0.03 0.06 0.11 0.23 0.15 0.14 0.12 0.11
0.27 0.04 0.01 0.02 0.02 0.00 0.01 0.03 0.04 0.08 0.10 0.12 0.04 0.01 0.00 0.00 0.01 0.01 0.02 0.03 0.02 0.01 0.02 0.00 0.02 0.01 0.02 0.00 0.01 0.03 0.02 0.03 0.03 0.01 0.01 0.02 0.04 0.06 0.10 0.16 0.20 0.16 0.21 0.14
0.38 0.10 0.01 0.00 0.02 0.01 0.02 0.02 0.08 0.19 0.15 0.05 0.02 0.01 0.01 0.01 0.00 0.01 0.01 0.02 0.02 0.02 0.01 0.00 0.00 0.00 0.00 0.00 0.00 0.02 0.02 0.01 0.02 0.02 0.06 0.11 0.08 0.05 0.07 0.27 0.37 0.25 0.18 0.13
0.30 0.10 0.01 0.00 0.02 0.02 0.03 0.03 0.02 0.03 0.04 0.02 0.01 0.01 0.01 0.01 0.01 0.00 0.00 0.02 0.02 0.03 0.01 0.00 0.00 0.01 0.00 0.00 0.00 0.00 0.04 0.01 0.00 0.00 0.00 0.06 0.08 0.06 0.07 0.08 0.12 0.21 0.11 0.18
0.35 0.13 0.01 0.01 0.05 0.04 0.05 0.03 0.01 0.00 0.00 0.00 0.01 0.02 0.01 0.01 0.01 0.00 0.01 0.01 0.01 0.02 0.02 0.00 0.00 0.00 0.01 0.01 0.00 0.05 0.13 0.08 0.05 0.01 0.00 0.00 0.01 0.02 0.09 0.09 0.10 0.11 0.06 0.24
0.26 0.15 0.01 0.00 0.05 0.05 0.04 0.03 0.01 0.00 0.01 0.01 0.02 0.02 0.00 0.01 0.01 0.00 0.00 0.01 0.00 0.00 0.00 0.00 0.00 0.00 0.00 0.00 0.00 0.01 0.07 0.12 0.09 0.04 0.04 0.05 0.02 0.04 0.05 0.04 0.10 0.12 0.20 0.27
0.14 0.06 0.01 0.00 0.01 0.01 0.05 0.04 0.02 0.02 0.03 0.00 0.01 0.00 0.00 0.01 0.01 0.00 0.00 0.00 0.00 0.00 0.00 0.00 0.00 0.00 0.00 0.00 0.00 0.00 0.02 0.03 0.07 0.05 0.10 0.15 0.05 0.16 0.25 0.24 0.34 0.43 0.44 0.25
0.14 0.04 0.01 0.00 0.01 0.01 0.05 0.03 0.03 0.04 0.04 0.00 0.01 0.00 0.00 0.01 0.00 0.00 0.00 0.00 0.00 0.00 0.00 0.01 0.00 0.00 0.01 0.02 0.01 0.01 0.01 0.05 0.13 0.25 0.31 0.14 0.12 0.27 0.53 0.57 0.53 0.39 0.31 0.21
0.08 0.01 0.00 0.00 0.00 0.01 0.05 0.01 0.01 0.01 0.05 0.01 0.00 0.00 0.00 0.00 0.00 0.00 0.00 0.00 0.00 0.00 0.01 0.02 0.01 0.01 0.03 0.07 0.09 0.00 0.02 0.06 0.15 0.19 0.50 0.43 0.64 0.25 0.21 0.59 0.59 0.30 0.28 0.24
0.04 0.00 0.00 0.00 0.00 0.01 0.06 0.03 0.00 0.01 0.03 0.00 0.00 0.01 0.00 0.00 0.00 0.00 0.02 0.00 0.00 0.01 0.02 0.04 0.13 0.05 0.03 0.15 0.34 0.10 0.04 0.07 0.09 0.12 0.36 0.52 0.45 0.25 0.33 0.61 0.54 0.23 0.33 0.34
0.03 0.01 0.00 0.01 0.01 0.01 0.05 0.07 0.00 0.01 0.01 0.00 0.00 0.00 0.00 0.00 0.00 0.01 0.01 0.02 0.04 0.01 0.03 0.12 0.06 0.08 0.14 0.42 0.81 0.25 0.28 0.19 0.21 0.30 0.58 0.58 0.09 0.22 0.45 0.57 0.37 0.27 0.35 0.35
0.03 0.04 0.02 0.01 0.01 0.01 0.04 0.07 0.00 0.00 0.00 0.00 0.00 0.00 0.00 0.00 0.00 0.00 0.00 0.01 0.02 0.02 0.03 0.03 0.03 0.06 0.24 0.38 0.49 0.40 0.78 0.75 0.85 0.59 0.59 0.41 0.20 0.30 0.37 0.34 0.29 0.32 0.31 0.31
0.03 0.04 0.03 0.02 0.01 0.00 0.01 0.05 0.01 0.01 0.00 0.00 0.00 0.00 0.00 0.00 0.00 0.00 0.00 0.03 0.03 0.03 0.03 0.04 0.02 0.05 0.10 0.19 0.46 0.33 0.22 0.20 0.33 0.26 0.22 0.19 0.27 0.22 0.19 0.21 0.22 0.24 0.19 0.16
0.04 0.05 0.02 0.01 0.00 0.00 0.00 0.03 0.04 0.01 0.01 0.00 0.01 0.00 0.00 0.00 0.00 0.00 0.00 0.01 0.00 0.00 0.00 0.02 0.02 0.03 0.08 0.08 0.31 0.14 0.02 0.02 0.09 0.12 0.14 0.13 0.16 0.23 0.20 0.20 0.16 0.15 0.14 0.09
0.06 0.03 0.00 0.00 0.00 0.00 0.01 0.02 0.03 0.02 0.02 0.05 0.01 0.00 0.00 0.00 0.00 0.00 0.00 0.00 0.00 0.00 0.01 0.01 0.01 0.02 0.07 0.06 0.21 0.08 0.01 0.03 0.03 0.08 0.06 0.07 0.16 0.21 0.16 0.17 0.17 0.13 0.06 0.05
0.08 0.01 0.00 0.00 0.00 0.00 0.04 0.02 0.01 0.01 0.03 0.02 0.01 0.00 0.00 0.00 0.00 0.00 0.00 0.00 0.00 0.00 0.00 0.00 0.00 0.02 0.05 0.03 0.11 0.09 0.01 0.01 0.02 0.05 0.06 0.04 0.11 0.13 0.09 0.07 0.06 0.03 0.02 0.02
0.08 0.02 0.00 0.00 0.00 0.01 0.04 0.04 0.04 0.01 0.01 0.02 0.02 0.01 0.00 0.00 0.00 0.01 0.04 0.01 0.00 0.00 0.01 0.00 0.01 0.01 0.03 0.05 0.08 0.02 0.00 0.01 0.02 0.04 0.08 0.11 0.12 0.09 0.05 0.01 0.01 0.00 0.00 0.00
0.08 0.02 0.00 0.00 0.01 0.02 0.03 0.02 0.01 0.00 0.04 0.06 0.03 0.02 0.02 0.00 0.01 0.05 0.07 0.02 0.00 0.01 0.00 0.01 0.02 0.02 0.04 0.07 0.02 0.00 0.01 0.03 0.06 0.09 0.08 0.05 0.03 0.01 0.00 0.00 0.00 0.00 0.00 0.00
0.05 0.00 0.01 0.03 0.03 0.02 0.01 0.02 0.01 0.03 0.13 0.10 0.03 0.02 0.10 0.03 0.05 0.11 0.10 0.06 0.03 0.02 0.02 0.02 0.02 0.04 0.04 0.02 0.01 0.00 0.01 0.09 0.12 0.12 0.04 0.01 0.01 0.01 0.00 0.00 0.00 0.00 0.00 0.00
0.02 0.01 0.04 0.03 0.01 0.02 0.01 0.02 0.03 0.06 0.08 0.05 0.02 0.01 0.12 0.04 0.02 0.06 0.10 0.06 0.03 0.05 0.04 0.01 0.02 0.04 0.03 0.01 0.00 0.00 0.02 0.05 0.08 0.11 0.07 0.03 0.02 0.00 0.00 0.00 0.00 0.00 0.00 0.00
0.02 0.05 0.15 0.11 0.06 0.04 0.08 0.05 0.04 0.03 0.04 0.01 0.00 0.01 0.06 0.05 0.02 0.04 0.04 0.09 0.13 0.12 0.13 0.04 0.06 0.05 0.04 0.03 0.02 0.02 0.02 0.08 0.09 0.07 0.04 0.03 0.01 0.00 0.00 0.00 0.00 0.00 0.00 0.00
0.02 0.11 0.18 0.15 0.09 0.10 0.08 0.05 0.02 0.03 0.01 0.01 0.01 0.01 0.02 0.06 0.05 0.10 0.08 0.09 0.19 0.32 0.20 0.06 0.14 0.09 0.05 0.04 0.03 0.02 0.01 0.02 0.04 0.04 0.03 0.01 0.00 0.00 0.00 0.00 0.00 0.00 0.01 0.00
0.14 0.17 0.07 0.12 0.09 0.10 0.02 0.01 0.01 0.01 0.01 0.02 0.01 0.01 0.01 0.05 0.05 0.04 0.08 0.19 0.22 0.31 0.44 0.19 0.10 0.04 0.04 0.03 0.02 0.01 0.00 0.00 0.03 0.03 0.01 0.00 0.00 0.00 0.00 0.00 0.01 0.00 0.00 0.00
0.15 0.11 0.06 0.09 0.06 0.01 0.01 0.03 0.03 0.04 0.04 0.03 0.02 0.01 0.01 0.03 0.02 0.00 0.02 0.06 0.09 0.21 0.19 0.15 0.03 0.02 0.02 0.01 0.00 0.00 0.01 0.02 0.03 0.03 0.01 0.00 0.00 0.00 0.00 0.00 0.00 0.00 0.00 0.00
0.23 0.12 0.06 0.03 0.04 0.05 0.05 0.03 0.02 0.00 0.01 0.03 0.02 0.03 0.03 0.02 0.02 0.02 0.05 0.11 0.22 0.31 0.38 0.04 0.02 0.01 0.00 0.00 0.00 0.01 0.01 0.02 0.02 0.02 0.01 0.01 0.01 0.00 0.01 0.00 0.00 0.00 0.00 0.00
0.20 0.16 0.11 0.06 0.06 0.06 0.05 0.04 0.03 0.01 0.02 0.02 0.02 0.05 0.04 0.05 0.02 0.07 0.08 0.18 0.43 0.10 0.02 0.02 0.01 0.01 0.01 0.00 0.01 0.01 0.01 0.01 0.02 0.01 0.00 0.00 0.00 0.00 0.00 0.00 0.00 0.00 0.00 0.00
0.07 0.04 0.05 0.06 0.03 0.04 0.02 0.03 0.02 0.01 0.04 0.04 0.04 0.12 0.09 0.13 0.03 0.01 0.01 0.02 0.03 0.01 0.02 0.02 0.00 0.01 0.01 0.00 0.01 0.00 0.01 0.01 0.01 0.00 0.00 0.00 0.00 0.00 0.00 0.00 0.00 0.00 0.00 0.00

GFSNW_prec_precacc24_108.txt.gz
Total_Precipitation_Accumulation
0.18 0.17 0.13 0.09 0.01 0.00 0.03 0.08 0.15 0.03 0.14 0.34 0.26 0.05 0.01 0.01 0.01 0.00 0.01 0.02 0.04 0.04 0.02 0.01 0.02 0.03 0.03 0.01 0.01 0.01 0.01 0.01 0.01 0.00 0.00 0.00 0.03 0.06 0.15 0.32 0.28 0.16 0.12 0.19
0.32 0.23 0.25 0.18 0.04 0.00 0.04 0.13 0.11 0.13 0.20 0.21 0.05 0.01 0.01 0.00 0.01 0.01 0.02 0.03 0.02 0.01 0.02 0.01 0.03 0.03 0.03 0.00 0.01 0.01 0.01 0.00 0.02 0.01 0.00 0.02 0.03 0.06 0.09 0.13 0.16 0.15 0.17 0.16
0.44 0.31 0.26 0.23 0.08 0.02 0.11 0.20 0.14 0.31 0.30 0.08 0.03 0.02 0.01 0.01 0.00 0.01 0.01 0.03 0.02 0.02 0.01 0.01 0.02 0.01 0.00 0.00 0.00 0.00 0.01 0.01 0.02 0.02 0.02 0.04 0.02 0.02 0.06 0.23 0.33 0.23 0.16 0.12
0.35 0.33 0.27 0.21 0.10 0.05 0.10 0.18 0.10 0.05 0.08 0.03 0.02 0.03 0.02 0.01 0.01 0.00 0.00 0.03 0.03 0.04 0.02 0.01 0.01 0.02 0.00 0.00 0.00 0.00 0.01 0.00 0.00 0.00 0.00 0.02 0.03 0.01 0.04 0.04 0.08 0.19 0.10 0.18
0.36 0.24 0.22 0.26 0.15 0.14 0.16 0.09 0.09 0.02 0.01 0.00 0.02 0.04 0.03 0.02 0.01 0.00 0.01 0.02 0.02 0.03 0.04 0.01 0.01 0.01 0.00 0.00 0.00 0.00 0.01 0.02 0.04 0.01 0.00 0.00 0.00 0.00 0.02 0.01 0.03 0.09 0.06 0.21
0.30 0.35 0.17 0.17 0.14 0.09 0.11 0.05 0.03 0.04 0.03 0.03 0.03 0.03 0.01 0.02 0.03 0.01 0.00 0.02 0.02 0.02 0.02 0.00 0.00 0.00 0.00 0.00 0.00 0.00 0.00 0.02 0.06 0.04 0.01 0.02 0.01 0.04 0.04 0.03 0.08 0.12 0.17 0.23
0.17 0.29 0.20 0.12 0.09 0.04 0.07 0.10 0.08 0.07 0.06 0.02 0.02 0.01 0.01 0.02 0.03 0.01 0.00 0.00 0.01 0.01 0.00 0.00 0.00 0.00 0.00 0.00 0.00 0.00 0.00 0.00 0.03 0.02 0.02 0.02 0.04 0.16 0.25 0.24 0.32 0.39 0.43 0.25
0.16 0.16 0.19 0.08 0.03 0.02 0.10 0.10 0.13 0.12 0.11 0.01 0.02 0.02 0.02 0.04 0.05 0.01 0.00 0.00 0.00 0.00 0.00 0.00 0.00 0.00 0.00 0.00 0.00 0.00 0.01 0.01 0.05 0.06 0.05 0.04 0.11 0.27 0.53 0.56 0.42 0.39 0.31 0.21
0.13 0.11 0.10 0.03 0.01 0.04 0.11 0.08 0.06 0.08 0.15 0.03 0.01 0.02 0.03 0.05 0.04 0.01 0.00 0.00 0.00 0.00 0.00 0.01 0.00 0.00 0.00 0.01 0.04 0.00 0.02 0.02 0.08 0.12 0.17 0.23 0.54 0.24 0.21 0.59 0.54 0.29 0.28 0.24
0.08 0.08 0.04 0.00 0.00 0.04 0.12 0.07 0.03 0.05 0.18 0.04 0.02 0.04 0.04 0.02 0.02 0.01 0.00 0.00 0.00 0.00 0.00 0.02 0.09 0.02 0.00 0.08 0.30 0.10 0.03 0.05 0.06 0.04 0.14 0.28 0.34 0.24 0.33 0.60 0.53 0.23 0.33 0.34
0.06 0.05 0.02 0.01 0.01 0.03 0.09 0.08 0.01 0.06 0.18 0.01 0.02 0.02 0.02 0.01 0.01 0.01 0.00 0.00 0.00 0.00 0.01 0.05 0.03 0.02 0.01 0.32 0.76 0.22 0.24 0.15 0.18 0.26 0.50 0.52 0.09 0.21 0.45 0.57 0.36 0.27 0.36 0.36
0.03 0.03 0.02 0.02 0.01 0.03 0.06 0.12 0.01 0.01 0.07 0.01 0.00 0.00 0.00 0.00 0.00 0.00 0.00 0.00 0.01 0.00 0.00 0.01 0.01 0.01 0.12 0.23 0.33 0.32 0.71 0.70 0.63 0.50 0.48 0.39 0.20 0.29 0.37 0.34 0.29 0.32 0.31 0.31
0.02 0.04 0.03 0.02 0.03 0.04 0.03 0.13 0.01 0.01 0.01 0.01 0.00 0.00 0.00 0.00 0.00 0.00 0.00 0.00 0.01 0.00 0.00 0.02 0.02 0.03 0.05 0.13 0.33 0.19 0.16 0.19 0.27 0.22 0.21 0.19 0.27 0.22 0.19 0.21 0.22 0.24 0.19 0.16
0.03 0.05 0.03 0.02 0.03 0.03 0.02 0.05 0.02 0.03 0.02 0.02 0.00 0.00 0.00 0.00 0.00 0.00 0.00 0.00 0.00 0.00 0.00 0.01 0.03 0.03 0.05 0.08 0.28 0.11 0.01 0.02 0.09 0.11 0.14 0.13 0.15 0.21 0.18 0.20 0.16 0.15 0.14 0.09
0.06 0.05 0.02 0.01 0.02 0.01 0.02 0.03 0.01 0.02 0.04 0.02 0.00 0.00 0.00 0.00 0.00 0.00 0.00 0.00 0.00 0.00 0.00 0.00 0.02 0.01 0.02 0.04 0.15 0.04 0.01 0.03 0.03 0.06 0.05 0.06 0.15 0.18 0.15 0.15 0.16 0.11 0.05 0.04
0.10 0.03 0.02 0.01 0.00 0.00 0.06 0.04 0.01 0.00 0.01 0.01 0.00 0.00 0.00 0.00 0.00 0.00 0.00 0.00 0.00 0.00 0.00 0.00 0.00 0.00 0.02 0.03 0.04 0.04 0.01 0.01 0.01 0.04 0.04 0.03 0.07 0.09 0.06 0.05 0.04 0.02 0.01 0.02
0.08 0.03 0.01 0.00 0.00 0.02 0.03 0.02 0.02 0.00 0.00 0.00 0.00 0.00 0.00 0.00 0.00 0.00 0.01 0.01 0.00 0.00 0.00 0.00 0.00 0.00 0.02 0.05 0.05 0.01 0.00 0.00 0.01 0.02 0.03 0.06 0.07 0.06 0.03 0.01 0.00 0.00 0.00 0.00
0.07 0.02 0.00 0.00 0.00 0.01 0.01 0.01 0.00 0.00 0.01 0.01 0.00 0.00 0.00 0.00 0.00 0.01 0.03 0.01 0.00 0.00 0.00 0.00 0.00 0.00 0.02 0.04 0.02 0.00 0.00 0.01 0.02 0.04 0.03 0.02 0.01 0.01 0.00 0.00 0.00 0.00 0.00 0.00
0.05 0.00 0.00 0.01 0.02 0.01 0.01 0.01 0.00 0.00 0.01 0.02 0.01 0.00 0.03 0.01 0.01 0.02 0.05 0.03 0.01 0.00 0.01 0.00 0.01 0.02 0.03 0.02 0.01 0.00 0.01 0.04 0.06 0.06 0.02 0.01 0.01 0.01 0.00 0.00 0.00 0.00 0.00 0.00
0.01 0.00 0.01 0.02 0.00 0.01 0.00 0.01 0.01 0.01 0.02 0.02 0.02 0.00 0.04 0.03 0.01 0.03 0.05 0.03 0.01 0.02 0.03 0.01 0.01 0.04 0.03 0.01 0.00 0.00 0.02 0.03 0.05 0.07 0.05 0.02 0.02 0.00 0.00 0.00 0.00 0.00 0.00 0.00
0.00 0.00 0.04 0.06 0.04 0.01 0.02 0.02 0.01 0.01 0.01 0.00 0.00 0.00 0.02 0.03 0.01 0.02 0.02 0.05 0.10 0.11 0.13 0.04 0.05 0.05 0.04 0.03 0.02 0.02 0.02 0.08 0.09 0.07 0.04 0.03 0.01 0.00 0.00 0.00 0.00 0.00 0.00 0.00
0.00 0.04 0.13 0.11 0.06 0.05 0.05 0.04 0.01 0.01 0.00 0.00 0.01 0.00 0.01 0.02 0.02 0.03 0.04 0.08 0.17 0.33 0.18 0.06 0.13 0.09 0.05 0.04 0.03 0.02 0.01 0.02 0.04 0.04 0.02 0.01 0.00 0.00 0.00 0.00 0.00 0.00 0.00 0.00
0.02 0.10 0.03 0.07 0.06 0.08 0.02 0.01 0.00 0.00 0.00 0.01 0.01 0.01 0.01 0.02 0.03 0.01 0.05 0.18 0.22 0.28 0.41 0.18 0.12 0.04 0.04 0.03 0.02 0.01 0.00 0.00 0.03 0.03 0.01 0.00 0.00 0.00 0.00 0.00 0.00 0.00 0.00 0.00
0.07 0.06 0.03 0.07 0.05 0.01 0.01 0.02 0.01 0.02 0.03 0.02 0.02 0.01 0.01 0.02 0.01 0.00 0.01 0.02 0.04 0.16 0.18 0.19 0.03 0.02 0.02 0.02 0.01 0.00 0.01 0.02 0.04 0.03 0.01 0.00 0.00 0.00 0.00 0.00 0.00 0.00 0.00 0.00
0.15 0.10 0.05 0.02 0.03 0.05 0.05 0.03 0.02 0.00 0.02 0.02 0.01 0.01 0.02 0.01 0.01 0.00 0.01 0.05 0.16 0.28 0.40 0.06 0.02 0.01 0.01 0.02 0.01 0.01 0.02 0.02 0.02 0.02 0.01 0.01 0.01 0.00 0.00 0.00 0.00 0.00 0.00 0.00
0.18 0.16 0.12 0.07 0.07 0.08 0.06 0.04 0.02 0.01 0.02 0.03 0.01 0.02 0.01 0.01 0.01 0.03 0.04 0.15 0.43 0.12 0.02 0.01 0.01 0.01 0.01 0.01 0.02 0.02 0.02 0.02 0.02 0.01 0.01 0.01 0.00 0.00 0.00 0.00 0.00 0.00 0.00 0.00
0.07 0.05 0.06 0.10 0.04 0.06 0.04 0.04 0.03 0.02 0.05 0.03 0.02 0.06 0.04 0.09 0.02 0.01 0.02 0.04 0.04 0.01 0.02 0.01 0.00 0.01 0.01 0.04 0.04 0.03 0.03 0.02 0.01 0.01 0.00 0.00 0.00 0.00 0.00 0.00 0.00 0.00 0.00 0.00

GFSNW_prec_precacc24_111.txt.gz
Total_Precipitation_Accumulation
0.19 0.17 0.14 0.13 0.09 0.10 0.08 0.15 0.26 0.04 0.17 0.53 0.47 0.13 0.03 0.02 0.03 0.02 0.03 0.03 0.04 0.04 0.02 0.01 0.03 0.03 0.06 0.02 0.03 0.04 0.02 0.02 0.01 0.00 0.00 0.00 0.01 0.03 0.15 0.35 0.37 0.35 0.21 0.25
0.32 0.24 0.25 0.22 0.18 0.14 0.10 0.18 0.23 0.16 0.29 0.34 0.12 0.02 0.01 0.03 0.01 0.03 0.03 0.03 0.02 0.01 0.02 0.01 0.03 0.03 0.03 0.00 0.01 0.03 0.02 0.05 0.02 0.02 0.00 0.00 0.00 0.00 0.06 0.10 0.10 0.09 0.14 0.15
0.45 0.32 0.26 0.26 0.29 0.31 0.29 0.32 0.25 0.39 0.50 0.16 0.04 0.02 0.02 0.06 0.02 0.01 0.01 0.03 0.02 0.02 0.01 0.01 0.02 0.02 0.00 0.00 0.00 0.00 0.00 0.00 0.01 0.02 0.01 0.00 0.00 0.00 0.02 0.12 0.19 0.12 0.13 0.12
0.35 0.34 0.29 0.23 0.28 0.32 0.40 0.32 0.18 0.07 0.13 0.06 0.03 0.05 0.03 0.02 0.02 0.00 0.00 0.03 0.03 0.04 0.02 0.01 0.01 0.03 0.00 0.00 0.00 0.00 0.00 0.00 0.00 0.00 0.00 0.00 0.00 0.00 0.00 0.01 0.03 0.13 0.08 0.17
0.37 0.25 0.23 0.30 0.28 0.43 0.46 0.21 0.15 0.14 0.01 0.00 0.02 0.07 0.08 0.03 0.01 0.01 0.01 0.02 0.02 0.03 0.05 0.01 0.01 0.02 0.01 0.00 0.00 0.00 0.00 0.00 0.00 0.00 0.00 0.00 0.00 0.00 0.00 0.00 0.01 0.02 0.01 0.12
0.31 0.36 0.18 0.19 0.34 0.50 0.36 0.10 0.05 0.27 0.32 0.09 0.05 0.04 0.02 0.05 0.07 0.03 0.01 0.02 0.03 0.04 0.04 0.00 0.00 0.00 0.00 0.00 0.00 0.00 0.00 0.00 0.00 0.00 0.00 0.01 0.01 0.04 0.04 0.02 0.04 0.04 0.04 0.06
0.18 0.31 0.23 0.16 0.23 0.32 0.13 0.12 0.11 0.12 0.14 0.20 0.06 0.01 0.01 0.03 0.06 0.05 0.03 0.01 0.02 0.01 0.00 0.00 0.00 0.00 0.00 0.00 0.00 0.00 0.00 0.00 0.00 0.00 0.00 0.01 0.04 0.16 0.24 0.18 0.24 0.27 0.27 0.20
0.18 0.18 0.22 0.12 0.14 0.15 0.16 0.14 0.17 0.19 0.14 0.03 0.06 0.04 0.03 0.05 0.08 0.07 0.05 0.02 0.01 0.00 0.00 0.00 0.00 0.00 0.00 0.00 0.00 0.00 0.00 0.00 0.03 0.01 0.02 0.02 0.06 0.20 0.47 0.53 0.40 0.38 0.31 0.21
0.16 0.14 0.14 0.12 0.06 0.13 0.16 0.10 0.11 0.16 0.17 0.05 0.03 0.06 0.06 0.10 0.12 0.15 0.10 0.00 0.00 0.00 0.00 0.00 0.00 0.00 0.00 0.00 0.01 0.00 0.01 0.01 0.06 0.08 0.11 0.04 0.07 0.04 0.16 0.56 0.51 0.28 0.28 0.24
0.10 0.10 0.08 0.12 0.06 0.09 0.17 0.14 0.05 0.12 0.25 0.18 0.06 0.08 0.12 0.07 0.08 0.11 0.02 0.00 0.00 0.00 0.00 0.02 0.03 0.01 0.00 0.03 0.17 0.09 0.02 0.05 0.06 0.03 0.07 0.07 0.10 0.15 0.33 0.58 0.46 0.22 0.33 0.34
0.06 0.07 0.08 0.10 0.07 0.07 0.12 0.12 0.04 0.11 0.41 0.29 0.09 0.04 0.12 0.08 0.06 0.05 0.00 0.00 0.00 0.00 0.00 0.01 0.02 0.04 0.01 0.12 0.42 0.20 0.23 0.14 0.15 0.18 0.26 0.21 0.07 0.21 0.43 0.52 0.35 0.27 0.36 0.36
0.04 0.06 0.08 0.07 0.04 0.04 0.08 0.14 0.03 0.09 0.29 0.09 0.04 0.02 0.06 0.04 0.02 0.01 0.00 0.00 0.00 0.00 0.00 0.00 0.01 0.02 0.02 0.06 0.21 0.22 0.40 0.49 0.37 0.29 0.28 0.29 0.19 0.28 0.36 0.33 0.29 0.32 0.31 0.31
0.04 0.07 0.08 0.04 0.03 0.04 0.04 0.14 0.06 0.09 0.05 0.03 0.01 0.01 0.00 0.00 0.00 0.00 0.00 0.00 0.00 0.00 0.00 0.02 0.02 0.03 0.02 0.06 0.20 0.06 0.07 0.17 0.20 0.15 0.17 0.17 0.26 0.21 0.18 0.20 0.22 0.24 0.19 0.16
0.05 0.06 0.04 0.02 0.03 0.04 0.05 0.09 0.04 0.09 0.06 0.05 0.00 0.00 0.00 0.00 0.00 0.00 0.00 0.00 0.00 0.00 0.00 0.01 0.05 0.05 0.04 0.06 0.21 0.05 0.01 0.02 0.07 0.08 0.10 0.10 0.14 0.19 0.16 0.18 0.15 0.14 0.13 0.08
0.05 0.04 0.02 0.02 0.04 0.03 0.07 0.05 0.07 0.07 0.06 0.01 0.00 0.00 0.00 0.00 0.00 0.00 0.00 0.00 0.00 0.00 0.00 0.00 0.03 0.02 0.00 0.02 0.08 0.02 0.01 0.02 0.03 0.03 0.03 0.04 0.12 0.16 0.14 0.14 0.14 0.09 0.04 0.03
0.09 0.02 0.02 0.02 0.03 0.06 0.16 0.14 0.04 0.01 0.01 0.01 0.00 0.00 0.00 0.00 0.00 0.00 0.00 0.00 0.00 0.00 0.00 0.00 0.00 0.00 0.00 0.02 0.02 0.01 0.00 0.01 0.01 0.02 0.03 0.01 0.05 0.07 0.06 0.04 0.04 0.02 0.01 0.01
0.06 0.01 0.01 0.01 0.01 0.06 0.03 0.03 0.02 0.00 0.01 0.01 0.00 0.00 0.00 0.00 0.00 0.00 0.00 0.00 0.00 0.00 0.00 0.00 0.00 0.00 0.00 0.04 0.03 0.00 0.00 0.00 0.01 0.01 0.01 0.04 0.05 0.05 0.02 0.01 0.00 0.00 0.00 0.00
0.05 0.01 0.00 0.00 0.01 0.04 0.00 0.00 0.00 0.01 0.03 0.01 0.00 0.00 0.00 0.00 0.00 0.00 0.00 0.00 0.00 0.00 0.00 0.00 0.00 0.00 0.00 0.03 0.01 0.00 0.00 0.00 0.01 0.02 0.01 0.01 0.01 0.01 0.00 0.00 0.00 0.00 0.00 0.00
0.04 0.00 0.00 0.02 0.04 0.01 0.00 0.00 0.00 0.00 0.01 0.01 0.00 0.00 0.01 0.00 0.00 0.00 0.01 0.00 0.00 0.00 0.00 0.00 0.00 0.01 0.02 0.01 0.01 0.00 0.01 0.02 0.03 0.03 0.00 0.01 0.01 0.01 0.00 0.00 0.00 0.00 0.00 0.00
0.01 0.01 0.03 0.05 0.01 0.00 0.00 0.01 0.01 0.01 0.00 0.00 0.01 0.00 0.01 0.00 0.01 0.01 0.01 0.01 0.01 0.01 0.02 0.00 0.00 0.04 0.03 0.01 0.00 0.00 0.02 0.02 0.04 0.04 0.04 0.02 0.02 0.00 0.00 0.00 0.00 0.00 0.00 0.00
0.01 0.02 0.02 0.03 0.02 0.00 0.01 0.01 0.01 0.00 0.00 0.00 0.01 0.00 0.00 0.00 0.01 0.01 0.01 0.03 0.08 0.09 0.10 0.03 0.05 0.04 0.03 0.03 0.02 0.02 0.02 0.08 0.09 0.07 0.04 0.03 0.01 0.00 0.00 0.00 0.00 0.00 0.00 0.00
0.00 0.01 0.07 0.05 0.03 0.01 0.02 0.01 0.00 0.00 0.00 0.00 0.01 0.00 0.00 0.00 0.01 0.01 0.01 0.06 0.16 0.33 0.16 0.05 0.13 0.08 0.05 0.04 0.03 0.02 0.01 0.02 0.04 0.04 0.02 0.01 0.00 0.00 0.00 0.00 0.00 0.00 0.00 0.00
0.01 0.03 0.02 0.02 0.03 0.03 0.01 0.01 0.00 0.01 0.00 0.01 0.01 0.01 0.01 0.01 0.02 0.01 0.03 0.17 0.22 0.25 0.38 0.15 0.11 0.04 0.04 0.03 0.02 0.01 0.00 0.00 0.03 0.03 0.01 0.00 0.00 0.00 0.00 0.00 0.00 0.00 0.00 0.00
0.01 0.02 0.01 0.03 0.02 0.01 0.01 0.01 0.01 0.01 0.01 0.02 0.01 0.01 0.01 0.02 0.01 0.00 0.01 0.01 0.02 0.09 0.16 0.19 0.02 0.02 0.02 0.02 0.01 0.00 0.02 0.03 0.04 0.03 0.01 0.00 0.00 0.00 0.00 0.00 0.00 0.00 0.00 0.00
0.02 0.04 0.03 0.02 0.03 0.05 0.05 0.03 0.02 0.00 0.02 0.01 0.01 0.01 0.01 0.00 0.00 0.00 0.01 0.03 0.12 0.23 0.34 0.08 0.01 0.01 0.02 0.03 0.02 0.02 0.02 0.03 0.03 0.02 0.01 0.01 0.01 0.00 0.00 0.00 0.00 0.00 0.00 0.00
0.07 0.13 0.12 0.07 0.07 0.09 0.06 0.05 0.02 0.01 0.03 0.03 0.01 0.01 0.01 0.00 0.00 0.01 0.03 0.13 0.32 0.11 0.01 0.01 0.01 0.01 0.02 0.02 0.02 0.02 0.02 0.02 0.02 0.02 0.01 0.01 0.00 0.00 0.00 0.00 0.00 0.00 0.00 0.00
0.06 0.05 0.09 0.12 0.05 0.07 0.04 0.04 0.02 0.03 0.07 0.03 0.01 0.02 0.01 0.06 0.01 0.02 0.02 0.04 0.04 0.01 0.01 0.01 0.00 0.01 0.02 0.05 0.05 0.04 0.04 0.02 0.02 0.02 0.01 0.01 0.00 0.00 0.00 0.00 0.00 0.00 0.00 0.00

GFSNW_prec_precacc24_114.txt.gz
Total_Precipitation_Accumulation
0.21 0.20 0.15 0.14 0.12 0.16 0.15 0.20 0.31 0.04 0.18 0.70 0.70 0.21 0.04 0.02 0.03 0.03 0.04 0.04 0.05 0.04 0.02 0.02 0.03 0.03 0.06 0.02 0.03 0.05 0.04 0.05 0.02 0.00 0.00 0.00 0.00 0.01 0.09 0.28 0.34 0.37 0.30 0.39
0.33 0.25 0.28 0.24 0.22 0.21 0.14 0.33 0.29 0.20 0.32 0.46 0.21 0.06 0.02 0.04 0.03 0.04 0.06 0.05 0.02 0.01 0.02 0.01 0.03 0.03 0.03 0.00 0.02 0.07 0.11 0.19 0.12 0.06 0.02 0.00 0.00 0.00 0.02 0.06 0.08 0.07 0.11 0.16
0.45 0.33 0.28 0.27 0.30 0.36 0.36 0.51 0.40 0.47 0.61 0.21 0.07 0.03 0.04 0.09 0.03 0.02 0.04 0.04 0.03 0.02 0.01 0.01 0.02 0.02 0.00 0.00 0.00 0.02 0.04 0.09 0.07 0.06 0.02 0.00 0.00 0.00 0.00 0.01 0.03 0.02 0.02 0.03
0.36 0.34 0.30 0.26 0.31 0.36 0.56 0.64 0.40 0.09 0.15 0.08 0.03 0.06 0.04 0.02 0.04 0.05 0.04 0.07 0.03 0.04 0.02 0.01 0.01 0.03 0.00 0.00 0.00 0.00 0.01 0.01 0.01 0.01 0.00 0.00 0.00 0.00 0.00 0.00 0.00 0.02 0.00 0.02
0.37 0.25 0.24 0.32 0.32 0.51 0.56 0.44 0.31 0.17 0.01 0.00 0.02 0.09 0.15 0.04 0.02 0.05 0.04 0.11 0.06 0.03 0.05 0.01 0.01 0.03 0.01 0.00 0.00 0.00 0.00 0.03 0.02 0.01 0.00 0.00 0.00 0.00 0.00 0.00 0.00 0.00 0.00 0.01
0.31 0.36 0.18 0.20 0.37 0.60 0.55 0.19 0.11 0.31 0.36 0.11 0.06 0.04 0.03 0.07 0.13 0.07 0.02 0.03 0.04 0.05 0.04 0.01 0.00 0.00 0.00 0.00 0.00 0.00 0.00 0.02 0.03 0.03 0.01 0.02 0.01 0.03 0.04 0.02 0.01 0.02 0.02 0.01
0.18 0.31 0.23 0.17 0.26 0.36 0.16 0.16 0.17 0.19 0.21 0.37 0.18 0.02 0.01 0.03 0.10 0.12 0.08 0.06 0.03 0.02 0.02 0.01 0.00 0.00 0.00 0.00 0.00 0.00 0.00 0.00 0.01 0.01 0.01 0.06 0.03 0.10 0.20 0.14 0.09 0.11 0.08 0.10
0.19 0.19 0.23 0.14 0.17 0.19 0.19 0.22 0.20 0.23 0.18 0.06 0.19 0.17 0.06 0.06 0.11 0.13 0.12 0.08 0.03 0.01 0.01 0.02 0.04 0.02 0.01 0.00 0.00 0.00 0.00 0.00 0.02 0.01 0.00 0.01 0.03 0.13 0.25 0.30 0.26 0.24 0.23 0.20
0.17 0.15 0.16 0.15 0.11 0.19 0.24 0.23 0.16 0.18 0.22 0.05 0.03 0.08 0.13 0.13 0.13 0.17 0.15 0.10 0.04 0.01 0.01 0.01 0.02 0.01 0.00 0.00 0.00 0.00 0.00 0.00 0.04 0.06 0.03 0.03 0.04 0.01 0.05 0.24 0.31 0.19 0.26 0.24
0.12 0.11 0.11 0.15 0.10 0.16 0.32 0.21 0.10 0.16 0.30 0.18 0.06 0.08 0.13 0.09 0.09 0.16 0.08 0.11 0.12 0.00 0.01 0.02 0.01 0.01 0.00 0.01 0.03 0.07 0.02 0.03 0.04 0.02 0.05 0.05 0.04 0.04 0.16 0.40 0.31 0.21 0.33 0.34
0.08 0.09 0.09 0.13 0.13 0.13 0.25 0.17 0.05 0.12 0.44 0.33 0.27 0.07 0.13 0.11 0.08 0.08 0.04 0.06 0.02 0.00 0.00 0.01 0.02 0.04 0.01 0.02 0.10 0.15 0.15 0.09 0.11 0.11 0.15 0.12 0.04 0.08 0.26 0.40 0.31 0.27 0.36 0.36
0.05 0.07 0.10 0.16 0.20 0.13 0.13 0.19 0.08 0.11 0.32 0.21 0.26 0.16 0.08 0.06 0.06 0.01 0.00 0.01 0.00 0.00 0.00 0.00 0.01 0.03 0.02 0.03 0.08 0.08 0.17 0.19 0.21 0.17 0.17 0.17 0.13 0.21 0.27 0.30 0.28 0.32 0.31 0.31
0.04 0.07 0.11 0.17 0.23 0.12 0.06 0.16 0.10 0.13 0.09 0.10 0.16 0.09 0.06 0.04 0.03 0.00 0.00 0.00 0.00 0.00 0.00 0.02 0.03 0.03 0.02 0.04 0.06 0.01 0.05 0.10 0.11 0.11 0.13 0.14 0.21 0.18 0.16 0.19 0.21 0.23 0.19 0.16
0.05 0.07 0.09 0.11 0.10 0.06 0.06 0.10 0.07 0.15 0.09 0.06 0.04 0.01 0.02 0.04 0.01 0.00 0.00 0.00 0.00 0.00 0.00 0.01 0.05 0.06 0.04 0.06 0.06 0.03 0.01 0.01 0.03 0.06 0.09 0.09 0.14 0.17 0.15 0.17 0.15 0.13 0.12 0.07
0.06 0.07 0.07 0.05 0.05 0.04 0.08 0.07 0.10 0.11 0.07 0.01 0.00 0.00 0.00 0.00 0.00 0.00 0.00 0.00 0.00 0.00 0.00 0.00 0.03 0.02 0.01 0.02 0.02 0.01 0.00 0.02 0.02 0.03 0.02 0.03 0.10 0.14 0.12 0.11 0.13 0.09 0.04 0.03
0.09 0.04 0.03 0.03 0.04 0.11 0.17 0.25 0.11 0.02 0.01 0.01 0.00 0.00 0.00 0.00 0.00 0.00 0.00 0.00 0.00 0.00 0.00 0.00 0.00 0.00 0.00 0.02 0.02 0.01 0.00 0.00 0.00 0.01 0.02 0.01 0.04 0.06 0.05 0.04 0.04 0.02 0.01 0.01
0.04 0.01 0.02 0.05 0.07 0.07 0.04 0.07 0.05 0.00 0.01 0.01 0.00 0.00 0.00 0.00 0.00 0.00 0.00 0.00 0.00 0.00 0.00 0.00 0.00 0.00 0.00 0.03 0.02 0.00 0.00 0.00 0.00 0.00 0.00 0.02 0.03 0.04 0.02 0.00 0.00 0.00 0.00 0.00
0.03 0.01 0.04 0.07 0.04 0.03 0.00 0.00 0.00 0.01 0.03 0.01 0.00 0.00 0.00 0.00 0.00 0.00 0.00 0.00 0.00 0.00 0.00 0.00 0.00 0.00 0.00 0.02 0.01 0.00 0.00 0.00 0.01 0.01 0.01 0.00 0.01 0.00 0.00 0.00 0.00 0.00 0.00 0.00
0.03 0.03 0.06 0.07 0.06 0.01 0.00 0.00 0.00 0.00 0.01 0.01 0.00 0.00 0.01 0.00 0.00 0.00 0.00 0.00 0.00 0.00 0.00 0.00 0.00 0.01 0.02 0.01 0.00 0.00 0.00 0.01 0.02 0.02 0.00 0.01 0.01 0.01 0.00 0.00 0.00 0.00 0.00 0.00
0.01 0.04 0.07 0.09 0.01 0.00 0.00 0.01 0.01 0.00 0.00 0.00 0.01 0.00 0.00 0.00 0.01 0.01 0.01 0.00 0.01 0.01 0.01 0.00 0.00 0.03 0.02 0.01 0.00 0.00 0.01 0.01 0.02 0.02 0.02 0.01 0.01 0.00 0.00 0.00 0.00 0.00 0.00 0.00
0.02 0.04 0.02 0.01 0.01 0.00 0.00 0.00 0.00 0.00 0.00 0.00 0.01 0.00 0.00 0.00 0.01 0.01 0.01 0.02 0.05 0.05 0.07 0.02 0.04 0.03 0.02 0.03 0.02 0.02 0.01 0.03 0.03 0.03 0.02 0.02 0.00 0.00 0.00 0.00 0.00 0.00 0.00 0.00
0.00 0.00 0.01 0.02 0.01 0.00 0.00 0.00 0.00 0.00 0.00 0.00 0.01 0.00 0.00 0.00 0.00 0.01 0.00 0.05 0.15 0.30 0.14 0.05 0.12 0.07 0.03 0.03 0.03 0.02 0.01 0.02 0.04 0.04 0.02 0.01 0.00 0.00 0.00 0.00 0.00 0.00 0.00 0.00
0.01 0.01 0.01 0.01 0.02 0.01 0.00 0.00 0.00 0.01 0.00 0.01 0.01 0.01 0.01 0.01 0.01 0.01 0.01 0.13 0.21 0.24 0.36 0.15 0.10 0.03 0.04 0.03 0.02 0.01 0.00 0.00 0.03 0.03 0.01 0.00 0.00 0.00 0.01 0.01 0.00 0.00 0.00 0.00
0.00 0.00 0.01 0.01 0.01 0.01 0.01 0.01 0.01 0.01 0.01 0.02 0.01 0.01 0.01 0.02 0.01 0.00 0.01 0.01 0.01 0.05 0.13 0.18 0.02 0.02 0.02 0.02 0.01 0.00 0.02 0.03 0.04 0.03 0.01 0.00 0.01 0.03 0.04 0.02 0.01 0.00 0.00 0.00
0.00 0.02 0.02 0.02 0.04 0.05 0.05 0.03 0.02 0.00 0.02 0.01 0.01 0.01 0.01 0.00 0.00 0.00 0.01 0.03 0.07 0.15 0.25 0.09 0.00 0.01 0.02 0.03 0.02 0.02 0.03 0.03 0.03 0.02 0.01 0.01 0.01 0.01 0.04 0.04 0.01 0.00 0.00 0.00
0.01 0.07 0.11 0.07 0.07 0.09 0.06 0.04 0.02 0.01 0.03 0.03 0.01 0.01 0.01 0.00 0.00 0.01 0.02 0.08 0.15 0.09 0.01 0.01 0.01 0.01 0.03 0.02 0.03 0.02 0.02 0.02 0.02 0.02 0.03 0.03 0.02 0.01 0.02 0.02 0.01 0.00 0.00 0.00
0.03 0.06 0.11 0.12 0.05 0.08 0.06 0.04 0.02 0.03 0.07 0.03 0.01 0.00 0.01 0.02 0.01 0.02 0.01 0.04 0.04 0.01 0.01 0.01 0.00 0.01 0.03 0.06 0.06 0.05 0.04 0.03 0.03 0.03 0.04 0.05 0.03 0.02 0.01 0.00 0.00 0.00 0.00 0.00

GFSNW_prec_precacc24_117.txt.gz
Total_Precipitation_Accumulation
0.21 0.21 0.18 0.16 0.14 0.23 0.17 0.23 0.31 0.04 0.20 0.82 0.82 0.27 0.05 0.02 0.02 0.03 0.04 0.04 0.05 0.04 0.02 0.02 0.03 0.03 0.06 0.02 0.03 0.07 0.07 0.08 0.03 0.00 0.00 0.00 0.00 0.00 0.09 0.24 0.31 0.37 0.29 0.39
0.34 0.27 0.30 0.26 0.25 0.29 0.17 0.37 0.34 0.21 0.38 0.50 0.27 0.07 0.02 0.04 0.03 0.04 0.06 0.05 0.02 0.01 0.02 0.02 0.03 0.03 0.03 0.00 0.02 0.08 0.15 0.22 0.15 0.10 0.05 0.02 0.02 0.00 0.02 0.05 0.06 0.05 0.06 0.15
0.45 0.33 0.30 0.30 0.33 0.43 0.41 0.58 0.47 0.59 0.70 0.23 0.08 0.04 0.07 0.12 0.03 0.02 0.05 0.05 0.04 0.03 0.01 0.01 0.02 0.02 0.00 0.00 0.00 0.03 0.08 0.10 0.08 0.07 0.04 0.01 0.01 0.01 0.00 0.01 0.02 0.01 0.01 0.02
0.37 0.35 0.31 0.28 0.35 0.42 0.65 0.78 0.49 0.10 0.22 0.10 0.04 0.06 0.05 0.03 0.05 0.06 0.05 0.10 0.05 0.05 0.03 0.01 0.01 0.03 0.00 0.00 0.00 0.00 0.02 0.01 0.02 0.03 0.05 0.05 0.04 0.02 0.01 0.00 0.00 0.00 0.00 0.00
0.40 0.28 0.26 0.33 0.36 0.57 0.65 0.57 0.37 0.20 0.02 0.00 0.02 0.11 0.16 0.04 0.02 0.06 0.06 0.12 0.07 0.07 0.06 0.02 0.01 0.03 0.01 0.00 0.00 0.00 0.00 0.03 0.02 0.02 0.00 0.00 0.01 0.00 0.00 0.00 0.00 0.00 0.00 0.00
0.33 0.39 0.20 0.22 0.40 0.67 0.66 0.21 0.12 0.38 0.41 0.11 0.07 0.05 0.03 0.07 0.15 0.08 0.02 0.03 0.07 0.12 0.12 0.03 0.01 0.01 0.01 0.01 0.00 0.00 0.00 0.02 0.05 0.06 0.03 0.15 0.12 0.00 0.01 0.02 0.01 0.01 0.01 0.00
0.20 0.33 0.25 0.17 0.28 0.40 0.18 0.18 0.18 0.24 0.28 0.42 0.19 0.02 0.01 0.03 0.10 0.13 0.09 0.12 0.06 0.03 0.04 0.09 0.09 0.01 0.00 0.00 0.00 0.00 0.00 0.01 0.03 0.02 0.03 0.14 0.04 0.00 0.04 0.10 0.07 0.03 0.02 0.04
0.21 0.20 0.24 0.14 0.17 0.22 0.19 0.23 0.25 0.31 0.25 0.09 0.22 0.18 0.07 0.06 0.11 0.13 0.13 0.12 0.08 0.05 0.06 0.09 0.13 0.06 0.04 0.01 0.00 0.00 0.00 0.00 0.02 0.01 0.02 0.01 0.01 0.01 0.05 0.18 0.16 0.10 0.10 0.12
0.19 0.17 0.17 0.16 0.12 0.22 0.26 0.24 0.20 0.24 0.27 0.09 0.04 0.09 0.14 0.16 0.14 0.18 0.16 0.13 0.11 0.09 0.06 0.07 0.07 0.03 0.01 0.01 0.01 0.00 0.00 0.00 0.02 0.04 0.02 0.03 0.04 0.00 0.00 0.09 0.20 0.11 0.18 0.21
0.12 0.12 0.12 0.16 0.12 0.21 0.35 0.23 0.16 0.29 0.38 0.18 0.06 0.08 0.13 0.09 0.09 0.16 0.08 0.12 0.26 0.22 0.11 0.06 0.02 0.01 0.00 0.00 0.01 0.04 0.02 0.03 0.03 0.02 0.03 0.04 0.01 0.00 0.03 0.18 0.19 0.15 0.31 0.34
0.09 0.10 0.10 0.14 0.16 0.19 0.31 0.21 0.08 0.23 0.56 0.34 0.27 0.07 0.13 0.11 0.08 0.08 0.04 0.08 0.13 0.20 0.18 0.05 0.04 0.04 0.01 0.01 0.03 0.06 0.07 0.04 0.07 0.05 0.06 0.08 0.01 0.03 0.11 0.21 0.19 0.24 0.35 0.36
0.07 0.08 0.10 0.17 0.23 0.18 0.23 0.28 0.12 0.18 0.39 0.22 0.26 0.17 0.10 0.06 0.07 0.01 0.00 0.02 0.01 0.04 0.04 0.01 0.02 0.03 0.02 0.02 0.05 0.03 0.05 0.08 0.10 0.10 0.10 0.08 0.05 0.12 0.15 0.19 0.22 0.30 0.30 0.31
0.07 0.09 0.14 0.21 0.27 0.17 0.18 0.23 0.20 0.17 0.11 0.10 0.19 0.20 0.10 0.05 0.04 0.01 0.00 0.00 0.00 0.00 0.01 0.02 0.03 0.03 0.02 0.04 0.04 0.01 0.03 0.05 0.05 0.07 0.09 0.08 0.11 0.11 0.12 0.16 0.18 0.21 0.18 0.16
0.08 0.11 0.14 0.19 0.30 0.14 0.16 0.18 0.16 0.18 0.09 0.07 0.13 0.06 0.12 0.09 0.02 0.01 0.00 0.00 0.00 0.00 0.00 0.01 0.05 0.06 0.05 0.05 0.02 0.03 0.01 0.01 0.02 0.05 0.07 0.07 0.12 0.13 0.12 0.14 0.11 0.11 0.11 0.07
0.08 0.09 0.13 0.20 0.30 0.12 0.11 0.12 0.13 0.12 0.07 0.01 0.08 0.07 0.09 0.06 0.00 0.01 0.00 0.00 0.00 0.00 0.00 0.00 0.03 0.02 0.01 0.01 0.01 0.01 0.00 0.01 0.01 0.02 0.00 0.02 0.08 0.12 0.10 0.09 0.10 0.07 0.03 0.02
0.08 0.07 0.12 0.24 0.20 0.16 0.19 0.31 0.13 0.04 0.01 0.01 0.01 0.02 0.02 0.00 0.00 0.00 0.00 0.00 0.00 0.00 0.00 0.00 0.00 0.00 0.01 0.02 0.02 0.01 0.00 0.00 0.00 0.00 0.01 0.00 0.03 0.05 0.04 0.03 0.03 0.01 0.00 0.00
0.05 0.08 0.12 0.16 0.10 0.08 0.04 0.08 0.06 0.00 0.01 0.01 0.00 0.00 0.00 0.00 0.00 0.00 0.00 0.00 0.00 0.00 0.00 0.00 0.00 0.00 0.00 0.02 0.02 0.00 0.00 0.00 0.00 0.00 0.00 0.02 0.02 0.03 0.01 0.00 0.00 0.00 0.00 0.00
0.07 0.06 0.07 0.09 0.05 0.04 0.00 0.00 0.00 0.01 0.03 0.01 0.00 0.00 0.00 0.00 0.00 0.00 0.00 0.00 0.00 0.00 0.00 0.00 0.00 0.00 0.00 0.01 0.01 0.00 0.00 0.00 0.01 0.01 0.00 0.00 0.01 0.00 0.00 0.00 0.00 0.00 0.00 0.00
0.03 0.07 0.14 0.14 0.08 0.04 0.02 0.00 0.00 0.00 0.01 0.01 0.00 0.00 0.01 0.00 0.00 0.00 0.00 0.00 0.00 0.00 0.00 0.00 0.00 0.01 0.01 0.01 0.00 0.00 0.00 0.00 0.01 0.01 0.00 0.01 0.01 0.00 0.00 0.00 0.00 0.00 0.00 0.00
0.05 0.10 0.10 0.13 0.03 0.01 0.00 0.01 0.01 0.00 0.00 0.00 0.01 0.00 0.00 0.00 0.01 0.01 0.01 0.00 0.01 0.01 0.01 0.00 0.00 0.02 0.01 0.00 0.00 0.00 0.00 0.00 0.00 0.00 0.01 0.01 0.00 0.00 0.00 0.00 0.00 0.00 0.00 0.00
0.04 0.04 0.02 0.03 0.02 0.00 0.00 0.00 0.00 0.00 0.00 0.00 0.01 0.00 0.00 0.00 0.01 0.01 0.01 0.01 0.02 0.03 0.06 0.01 0.03 0.03 0.01 0.02 0.01 0.01 0.00 0.00 0.00 0.00 0.00 0.00 0.00 0.00 0.00 0.00 0.00 0.00 0.00 0.00
0.00 0.00 0.00 0.01 0.01 0.00 0.00 0.00 0.00 0.00 0.00 0.00 0.01 0.00 0.00 0.00 0.00 0.01 0.00 0.03 0.09 0.20 0.08 0.03 0.11 0.06 0.02 0.03 0.03 0.02 0.01 0.01 0.02 0.02 0.01 0.00 0.00 0.00 0.00 0.00 0.00 0.00 0.00 0.00
0.00 0.00 0.00 0.00 0.01 0.00 0.00 0.00 0.00 0.01 0.00 0.01 0.01 0.01 0.01 0.01 0.01 0.01 0.00 0.06 0.18 0.21 0.29 0.13 0.10 0.03 0.03 0.03 0.02 0.01 0.00 0.00 0.03 0.03 0.01 0.00 0.00 0.00 0.01 0.01 0.00 0.00 0.00 0.00
0.00 0.00 0.00 0.01 0.01 0.01 0.01 0.01 0.01 0.01 0.01 0.02 0.01 0.01 0.01 0.02 0.01 0.00 0.01 0.01 0.01 0.04 0.12 0.18 0.01 0.01 0.02 0.02 0.01 0.00 0.02 0.03 0.04 0.03 0.01 0.00 0.01 0.04 0.06 0.04 0.01 0.00 0.00 0.00
0.00 0.00 0.01 0.02 0.04 0.06 0.05 0.03 0.02 0.00 0.02 0.01 0.01 0.01 0.01 0.00 0.00 0.00 0.01 0.01 0.02 0.08 0.20 0.09 0.00 0.01 0.02 0.03 0.02 0.02 0.03 0.03 0.03 0.02 0.01 0.01 0.02 0.04 0.08 0.09 0.05 0.03 0.00 0.00
0.00 0.04 0.09 0.07 0.07 0.10 0.07 0.04 0.02 0.01 0.03 0.03 0.01 0.01 0.01 0.00 0.00 0.01 0.01 0.04 0.10 0.08 0.01 0.01 0.01 0.02 0.03 0.02 0.03 0.02 0.02 0.02 0.02 0.02 0.04 0.07 0.07 0.05 0.07 0.08 0.07 0.05 0.01 0.00
0.02 0.07 0.12 0.12 0.06 0.11 0.09 0.05 0.02 0.03 0.07 0.03 0.01 0.00 0.00 0.01 0.01 0.01 0.01 0.04 0.04 0.01 0.01 0.01 0.00 0.01 0.03 0.06 0.06 0.05 0.04 0.04 0.04 0.04 0.08 0.11 0.10 0.07 0.04 0.04 0.05 0.04 0.01 0.00

GFSNW_prec_precacc24_120.txt.gz
Total_Precipitation_Accumulation
0.22 0.22 0.18 0.18 0.18 0.29 0.20 0.25 0.32 0.04 0.22 0.93 0.92 0.31 0.05 0.02 0.02 0.03 0.03 0.02 0.03 0.02 0.01 0.01 0.03 0.03 0.06 0.02 0.03 0.07 0.08 0.11 0.03 0.01 0.00 0.01 0.02 0.01 0.10 0.24 0.28 0.32 0.26 0.38
0.35 0.29 0.31 0.28 0.29 0.34 0.20 0.40 0.36 0.21 0.46 0.54 0.33 0.10 0.03 0.04 0.02 0.04 0.05 0.04 0.02 0.01 0.01 0.02 0.03 0.03 0.03 0.00 0.03 0.10 0.20 0.27 0.16 0.11 0.05 0.02 0.02 0.00 0.02 0.06 0.10 0.07 0.05 0.15
0.47 0.35 0.30 0.31 0.37 0.49 0.44 0.64 0.51 0.65 0.78 0.25 0.08 0.05 0.08 0.12 0.03 0.02 0.05 0.05 0.04 0.02 0.01 0.01 0.02 0.02 0.00 0.00 0.01 0.06 0.14 0.13 0.09 0.08 0.04 0.01 0.01 0.01 0.02 0.08 0.15 0.03 0.00 0.02
0.39 0.35 0.31 0.29 0.39 0.48 0.74 0.90 0.56 0.12 0.29 0.12 0.04 0.07 0.06 0.03 0.05 0.07 0.06 0.11 0.06 0.05 0.04 0.02 0.02 0.03 0.01 0.00 0.01 0.02 0.07 0.04 0.03 0.03 0.05 0.05 0.04 0.03 0.04 0.10 0.08 0.06 0.02 0.00
0.42 0.28 0.27 0.34 0.39 0.62 0.82 0.77 0.40 0.21 0.02 0.00 0.04 0.13 0.17 0.05 0.02 0.07 0.07 0.13 0.07 0.10 0.08 0.02 0.01 0.04 0.02 0.01 0.00 0.01 0.02 0.04 0.03 0.02 0.01 0.01 0.01 0.01 0.01 0.03 0.04 0.06 0.02 0.01
0.34 0.40 0.22 0.24 0.43 0.73 0.89 0.39 0.17 0.39 0.42 0.11 0.09 0.10 0.04 0.07 0.15 0.08 0.02 0.03 0.08 0.13 0.12 0.04 0.01 0.02 0.02 0.02 0.01 0.01 0.01 0.02 0.06 0.07 0.03 0.17 0.17 0.00 0.00 0.00 0.00 0.01 0.01 0.00
0.20 0.33 0.27 0.21 0.32 0.42 0.25 0.25 0.22 0.29 0.30 0.44 0.19 0.02 0.01 0.03 0.10 0.13 0.09 0.12 0.06 0.03 0.04 0.10 0.15 0.11 0.04 0.01 0.01 0.01 0.01 0.02 0.06 0.05 0.06 0.19 0.05 0.00 0.00 0.00 0.01 0.01 0.01 0.02
0.22 0.21 0.27 0.17 0.21 0.26 0.19 0.25 0.30 0.34 0.28 0.09 0.23 0.18 0.07 0.06 0.11 0.13 0.13 0.12 0.08 0.08 0.10 0.13 0.20 0.20 0.23 0.15 0.06 0.03 0.00 0.01 0.06 0.03 0.04 0.02 0.01 0.00 0.01 0.02 0.04 0.03 0.03 0.05
0.20 0.18 0.20 0.18 0.15 0.26 0.26 0.24 0.23 0.28 0.28 0.09 0.05 0.10 0.15 0.16 0.14 0.18 0.16 0.13 0.11 0.12 0.13 0.14 0.12 0.10 0.13 0.09 0.07 0.01 0.00 0.00 0.04 0.05 0.02 0.03 0.03 0.00 0.00 0.04 0.10 0.04 0.03 0.09
0.13 0.13 0.13 0.18 0.15 0.24 0.38 0.23 0.16 0.33 0.46 0.19 0.07 0.11 0.15 0.09 0.09 0.16 0.08 0.12 0.27 0.25 0.25 0.23 0.09 0.02 0.00 0.04 0.02 0.05 0.04 0.05 0.04 0.02 0.03 0.04 0.01 0.00 0.01 0.09 0.10 0.06 0.13 0.20
0.09 0.11 0.11 0.16 0.18 0.23 0.36 0.21 0.09 0.24 0.60 0.36 0.27 0.08 0.14 0.13 0.09 0.09 0.05 0.10 0.15 0.26 0.30 0.23 0.18 0.07 0.01 0.01 0.02 0.03 0.03 0.03 0.04 0.03 0.04 0.06 0.00 0.00 0.04 0.09 0.10 0.14 0.22 0.29
0.07 0.08 0.11 0.18 0.25 0.21 0.27 0.29 0.13 0.21 0.46 0.27 0.27 0.17 0.10 0.07 0.08 0.02 0.00 0.03 0.02 0.05 0.07 0.11 0.11 0.10 0.03 0.02 0.03 0.02 0.03 0.05 0.06 0.05 0.05 0.03 0.02 0.04 0.06 0.08 0.14 0.21 0.25 0.29
0.07 0.10 0.14 0.21 0.28 0.20 0.22 0.24 0.23 0.23 0.24 0.16 0.21 0.21 0.10 0.05 0.04 0.01 0.00 0.00 0.00 0.00 0.02 0.05 0.06 0.06 0.02 0.04 0.03 0.01 0.01 0.02 0.02 0.04 0.04 0.03 0.05 0.05 0.06 0.10 0.14 0.17 0.16 0.15
0.10 0.13 0.15 0.20 0.31 0.16 0.22 0.21 0.24 0.26 0.13 0.10 0.14 0.07 0.12 0.09 0.02 0.01 0.01 0.00 0.00 0.01 0.01 0.05 0.08 0.09 0.05 0.05 0.02 0.03 0.01 0.01 0.01 0.04 0.05 0.04 0.06 0.05 0.06 0.10 0.09 0.10 0.10 0.06
0.13 0.14 0.15 0.21 0.31 0.14 0.18 0.20 0.19 0.27 0.12 0.02 0.09 0.11 0.14 0.09 0.04 0.04 0.08 0.01 0.00 0.06 0.03 0.04 0.04 0.02 0.01 0.01 0.01 0.01 0.00 0.01 0.01 0.02 0.00 0.02 0.06 0.07 0.07 0.08 0.09 0.06 0.02 0.01
0.13 0.13 0.16 0.27 0.26 0.23 0.32 0.59 0.31 0.15 0.11 0.03 0.04 0.14 0.13 0.05 0.02 0.06 0.05 0.02 0.00 0.02 0.01 0.00 0.00 0.00 0.01 0.02 0.02 0.01 0.00 0.00 0.00 0.00 0.00 0.00 0.02 0.04 0.03 0.02 0.02 0.01 0.00 0.00
0.09 0.13 0.17 0.26 0.24 0.18 0.10 0.13 0.08 0.06 0.08 0.04 0.03 0.09 0.09 0.05 0.01 0.02 0.00 0.00 0.00 0.00 0.00 0.00 0.00 0.00 0.01 0.06 0.03 0.00 0.00 0.00 0.00 0.00 0.00 0.02 0.01 0.02 0.00 0.00 0.00 0.00 0.00 0.00
0.10 0.13 0.20 0.29 0.22 0.12 0.02 0.00 0.00 0.04 0.05 0.01 0.00 0.02 0.01 0.01 0.01 0.01 0.00 0.00 0.00 0.00 0.00 0.00 0.00 0.00 0.01 0.01 0.00 0.00 0.00 0.00 0.01 0.00 0.00 0.00 0.00 0.00 0.00 0.00 0.00 0.00 0.00 0.00
0.15 0.26 0.35 0.29 0.17 0.10 0.06 0.00 0.00 0.01 0.02 0.01 0.00 0.00 0.01 0.00 0.00 0.00 0.00 0.00 0.00 0.00 0.00 0.00 0.00 0.01 0.00 0.00 0.00 0.00 0.00 0.00 0.01 0.01 0.00 0.00 0.00 0.00 0.00 0.00 0.00 0.00 0.00 0.00
0.19 0.19 0.15 0.18 0.09 0.10 0.04 0.04 0.03 0.01 0.00 0.00 0.01 0.00 0.00 0.00 0.01 0.01 0.01 0.00 0.01 0.01 0.01 0.00 0.00 0.02 0.00 0.00 0.00 0.00 0.00 0.00 0.00 0.00 0.01 0.00 0.00 0.00 0.00 0.00 0.00 0.00 0.00 0.00
0.06 0.04 0.04 0.14 0.14 0.04 0.01 0.01 0.00 0.00 0.00 0.00 0.01 0.00 0.00 0.00 0.01 0.01 0.01 0.01 0.01 0.02 0.04 0.01 0.02 0.03 0.01 0.01 0.01 0.01 0.00 0.00 0.00 0.00 0.00 0.00 0.00 0.00 0.00 0.00 0.00 0.00 0.00 0.00
0.00 0.01 0.06 0.04 0.00 0.00 0.00 0.00 0.00 0.00 0.00 0.00 0.01 0.00 0.00 0.00 0.00 0.01 0.00 0.01 0.04 0.13 0.05 0.02 0.09 0.06 0.02 0.02 0.02 0.02 0.00 0.00 0.02 0.01 0.00 0.00 0.00 0.00 0.00 0.00 0.00 0.00 0.00 0.00
0.00 0.00 0.00 0.00 0.00 0.00 0.00 0.00 0.00 0.01 0.00 0.01 0.01 0.01 0.01 0.01 0.01 0.01 0.00 0.01 0.12 0.12 0.17 0.13 0.10 0.02 0.02 0.02 0.02 0.01 0.00 0.00 0.03 0.02 0.01 0.00 0.00 0.00 0.01 0.02 0.00 0.00 0.00 0.00
0.00 0.00 0.00 0.00 0.01 0.01 0.02 0.01 0.01 0.01 0.01 0.02 0.01 0.01 0.01 0.02 0.01 0.00 0.01 0.01 0.01 0.04 0.11 0.18 0.01 0.01 0.02 0.02 0.01 0.00 0.02 0.03 0.04 0.03 0.01 0.00 0.01 0.04 0.07 0.06 0.03 0.01 0.00 0.00
0.00 0.00 0.01 0.02 0.04 0.06 0.05 0.03 0.02 0.00 0.02 0.01 0.01 0.01 0.01 0.00 0.00 0.00 0.00 0.01 0.01 0.06 0.19 0.09 0.00 0.01 0.02 0.03 0.02 0.02 0.03 0.03 0.03 0.02 0.01 0.01 0.02 0.05 0.11 0.13 0.08 0.05 0.03 0.01
0.00 0.03 0.07 0.07 0.07 0.11 0.07 0.04 0.02 0.01 0.03 0.03 0.01 0.01 0.01 0.00 0.00 0.00 0.01 0.02 0.10 0.08 0.01 0.01 0.01 0.01 0.03 0.02 0.03 0.02 0.02 0.02 0.02 0.02 0.04 0.07 0.08 0.08 0.11 0.14 0.13 0.10 0.05 0.02
0.03 0.08 0.12 0.12 0.07 0.14 0.11 0.05 0.02 0.03 0.07 0.03 0.01 0.00 0.00 0.00 0.00 0.01 0.01 0.04 0.04 0.01 0.01 0.01 0.00 0.01 0.03 0.06 0.06 0.05 0.04 0.04 0.04 0.04 0.09 0.13 0.13 0.10 0.09 0.09 0.10 0.09 0.06 0.04

GFSNW_prec_precacc24_123.txt.gz
Total_Precipitation_Accumulation
0.30 0.46 0.53 0.37 0.28 0.37 0.23 0.25 0.32 0.03 0.25 0.96 0.90 0.32 0.05 0.02 0.02 0.03 0.03 0.02 0.01 0.01 0.00 0.01 0.02 0.03 0.05 0.02 0.03 0.06 0.07 0.11 0.04 0.01 0.00 0.01 0.03 0.02 0.12 0.30 0.34 0.35 0.26 0.38
0.37 0.38 0.48 0.51 0.44 0.52 0.33 0.43 0.35 0.22 0.57 0.56 0.36 0.11 0.03 0.04 0.02 0.03 0.05 0.03 0.01 0.00 0.01 0.02 0.03 0.03 0.03 0.00 0.02 0.10 0.22 0.31 0.21 0.15 0.08 0.03 0.02 0.01 0.04 0.09 0.13 0.08 0.08 0.15
0.53 0.41 0.40 0.39 0.42 0.57 0.56 0.74 0.56 0.66 0.87 0.28 0.09 0.07 0.09 0.13 0.03 0.02 0.05 0.05 0.04 0.02 0.01 0.01 0.02 0.02 0.00 0.00 0.01 0.06 0.16 0.15 0.12 0.11 0.06 0.01 0.01 0.01 0.04 0.12 0.18 0.05 0.02 0.02
0.62 0.50 0.38 0.33 0.42 0.52 0.79 1.03 0.65 0.15 0.35 0.19 0.05 0.07 0.06 0.03 0.05 0.07 0.07 0.12 0.06 0.05 0.04 0.02 0.02 0.03 0.01 0.00 0.01 0.02 0.08 0.05 0.03 0.03 0.05 0.06 0.04 0.03 0.05 0.12 0.09 0.09 0.04 0.01
0.65 0.51 0.40 0.38 0.43 0.68 0.89 0.89 0.46 0.22 0.02 0.01 0.05 0.15 0.17 0.05 0.02 0.08 0.08 0.14 0.07 0.11 0.09 0.02 0.01 0.04 0.03 0.01 0.01 0.01 0.03 0.06 0.03 0.02 0.01 0.02 0.02 0.01 0.01 0.03 0.05 0.08 0.06 0.05
0.49 0.65 0.35 0.28 0.47 0.80 1.04 0.61 0.24 0.39 0.42 0.12 0.12 0.13 0.04 0.07 0.15 0.08 0.02 0.04 0.09 0.14 0.12 0.05 0.02 0.03 0.02 0.03 0.02 0.03 0.03 0.04 0.07 0.08 0.03 0.18 0.19 0.00 0.00 0.00 0.00 0.00 0.00 0.01
0.34 0.45 0.38 0.24 0.35 0.45 0.30 0.32 0.35 0.33 0.31 0.44 0.19 0.02 0.01 0.03 0.10 0.13 0.09 0.12 0.06 0.03 0.04 0.10 0.15 0.11 0.04 0.01 0.01 0.01 0.03 0.06 0.13 0.10 0.09 0.24 0.05 0.00 0.00 0.00 0.00 0.00 0.00 0.01
0.31 0.28 0.32 0.21 0.23 0.27 0.19 0.30 0.41 0.45 0.33 0.10 0.23 0.18 0.07 0.06 0.11 0.13 0.13 0.12 0.09 0.09 0.12 0.16 0.22 0.20 0.23 0.15 0.07 0.04 0.01 0.03 0.11 0.09 0.09 0.04 0.00 0.00 0.00 0.01 0.02 0.01 0.01 0.02
0.31 0.21 0.21 0.21 0.17 0.28 0.27 0.24 0.27 0.40 0.35 0.12 0.05 0.10 0.15 0.16 0.14 0.18 0.16 0.13 0.11 0.12 0.14 0.19 0.17 0.12 0.14 0.10 0.10 0.06 0.11 0.12 0.15 0.12 0.04 0.03 0.03 0.00 0.00 0.02 0.07 0.01 0.00 0.01
0.21 0.15 0.14 0.19 0.17 0.28 0.38 0.23 0.16 0.38 0.54 0.20 0.08 0.12 0.15 0.09 0.09 0.16 0.08 0.12 0.27 0.26 0.26 0.25 0.11 0.03 0.01 0.06 0.10 0.12 0.13 0.18 0.21 0.11 0.04 0.04 0.00 0.00 0.01 0.06 0.07 0.01 0.01 0.03
0.10 0.11 0.12 0.17 0.20 0.26 0.37 0.21 0.09 0.25 0.63 0.36 0.28 0.08 0.15 0.14 0.09 0.09 0.05 0.13 0.17 0.29 0.33 0.24 0.18 0.12 0.03 0.02 0.02 0.03 0.04 0.03 0.04 0.04 0.05 0.06 0.00 0.00 0.02 0.05 0.03 0.03 0.05 0.10
0.07 0.09 0.12 0.19 0.29 0.27 0.31 0.29 0.13 0.22 0.46 0.27 0.27 0.17 0.10 0.08 0.09 0.04 0.02 0.04 0.03 0.07 0.08 0.13 0.14 0.16 0.08 0.04 0.04 0.01 0.03 0.04 0.05 0.04 0.05 0.02 0.00 0.00 0.01 0.03 0.05 0.08 0.10 0.14
0.08 0.10 0.14 0.22 0.30 0.25 0.26 0.24 0.24 0.26 0.26 0.17 0.21 0.21 0.10 0.05 0.04 0.02 0.06 0.01 0.01 0.02 0.04 0.06 0.11 0.12 0.04 0.05 0.04 0.01 0.00 0.01 0.01 0.03 0.03 0.01 0.01 0.01 0.02 0.04 0.06 0.07 0.08 0.09
0.11 0.13 0.15 0.20 0.31 0.17 0.25 0.22 0.25 0.27 0.17 0.12 0.14 0.07 0.12 0.09 0.02 0.01 0.01 0.00 0.01 0.01 0.02 0.07 0.13 0.12 0.07 0.06 0.02 0.04 0.00 0.00 0.00 0.04 0.03 0.02 0.03 0.02 0.03 0.04 0.04 0.06 0.07 0.04
0.18 0.15 0.15 0.21 0.31 0.15 0.22 0.21 0.21 0.29 0.16 0.09 0.10 0.11 0.14 0.09 0.04 0.04 0.08 0.02 0.01 0.06 0.05 0.12 0.17 0.08 0.04 0.03 0.02 0.01 0.00 0.01 0.01 0.02 0.00 0.01 0.03 0.04 0.04 0.06 0.06 0.05 0.02 0.01
0.19 0.16 0.16 0.27 0.26 0.26 0.37 0.66 0.34 0.18 0.24 0.17 0.08 0.14 0.14 0.06 0.04 0.09 0.10 0.10 0.02 0.09 0.16 0.09 0.08 0.02 0.01 0.02 0.02 0.01 0.00 0.00 0.00 0.00 0.00 0.00 0.01 0.03 0.02 0.02 0.02 0.01 0.00 0.00
0.14 0.16 0.18 0.27 0.26 0.21 0.14 0.18 0.09 0.07 0.19 0.32 0.18 0.18 0.25 0.25 0.17 0.16 0.08 0.13 0.07 0.04 0.07 0.03 0.00 0.00 0.01 0.06 0.04 0.00 0.00 0.00 0.00 0.00 0.00 0.02 0.01 0.02 0.00 0.00 0.00 0.00 0.00 0.00
0.14 0.16 0.23 0.32 0.27 0.21 0.06 0.01 0.02 0.11 0.24 0.16 0.06 0.12 0.22 0.18 0.11 0.09 0.02 0.03 0.03 0.01 0.00 0.00 0.00 0.00 0.01 0.01 0.00 0.00 0.00 0.00 0.00 0.00 0.00 0.00 0.00 0.00 0.00 0.00 0.00 0.00 0.00 0.00
0.23 0.34 0.50 0.51 0.35 0.21 0.10 0.03 0.13 0.13 0.15 0.07 0.02 0.07 0.08 0.05 0.03 0.01 0.00 0.00 0.00 0.00 0.00 0.00 0.00 0.01 0.00 0.00 0.00 0.00 0.00 0.00 0.01 0.00 0.00 0.00 0.00 0.00 0.00 0.00 0.00 0.00 0.00 0.00
0.35 0.36 0.36 0.38 0.19 0.13 0.14 0.26 0.24 0.15 0.10 0.01 0.01 0.00 0.01 0.01 0.01 0.01 0.01 0.00 0.01 0.01 0.01 0.00 0.00 0.02 0.00 0.00 0.00 0.00 0.00 0.00 0.00 0.00 0.01 0.00 0.00 0.00 0.00 0.00 0.00 0.00 0.00 0.00
0.15 0.10 0.11 0.26 0.35 0.15 0.10 0.10 0.07 0.03 0.00 0.00 0.01 0.00 0.00 0.00 0.01 0.01 0.01 0.01 0.01 0.02 0.04 0.01 0.02 0.03 0.01 0.00 0.00 0.00 0.00 0.00 0.00 0.00 0.00 0.00 0.00 0.00 0.00 0.00 0.00 0.00 0.00 0.00
0.00 0.01 0.11 0.20 0.11 0.02 0.00 0.00 0.00 0.00 0.00 0.00 0.01 0.00 0.00 0.00 0.00 0.01 0.00 0.01 0.02 0.09 0.04 0.02 0.07 0.05 0.01 0.01 0.01 0.01 0.00 0.00 0.00 0.00 0.00 0.00 0.00 0.00 0.00 0.00 0.00 0.00 0.00 0.00
0.00 0.00 0.01 0.02 0.00 0.00 0.00 0.00 0.00 0.01 0.00 0.01 0.01 0.01 0.01 0.01 0.01 0.01 0.00 0.01 0.06 0.06 0.10 0.12 0.10 0.02 0.01 0.01 0.01 0.01 0.00 0.00 0.01 0.01 0.00 0.00 0.00 0.00 0.01 0.02 0.01 0.02 0.02 0.01
0.00 0.00 0.00 0.00 0.00 0.01 0.02 0.01 0.01 0.01 0.01 0.02 0.01 0.01 0.01 0.02 0.01 0.00 0.01 0.01 0.00 0.03 0.10 0.18 0.01 0.01 0.01 0.02 0.01 0.00 0.02 0.03 0.03 0.02 0.01 0.00 0.01 0.04 0.09 0.08 0.05 0.03 0.02 0.02
0.00 0.00 0.01 0.02 0.04 0.04 0.03 0.03 0.02 0.00 0.02 0.01 0.01 0.01 0.01 0.00 0.00 0.00 0.00 0.01 0.01 0.06 0.19 0.09 0.00 0.01 0.02 0.03 0.02 0.02 0.03 0.03 0.03 0.02 0.01 0.01 0.02 0.05 0.12 0.16 0.11 0.08 0.06 0.05
0.00 0.02 0.05 0.07 0.07 0.10 0.07 0.04 0.02 0.01 0.03 0.03 0.01 0.01 0.01 0.00 0.00 0.00 0.00 0.02 0.10 0.08 0.01 0.01 0.01 0.01 0.03 0.02 0.03 0.02 0.02 0.02 0.02 0.02 0.04 0.07 0.08 0.08 0.12 0.16 0.16 0.14 0.08 0.05
0.03 0.08 0.11 0.12 0.07 0.14 0.11 0.05 0.02 0.03 0.07 0.03 0.01 0.00 0.00 0.00 0.00 0.01 0.01 0.04 0.04 0.01 0.01 0.01 0.01 0.01 0.03 0.06 0.06 0.05 0.04 0.04 0.04 0.04 0.09 0.13 0.13 0.11 0.11 0.11 0.13 0.12 0.10 0.08

GFSNW_prec_precacc24_126.txt.gz
Total_Precipitation_Accumulation
0.30 0.54 0.83 0.70 0.45 0.57 0.62 0.45 0.40 0.04 0.23 0.93 0.89 0.34 0.06 0.02 0.02 0.03 0.03 0.01 0.00 0.00 0.00 0.01 0.01 0.02 0.04 0.01 0.02 0.05 0.07 0.11 0.04 0.01 0.00 0.01 0.03 0.02 0.14 0.32 0.36 0.37 0.31 0.40
0.37 0.39 0.59 1.01 0.86 0.83 0.65 0.60 0.37 0.24 0.58 0.53 0.35 0.11 0.03 0.04 0.02 0.03 0.05 0.03 0.00 0.00 0.00 0.02 0.03 0.02 0.02 0.00 0.02 0.09 0.23 0.33 0.23 0.16 0.10 0.04 0.03 0.01 0.06 0.14 0.19 0.15 0.16 0.16
0.52 0.41 0.44 0.59 1.08 1.19 0.84 0.88 0.66 0.74 0.93 0.29 0.09 0.06 0.09 0.13 0.03 0.02 0.05 0.05 0.03 0.01 0.01 0.01 0.02 0.02 0.00 0.00 0.01 0.06 0.18 0.16 0.14 0.12 0.08 0.04 0.05 0.04 0.09 0.18 0.24 0.08 0.03 0.03
0.62 0.51 0.42 0.47 0.68 1.25 1.21 1.27 0.79 0.21 0.46 0.23 0.05 0.08 0.06 0.03 0.05 0.08 0.07 0.12 0.05 0.04 0.04 0.02 0.02 0.03 0.01 0.00 0.01 0.02 0.09 0.05 0.04 0.03 0.06 0.07 0.05 0.04 0.06 0.14 0.12 0.13 0.04 0.01
0.65 0.58 0.54 0.48 0.61 1.04 1.23 1.09 0.55 0.25 0.03 0.01 0.05 0.16 0.18 0.04 0.02 0.08 0.09 0.14 0.07 0.11 0.09 0.02 0.01 0.05 0.05 0.03 0.02 0.03 0.05 0.07 0.04 0.02 0.01 0.03 0.03 0.01 0.01 0.04 0.05 0.08 0.06 0.05
0.50 0.68 0.60 0.55 0.65 1.13 1.52 0.78 0.26 0.40 0.43 0.13 0.15 0.15 0.04 0.07 0.16 0.09 0.03 0.05 0.13 0.17 0.14 0.09 0.06 0.07 0.05 0.05 0.04 0.06 0.05 0.06 0.10 0.09 0.03 0.21 0.22 0.00 0.00 0.00 0.00 0.00 0.00 0.00
0.36 0.52 0.58 0.62 0.63 0.73 0.50 0.38 0.38 0.35 0.32 0.45 0.20 0.02 0.01 0.03 0.10 0.13 0.10 0.13 0.08 0.05 0.06 0.11 0.16 0.12 0.04 0.01 0.01 0.02 0.04 0.08 0.19 0.15 0.14 0.33 0.06 0.00 0.00 0.00 0.00 0.00 0.00 0.00
0.33 0.36 0.49 0.47 0.45 0.55 0.36 0.33 0.42 0.52 0.42 0.12 0.24 0.18 0.07 0.07 0.12 0.14 0.14 0.14 0.11 0.12 0.16 0.18 0.23 0.21 0.23 0.15 0.07 0.04 0.02 0.05 0.14 0.12 0.11 0.05 0.00 0.00 0.00 0.00 0.00 0.00 0.00 0.00
0.43 0.34 0.39 0.34 0.30 0.43 0.37 0.33 0.29 0.41 0.40 0.19 0.07 0.11 0.15 0.17 0.15 0.19 0.16 0.13 0.12 0.14 0.17 0.23 0.20 0.13 0.14 0.11 0.10 0.06 0.11 0.13 0.18 0.15 0.07 0.04 0.03 0.00 0.00 0.00 0.03 0.01 0.00 0.00
0.53 0.36 0.26 0.26 0.23 0.32 0.39 0.24 0.17 0.38 0.57 0.20 0.10 0.14 0.17 0.10 0.10 0.18 0.10 0.13 0.28 0.27 0.28 0.27 0.13 0.04 0.02 0.07 0.10 0.11 0.14 0.20 0.25 0.22 0.16 0.09 0.00 0.00 0.00 0.03 0.05 0.00 0.00 0.01
0.38 0.30 0.20 0.20 0.22 0.27 0.37 0.21 0.09 0.25 0.63 0.37 0.28 0.09 0.16 0.16 0.12 0.11 0.08 0.15 0.21 0.31 0.37 0.26 0.19 0.12 0.03 0.02 0.02 0.02 0.07 0.11 0.12 0.16 0.20 0.13 0.00 0.00 0.01 0.04 0.01 0.00 0.01 0.02
0.17 0.19 0.16 0.22 0.31 0.28 0.31 0.29 0.14 0.22 0.47 0.27 0.27 0.17 0.10 0.09 0.11 0.07 0.05 0.08 0.07 0.10 0.11 0.15 0.16 0.17 0.09 0.04 0.03 0.01 0.03 0.04 0.06 0.05 0.06 0.01 0.00 0.00 0.00 0.01 0.01 0.02 0.02 0.04
0.08 0.11 0.16 0.24 0.31 0.27 0.27 0.25 0.24 0.27 0.27 0.17 0.21 0.21 0.10 0.05 0.04 0.02 0.08 0.05 0.03 0.04 0.09 0.15 0.17 0.16 0.06 0.06 0.04 0.00 0.00 0.00 0.00 0.02 0.01 0.00 0.00 0.00 0.00 0.01 0.02 0.02 0.02 0.03
0.11 0.13 0.15 0.21 0.32 0.20 0.26 0.22 0.26 0.27 0.17 0.13 0.14 0.07 0.12 0.09 0.02 0.01 0.01 0.02 0.03 0.03 0.05 0.13 0.24 0.17 0.10 0.08 0.03 0.04 0.01 0.00 0.00 0.02 0.02 0.01 0.01 0.00 0.00 0.01 0.01 0.02 0.02 0.01
0.19 0.16 0.15 0.22 0.32 0.18 0.25 0.23 0.22 0.29 0.16 0.13 0.12 0.11 0.14 0.09 0.04 0.04 0.08 0.02 0.02 0.09 0.08 0.14 0.19 0.11 0.07 0.09 0.06 0.02 0.00 0.01 0.01 0.02 0.00 0.00 0.01 0.00 0.00 0.01 0.01 0.01 0.00 0.00
0.21 0.18 0.17 0.28 0.28 0.30 0.41 0.69 0.35 0.19 0.26 0.18 0.10 0.16 0.14 0.06 0.04 0.10 0.10 0.10 0.03 0.11 0.18 0.11 0.11 0.12 0.12 0.08 0.04 0.01 0.00 0.00 0.00 0.00 0.00 0.00 0.00 0.00 0.00 0.00 0.01 0.00 0.00 0.00
0.16 0.19 0.20 0.28 0.28 0.22 0.15 0.19 0.09 0.07 0.20 0.37 0.28 0.26 0.27 0.26 0.18 0.18 0.10 0.16 0.09 0.05 0.16 0.16 0.14 0.12 0.06 0.11 0.05 0.00 0.00 0.00 0.00 0.00 0.00 0.01 0.00 0.01 0.00 0.00 0.00 0.00 0.00 0.00
0.15 0.20 0.25 0.34 0.30 0.24 0.07 0.02 0.06 0.12 0.25 0.21 0.13 0.18 0.40 0.31 0.19 0.18 0.07 0.11 0.17 0.11 0.07 0.07 0.05 0.03 0.04 0.03 0.00 0.00 0.00 0.00 0.00 0.00 0.00 0.00 0.00 0.00 0.00 0.00 0.00 0.00 0.00 0.00
0.27 0.39 0.54 0.59 0.40 0.22 0.10 0.04 0.25 0.23 0.20 0.19 0.07 0.14 0.29 0.26 0.14 0.09 0.05 0.07 0.13 0.10 0.02 0.01 0.01 0.03 0.03 0.01 0.00 0.00 0.00 0.00 0.00 0.00 0.00 0.00 0.00 0.00 0.00 0.00 0.00 0.00 0.00 0.00
0.39 0.40 0.43 0.44 0.20 0.17 0.19 0.35 0.54 0.51 0.36 0.20 0.04 0.05 0.16 0.12 0.05 0.04 0.02 0.01 0.01 0.02 0.01 0.00 0.01 0.02 0.00 0.00 0.00 0.00 0.00 0.00 0.00 0.00 0.00 0.00 0.00 0.00 0.00 0.00 0.00 0.00 0.00 0.00
0.19 0.19 0.29 0.35 0.41 0.24 0.28 0.32 0.23 0.13 0.16 0.05 0.01 0.01 0.02 0.01 0.01 0.01 0.01 0.01 0.01 0.02 0.04 0.01 0.02 0.02 0.00 0.00 0.00 0.00 0.00 0.00 0.00 0.00 0.00 0.00 0.00 0.00 0.00 0.00 0.00 0.00 0.00 0.00
0.04 0.05 0.16 0.30 0.20 0.12 0.10 0.03 0.01 0.00 0.00 0.00 0.01 0.01 0.01 0.00 0.00 0.01 0.00 0.01 0.01 0.07 0.04 0.02 0.05 0.04 0.00 0.00 0.00 0.00 0.00 0.00 0.00 0.00 0.00 0.00 0.00 0.00 0.00 0.00 0.00 0.00 0.00 0.00
0.02 0.00 0.04 0.05 0.01 0.01 0.00 0.00 0.00 0.00 0.00 0.01 0.01 0.01 0.01 0.01 0.01 0.01 0.00 0.01 0.04 0.03 0.05 0.10 0.08 0.01 0.01 0.00 0.00 0.00 0.00 0.00 0.00 0.00 0.00 0.00 0.00 0.00 0.01 0.02 0.01 0.02 0.03 0.02
0.00 0.01 0.03 0.01 0.00 0.01 0.02 0.01 0.00 0.00 0.01 0.02 0.02 0.01 0.01 0.02 0.01 0.00 0.01 0.01 0.00 0.02 0.09 0.17 0.01 0.01 0.01 0.01 0.01 0.00 0.02 0.02 0.02 0.01 0.00 0.00 0.01 0.04 0.09 0.08 0.06 0.04 0.04 0.05
0.00 0.00 0.01 0.02 0.03 0.04 0.02 0.02 0.01 0.00 0.02 0.01 0.01 0.01 0.01 0.00 0.00 0.00 0.00 0.00 0.01 0.05 0.19 0.09 0.00 0.01 0.02 0.03 0.02 0.02 0.03 0.03 0.03 0.02 0.01 0.01 0.02 0.05 0.13 0.16 0.12 0.10 0.08 0.08
0.00 0.02 0.05 0.05 0.05 0.09 0.06 0.04 0.01 0.01 0.03 0.03 0.01 0.01 0.01 0.00 0.00 0.00 0.00 0.02 0.10 0.08 0.01 0.01 0.01 0.02 0.03 0.02 0.03 0.02 0.02 0.02 0.02 0.02 0.04 0.07 0.08 0.08 0.12 0.17 0.17 0.16 0.10 0.07
0.02 0.07 0.11 0.11 0.08 0.14 0.11 0.04 0.02 0.03 0.06 0.02 0.01 0.00 0.00 0.00 0.00 0.01 0.01 0.04 0.04 0.01 0.01 0.01 0.01 0.01 0.03 0.06 0.06 0.05 0.04 0.04 0.04 0.04 0.09 0.13 0.14 0.11 0.11 0.11 0.14 0.14 0.13 0.11

GFSNW_prec_precacc24_129.txt.gz
Total_Precipitation_Accumulation
0.23 0.53 0.82 0.70 0.51 0.79 1.22 1.30 0.94 0.25 0.32 0.93 0.93 0.39 0.06 0.02 0.02 0.03 0.03 0.01 0.00 0.00 0.00 0.00 0.01 0.02 0.04 0.01 0.02 0.05 0.07 0.11 0.04 0.01 0.00 0.01 0.03 0.02 0.13 0.32 0.35 0.36 0.31 0.37
0.16 0.37 0.58 1.01 0.92 1.03 1.34 1.40 0.83 0.40 0.67 0.62 0.37 0.11 0.03 0.04 0.02 0.03 0.04 0.02 0.00 0.00 0.00 0.02 0.01 0.02 0.01 0.00 0.02 0.09 0.24 0.33 0.23 0.16 0.11 0.05 0.03 0.01 0.06 0.15 0.23 0.17 0.21 0.16
0.18 0.32 0.44 0.59 1.08 1.35 1.48 1.56 1.13 1.08 1.11 0.36 0.08 0.05 0.08 0.12 0.03 0.03 0.05 0.04 0.03 0.01 0.00 0.01 0.02 0.02 0.01 0.00 0.01 0.06 0.18 0.17 0.14 0.12 0.09 0.08 0.09 0.06 0.11 0.21 0.31 0.14 0.06 0.04
0.35 0.43 0.42 0.48 0.69 1.42 1.75 1.84 1.16 0.49 0.71 0.31 0.06 0.07 0.05 0.02 0.05 0.08 0.09 0.13 0.05 0.03 0.04 0.02 0.02 0.03 0.01 0.00 0.01 0.02 0.10 0.06 0.04 0.03 0.06 0.09 0.08 0.06 0.07 0.17 0.16 0.20 0.07 0.03
0.32 0.46 0.56 0.51 0.62 1.24 1.71 1.52 0.78 0.42 0.06 0.01 0.05 0.15 0.17 0.03 0.01 0.08 0.09 0.13 0.06 0.10 0.08 0.02 0.02 0.05 0.05 0.03 0.02 0.04 0.07 0.09 0.04 0.03 0.01 0.03 0.03 0.01 0.01 0.04 0.05 0.09 0.06 0.06
0.24 0.53 0.61 0.58 0.67 1.30 1.97 1.21 0.46 0.49 0.48 0.14 0.15 0.14 0.04 0.06 0.15 0.09 0.03 0.05 0.15 0.18 0.14 0.11 0.07 0.09 0.07 0.08 0.07 0.10 0.09 0.09 0.12 0.11 0.03 0.22 0.24 0.00 0.00 0.00 0.00 0.00 0.00 0.00
0.23 0.47 0.59 0.64 0.70 0.94 0.69 0.51 0.49 0.48 0.41 0.48 0.21 0.02 0.01 0.02 0.11 0.16 0.12 0.14 0.12 0.07 0.09 0.15 0.21 0.15 0.06 0.03 0.03 0.05 0.10 0.12 0.24 0.18 0.15 0.39 0.08 0.00 0.00 0.00 0.00 0.00 0.00 0.00
0.20 0.34 0.51 0.49 0.66 0.81 0.46 0.39 0.48 0.58 0.45 0.14 0.25 0.18 0.07 0.07 0.14 0.16 0.17 0.15 0.13 0.14 0.20 0.22 0.26 0.22 0.26 0.15 0.07 0.04 0.02 0.07 0.19 0.15 0.13 0.06 0.00 0.00 0.00 0.00 0.00 0.00 0.00 0.00
0.36 0.35 0.43 0.38 0.56 1.02 0.49 0.45 0.35 0.45 0.42 0.22 0.09 0.12 0.16 0.18 0.17 0.23 0.18 0.15 0.14 0.16 0.21 0.29 0.24 0.14 0.15 0.11 0.10 0.06 0.11 0.14 0.22 0.17 0.09 0.04 0.01 0.00 0.00 0.00 0.02 0.00 0.00 0.00
0.52 0.37 0.34 0.38 0.47 0.76 0.63 0.39 0.23 0.45 0.62 0.23 0.11 0.16 0.19 0.12 0.12 0.19 0.12 0.15 0.30 0.30 0.33 0.33 0.15 0.05 0.03 0.08 0.10 0.13 0.15 0.23 0.28 0.23 0.17 0.07 0.00 0.00 0.00 0.01 0.02 0.00 0.00 0.00
0.42 0.31 0.26 0.36 0.46 0.51 0.60 0.33 0.13 0.28 0.66 0.38 0.29 0.11 0.18 0.17 0.14 0.13 0.11 0.19 0.25 0.36 0.41 0.29 0.21 0.13 0.03 0.02 0.01 0.02 0.09 0.14 0.15 0.21 0.25 0.13 0.00 0.00 0.00 0.01 0.00 0.00 0.00 0.01
0.45 0.26 0.20 0.33 0.48 0.36 0.34 0.31 0.15 0.22 0.47 0.28 0.27 0.18 0.10 0.09 0.11 0.08 0.08 0.09 0.10 0.14 0.15 0.17 0.18 0.19 0.10 0.05 0.03 0.01 0.03 0.03 0.06 0.10 0.11 0.03 0.00 0.00 0.00 0.00 0.00 0.00 0.00 0.01
0.26 0.24 0.22 0.32 0.35 0.27 0.27 0.25 0.24 0.27 0.27 0.17 0.21 0.21 0.10 0.05 0.04 0.02 0.11 0.08 0.07 0.10 0.16 0.24 0.25 0.22 0.08 0.08 0.04 0.02 0.01 0.01 0.01 0.02 0.01 0.00 0.00 0.00 0.00 0.00 0.00 0.00 0.00 0.00
0.12 0.15 0.18 0.27 0.34 0.20 0.26 0.23 0.26 0.27 0.17 0.13 0.14 0.07 0.12 0.09 0.02 0.01 0.01 0.04 0.04 0.06 0.11 0.21 0.30 0.26 0.19 0.16 0.09 0.08 0.06 0.03 0.03 0.04 0.02 0.01 0.01 0.00 0.00 0.00 0.00 0.00 0.00 0.00
0.16 0.15 0.16 0.24 0.33 0.19 0.27 0.26 0.23 0.30 0.16 0.14 0.13 0.12 0.14 0.09 0.04 0.04 0.08 0.03 0.04 0.11 0.12 0.19 0.22 0.14 0.12 0.13 0.09 0.03 0.01 0.02 0.02 0.05 0.03 0.02 0.02 0.00 0.00 0.00 0.00 0.00 0.00 0.00
0.18 0.18 0.17 0.29 0.29 0.32 0.45 0.71 0.37 0.20 0.26 0.19 0.10 0.18 0.15 0.07 0.04 0.10 0.10 0.11 0.05 0.14 0.21 0.15 0.16 0.17 0.18 0.15 0.08 0.03 0.00 0.00 0.00 0.01 0.00 0.00 0.00 0.00 0.00 0.00 0.00 0.00 0.00 0.00
0.15 0.20 0.21 0.30 0.29 0.25 0.16 0.21 0.11 0.07 0.22 0.38 0.29 0.30 0.29 0.27 0.20 0.20 0.12 0.18 0.11 0.08 0.17 0.18 0.16 0.15 0.12 0.14 0.08 0.03 0.01 0.00 0.00 0.00 0.00 0.00 0.00 0.00 0.00 0.00 0.00 0.00 0.00 0.00
0.16 0.22 0.27 0.36 0.33 0.27 0.07 0.04 0.06 0.12 0.25 0.22 0.15 0.21 0.45 0.33 0.22 0.21 0.09 0.13 0.19 0.13 0.10 0.09 0.07 0.09 0.16 0.15 0.02 0.00 0.00 0.00 0.00 0.00 0.00 0.00 0.00 0.00 0.00 0.00 0.00 0.00 0.00 0.00
0.30 0.42 0.59 0.64 0.44 0.23 0.11 0.04 0.35 0.32 0.23 0.21 0.08 0.17 0.44 0.39 0.21 0.12 0.09 0.09 0.18 0.15 0.05 0.04 0.06 0.09 0.10 0.03 0.02 0.00 0.00 0.00 0.00 0.00 0.00 0.00 0.00 0.00 0.00 0.00 0.00 0.00 0.00 0.00
0.42 0.43 0.46 0.46 0.21 0.18 0.20 0.36 0.59 0.66 0.42 0.22 0.11 0.10 0.31 0.31 0.16 0.11 0.07 0.06 0.09 0.07 0.05 0.02 0.06 0.05 0.02 0.00 0.00 0.00 0.00 0.00 0.00 0.00 0.00 0.00 0.00 0.00 0.00 0.00 0.00 0.00 0.00 0.00
0.21 0.22 0.35 0.39 0.42 0.29 0.32 0.39 0.27 0.17 0.28 0.11 0.04 0.06 0.25 0.16 0.09 0.05 0.03 0.05 0.04 0.07 0.06 0.03 0.04 0.03 0.01 0.00 0.00 0.00 0.00 0.00 0.00 0.00 0.00 0.00 0.00 0.00 0.00 0.00 0.00 0.00 0.00 0.00
0.06 0.14 0.25 0.33 0.24 0.22 0.18 0.16 0.08 0.06 0.11 0.02 0.02 0.03 0.14 0.04 0.01 0.02 0.01 0.01 0.01 0.05 0.03 0.02 0.03 0.02 0.00 0.00 0.00 0.00 0.00 0.00 0.00 0.00 0.00 0.00 0.00 0.00 0.00 0.00 0.00 0.00 0.00 0.00
0.08 0.12 0.11 0.15 0.07 0.13 0.03 0.00 0.00 0.01 0.01 0.01 0.02 0.02 0.03 0.02 0.02 0.01 0.00 0.01 0.02 0.02 0.03 0.05 0.04 0.01 0.00 0.00 0.00 0.00 0.00 0.00 0.00 0.00 0.00 0.00 0.00 0.00 0.01 0.02 0.01 0.02 0.03 0.02
0.02 0.03 0.04 0.02 0.01 0.01 0.02 0.02 0.01 0.01 0.01 0.02 0.04 0.02 0.03 0.02 0.00 0.00 0.01 0.01 0.00 0.01 0.05 0.11 0.01 0.01 0.01 0.01 0.00 0.00 0.01 0.01 0.01 0.00 0.00 0.00 0.00 0.04 0.09 0.08 0.06 0.04 0.04 0.06
0.00 0.01 0.01 0.02 0.03 0.03 0.01 0.01 0.01 0.00 0.02 0.03 0.02 0.02 0.01 0.00 0.00 0.00 0.00 0.00 0.00 0.03 0.15 0.08 0.00 0.01 0.02 0.03 0.02 0.01 0.02 0.01 0.01 0.01 0.00 0.01 0.02 0.06 0.13 0.17 0.13 0.10 0.09 0.10
0.00 0.01 0.04 0.04 0.05 0.08 0.05 0.02 0.00 0.00 0.02 0.04 0.02 0.01 0.01 0.00 0.00 0.00 0.00 0.01 0.07 0.06 0.01 0.01 0.01 0.02 0.03 0.02 0.02 0.02 0.02 0.01 0.01 0.02 0.03 0.07 0.08 0.08 0.12 0.17 0.18 0.16 0.11 0.09
0.02 0.07 0.11 0.10 0.07 0.13 0.10 0.03 0.01 0.02 0.06 0.02 0.01 0.00 0.00 0.00 0.00 0.01 0.01 0.03 0.03 0.02 0.01 0.02 0.01 0.01 0.03 0.06 0.06 0.05 0.04 0.04 0.04 0.04 0.09 0.13 0.14 0.12 0.11 0.12 0.14 0.15 0.14 0.13

GFSNW_prec_precacc24_132.txt.gz
Total_Precipitation_Accumulation
0.17 0.38 0.71 0.63 0.50 0.80 1.22 1.55 1.32 0.44 0.36 1.08 1.10 0.48 0.07 0.01 0.02 0.03 0.03 0.01 0.00 0.00 0.00 0.00 0.00 0.00 0.03 0.01 0.02 0.05 0.07 0.11 0.03 0.00 0.00 0.01 0.03 0.02 0.08 0.19 0.20 0.31 0.27 0.26
0.11 0.18 0.34 0.85 0.90 1.05 1.35 1.51 1.11 0.52 0.78 1.10 0.61 0.12 0.02 0.04 0.02 0.04 0.06 0.02 0.00 0.00 0.00 0.01 0.00 0.02 0.02 0.00 0.02 0.09 0.24 0.33 0.22 0.15 0.11 0.05 0.03 0.01 0.06 0.14 0.23 0.17 0.20 0.09
0.13 0.12 0.19 0.36 1.03 1.36 1.47 1.51 1.28 1.33 1.45 0.73 0.17 0.05 0.08 0.12 0.03 0.03 0.06 0.04 0.03 0.01 0.00 0.01 0.01 0.03 0.02 0.00 0.01 0.06 0.19 0.17 0.14 0.11 0.08 0.09 0.11 0.07 0.11 0.23 0.35 0.17 0.08 0.03
0.31 0.20 0.16 0.27 0.62 1.43 1.78 1.84 1.25 0.75 1.17 0.69 0.14 0.05 0.04 0.02 0.05 0.08 0.10 0.16 0.04 0.02 0.03 0.01 0.01 0.03 0.02 0.01 0.01 0.02 0.10 0.06 0.04 0.03 0.06 0.10 0.10 0.08 0.08 0.18 0.18 0.24 0.08 0.05
0.31 0.35 0.35 0.26 0.52 1.19 1.71 1.60 0.82 0.53 0.26 0.15 0.08 0.14 0.16 0.03 0.01 0.08 0.09 0.13 0.05 0.09 0.08 0.03 0.01 0.05 0.07 0.04 0.02 0.04 0.07 0.09 0.05 0.03 0.01 0.03 0.07 0.03 0.01 0.04 0.05 0.09 0.06 0.06
0.21 0.34 0.46 0.42 0.58 1.32 2.00 1.27 0.51 0.53 0.58 0.18 0.24 0.17 0.04 0.05 0.14 0.08 0.03 0.04 0.14 0.17 0.13 0.12 0.08 0.11 0.09 0.09 0.08 0.11 0.11 0.09 0.13 0.13 0.04 0.23 0.26 0.01 0.00 0.00 0.00 0.00 0.00 0.00
0.20 0.24 0.41 0.53 0.63 0.98 0.78 0.51 0.58 0.65 0.47 0.56 0.30 0.03 0.01 0.01 0.08 0.15 0.12 0.14 0.11 0.06 0.09 0.16 0.21 0.15 0.08 0.04 0.03 0.06 0.14 0.19 0.35 0.26 0.19 0.49 0.11 0.00 0.00 0.00 0.00 0.00 0.00 0.00
0.18 0.22 0.33 0.42 0.64 0.82 0.53 0.44 0.49 0.77 0.66 0.17 0.26 0.18 0.07 0.05 0.09 0.15 0.19 0.16 0.13 0.16 0.25 0.28 0.30 0.27 0.33 0.16 0.07 0.04 0.03 0.11 0.35 0.30 0.18 0.08 0.00 0.00 0.00 0.00 0.01 0.00 0.00 0.00
0.31 0.25 0.33 0.35 0.56 1.00 0.49 0.45 0.40 0.51 0.49 0.35 0.10 0.12 0.17 0.18 0.17 0.26 0.19 0.16 0.16 0.19 0.26 0.40 0.31 0.18 0.17 0.13 0.11 0.07 0.11 0.15 0.28 0.25 0.14 0.05 0.00 0.00 0.00 0.01 0.03 0.00 0.00 0.00
0.47 0.31 0.31 0.38 0.54 0.78 0.66 0.43 0.26 0.52 0.57 0.24 0.14 0.16 0.18 0.12 0.13 0.27 0.15 0.19 0.33 0.34 0.35 0.36 0.17 0.06 0.04 0.11 0.12 0.16 0.16 0.23 0.29 0.23 0.18 0.06 0.00 0.00 0.00 0.02 0.01 0.00 0.00 0.00
0.37 0.27 0.27 0.46 0.56 0.61 0.71 0.42 0.17 0.31 0.55 0.38 0.28 0.11 0.17 0.19 0.17 0.17 0.13 0.23 0.27 0.39 0.43 0.31 0.22 0.12 0.03 0.03 0.01 0.02 0.12 0.18 0.17 0.22 0.27 0.13 0.00 0.00 0.00 0.00 0.00 0.00 0.00 0.00
0.48 0.26 0.23 0.55 0.71 0.58 0.64 0.46 0.29 0.31 0.45 0.29 0.28 0.18 0.11 0.10 0.12 0.09 0.09 0.10 0.11 0.15 0.16 0.18 0.19 0.19 0.10 0.05 0.02 0.01 0.03 0.03 0.06 0.12 0.14 0.04 0.00 0.00 0.00 0.00 0.00 0.00 0.00 0.00
0.52 0.36 0.33 0.69 0.74 0.49 0.48 0.28 0.31 0.35 0.33 0.17 0.21 0.21 0.10 0.05 0.04 0.03 0.14 0.10 0.08 0.11 0.17 0.26 0.29 0.24 0.10 0.08 0.04 0.04 0.01 0.00 0.02 0.04 0.01 0.00 0.00 0.00 0.00 0.00 0.00 0.00 0.00 0.00
0.38 0.48 0.53 0.61 0.48 0.30 0.33 0.21 0.27 0.25 0.16 0.11 0.14 0.07 0.12 0.09 0.02 0.01 0.02 0.05 0.04 0.07 0.13 0.23 0.30 0.27 0.19 0.18 0.13 0.12 0.11 0.07 0.07 0.07 0.04 0.02 0.01 0.00 0.00 0.00 0.00 0.00 0.00 0.00
0.27 0.38 0.39 0.32 0.33 0.20 0.28 0.25 0.23 0.28 0.13 0.14 0.14 0.12 0.14 0.09 0.04 0.04 0.08 0.03 0.04 0.12 0.13 0.19 0.20 0.14 0.14 0.15 0.12 0.04 0.01 0.04 0.06 0.07 0.08 0.05 0.08 0.04 0.02 0.00 0.00 0.00 0.00 0.00
0.18 0.25 0.22 0.31 0.30 0.33 0.42 0.69 0.37 0.20 0.26 0.18 0.10 0.19 0.15 0.07 0.04 0.10 0.10 0.11 0.06 0.16 0.22 0.15 0.16 0.18 0.24 0.17 0.08 0.04 0.02 0.01 0.02 0.03 0.02 0.01 0.01 0.01 0.01 0.00 0.00 0.00 0.00 0.00
0.15 0.20 0.21 0.30 0.29 0.26 0.16 0.22 0.13 0.07 0.22 0.38 0.29 0.31 0.30 0.29 0.21 0.23 0.14 0.23 0.17 0.13 0.20 0.19 0.17 0.18 0.14 0.15 0.07 0.03 0.01 0.01 0.01 0.00 0.00 0.00 0.00 0.00 0.00 0.00 0.00 0.00 0.00 0.00
0.16 0.22 0.27 0.37 0.34 0.28 0.10 0.05 0.07 0.13 0.26 0.22 0.15 0.24 0.47 0.35 0.26 0.27 0.16 0.20 0.24 0.19 0.13 0.11 0.08 0.11 0.18 0.16 0.03 0.01 0.01 0.00 0.00 0.00 0.00 0.00 0.00 0.00 0.00 0.00 0.00 0.00 0.00 0.00
0.31 0.43 0.60 0.65 0.44 0.24 0.14 0.04 0.35 0.33 0.24 0.22 0.09 0.18 0.51 0.44 0.24 0.16 0.12 0.11 0.21 0.17 0.07 0.04 0.07 0.10 0.11 0.03 0.04 0.03 0.01 0.00 0.00 0.00 0.00 0.00 0.00 0.00 0.00 0.00 0.00 0.00 0.00 0.00
0.43 0.44 0.46 0.47 0.22 0.19 0.20 0.36 0.59 0.67 0.43 0.23 0.11 0.10 0.36 0.40 0.23 0.14 0.11 0.09 0.12 0.09 0.05 0.03 0.09 0.07 0.02 0.01 0.02 0.02 0.00 0.00 0.00 0.00 0.00 0.00 0.00 0.00 0.00 0.00 0.00 0.00 0.00 0.00
0.25 0.26 0.38 0.44 0.43 0.29 0.32 0.39 0.27 0.18 0.30 0.11 0.04 0.05 0.29 0.24 0.24 0.11 0.09 0.11 0.08 0.12 0.08 0.04 0.06 0.03 0.04 0.01 0.00 0.00 0.00 0.00 0.00 0.00 0.00 0.00 0.00 0.00 0.00 0.00 0.00 0.00 0.00 0.00
0.09 0.16 0.27 0.35 0.25 0.25 0.20 0.19 0.10 0.08 0.17 0.05 0.03 0.06 0.25 0.19 0.16 0.13 0.07 0.07 0.05 0.12 0.08 0.05 0.06 0.03 0.01 0.00 0.00 0.00 0.00 0.00 0.00 0.00 0.00 0.00 0.00 0.00 0.00 0.00 0.00 0.00 0.00 0.00
0.15 0.20 0.12 0.19 0.09 0.19 0.05 0.02 0.02 0.09 0.07 0.04 0.04 0.10 0.14 0.14 0.15 0.04 0.02 0.02 0.03 0.03 0.03 0.02 0.02 0.00 0.00 0.00 0.00 0.00 0.00 0.00 0.00 0.00 0.00 0.00 0.00 0.00 0.01 0.02 0.01 0.02 0.03 0.02
0.21 0.13 0.11 0.12 0.04 0.04 0.03 0.05 0.06 0.04 0.05 0.04 0.07 0.05 0.07 0.05 0.01 0.01 0.01 0.00 0.00 0.01 0.01 0.04 0.01 0.01 0.01 0.00 0.00 0.00 0.01 0.01 0.00 0.00 0.00 0.00 0.00 0.04 0.09 0.08 0.06 0.04 0.04 0.06
0.06 0.01 0.01 0.01 0.04 0.03 0.01 0.01 0.00 0.00 0.04 0.08 0.05 0.03 0.03 0.01 0.00 0.00 0.00 0.00 0.00 0.01 0.08 0.06 0.00 0.01 0.02 0.01 0.01 0.01 0.01 0.01 0.00 0.00 0.00 0.01 0.02 0.05 0.13 0.17 0.13 0.10 0.10 0.12
0.00 0.01 0.03 0.04 0.06 0.07 0.03 0.01 0.00 0.01 0.04 0.06 0.03 0.01 0.01 0.00 0.00 0.00 0.00 0.00 0.02 0.03 0.01 0.01 0.01 0.02 0.03 0.01 0.01 0.01 0.00 0.00 0.01 0.01 0.03 0.07 0.08 0.08 0.12 0.17 0.19 0.17 0.11 0.10
0.01 0.06 0.09 0.06 0.09 0.12 0.08 0.02 0.01 0.01 0.07 0.03 0.00 0.00 0.00 0.00 0.00 0.00 0.00 0.01 0.02 0.02 0.02 0.02 0.01 0.01 0.02 0.03 0.02 0.02 0.01 0.02 0.03 0.04 0.08 0.13 0.14 0.12 0.11 0.12 0.15 0.15 0.15 0.14

GFSNW_prec_precacc24_135.txt.gz
Total_Precipitation_Accumulation
0.17 0.37 0.70 0.60 0.43 0.71 1.18 1.48 1.22 0.43 0.39 1.35 1.55 0.68 0.10 0.00 0.00 0.01 0.01 0.01 0.00 0.00 0.00 0.00 0.00 0.00 0.01 0.00 0.00 0.03 0.06 0.09 0.03 0.00 0.00 0.01 0.02 0.02 0.06 0.13 0.10 0.11 0.16 0.18
0.10 0.17 0.34 0.80 0.75 0.92 1.31 1.45 0.99 0.49 0.75 1.27 0.94 0.27 0.03 0.02 0.01 0.02 0.05 0.03 0.00 0.00 0.00 0.01 0.00 0.02 0.03 0.01 0.02 0.07 0.22 0.28 0.21 0.15 0.11 0.05 0.03 0.01 0.04 0.12 0.22 0.16 0.19 0.06
0.12 0.11 0.19 0.34 0.82 1.08 1.31 1.39 1.17 1.26 1.27 0.75 0.37 0.22 0.12 0.07 0.01 0.03 0.08 0.05 0.03 0.01 0.00 0.01 0.01 0.07 0.08 0.05 0.05 0.07 0.20 0.17 0.14 0.10 0.08 0.09 0.11 0.07 0.11 0.23 0.35 0.17 0.08 0.02
0.30 0.19 0.15 0.26 0.44 1.17 1.51 1.71 1.18 0.74 1.14 0.73 0.21 0.11 0.10 0.04 0.04 0.08 0.13 0.28 0.05 0.03 0.04 0.01 0.01 0.08 0.11 0.11 0.15 0.16 0.22 0.16 0.07 0.04 0.06 0.10 0.11 0.09 0.08 0.19 0.20 0.27 0.09 0.05
0.30 0.34 0.34 0.22 0.39 0.91 1.43 1.50 0.76 0.45 0.26 0.18 0.18 0.18 0.16 0.04 0.01 0.08 0.10 0.15 0.06 0.11 0.08 0.02 0.02 0.08 0.12 0.06 0.04 0.10 0.14 0.17 0.11 0.04 0.01 0.03 0.07 0.04 0.01 0.04 0.06 0.10 0.07 0.06
0.20 0.33 0.44 0.40 0.38 0.93 1.76 1.23 0.50 0.34 0.31 0.16 0.31 0.26 0.09 0.06 0.12 0.07 0.03 0.04 0.14 0.16 0.11 0.12 0.08 0.11 0.09 0.10 0.08 0.11 0.12 0.10 0.13 0.13 0.04 0.23 0.27 0.01 0.00 0.00 0.00 0.00 0.00 0.01
0.19 0.22 0.38 0.50 0.49 0.71 0.73 0.49 0.56 0.64 0.41 0.38 0.30 0.05 0.02 0.01 0.06 0.13 0.11 0.14 0.12 0.06 0.09 0.15 0.21 0.15 0.08 0.04 0.03 0.06 0.14 0.20 0.36 0.27 0.19 0.51 0.12 0.00 0.00 0.00 0.00 0.00 0.00 0.00
0.17 0.21 0.31 0.39 0.54 0.72 0.51 0.42 0.47 0.77 0.70 0.18 0.24 0.17 0.06 0.05 0.07 0.11 0.15 0.15 0.13 0.17 0.27 0.28 0.30 0.27 0.33 0.16 0.07 0.04 0.03 0.12 0.36 0.34 0.24 0.12 0.01 0.00 0.00 0.01 0.01 0.00 0.00 0.00
0.28 0.23 0.29 0.26 0.51 0.92 0.48 0.45 0.38 0.51 0.62 0.39 0.13 0.12 0.17 0.17 0.14 0.23 0.18 0.22 0.16 0.20 0.27 0.41 0.32 0.19 0.18 0.13 0.11 0.07 0.11 0.15 0.29 0.29 0.24 0.12 0.00 0.00 0.00 0.01 0.03 0.00 0.00 0.00
0.45 0.28 0.27 0.27 0.49 0.74 0.63 0.38 0.28 0.53 0.73 0.20 0.21 0.22 0.15 0.10 0.12 0.26 0.21 0.27 0.36 0.35 0.36 0.38 0.18 0.06 0.04 0.12 0.13 0.16 0.17 0.23 0.30 0.25 0.22 0.09 0.00 0.00 0.00 0.03 0.01 0.00 0.00 0.00
0.36 0.25 0.21 0.37 0.50 0.58 0.71 0.41 0.19 0.31 0.46 0.18 0.29 0.26 0.25 0.17 0.18 0.21 0.25 0.38 0.32 0.40 0.44 0.30 0.21 0.10 0.03 0.02 0.01 0.03 0.15 0.26 0.21 0.24 0.30 0.14 0.00 0.00 0.01 0.00 0.00 0.00 0.00 0.00
0.47 0.22 0.18 0.50 0.71 0.58 0.67 0.47 0.30 0.29 0.39 0.34 0.32 0.23 0.17 0.12 0.15 0.17 0.16 0.15 0.14 0.15 0.16 0.17 0.19 0.18 0.10 0.04 0.02 0.01 0.02 0.03 0.08 0.17 0.16 0.05 0.00 0.00 0.00 0.00 0.00 0.00 0.00 0.00
0.51 0.34 0.31 0.69 0.78 0.58 0.61 0.35 0.33 0.40 0.55 0.34 0.33 0.31 0.12 0.09 0.15 0.09 0.22 0.16 0.10 0.12 0.17 0.26 0.29 0.24 0.10 0.08 0.04 0.04 0.01 0.01 0.02 0.04 0.00 0.00 0.00 0.00 0.00 0.00 0.00 0.00 0.00 0.00
0.50 0.69 0.59 0.67 0.65 0.55 0.58 0.42 0.41 0.39 0.40 0.31 0.22 0.08 0.13 0.13 0.12 0.04 0.05 0.08 0.06 0.09 0.14 0.22 0.28 0.25 0.18 0.17 0.13 0.12 0.11 0.12 0.16 0.15 0.06 0.03 0.02 0.01 0.02 0.02 0.00 0.00 0.00 0.00
0.54 0.71 0.62 0.57 0.66 0.52 0.54 0.51 0.42 0.40 0.24 0.19 0.14 0.12 0.14 0.09 0.04 0.05 0.09 0.03 0.05 0.13 0.14 0.19 0.19 0.13 0.14 0.15 0.12 0.04 0.01 0.04 0.07 0.09 0.12 0.09 0.12 0.07 0.06 0.07 0.02 0.01 0.00 0.00
0.41 0.47 0.29 0.46 0.57 0.53 0.54 0.78 0.41 0.21 0.26 0.18 0.10 0.19 0.15 0.07 0.04 0.10 0.10 0.11 0.06 0.16 0.22 0.15 0.16 0.18 0.24 0.17 0.08 0.04 0.02 0.02 0.04 0.06 0.05 0.03 0.02 0.01 0.01 0.03 0.03 0.02 0.00 0.00
0.20 0.25 0.21 0.30 0.29 0.25 0.17 0.21 0.11 0.07 0.21 0.37 0.29 0.31 0.30 0.29 0.21 0.23 0.14 0.23 0.18 0.15 0.22 0.19 0.17 0.19 0.16 0.15 0.07 0.03 0.01 0.01 0.01 0.00 0.00 0.00 0.00 0.00 0.00 0.00 0.00 0.00 0.00 0.00
0.16 0.22 0.26 0.36 0.32 0.26 0.11 0.05 0.07 0.12 0.24 0.21 0.15 0.24 0.47 0.35 0.26 0.27 0.16 0.21 0.27 0.21 0.15 0.11 0.09 0.12 0.20 0.16 0.03 0.01 0.01 0.00 0.01 0.00 0.00 0.00 0.00 0.00 0.00 0.00 0.00 0.00 0.00 0.00
0.30 0.43 0.60 0.63 0.42 0.24 0.14 0.04 0.35 0.33 0.24 0.22 0.09 0.19 0.52 0.45 0.25 0.17 0.13 0.12 0.25 0.20 0.08 0.05 0.09 0.12 0.14 0.03 0.04 0.03 0.02 0.02 0.01 0.00 0.00 0.00 0.00 0.00 0.00 0.00 0.00 0.00 0.00 0.00
0.43 0.43 0.44 0.44 0.22 0.20 0.20 0.36 0.59 0.67 0.43 0.23 0.10 0.11 0.36 0.42 0.24 0.14 0.11 0.10 0.13 0.11 0.05 0.04 0.10 0.07 0.02 0.01 0.03 0.04 0.00 0.00 0.00 0.00 0.00 0.00 0.00 0.00 0.00 0.00 0.00 0.00 0.00 0.00
0.25 0.26 0.39 0.45 0.43 0.29 0.33 0.39 0.27 0.19 0.31 0.11 0.03 0.05 0.29 0.24 0.26 0.13 0.10 0.14 0.10 0.13 0.08 0.04 0.06 0.03 0.04 0.01 0.01 0.01 0.00 0.00 0.00 0.00 0.00 0.00 0.00 0.00 0.00 0.00 0.00 0.00 0.00 0.00
0.12 0.18 0.27 0.35 0.25 0.25 0.20 0.19 0.11 0.09 0.18 0.06 0.04 0.06 0.25 0.19 0.17 0.18 0.10 0.14 0.14 0.15 0.14 0.06 0.09 0.05 0.01 0.01 0.00 0.00 0.00 0.00 0.00 0.00 0.00 0.00 0.00 0.00 0.00 0.00 0.00 0.00 0.00 0.00
0.15 0.21 0.12 0.20 0.09 0.20 0.06 0.03 0.02 0.13 0.14 0.05 0.06 0.15 0.15 0.20 0.26 0.27 0.17 0.04 0.12 0.07 0.24 0.10 0.05 0.01 0.00 0.00 0.00 0.00 0.00 0.00 0.00 0.00 0.00 0.00 0.00 0.00 0.01 0.02 0.01 0.02 0.03 0.02
0.28 0.21 0.17 0.18 0.10 0.05 0.05 0.09 0.20 0.07 0.13 0.09 0.12 0.11 0.20 0.18 0.07 0.07 0.03 0.01 0.01 0.01 0.01 0.02 0.01 0.00 0.00 0.00 0.00 0.00 0.00 0.00 0.00 0.00 0.00 0.00 0.00 0.04 0.08 0.08 0.06 0.04 0.04 0.06
0.27 0.10 0.07 0.02 0.05 0.03 0.01 0.01 0.00 0.00 0.06 0.14 0.08 0.04 0.04 0.01 0.00 0.00 0.00 0.00 0.00 0.00 0.02 0.03 0.00 0.00 0.00 0.00 0.00 0.00 0.00 0.00 0.00 0.00 0.00 0.01 0.02 0.05 0.13 0.17 0.13 0.10 0.10 0.12
0.04 0.01 0.03 0.04 0.07 0.08 0.03 0.01 0.00 0.00 0.06 0.10 0.03 0.00 0.01 0.00 0.00 0.00 0.00 0.00 0.00 0.01 0.01 0.01 0.01 0.01 0.01 0.01 0.00 0.00 0.00 0.00 0.00 0.01 0.02 0.06 0.08 0.08 0.12 0.18 0.19 0.17 0.11 0.10
0.01 0.06 0.06 0.04 0.10 0.12 0.08 0.01 0.01 0.01 0.08 0.04 0.00 0.00 0.00 0.00 0.00 0.00 0.00 0.01 0.02 0.02 0.02 0.01 0.01 0.01 0.01 0.01 0.01 0.01 0.00 0.01 0.02 0.03 0.07 0.12 0.14 0.11 0.11 0.12 0.15 0.16 0.15 0.14

GFSNW_prec_precacc24_138.txt.gz
Total_Precipitation_Accumulation
0.14 0.35 0.69 0.59 0.40 0.65 1.12 1.43 1.17 0.43 0.40 1.23 1.57 0.80 0.11 0.00 0.00 0.00 0.00 0.00 0.00 0.00 0.00 0.00 0.00 0.01 0.02 0.00 0.00 0.01 0.03 0.07 0.02 0.00 0.00 0.01 0.02 0.02 0.05 0.12 0.09 0.06 0.07 0.03
0.09 0.15 0.32 0.79 0.72 0.84 1.26 1.30 0.94 0.46 0.72 1.16 0.89 0.31 0.05 0.01 0.00 0.01 0.03 0.01 0.00 0.00 0.00 0.01 0.00 0.02 0.04 0.05 0.03 0.05 0.13 0.15 0.12 0.10 0.09 0.05 0.03 0.01 0.04 0.10 0.19 0.15 0.18 0.04
0.12 0.10 0.17 0.32 0.81 1.02 1.24 1.20 1.03 1.18 1.17 0.70 0.33 0.22 0.14 0.08 0.01 0.02 0.06 0.07 0.02 0.01 0.00 0.01 0.01 0.08 0.08 0.07 0.13 0.20 0.23 0.12 0.08 0.07 0.07 0.09 0.11 0.07 0.11 0.22 0.35 0.17 0.08 0.02
0.30 0.19 0.14 0.22 0.41 1.13 1.35 1.39 0.96 0.72 1.12 0.71 0.21 0.11 0.09 0.04 0.02 0.04 0.10 0.34 0.09 0.03 0.04 0.01 0.03 0.09 0.11 0.12 0.20 0.28 0.45 0.42 0.24 0.07 0.08 0.11 0.12 0.09 0.08 0.19 0.21 0.28 0.09 0.05
0.30 0.35 0.33 0.20 0.36 0.84 1.34 1.27 0.60 0.41 0.26 0.18 0.18 0.17 0.11 0.04 0.01 0.04 0.07 0.11 0.04 0.12 0.09 0.03 0.04 0.10 0.13 0.07 0.04 0.15 0.28 0.38 0.33 0.19 0.18 0.13 0.11 0.05 0.03 0.09 0.09 0.13 0.08 0.07
0.20 0.33 0.45 0.40 0.35 0.84 1.58 1.13 0.44 0.30 0.29 0.14 0.31 0.27 0.09 0.04 0.06 0.04 0.02 0.06 0.14 0.17 0.12 0.14 0.10 0.12 0.10 0.10 0.09 0.12 0.14 0.11 0.18 0.17 0.15 0.34 0.32 0.02 0.01 0.02 0.02 0.02 0.02 0.01
0.19 0.23 0.38 0.49 0.46 0.67 0.71 0.45 0.50 0.57 0.34 0.22 0.18 0.04 0.02 0.01 0.03 0.08 0.06 0.11 0.16 0.08 0.09 0.18 0.22 0.16 0.08 0.04 0.03 0.06 0.15 0.20 0.37 0.28 0.19 0.53 0.15 0.00 0.00 0.00 0.00 0.00 0.00 0.00
0.16 0.20 0.30 0.37 0.51 0.68 0.48 0.34 0.45 0.74 0.66 0.16 0.11 0.04 0.03 0.04 0.05 0.06 0.08 0.10 0.16 0.18 0.34 0.45 0.33 0.26 0.32 0.16 0.07 0.04 0.03 0.11 0.35 0.34 0.24 0.13 0.02 0.00 0.00 0.01 0.01 0.00 0.00 0.00
0.28 0.22 0.28 0.24 0.47 0.87 0.43 0.34 0.35 0.51 0.60 0.39 0.12 0.10 0.11 0.16 0.14 0.21 0.15 0.15 0.14 0.30 0.48 0.62 0.36 0.19 0.17 0.13 0.11 0.07 0.11 0.15 0.29 0.29 0.24 0.12 0.00 0.00 0.00 0.01 0.04 0.00 0.00 0.00
0.43 0.27 0.24 0.24 0.45 0.67 0.49 0.31 0.26 0.54 0.73 0.20 0.21 0.23 0.14 0.09 0.13 0.28 0.20 0.27 0.36 0.41 0.53 0.44 0.23 0.07 0.04 0.12 0.13 0.16 0.17 0.23 0.30 0.25 0.24 0.09 0.00 0.00 0.00 0.03 0.01 0.00 0.00 0.00
0.34 0.23 0.19 0.35 0.45 0.53 0.59 0.36 0.18 0.32 0.47 0.14 0.11 0.24 0.30 0.23 0.20 0.23 0.28 0.47 0.54 0.65 0.50 0.34 0.22 0.10 0.03 0.02 0.01 0.03 0.15 0.26 0.22 0.26 0.32 0.15 0.00 0.00 0.01 0.00 0.00 0.00 0.00 0.00
0.45 0.21 0.16 0.42 0.55 0.51 0.66 0.43 0.25 0.28 0.39 0.23 0.10 0.11 0.19 0.22 0.22 0.26 0.26 0.27 0.23 0.31 0.19 0.18 0.19 0.17 0.09 0.04 0.02 0.01 0.02 0.03 0.08 0.17 0.18 0.04 0.00 0.00 0.00 0.00 0.00 0.00 0.00 0.00
0.51 0.34 0.27 0.55 0.59 0.52 0.62 0.35 0.31 0.40 0.56 0.31 0.20 0.32 0.19 0.18 0.28 0.23 0.41 0.25 0.13 0.19 0.19 0.26 0.29 0.23 0.10 0.08 0.04 0.04 0.01 0.01 0.02 0.04 0.00 0.00 0.00 0.00 0.00 0.00 0.00 0.00 0.00 0.00
0.50 0.69 0.58 0.61 0.60 0.56 0.61 0.44 0.40 0.38 0.48 0.38 0.30 0.35 0.30 0.22 0.49 0.18 0.19 0.15 0.07 0.09 0.16 0.23 0.28 0.23 0.18 0.17 0.13 0.12 0.11 0.12 0.16 0.15 0.06 0.03 0.01 0.01 0.03 0.04 0.02 0.00 0.00 0.00
0.55 0.80 0.72 0.68 0.77 0.59 0.66 0.52 0.42 0.40 0.43 0.51 0.38 0.39 0.28 0.13 0.50 0.28 0.19 0.09 0.12 0.15 0.14 0.19 0.19 0.13 0.13 0.15 0.12 0.04 0.01 0.04 0.07 0.09 0.12 0.09 0.11 0.07 0.07 0.07 0.02 0.01 0.00 0.00
0.55 0.63 0.55 0.81 0.87 0.71 0.76 0.91 0.56 0.43 0.43 0.39 0.26 0.28 0.18 0.08 0.17 0.21 0.20 0.18 0.10 0.16 0.22 0.15 0.16 0.18 0.24 0.17 0.08 0.04 0.02 0.02 0.04 0.06 0.05 0.03 0.02 0.01 0.01 0.03 0.03 0.02 0.00 0.00
0.31 0.30 0.26 0.42 0.35 0.32 0.24 0.26 0.17 0.24 0.44 0.56 0.36 0.33 0.31 0.29 0.21 0.23 0.15 0.24 0.18 0.15 0.22 0.19 0.17 0.19 0.16 0.15 0.07 0.03 0.01 0.01 0.01 0.00 0.00 0.00 0.00 0.00 0.00 0.00 0.00 0.00 0.00 0.00
0.16 0.21 0.23 0.30 0.30 0.26 0.11 0.05 0.07 0.13 0.25 0.21 0.15 0.24 0.47 0.35 0.26 0.27 0.16 0.21 0.27 0.21 0.15 0.11 0.09 0.12 0.20 0.16 0.03 0.01 0.01 0.00 0.01 0.01 0.00 0.00 0.00 0.00 0.00 0.00 0.00 0.00 0.00 0.00
0.29 0.40 0.54 0.59 0.41 0.24 0.14 0.04 0.35 0.33 0.23 0.22 0.09 0.19 0.52 0.45 0.25 0.17 0.13 0.12 0.25 0.20 0.08 0.05 0.09 0.12 0.14 0.03 0.04 0.04 0.02 0.02 0.02 0.01 0.02 0.01 0.00 0.00 0.00 0.00 0.00 0.00 0.00 0.00
0.43 0.40 0.40 0.39 0.22 0.20 0.20 0.36 0.59 0.67 0.43 0.23 0.10 0.11 0.36 0.42 0.24 0.14 0.11 0.10 0.13 0.12 0.05 0.04 0.10 0.07 0.02 0.01 0.03 0.05 0.03 0.03 0.02 0.01 0.01 0.00 0.00 0.00 0.00 0.00 0.00 0.00 0.00 0.00
0.24 0.25 0.38 0.45 0.43 0.29 0.33 0.39 0.27 0.19 0.31 0.11 0.03 0.05 0.29 0.24 0.26 0.13 0.10 0.14 0.10 0.13 0.08 0.04 0.06 0.03 0.04 0.01 0.01 0.02 0.01 0.02 0.01 0.00 0.00 0.00 0.00 0.00 0.00 0.00 0.00 0.00 0.00 0.00
0.12 0.18 0.27 0.35 0.25 0.25 0.20 0.19 0.11 0.09 0.18 0.06 0.04 0.06 0.25 0.19 0.17 0.18 0.10 0.14 0.16 0.16 0.14 0.07 0.09 0.05 0.02 0.02 0.00 0.01 0.00 0.00 0.00 0.00 0.00 0.00 0.00 0.00 0.00 0.00 0.00 0.00 0.00 0.00
0.15 0.21 0.13 0.20 0.09 0.20 0.06 0.03 0.03 0.13 0.16 0.06 0.07 0.15 0.15 0.21 0.26 0.27 0.19 0.04 0.15 0.16 0.41 0.28 0.07 0.03 0.00 0.00 0.00 0.00 0.00 0.00 0.00 0.00 0.00 0.00 0.00 0.00 0.00 0.01 0.01 0.02 0.03 0.02
0.29 0.22 0.18 0.19 0.15 0.05 0.07 0.14 0.36 0.18 0.36 0.31 0.24 0.16 0.28 0.26 0.09 0.12 0.15 0.04 0.02 0.03 0.02 0.04 0.01 0.01 0.00 0.00 0.00 0.00 0.00 0.00 0.00 0.00 0.00 0.00 0.00 0.01 0.04 0.06 0.05 0.04 0.04 0.06
0.36 0.26 0.24 0.05 0.16 0.07 0.03 0.03 0.01 0.00 0.15 0.41 0.20 0.12 0.17 0.08 0.01 0.03 0.01 0.00 0.00 0.00 0.01 0.02 0.00 0.00 0.00 0.00 0.00 0.00 0.00 0.00 0.00 0.00 0.00 0.00 0.01 0.04 0.09 0.13 0.12 0.10 0.10 0.12
0.22 0.09 0.04 0.04 0.08 0.10 0.03 0.01 0.00 0.00 0.15 0.17 0.04 0.01 0.01 0.00 0.00 0.00 0.00 0.00 0.00 0.01 0.01 0.01 0.01 0.01 0.01 0.00 0.00 0.00 0.00 0.00 0.00 0.00 0.01 0.04 0.07 0.08 0.11 0.16 0.18 0.16 0.11 0.10
0.02 0.05 0.04 0.03 0.10 0.11 0.06 0.01 0.01 0.01 0.08 0.04 0.00 0.00 0.00 0.00 0.00 0.00 0.00 0.01 0.01 0.02 0.02 0.01 0.01 0.01 0.01 0.00 0.00 0.00 0.00 0.01 0.01 0.01 0.04 0.08 0.11 0.10 0.11 0.12 0.15 0.16 0.15 0.14

GFSNW_prec_precacc24_141.txt.gz
Total_Precipitation_Accumulation
0.13 0.34 0.66 0.57 0.38 0.59 1.09 1.40 1.16 0.43 0.39 1.14 1.57 0.84 0.12 0.00 0.00 0.00 0.00 0.00 0.00 0.00 0.00 0.00 0.00 0.02 0.03 0.00 0.00 0.00 0.00 0.03 0.01 0.00 0.00 0.01 0.02 0.02 0.05 0.12 0.09 0.06 0.07 0.03
0.08 0.14 0.30 0.76 0.69 0.77 1.24 1.26 0.88 0.45 0.67 1.12 0.84 0.30 0.04 0.00 0.00 0.01 0.02 0.01 0.00 0.00 0.00 0.00 0.00 0.03 0.05 0.06 0.03 0.05 0.10 0.15 0.12 0.07 0.06 0.03 0.01 0.01 0.04 0.10 0.18 0.13 0.18 0.04
0.12 0.10 0.15 0.29 0.78 0.95 1.19 1.13 0.96 1.06 1.08 0.68 0.33 0.20 0.11 0.05 0.00 0.02 0.05 0.08 0.01 0.01 0.00 0.01 0.01 0.08 0.09 0.08 0.14 0.20 0.26 0.29 0.30 0.19 0.08 0.08 0.10 0.06 0.11 0.22 0.35 0.18 0.08 0.02
0.29 0.18 0.13 0.20 0.36 1.07 1.25 1.25 0.87 0.70 1.05 0.69 0.20 0.10 0.08 0.03 0.01 0.03 0.08 0.33 0.11 0.03 0.05 0.01 0.03 0.09 0.11 0.13 0.23 0.31 0.50 0.61 0.46 0.27 0.17 0.14 0.12 0.08 0.07 0.19 0.22 0.30 0.10 0.05
0.27 0.32 0.31 0.18 0.32 0.79 1.24 1.14 0.54 0.38 0.26 0.18 0.18 0.16 0.10 0.04 0.01 0.04 0.06 0.10 0.02 0.08 0.10 0.03 0.04 0.10 0.13 0.07 0.05 0.18 0.33 0.49 0.47 0.30 0.35 0.27 0.16 0.06 0.04 0.13 0.16 0.24 0.17 0.09
0.18 0.30 0.43 0.38 0.33 0.78 1.47 1.11 0.43 0.22 0.23 0.14 0.31 0.25 0.08 0.04 0.04 0.03 0.02 0.06 0.13 0.11 0.04 0.11 0.09 0.13 0.11 0.11 0.10 0.16 0.18 0.15 0.22 0.20 0.21 0.31 0.24 0.03 0.03 0.05 0.09 0.13 0.19 0.10
0.17 0.21 0.37 0.49 0.44 0.64 0.68 0.44 0.49 0.52 0.27 0.17 0.17 0.04 0.02 0.01 0.03 0.08 0.05 0.06 0.17 0.07 0.09 0.13 0.17 0.18 0.10 0.06 0.04 0.07 0.16 0.21 0.40 0.29 0.20 0.50 0.13 0.01 0.01 0.02 0.02 0.02 0.02 0.01
0.14 0.19 0.29 0.37 0.51 0.66 0.48 0.33 0.40 0.65 0.59 0.13 0.09 0.04 0.03 0.04 0.05 0.06 0.08 0.06 0.11 0.16 0.38 0.65 0.50 0.35 0.39 0.18 0.07 0.04 0.03 0.12 0.36 0.34 0.22 0.12 0.02 0.00 0.00 0.01 0.01 0.00 0.00 0.00
0.25 0.20 0.27 0.23 0.47 0.85 0.43 0.34 0.32 0.46 0.56 0.35 0.11 0.09 0.10 0.13 0.14 0.20 0.14 0.12 0.07 0.22 0.56 0.81 0.53 0.34 0.25 0.14 0.11 0.07 0.11 0.15 0.30 0.28 0.23 0.11 0.00 0.00 0.00 0.01 0.04 0.00 0.00 0.00
0.43 0.27 0.24 0.23 0.44 0.62 0.47 0.30 0.21 0.44 0.70 0.20 0.21 0.23 0.14 0.09 0.13 0.28 0.20 0.26 0.24 0.23 0.57 0.68 0.45 0.15 0.05 0.12 0.13 0.16 0.17 0.22 0.31 0.26 0.24 0.09 0.00 0.00 0.00 0.03 0.01 0.00 0.00 0.00
0.33 0.22 0.19 0.34 0.43 0.47 0.54 0.33 0.15 0.22 0.37 0.14 0.11 0.24 0.30 0.23 0.20 0.23 0.28 0.49 0.47 0.53 0.47 0.46 0.31 0.17 0.04 0.02 0.01 0.03 0.15 0.25 0.22 0.27 0.34 0.15 0.00 0.00 0.01 0.00 0.00 0.00 0.00 0.00
0.43 0.20 0.16 0.42 0.54 0.48 0.58 0.35 0.21 0.22 0.35 0.23 0.10 0.10 0.18 0.22 0.21 0.26 0.28 0.39 0.40 0.49 0.41 0.27 0.21 0.18 0.09 0.04 0.02 0.01 0.02 0.03 0.08 0.17 0.18 0.04 0.00 0.00 0.00 0.00 0.00 0.00 0.00 0.00
0.48 0.32 0.25 0.52 0.56 0.48 0.53 0.29 0.22 0.38 0.60 0.36 0.19 0.22 0.16 0.18 0.27 0.23 0.44 0.28 0.19 0.31 0.40 0.46 0.35 0.23 0.10 0.08 0.04 0.04 0.01 0.01 0.02 0.04 0.00 0.00 0.00 0.00 0.00 0.00 0.00 0.00 0.00 0.00
0.47 0.66 0.53 0.53 0.42 0.50 0.54 0.42 0.36 0.44 0.61 0.46 0.21 0.30 0.20 0.18 0.48 0.18 0.21 0.18 0.12 0.20 0.39 0.54 0.38 0.24 0.18 0.17 0.13 0.12 0.11 0.12 0.16 0.14 0.05 0.03 0.01 0.01 0.03 0.04 0.02 0.00 0.00 0.00
0.52 0.78 0.69 0.59 0.62 0.61 0.73 0.54 0.47 0.50 0.55 0.58 0.35 0.39 0.31 0.17 0.60 0.33 0.26 0.21 0.21 0.33 0.32 0.36 0.30 0.14 0.13 0.15 0.12 0.04 0.01 0.04 0.07 0.09 0.12 0.09 0.11 0.07 0.07 0.07 0.02 0.01 0.00 0.00
0.55 0.66 0.65 0.88 0.88 0.75 0.91 1.04 0.57 0.43 0.45 0.44 0.31 0.40 0.45 0.24 0.62 0.53 0.31 0.46 0.27 0.39 0.38 0.18 0.16 0.18 0.24 0.17 0.08 0.04 0.02 0.02 0.04 0.06 0.05 0.03 0.02 0.01 0.01 0.03 0.03 0.02 0.00 0.00
0.37 0.37 0.39 0.58 0.43 0.38 0.30 0.32 0.20 0.28 0.55 0.78 0.53 0.47 0.44 0.35 0.45 0.64 0.45 0.60 0.39 0.24 0.25 0.19 0.17 0.19 0.16 0.15 0.07 0.03 0.01 0.01 0.01 0.00 0.00 0.00 0.00 0.00 0.00 0.00 0.00 0.00 0.00 0.00
0.18 0.20 0.21 0.31 0.34 0.37 0.24 0.20 0.21 0.23 0.37 0.33 0.24 0.29 0.51 0.36 0.27 0.35 0.27 0.30 0.30 0.22 0.15 0.11 0.09 0.12 0.20 0.16 0.03 0.01 0.01 0.00 0.01 0.01 0.00 0.00 0.00 0.00 0.00 0.00 0.00 0.00 0.00 0.00
0.29 0.36 0.46 0.52 0.39 0.22 0.12 0.04 0.35 0.33 0.24 0.22 0.09 0.19 0.52 0.45 0.25 0.17 0.13 0.12 0.25 0.20 0.08 0.05 0.09 0.12 0.14 0.03 0.04 0.04 0.02 0.02 0.02 0.02 0.03 0.02 0.01 0.01 0.01 0.00 0.00 0.00 0.00 0.00
0.38 0.34 0.37 0.35 0.20 0.19 0.20 0.36 0.59 0.67 0.43 0.23 0.10 0.11 0.36 0.42 0.24 0.14 0.11 0.10 0.13 0.12 0.05 0.04 0.10 0.07 0.02 0.01 0.03 0.05 0.03 0.03 0.03 0.02 0.06 0.06 0.04 0.01 0.00 0.00 0.00 0.00 0.00 0.00
0.22 0.25 0.37 0.43 0.41 0.29 0.33 0.39 0.27 0.19 0.31 0.11 0.03 0.05 0.29 0.24 0.26 0.13 0.10 0.14 0.10 0.13 0.08 0.04 0.06 0.03 0.04 0.01 0.01 0.02 0.01 0.02 0.01 0.01 0.01 0.00 0.00 0.00 0.00 0.00 0.00 0.00 0.00 0.00
0.12 0.18 0.27 0.35 0.25 0.25 0.20 0.19 0.11 0.09 0.18 0.06 0.04 0.06 0.25 0.19 0.17 0.18 0.10 0.14 0.16 0.16 0.14 0.07 0.09 0.05 0.02 0.02 0.00 0.01 0.00 0.00 0.00 0.00 0.00 0.00 0.00 0.00 0.00 0.00 0.00 0.00 0.00 0.00
0.15 0.21 0.13 0.20 0.09 0.20 0.06 0.03 0.03 0.13 0.16 0.06 0.07 0.15 0.15 0.21 0.26 0.27 0.19 0.04 0.15 0.16 0.44 0.30 0.07 0.03 0.00 0.00 0.00 0.00 0.00 0.00 0.00 0.00 0.00 0.00 0.00 0.00 0.00 0.00 0.01 0.02 0.03 0.02
0.29 0.22 0.18 0.19 0.15 0.05 0.07 0.14 0.37 0.20 0.40 0.36 0.28 0.17 0.28 0.26 0.09 0.12 0.15 0.06 0.02 0.04 0.07 0.05 0.01 0.01 0.00 0.00 0.00 0.00 0.00 0.01 0.01 0.00 0.00 0.00 0.00 0.01 0.02 0.04 0.04 0.04 0.04 0.06
0.36 0.28 0.29 0.08 0.21 0.13 0.07 0.04 0.02 0.01 0.28 0.66 0.42 0.24 0.27 0.12 0.03 0.05 0.01 0.04 0.02 0.00 0.01 0.02 0.00 0.00 0.00 0.00 0.00 0.00 0.00 0.00 0.00 0.00 0.00 0.00 0.00 0.02 0.05 0.08 0.08 0.08 0.09 0.12
0.32 0.21 0.14 0.06 0.08 0.11 0.04 0.01 0.01 0.02 0.44 0.48 0.20 0.06 0.06 0.03 0.00 0.00 0.00 0.00 0.00 0.01 0.01 0.01 0.01 0.01 0.00 0.00 0.00 0.00 0.00 0.00 0.00 0.00 0.00 0.00 0.01 0.03 0.06 0.10 0.12 0.12 0.10 0.10
0.09 0.07 0.04 0.03 0.09 0.08 0.03 0.00 0.01 0.01 0.13 0.04 0.00 0.00 0.00 0.00 0.00 0.00 0.00 0.01 0.01 0.02 0.02 0.01 0.01 0.01 0.00 0.00 0.00 0.00 0.00 0.00 0.00 0.00 0.01 0.03 0.04 0.05 0.07 0.08 0.10 0.12 0.14 0.15

GFSNW_prec_precacc24_144.txt.gz
Total_Precipitation_Accumulation
0.11 0.32 0.65 0.55 0.34 0.52 1.06 1.38 1.15 0.43 0.40 1.07 1.57 0.87 0.14 0.00 0.00 0.00 0.00 0.00 0.00 0.00 0.00 0.00 0.00 0.02 0.03 0.00 0.00 0.00 0.00 0.03 0.02 0.00 0.00 0.00 0.01 0.01 0.05 0.13 0.14 0.08 0.08 0.05
0.06 0.12 0.28 0.74 0.64 0.72 1.21 1.23 0.86 0.44 0.60 1.09 0.77 0.28 0.04 0.00 0.00 0.01 0.02 0.01 0.00 0.00 0.00 0.00 0.00 0.03 0.05 0.05 0.03 0.03 0.05 0.16 0.19 0.08 0.06 0.03 0.01 0.01 0.04 0.09 0.18 0.21 0.25 0.08
0.09 0.08 0.15 0.28 0.74 0.89 1.16 1.07 0.91 0.99 1.00 0.66 0.32 0.20 0.09 0.04 0.00 0.02 0.04 0.07 0.01 0.01 0.00 0.00 0.00 0.08 0.09 0.08 0.13 0.18 0.21 0.28 0.34 0.26 0.12 0.12 0.12 0.06 0.09 0.16 0.27 0.21 0.10 0.03
0.26 0.18 0.13 0.19 0.33 1.01 1.16 1.13 0.80 0.68 0.98 0.67 0.20 0.09 0.07 0.03 0.01 0.02 0.07 0.31 0.10 0.02 0.05 0.01 0.03 0.09 0.11 0.12 0.22 0.30 0.45 0.59 0.48 0.32 0.22 0.19 0.19 0.11 0.05 0.12 0.17 0.31 0.13 0.06
0.26 0.32 0.31 0.17 0.29 0.74 1.07 0.94 0.51 0.37 0.25 0.18 0.16 0.13 0.09 0.04 0.01 0.03 0.05 0.09 0.02 0.06 0.09 0.04 0.04 0.09 0.12 0.08 0.06 0.17 0.31 0.48 0.47 0.32 0.36 0.29 0.19 0.06 0.04 0.11 0.17 0.27 0.27 0.13
0.17 0.30 0.41 0.36 0.31 0.72 1.24 0.94 0.38 0.21 0.23 0.14 0.29 0.21 0.08 0.04 0.04 0.03 0.02 0.05 0.12 0.10 0.04 0.11 0.09 0.12 0.10 0.10 0.09 0.16 0.20 0.16 0.23 0.20 0.21 0.30 0.20 0.03 0.04 0.06 0.13 0.23 0.28 0.14
0.17 0.20 0.35 0.45 0.41 0.63 0.62 0.36 0.45 0.47 0.25 0.15 0.17 0.04 0.02 0.01 0.03 0.08 0.05 0.06 0.17 0.07 0.09 0.13 0.12 0.08 0.07 0.06 0.03 0.07 0.18 0.25 0.43 0.31 0.20 0.48 0.12 0.01 0.01 0.01 0.03 0.03 0.03 0.02
0.13 0.18 0.27 0.35 0.49 0.63 0.48 0.31 0.35 0.62 0.56 0.12 0.07 0.03 0.03 0.04 0.05 0.06 0.08 0.06 0.11 0.13 0.34 0.62 0.46 0.23 0.22 0.06 0.02 0.02 0.03 0.14 0.41 0.41 0.24 0.12 0.02 0.00 0.00 0.01 0.01 0.00 0.00 0.00
0.24 0.18 0.24 0.20 0.44 0.83 0.42 0.34 0.29 0.42 0.55 0.35 0.10 0.09 0.10 0.13 0.14 0.20 0.14 0.12 0.07 0.20 0.49 0.74 0.51 0.31 0.20 0.11 0.07 0.06 0.12 0.19 0.35 0.31 0.25 0.11 0.00 0.00 0.00 0.01 0.04 0.00 0.00 0.00
0.42 0.25 0.22 0.21 0.40 0.59 0.45 0.30 0.21 0.40 0.65 0.19 0.20 0.20 0.12 0.08 0.13 0.28 0.19 0.26 0.23 0.20 0.43 0.53 0.39 0.17 0.08 0.18 0.20 0.18 0.21 0.31 0.40 0.30 0.26 0.09 0.00 0.00 0.00 0.03 0.01 0.00 0.00 0.00
0.33 0.22 0.18 0.32 0.40 0.43 0.49 0.33 0.14 0.22 0.35 0.12 0.11 0.24 0.29 0.21 0.19 0.23 0.28 0.47 0.45 0.47 0.38 0.29 0.20 0.19 0.08 0.07 0.03 0.04 0.16 0.27 0.24 0.29 0.36 0.16 0.00 0.00 0.01 0.00 0.00 0.00 0.00 0.00
0.44 0.21 0.16 0.41 0.52 0.45 0.55 0.34 0.19 0.19 0.30 0.18 0.09 0.09 0.18 0.21 0.20 0.26 0.28 0.38 0.40 0.50 0.44 0.24 0.17 0.14 0.10 0.08 0.08 0.03 0.03 0.03 0.08 0.17 0.18 0.04 0.00 0.00 0.00 0.00 0.00 0.00 0.00 0.00
0.49 0.32 0.25 0.52 0.55 0.46 0.52 0.29 0.19 0.34 0.53 0.32 0.17 0.21 0.16 0.18 0.27 0.23 0.44 0.27 0.19 0.32 0.40 0.52 0.49 0.35 0.14 0.09 0.04 0.05 0.01 0.01 0.02 0.04 0.00 0.00 0.00 0.00 0.00 0.00 0.00 0.00 0.00 0.00
0.46 0.64 0.52 0.53 0.41 0.49 0.50 0.40 0.30 0.38 0.64 0.50 0.21 0.30 0.20 0.17 0.48 0.17 0.20 0.18 0.11 0.19 0.41 0.73 0.63 0.44 0.30 0.23 0.13 0.12 0.11 0.12 0.16 0.14 0.05 0.03 0.01 0.01 0.03 0.04 0.02 0.00 0.00 0.00
0.47 0.73 0.67 0.58 0.61 0.60 0.71 0.52 0.44 0.38 0.60 0.66 0.35 0.35 0.27 0.15 0.57 0.31 0.18 0.19 0.21 0.29 0.37 0.47 0.42 0.25 0.27 0.26 0.14 0.04 0.01 0.04 0.07 0.09 0.12 0.09 0.11 0.07 0.07 0.07 0.02 0.01 0.00 0.00
0.50 0.61 0.62 0.89 0.92 0.87 1.17 1.07 0.48 0.38 0.46 0.62 0.38 0.28 0.34 0.26 0.76 0.63 0.33 0.45 0.28 0.44 0.56 0.34 0.26 0.23 0.30 0.25 0.14 0.04 0.02 0.02 0.04 0.06 0.05 0.03 0.02 0.01 0.01 0.03 0.03 0.02 0.00 0.00
0.32 0.35 0.42 0.64 0.49 0.39 0.37 0.34 0.20 0.22 0.53 0.96 0.61 0.40 0.43 0.54 0.83 0.99 0.62 0.74 0.55 0.40 0.52 0.39 0.26 0.26 0.19 0.13 0.06 0.03 0.01 0.01 0.01 0.00 0.00 0.00 0.00 0.00 0.00 0.00 0.00 0.00 0.00 0.00
0.17 0.25 0.17 0.21 0.34 0.42 0.36 0.40 0.39 0.27 0.44 0.45 0.32 0.30 0.56 0.47 0.51 0.76 0.50 0.56 0.63 0.47 0.33 0.24 0.16 0.14 0.20 0.16 0.03 0.01 0.01 0.00 0.01 0.01 0.00 0.00 0.00 0.00 0.00 0.00 0.00 0.00 0.00 0.00
0.23 0.23 0.28 0.41 0.35 0.21 0.09 0.06 0.43 0.41 0.29 0.27 0.09 0.19 0.54 0.49 0.29 0.27 0.27 0.25 0.46 0.34 0.14 0.07 0.10 0.12 0.14 0.03 0.04 0.04 0.02 0.02 0.02 0.02 0.03 0.02 0.02 0.02 0.02 0.01 0.00 0.00 0.00 0.00
0.26 0.26 0.33 0.30 0.14 0.09 0.16 0.33 0.57 0.71 0.47 0.24 0.10 0.11 0.36 0.42 0.24 0.14 0.11 0.10 0.14 0.13 0.05 0.04 0.10 0.07 0.02 0.01 0.03 0.05 0.03 0.03 0.03 0.02 0.06 0.06 0.04 0.02 0.01 0.00 0.00 0.00 0.00 0.00
0.20 0.25 0.35 0.32 0.29 0.25 0.32 0.39 0.27 0.19 0.31 0.11 0.03 0.05 0.29 0.24 0.26 0.13 0.10 0.14 0.10 0.13 0.08 0.04 0.06 0.03 0.04 0.01 0.01 0.02 0.01 0.02 0.01 0.01 0.01 0.00 0.00 0.00 0.00 0.00 0.00 0.00 0.00 0.00
0.12 0.17 0.22 0.31 0.25 0.25 0.20 0.19 0.11 0.09 0.18 0.06 0.04 0.06 0.25 0.19 0.17 0.18 0.10 0.14 0.16 0.16 0.14 0.07 0.09 0.05 0.02 0.02 0.00 0.01 0.00 0.00 0.00 0.00 0.00 0.00 0.00 0.00 0.00 0.00 0.00 0.00 0.00 0.00
0.15 0.21 0.13 0.20 0.09 0.20 0.06 0.03 0.03 0.13 0.16 0.07 0.08 0.16 0.15 0.21 0.26 0.27 0.19 0.04 0.15 0.16 0.44 0.30 0.07 0.03 0.00 0.00 0.00 0.00 0.00 0.00 0.00 0.00 0.00 0.00 0.00 0.00 0.00 0.00 0.01 0.02 0.03 0.02
0.29 0.22 0.18 0.19 0.15 0.05 0.07 0.14 0.37 0.20 0.40 0.37 0.31 0.21 0.28 0.26 0.09 0.12 0.15 0.06 0.02 0.04 0.07 0.05 0.01 0.01 0.00 0.00 0.00 0.00 0.00 0.01 0.01 0.00 0.00 0.00 0.00 0.00 0.01 0.02 0.03 0.03 0.04 0.06
0.36 0.28 0.29 0.08 0.21 0.13 0.08 0.05 0.02 0.02 0.29 0.72 0.52 0.32 0.28 0.13 0.03 0.05 0.01 0.05 0.03 0.00 0.01 0.02 0.00 0.00 0.00 0.01 0.00 0.00 0.00 0.00 0.00 0.00 0.00 0.00 0.00 0.01 0.03 0.04 0.05 0.05 0.07 0.10
0.32 0.21 0.16 0.09 0.10 0.11 0.05 0.01 0.01 0.06 0.59 0.64 0.31 0.14 0.12 0.04 0.00 0.01 0.00 0.00 0.00 0.01 0.01 0.01 0.01 0.01 0.00 0.00 0.00 0.00 0.00 0.00 0.00 0.00 0.00 0.00 0.00 0.00 0.02 0.04 0.06 0.07 0.06 0.08
0.12 0.08 0.05 0.03 0.08 0.05 0.01 0.00 0.01 0.02 0.32 0.24 0.04 0.00 0.00 0.00 0.00 0.00 0.00 0.01 0.01 0.02 0.02 0.01 0.01 0.01 0.00 0.00 0.00 0.00 0.00 0.00 0.00 0.00 0.00 0.00 0.01 0.01 0.03 0.03 0.05 0.07 0.09 0.11

GFSNW_prec_precacc24_147.txt.gz
Total_Precipitation_Accumulation
0.01 0.08 0.31 0.35 0.24 0.45 1.03 1.38 1.15 0.46 0.47 1.14 1.73 0.93 0.15 0.00 0.00 0.00 0.00 0.00 0.00 0.00 0.00 0.00 0.00 0.02 0.03 0.00 0.00 0.00 0.00 0.04 0.03 0.00 0.00 0.00 0.00 0.00 0.03 0.09 0.13 0.10 0.13 0.08
0.01 0.01 0.11 0.51 0.50 0.53 1.07 1.20 0.86 0.43 0.59 1.11 0.78 0.29 0.04 0.00 0.00 0.01 0.02 0.01 0.00 0.00 0.00 0.00 0.00 0.03 0.05 0.05 0.03 0.03 0.03 0.13 0.15 0.04 0.03 0.02 0.01 0.01 0.01 0.06 0.19 0.26 0.30 0.12
0.02 0.02 0.04 0.21 0.69 0.82 1.04 0.97 0.85 0.96 0.92 0.63 0.31 0.18 0.09 0.03 0.00 0.02 0.04 0.07 0.01 0.00 0.00 0.00 0.00 0.08 0.09 0.08 0.13 0.19 0.20 0.25 0.31 0.23 0.10 0.12 0.12 0.06 0.08 0.16 0.31 0.26 0.13 0.05
0.03 0.04 0.06 0.16 0.30 0.97 1.11 1.00 0.71 0.66 0.92 0.60 0.19 0.09 0.07 0.03 0.01 0.01 0.06 0.30 0.10 0.02 0.04 0.01 0.03 0.09 0.11 0.12 0.23 0.30 0.44 0.58 0.48 0.32 0.22 0.18 0.18 0.11 0.05 0.11 0.17 0.32 0.15 0.08
0.02 0.09 0.17 0.14 0.25 0.68 1.00 0.81 0.45 0.36 0.25 0.17 0.16 0.12 0.08 0.04 0.01 0.02 0.04 0.08 0.02 0.05 0.08 0.04 0.05 0.10 0.13 0.08 0.07 0.18 0.32 0.48 0.47 0.32 0.36 0.28 0.19 0.06 0.04 0.11 0.16 0.25 0.23 0.09
0.02 0.04 0.28 0.32 0.26 0.64 1.09 0.72 0.31 0.21 0.22 0.13 0.26 0.18 0.07 0.04 0.04 0.03 0.02 0.05 0.11 0.09 0.04 0.10 0.08 0.11 0.09 0.09 0.09 0.14 0.20 0.17 0.26 0.22 0.21 0.31 0.21 0.03 0.04 0.06 0.13 0.23 0.28 0.14
0.03 0.09 0.24 0.42 0.38 0.60 0.56 0.29 0.32 0.43 0.24 0.15 0.16 0.04 0.02 0.01 0.03 0.08 0.05 0.06 0.17 0.07 0.09 0.13 0.12 0.08 0.07 0.06 0.03 0.06 0.17 0.23 0.42 0.30 0.19 0.48 0.12 0.01 0.01 0.01 0.03 0.03 0.03 0.02
0.04 0.12 0.22 0.31 0.47 0.62 0.48 0.26 0.25 0.52 0.51 0.12 0.07 0.03 0.03 0.04 0.05 0.06 0.08 0.06 0.10 0.12 0.31 0.60 0.44 0.23 0.22 0.06 0.01 0.01 0.02 0.15 0.42 0.40 0.23 0.12 0.02 0.00 0.00 0.01 0.01 0.00 0.00 0.00
0.14 0.16 0.22 0.18 0.41 0.81 0.42 0.34 0.25 0.30 0.48 0.33 0.10 0.09 0.10 0.13 0.14 0.20 0.14 0.12 0.07 0.19 0.48 0.69 0.46 0.29 0.19 0.10 0.05 0.01 0.02 0.10 0.33 0.31 0.30 0.12 0.00 0.00 0.00 0.01 0.04 0.00 0.00 0.00
0.34 0.24 0.21 0.20 0.38 0.57 0.44 0.30 0.21 0.36 0.56 0.19 0.19 0.19 0.12 0.08 0.13 0.28 0.19 0.26 0.23 0.20 0.42 0.51 0.37 0.16 0.08 0.16 0.13 0.12 0.18 0.28 0.35 0.26 0.29 0.10 0.00 0.00 0.00 0.03 0.01 0.00 0.00 0.00
0.32 0.21 0.17 0.31 0.38 0.40 0.48 0.33 0.14 0.22 0.33 0.12 0.10 0.23 0.28 0.20 0.19 0.22 0.28 0.45 0.43 0.45 0.34 0.28 0.19 0.14 0.07 0.06 0.03 0.04 0.17 0.36 0.38 0.43 0.54 0.20 0.00 0.00 0.01 0.00 0.00 0.00 0.00 0.00
0.45 0.21 0.15 0.39 0.49 0.39 0.51 0.34 0.19 0.19 0.31 0.19 0.09 0.09 0.17 0.20 0.19 0.24 0.27 0.37 0.38 0.48 0.44 0.23 0.15 0.09 0.06 0.07 0.08 0.05 0.07 0.04 0.09 0.18 0.21 0.06 0.00 0.00 0.00 0.00 0.00 0.00 0.00 0.00
0.50 0.34 0.26 0.52 0.53 0.42 0.50 0.30 0.18 0.33 0.55 0.33 0.17 0.21 0.16 0.18 0.27 0.21 0.38 0.26 0.19 0.30 0.38 0.50 0.44 0.30 0.13 0.09 0.04 0.05 0.02 0.01 0.03 0.04 0.00 0.00 0.00 0.00 0.00 0.00 0.00 0.00 0.00 0.00
0.47 0.67 0.55 0.55 0.42 0.49 0.50 0.43 0.30 0.40 0.65 0.50 0.21 0.30 0.20 0.17 0.48 0.17 0.20 0.18 0.11 0.19 0.40 0.71 0.58 0.42 0.30 0.27 0.18 0.16 0.14 0.16 0.16 0.14 0.05 0.03 0.01 0.01 0.03 0.04 0.02 0.00 0.00 0.00
0.44 0.73 0.68 0.59 0.62 0.60 0.67 0.52 0.43 0.37 0.59 0.62 0.34 0.35 0.27 0.15 0.57 0.31 0.18 0.19 0.21 0.29 0.38 0.41 0.30 0.20 0.25 0.26 0.22 0.08 0.02 0.06 0.08 0.09 0.12 0.09 0.11 0.07 0.07 0.07 0.02 0.01 0.00 0.00
0.44 0.58 0.61 0.89 0.92 0.85 1.20 1.10 0.47 0.35 0.33 0.61 0.42 0.28 0.34 0.24 0.75 0.60 0.29 0.38 0.27 0.39 0.46 0.28 0.19 0.22 0.33 0.34 0.18 0.05 0.02 0.02 0.05 0.08 0.05 0.03 0.02 0.01 0.01 0.03 0.03 0.02 0.00 0.00
0.28 0.31 0.41 0.63 0.51 0.53 0.62 0.41 0.21 0.26 0.47 0.91 0.59 0.32 0.27 0.38 0.82 1.00 0.65 0.69 0.60 0.44 0.52 0.40 0.26 0.27 0.31 0.27 0.07 0.03 0.03 0.05 0.03 0.01 0.00 0.00 0.00 0.00 0.00 0.00 0.00 0.00 0.00 0.00
0.13 0.21 0.15 0.22 0.45 0.48 0.38 0.43 0.43 0.36 0.49 0.46 0.35 0.20 0.36 0.45 0.83 1.05 0.70 0.74 0.83 0.58 0.39 0.28 0.18 0.19 0.37 0.30 0.03 0.01 0.01 0.01 0.02 0.01 0.00 0.00 0.00 0.00 0.00 0.00 0.00 0.00 0.00 0.00
0.15 0.19 0.18 0.33 0.29 0.16 0.06 0.08 0.42 0.55 0.30 0.27 0.09 0.13 0.47 0.47 0.43 0.55 0.50 0.39 0.58 0.45 0.20 0.12 0.20 0.21 0.20 0.05 0.05 0.04 0.02 0.02 0.02 0.02 0.03 0.02 0.02 0.02 0.02 0.01 0.00 0.00 0.00 0.00
0.15 0.16 0.14 0.12 0.05 0.06 0.07 0.11 0.38 0.68 0.44 0.27 0.11 0.11 0.36 0.41 0.25 0.18 0.17 0.16 0.20 0.20 0.12 0.11 0.16 0.10 0.03 0.01 0.03 0.05 0.03 0.03 0.03 0.02 0.06 0.06 0.04 0.02 0.01 0.00 0.00 0.00 0.00 0.01
0.12 0.19 0.29 0.20 0.07 0.14 0.23 0.30 0.21 0.17 0.30 0.11 0.03 0.05 0.29 0.24 0.26 0.13 0.10 0.14 0.10 0.14 0.09 0.06 0.07 0.03 0.04 0.01 0.01 0.02 0.01 0.02 0.01 0.01 0.01 0.00 0.00 0.00 0.00 0.00 0.00 0.00 0.00 0.00
0.12 0.17 0.16 0.15 0.14 0.23 0.20 0.19 0.11 0.09 0.18 0.06 0.04 0.06 0.25 0.19 0.17 0.18 0.10 0.14 0.16 0.16 0.14 0.07 0.09 0.05 0.02 0.02 0.00 0.01 0.00 0.00 0.00 0.00 0.00 0.00 0.00 0.00 0.00 0.00 0.00 0.00 0.00 0.00
0.15 0.21 0.12 0.18 0.09 0.20 0.06 0.03 0.03 0.13 0.16 0.07 0.08 0.16 0.15 0.21 0.26 0.27 0.19 0.04 0.15 0.16 0.44 0.30 0.07 0.03 0.00 0.00 0.00 0.00 0.00 0.00 0.00 0.00 0.00 0.00 0.00 0.00 0.00 0.00 0.00 0.00 0.01 0.01
0.29 0.22 0.18 0.19 0.15 0.05 0.07 0.14 0.37 0.20 0.40 0.37 0.31 0.24 0.28 0.26 0.09 0.12 0.15 0.06 0.02 0.05 0.07 0.05 0.01 0.01 0.00 0.00 0.00 0.00 0.00 0.01 0.01 0.00 0.00 0.00 0.00 0.00 0.00 0.00 0.00 0.01 0.02 0.04
0.36 0.28 0.29 0.08 0.21 0.13 0.08 0.06 0.03 0.02 0.29 0.75 0.58 0.40 0.31 0.14 0.03 0.05 0.02 0.06 0.04 0.00 0.01 0.02 0.00 0.00 0.01 0.02 0.02 0.00 0.00 0.00 0.00 0.00 0.00 0.00 0.00 0.00 0.01 0.01 0.02 0.02 0.04 0.06
0.33 0.22 0.16 0.09 0.10 0.10 0.05 0.01 0.01 0.06 0.64 0.73 0.38 0.22 0.18 0.06 0.00 0.01 0.00 0.00 0.00 0.01 0.01 0.01 0.01 0.01 0.01 0.01 0.00 0.00 0.00 0.00 0.00 0.00 0.00 0.00 0.00 0.00 0.01 0.02 0.02 0.03 0.03 0.05
0.12 0.08 0.04 0.03 0.07 0.04 0.01 0.00 0.01 0.04 0.46 0.45 0.14 0.03 0.01 0.00 0.00 0.00 0.00 0.01 0.01 0.01 0.02 0.01 0.01 0.01 0.00 0.00 0.00 0.00 0.00 0.00 0.00 0.00 0.00 0.00 0.01 0.01 0.01 0.02 0.02 0.03 0.06 0.07

GFSNW_prec_precacc24_150.txt.gz
Total_Precipitation_Accumulation
0.00 0.00 0.00 0.02 0.06 0.24 0.64 1.18 1.08 0.47 0.56 1.28 1.89 0.98 0.15 0.00 0.00 0.00 0.00 0.00 0.00 0.00 0.00 0.00 0.00 0.02 0.03 0.00 0.00 0.00 0.00 0.04 0.02 0.00 0.00 0.00 0.00 0.00 0.01 0.08 0.14 0.12 0.12 0.08
0.00 0.00 0.00 0.02 0.07 0.23 0.76 1.03 0.83 0.43 0.60 1.20 0.87 0.38 0.07 0.01 0.00 0.01 0.02 0.01 0.00 0.00 0.00 0.00 0.00 0.03 0.06 0.05 0.03 0.03 0.02 0.11 0.13 0.02 0.01 0.01 0.00 0.00 0.00 0.02 0.15 0.22 0.28 0.14
0.00 0.00 0.00 0.00 0.02 0.19 0.76 0.82 0.73 0.87 0.91 0.67 0.32 0.20 0.10 0.04 0.00 0.01 0.04 0.07 0.01 0.00 0.00 0.00 0.00 0.08 0.09 0.09 0.13 0.19 0.18 0.24 0.29 0.22 0.07 0.09 0.08 0.03 0.03 0.10 0.25 0.23 0.13 0.05
0.01 0.01 0.01 0.01 0.03 0.24 0.70 0.75 0.57 0.59 0.82 0.58 0.20 0.11 0.08 0.03 0.01 0.01 0.06 0.30 0.10 0.02 0.04 0.01 0.03 0.09 0.11 0.13 0.23 0.31 0.44 0.58 0.47 0.32 0.21 0.17 0.17 0.10 0.03 0.08 0.14 0.28 0.15 0.08
0.01 0.01 0.03 0.03 0.06 0.32 0.65 0.61 0.36 0.33 0.24 0.17 0.15 0.11 0.09 0.04 0.01 0.01 0.03 0.08 0.02 0.04 0.08 0.03 0.05 0.09 0.11 0.07 0.06 0.18 0.32 0.49 0.47 0.32 0.36 0.27 0.18 0.06 0.04 0.10 0.16 0.24 0.23 0.09
0.01 0.01 0.03 0.04 0.08 0.31 0.60 0.54 0.30 0.21 0.21 0.12 0.22 0.16 0.07 0.04 0.03 0.02 0.01 0.03 0.07 0.06 0.03 0.06 0.04 0.07 0.06 0.07 0.07 0.12 0.18 0.16 0.25 0.21 0.21 0.30 0.19 0.03 0.04 0.06 0.13 0.23 0.28 0.14
0.01 0.01 0.03 0.05 0.10 0.31 0.35 0.23 0.29 0.41 0.22 0.14 0.15 0.04 0.02 0.01 0.02 0.08 0.04 0.05 0.15 0.06 0.07 0.11 0.10 0.07 0.06 0.05 0.03 0.05 0.16 0.21 0.38 0.26 0.15 0.44 0.12 0.01 0.01 0.01 0.03 0.03 0.03 0.02
0.02 0.02 0.04 0.04 0.26 0.33 0.30 0.22 0.23 0.45 0.42 0.10 0.06 0.03 0.03 0.03 0.03 0.05 0.06 0.04 0.08 0.09 0.28 0.57 0.43 0.22 0.21 0.06 0.01 0.01 0.02 0.13 0.40 0.38 0.21 0.11 0.02 0.00 0.00 0.01 0.01 0.00 0.00 0.00
0.01 0.03 0.04 0.05 0.29 0.65 0.29 0.25 0.23 0.29 0.43 0.26 0.08 0.08 0.09 0.12 0.12 0.18 0.14 0.12 0.06 0.17 0.45 0.65 0.43 0.28 0.18 0.10 0.05 0.02 0.03 0.10 0.34 0.29 0.28 0.11 0.00 0.00 0.00 0.01 0.04 0.00 0.00 0.00
0.02 0.02 0.10 0.13 0.32 0.53 0.43 0.29 0.20 0.35 0.54 0.18 0.17 0.17 0.10 0.07 0.12 0.26 0.18 0.25 0.22 0.19 0.40 0.49 0.36 0.16 0.07 0.15 0.13 0.12 0.17 0.29 0.38 0.18 0.21 0.05 0.00 0.00 0.01 0.04 0.01 0.00 0.00 0.00
0.04 0.02 0.09 0.28 0.36 0.39 0.48 0.33 0.14 0.22 0.32 0.11 0.10 0.22 0.26 0.18 0.16 0.21 0.25 0.42 0.39 0.42 0.31 0.26 0.18 0.14 0.06 0.05 0.02 0.04 0.14 0.28 0.32 0.38 0.51 0.21 0.01 0.01 0.01 0.00 0.00 0.00 0.00 0.00
0.35 0.11 0.10 0.37 0.47 0.38 0.51 0.34 0.19 0.19 0.31 0.18 0.09 0.09 0.17 0.19 0.17 0.21 0.23 0.34 0.35 0.45 0.40 0.20 0.13 0.07 0.05 0.06 0.08 0.05 0.07 0.04 0.08 0.16 0.19 0.06 0.01 0.02 0.01 0.00 0.00 0.00 0.00 0.00
0.51 0.33 0.24 0.50 0.52 0.40 0.49 0.30 0.18 0.32 0.56 0.33 0.17 0.21 0.16 0.18 0.27 0.21 0.36 0.23 0.17 0.28 0.32 0.42 0.38 0.26 0.11 0.08 0.04 0.05 0.02 0.03 0.05 0.06 0.00 0.00 0.00 0.00 0.00 0.00 0.00 0.00 0.00 0.00
0.47 0.68 0.56 0.55 0.43 0.47 0.51 0.44 0.30 0.40 0.67 0.51 0.21 0.30 0.20 0.17 0.48 0.17 0.20 0.16 0.09 0.17 0.38 0.66 0.48 0.36 0.27 0.25 0.17 0.16 0.13 0.16 0.18 0.16 0.05 0.03 0.01 0.01 0.03 0.04 0.02 0.00 0.00 0.00
0.44 0.75 0.71 0.61 0.61 0.58 0.67 0.52 0.44 0.37 0.61 0.59 0.32 0.35 0.27 0.15 0.57 0.31 0.18 0.18 0.20 0.28 0.38 0.41 0.29 0.17 0.22 0.21 0.18 0.07 0.02 0.06 0.10 0.10 0.12 0.12 0.13 0.07 0.07 0.08 0.02 0.01 0.00 0.00
0.43 0.56 0.61 0.88 0.91 0.81 1.18 1.08 0.46 0.34 0.33 0.64 0.43 0.27 0.34 0.24 0.74 0.60 0.28 0.37 0.26 0.40 0.48 0.27 0.16 0.12 0.22 0.28 0.16 0.05 0.03 0.03 0.05 0.08 0.05 0.04 0.03 0.02 0.01 0.03 0.03 0.02 0.00 0.00
0.26 0.29 0.39 0.63 0.49 0.52 0.63 0.40 0.22 0.32 0.56 1.03 0.54 0.25 0.25 0.38 0.81 1.00 0.67 0.68 0.63 0.46 0.49 0.30 0.13 0.15 0.28 0.24 0.07 0.03 0.03 0.06 0.06 0.04 0.02 0.00 0.00 0.00 0.00 0.00 0.00 0.00 0.00 0.00
0.12 0.18 0.14 0.21 0.43 0.53 0.47 0.46 0.44 0.53 0.77 0.57 0.33 0.14 0.18 0.32 0.82 1.22 0.85 0.88 0.89 0.59 0.37 0.23 0.14 0.18 0.38 0.31 0.04 0.01 0.01 0.01 0.03 0.04 0.03 0.00 0.00 0.00 0.00 0.00 0.00 0.00 0.00 0.00
0.11 0.15 0.15 0.33 0.36 0.26 0.09 0.09 0.34 0.59 0.37 0.20 0.05 0.06 0.26 0.26 0.35 0.69 0.60 0.42 0.57 0.42 0.20 0.13 0.22 0.22 0.23 0.05 0.05 0.04 0.02 0.02 0.02 0.02 0.03 0.02 0.02 0.02 0.02 0.01 0.00 0.00 0.00 0.00
0.11 0.18 0.13 0.14 0.07 0.05 0.02 0.04 0.10 0.42 0.27 0.13 0.10 0.06 0.21 0.31 0.22 0.18 0.26 0.28 0.23 0.25 0.15 0.15 0.23 0.11 0.03 0.01 0.03 0.05 0.03 0.03 0.03 0.02 0.06 0.06 0.04 0.02 0.01 0.00 0.00 0.00 0.00 0.01
0.10 0.12 0.12 0.11 0.02 0.07 0.06 0.10 0.05 0.07 0.15 0.06 0.03 0.04 0.27 0.23 0.27 0.14 0.12 0.16 0.12 0.16 0.13 0.12 0.09 0.03 0.04 0.01 0.01 0.02 0.01 0.02 0.01 0.01 0.01 0.00 0.00 0.00 0.00 0.00 0.00 0.00 0.00 0.00
0.10 0.15 0.12 0.05 0.05 0.13 0.11 0.16 0.10 0.08 0.17 0.06 0.03 0.06 0.25 0.19 0.17 0.18 0.10 0.15 0.16 0.16 0.14 0.08 0.09 0.05 0.02 0.02 0.00 0.01 0.00 0.00 0.00 0.00 0.00 0.00 0.00 0.00 0.00 0.00 0.00 0.00 0.00 0.00
0.14 0.22 0.09 0.14 0.08 0.19 0.06 0.03 0.03 0.13 0.16 0.07 0.08 0.16 0.15 0.21 0.26 0.27 0.19 0.04 0.15 0.17 0.45 0.31 0.07 0.03 0.00 0.00 0.00 0.00 0.00 0.00 0.00 0.00 0.00 0.00 0.00 0.00 0.00 0.00 0.00 0.00 0.00 0.00
0.29 0.21 0.15 0.19 0.15 0.05 0.07 0.14 0.37 0.20 0.40 0.37 0.31 0.25 0.29 0.26 0.09 0.12 0.16 0.06 0.03 0.05 0.07 0.05 0.01 0.00 0.00 0.00 0.00 0.00 0.00 0.01 0.01 0.00 0.00 0.00 0.00 0.00 0.00 0.00 0.00 0.00 0.00 0.01
0.36 0.28 0.29 0.08 0.21 0.13 0.07 0.06 0.02 0.02 0.29 0.75 0.59 0.42 0.32 0.14 0.03 0.05 0.02 0.06 0.04 0.00 0.01 0.02 0.00 0.00 0.01 0.02 0.02 0.01 0.00 0.00 0.00 0.00 0.00 0.00 0.00 0.00 0.01 0.01 0.01 0.01 0.02 0.03
0.33 0.22 0.16 0.09 0.09 0.09 0.04 0.01 0.01 0.06 0.64 0.75 0.41 0.25 0.22 0.07 0.00 0.02 0.00 0.00 0.00 0.01 0.01 0.01 0.00 0.00 0.01 0.01 0.00 0.00 0.00 0.00 0.00 0.00 0.00 0.00 0.00 0.00 0.01 0.01 0.01 0.01 0.02 0.03
0.12 0.08 0.04 0.03 0.07 0.04 0.01 0.00 0.01 0.05 0.49 0.51 0.20 0.08 0.04 0.03 0.01 0.01 0.00 0.00 0.01 0.01 0.02 0.01 0.01 0.00 0.00 0.00 0.00 0.00 0.00 0.00 0.00 0.00 0.00 0.00 0.00 0.00 0.01 0.01 0.02 0.02 0.03 0.04